<?xml version="1.0" encoding="UTF-8" standalone="no" ?>
<gpx xmlns="http://www.topografix.com/GPX/1/1" xmlns:xsi="http://www.w3.org/2001/XMLSchema-instance" xsi:schemaLocation="http://www.topografix.com/GPX/1/1 http://www.topografix.com/GPX/1/1/gpx.xsd" version="1.1" creator="VisuGPX - https://www.visugpx.com">
  <metadata>
    <name>Randonnée St Pierre du Vauvray</name>
    <desc><![CDATA[Circuit au départ de la gare de St Pierre du Vauvray avec un détour par Heudebouville et Venables]]></desc>
  </metadata>
  <trk>
    <name><![CDATA[Randonnée St Pierre du Vauvray_1]]></name>
    <trkseg>
      <trkpt lat="49.23403" lon="1.22497">
        <ele>13</ele>
        <time>2017-04-27T09:22:23Z</time>
      </trkpt>
      <trkpt lat="49.23397" lon="1.22499">
        <ele>13</ele>
        <time>2017-04-27T09:22:23Z</time>
      </trkpt>
      <trkpt lat="49.23393" lon="1.22504">
        <ele>13</ele>
        <time>2017-04-27T09:22:23Z</time>
      </trkpt>
      <trkpt lat="49.23392" lon="1.225">
        <ele>13</ele>
        <time>2017-04-27T09:22:23Z</time>
      </trkpt>
      <trkpt lat="49.23389" lon="1.22494">
        <ele>13</ele>
        <time>2017-04-27T09:27:35Z</time>
      </trkpt>
      <trkpt lat="49.23388" lon="1.22494">
        <ele>13</ele>
        <time>2017-04-27T09:27:35Z</time>
      </trkpt>
      <trkpt lat="49.23388" lon="1.22494">
        <ele>13</ele>
        <time>2017-04-27T09:27:35Z</time>
      </trkpt>
      <trkpt lat="49.23382" lon="1.22489">
        <ele>13</ele>
        <time>2017-04-27T09:27:35Z</time>
      </trkpt>
      <trkpt lat="49.23378" lon="1.22485">
        <ele>13</ele>
        <time>2017-04-27T09:27:35Z</time>
      </trkpt>
      <trkpt lat="49.23374" lon="1.22483">
        <ele>13</ele>
        <time>2017-04-27T09:27:51Z</time>
      </trkpt>
      <trkpt lat="49.2337" lon="1.2248">
        <ele>13</ele>
        <time>2017-04-27T09:27:51Z</time>
      </trkpt>
      <trkpt lat="49.23365" lon="1.22478">
        <ele>13</ele>
        <time>2017-04-27T09:27:51Z</time>
      </trkpt>
      <trkpt lat="49.23362" lon="1.22476">
        <ele>13</ele>
        <time>2017-04-27T09:27:51Z</time>
      </trkpt>
      <trkpt lat="49.23357" lon="1.22476">
        <ele>13</ele>
        <time>2017-04-27T09:28:07Z</time>
      </trkpt>
      <trkpt lat="49.2335" lon="1.2247">
        <ele>13</ele>
        <time>2017-04-27T09:28:07Z</time>
      </trkpt>
      <trkpt lat="49.23346" lon="1.2247">
        <ele>13</ele>
        <time>2017-04-27T09:28:07Z</time>
      </trkpt>
      <trkpt lat="49.23343" lon="1.22472">
        <ele>13</ele>
        <time>2017-04-27T09:28:07Z</time>
      </trkpt>
      <trkpt lat="49.2334" lon="1.2247">
        <ele>13</ele>
        <time>2017-04-27T09:28:23Z</time>
      </trkpt>
      <trkpt lat="49.23335" lon="1.22467">
        <ele>13</ele>
        <time>2017-04-27T09:28:23Z</time>
      </trkpt>
      <trkpt lat="49.2333" lon="1.22463">
        <ele>13</ele>
        <time>2017-04-27T09:28:23Z</time>
      </trkpt>
      <trkpt lat="49.23326" lon="1.22462">
        <ele>13</ele>
        <time>2017-04-27T09:28:23Z</time>
      </trkpt>
      <trkpt lat="49.23321" lon="1.22459">
        <ele>13</ele>
        <time>2017-04-27T09:28:39Z</time>
      </trkpt>
      <trkpt lat="49.23316" lon="1.22457">
        <ele>13</ele>
        <time>2017-04-27T09:28:39Z</time>
      </trkpt>
      <trkpt lat="49.2331" lon="1.22457">
        <ele>13</ele>
        <time>2017-04-27T09:28:39Z</time>
      </trkpt>
      <trkpt lat="49.23305" lon="1.22455">
        <ele>13</ele>
        <time>2017-04-27T09:28:39Z</time>
      </trkpt>
      <trkpt lat="49.23301" lon="1.22455">
        <ele>13</ele>
        <time>2017-04-27T09:28:55Z</time>
      </trkpt>
      <trkpt lat="49.23298" lon="1.22453">
        <ele>13</ele>
        <time>2017-04-27T09:28:55Z</time>
      </trkpt>
      <trkpt lat="49.23294" lon="1.22452">
        <ele>13</ele>
        <time>2017-04-27T09:28:55Z</time>
      </trkpt>
      <trkpt lat="49.23289" lon="1.22451">
        <ele>13</ele>
        <time>2017-04-27T09:28:55Z</time>
      </trkpt>
      <trkpt lat="49.23287" lon="1.2245">
        <ele>13</ele>
        <time>2017-04-27T09:29:11Z</time>
      </trkpt>
      <trkpt lat="49.23281" lon="1.22446">
        <ele>13</ele>
        <time>2017-04-27T09:29:11Z</time>
      </trkpt>
      <trkpt lat="49.23276" lon="1.22444">
        <ele>13</ele>
        <time>2017-04-27T09:29:11Z</time>
      </trkpt>
      <trkpt lat="49.2327" lon="1.22441">
        <ele>13</ele>
        <time>2017-04-27T09:29:11Z</time>
      </trkpt>
      <trkpt lat="49.23266" lon="1.2244">
        <ele>13</ele>
        <time>2017-04-27T09:29:27Z</time>
      </trkpt>
      <trkpt lat="49.23261" lon="1.22441">
        <ele>13</ele>
        <time>2017-04-27T09:29:27Z</time>
      </trkpt>
      <trkpt lat="49.23255" lon="1.22439">
        <ele>13</ele>
        <time>2017-04-27T09:29:27Z</time>
      </trkpt>
      <trkpt lat="49.2325" lon="1.22437">
        <ele>13</ele>
        <time>2017-04-27T09:29:27Z</time>
      </trkpt>
      <trkpt lat="49.23246" lon="1.22435">
        <ele>13</ele>
        <time>2017-04-27T09:29:43Z</time>
      </trkpt>
      <trkpt lat="49.23242" lon="1.22433">
        <ele>13</ele>
        <time>2017-04-27T09:29:43Z</time>
      </trkpt>
      <trkpt lat="49.23239" lon="1.22429">
        <ele>13</ele>
        <time>2017-04-27T09:29:43Z</time>
      </trkpt>
      <trkpt lat="49.23234" lon="1.22426">
        <ele>13</ele>
        <time>2017-04-27T09:29:43Z</time>
      </trkpt>
      <trkpt lat="49.23229" lon="1.22425">
        <ele>13</ele>
        <time>2017-04-27T09:29:59Z</time>
      </trkpt>
      <trkpt lat="49.23225" lon="1.22424">
        <ele>13</ele>
        <time>2017-04-27T09:29:59Z</time>
      </trkpt>
      <trkpt lat="49.23219" lon="1.22423">
        <ele>13</ele>
        <time>2017-04-27T09:29:59Z</time>
      </trkpt>
      <trkpt lat="49.23215" lon="1.22422">
        <ele>13</ele>
        <time>2017-04-27T09:29:59Z</time>
      </trkpt>
      <trkpt lat="49.23206" lon="1.2242">
        <ele>13</ele>
        <time>2017-04-27T09:30:15Z</time>
      </trkpt>
      <trkpt lat="49.23201" lon="1.2242">
        <ele>13</ele>
        <time>2017-04-27T09:30:15Z</time>
      </trkpt>
      <trkpt lat="49.23196" lon="1.2242">
        <ele>13</ele>
        <time>2017-04-27T09:30:15Z</time>
      </trkpt>
      <trkpt lat="49.23192" lon="1.22419">
        <ele>13</ele>
        <time>2017-04-27T09:30:15Z</time>
      </trkpt>
      <trkpt lat="49.23188" lon="1.22417">
        <ele>13</ele>
        <time>2017-04-27T09:30:31Z</time>
      </trkpt>
      <trkpt lat="49.23185" lon="1.22416">
        <ele>13</ele>
        <time>2017-04-27T09:30:31Z</time>
      </trkpt>
      <trkpt lat="49.23181" lon="1.22415">
        <ele>13</ele>
        <time>2017-04-27T09:30:31Z</time>
      </trkpt>
      <trkpt lat="49.23177" lon="1.22415">
        <ele>13</ele>
        <time>2017-04-27T09:30:31Z</time>
      </trkpt>
      <trkpt lat="49.23173" lon="1.22413">
        <ele>13</ele>
        <time>2017-04-27T09:30:47Z</time>
      </trkpt>
      <trkpt lat="49.23167" lon="1.22411">
        <ele>13</ele>
        <time>2017-04-27T09:30:47Z</time>
      </trkpt>
      <trkpt lat="49.23161" lon="1.2241">
        <ele>13</ele>
        <time>2017-04-27T09:30:47Z</time>
      </trkpt>
      <trkpt lat="49.23155" lon="1.22409">
        <ele>13</ele>
        <time>2017-04-27T09:30:47Z</time>
      </trkpt>
      <trkpt lat="49.2315" lon="1.22407">
        <ele>13</ele>
        <time>2017-04-27T09:31:03Z</time>
      </trkpt>
      <trkpt lat="49.23144" lon="1.2241">
        <ele>13</ele>
        <time>2017-04-27T09:31:03Z</time>
      </trkpt>
      <trkpt lat="49.23139" lon="1.22414">
        <ele>13</ele>
        <time>2017-04-27T09:31:03Z</time>
      </trkpt>
      <trkpt lat="49.23135" lon="1.22418">
        <ele>13</ele>
        <time>2017-04-27T09:31:03Z</time>
      </trkpt>
      <trkpt lat="49.23133" lon="1.22424">
        <ele>13</ele>
        <time>2017-04-27T09:31:19Z</time>
      </trkpt>
      <trkpt lat="49.23132" lon="1.22433">
        <ele>13</ele>
        <time>2017-04-27T09:31:19Z</time>
      </trkpt>
      <trkpt lat="49.23131" lon="1.22437">
        <ele>13</ele>
        <time>2017-04-27T09:31:19Z</time>
      </trkpt>
      <trkpt lat="49.23131" lon="1.22438">
        <ele>13</ele>
        <time>2017-04-27T09:31:19Z</time>
      </trkpt>
      <trkpt lat="49.23129" lon="1.22443">
        <ele>13</ele>
        <time>2017-04-27T09:31:35Z</time>
      </trkpt>
      <trkpt lat="49.23126" lon="1.22455">
        <ele>13</ele>
        <time>2017-04-27T09:31:35Z</time>
      </trkpt>
      <trkpt lat="49.23124" lon="1.22463">
        <ele>13</ele>
        <time>2017-04-27T09:31:35Z</time>
      </trkpt>
      <trkpt lat="49.23122" lon="1.2247">
        <ele>13</ele>
        <time>2017-04-27T09:31:35Z</time>
      </trkpt>
      <trkpt lat="49.23118" lon="1.22471">
        <ele>13</ele>
        <time>2017-04-27T09:31:51Z</time>
      </trkpt>
      <trkpt lat="49.23112" lon="1.22465">
        <ele>13</ele>
        <time>2017-04-27T09:31:51Z</time>
      </trkpt>
      <trkpt lat="49.23107" lon="1.22462">
        <ele>13</ele>
        <time>2017-04-27T09:31:51Z</time>
      </trkpt>
      <trkpt lat="49.23105" lon="1.22457">
        <ele>12</ele>
        <time>2017-04-27T09:31:51Z</time>
      </trkpt>
      <trkpt lat="49.23105" lon="1.22451">
        <ele>12</ele>
        <time>2017-04-27T09:32:07Z</time>
      </trkpt>
      <trkpt lat="49.23106" lon="1.22442">
        <ele>12</ele>
        <time>2017-04-27T09:32:07Z</time>
      </trkpt>
      <trkpt lat="49.23107" lon="1.22435">
        <ele>12</ele>
        <time>2017-04-27T09:32:07Z</time>
      </trkpt>
      <trkpt lat="49.23107" lon="1.22429">
        <ele>12</ele>
        <time>2017-04-27T09:32:07Z</time>
      </trkpt>
      <trkpt lat="49.23108" lon="1.22423">
        <ele>12</ele>
        <time>2017-04-27T09:32:39Z</time>
      </trkpt>
      <trkpt lat="49.23108" lon="1.22417">
        <ele>12</ele>
        <time>2017-04-27T09:32:39Z</time>
      </trkpt>
      <trkpt lat="49.23107" lon="1.2241">
        <ele>12</ele>
        <time>2017-04-27T09:32:39Z</time>
      </trkpt>
      <trkpt lat="49.23108" lon="1.22366">
        <ele>14</ele>
        <time>2017-04-27T09:32:39Z</time>
      </trkpt>
      <trkpt lat="49.2311" lon="1.22349">
        <ele>14</ele>
        <time>2017-04-27T09:32:55Z</time>
      </trkpt>
      <trkpt lat="49.2311" lon="1.22343">
        <ele>14</ele>
        <time>2017-04-27T09:32:55Z</time>
      </trkpt>
      <trkpt lat="49.23112" lon="1.22339">
        <ele>14</ele>
        <time>2017-04-27T09:32:55Z</time>
      </trkpt>
      <trkpt lat="49.23115" lon="1.22335">
        <ele>14</ele>
        <time>2017-04-27T09:32:55Z</time>
      </trkpt>
      <trkpt lat="49.23119" lon="1.22331">
        <ele>14</ele>
        <time>2017-04-27T09:33:11Z</time>
      </trkpt>
      <trkpt lat="49.23121" lon="1.22327">
        <ele>14</ele>
        <time>2017-04-27T09:33:11Z</time>
      </trkpt>
      <trkpt lat="49.23124" lon="1.22321">
        <ele>14</ele>
        <time>2017-04-27T09:33:11Z</time>
      </trkpt>
      <trkpt lat="49.23126" lon="1.22316">
        <ele>12</ele>
        <time>2017-04-27T09:33:11Z</time>
      </trkpt>
      <trkpt lat="49.2313" lon="1.22313">
        <ele>12</ele>
        <time>2017-04-27T09:33:27Z</time>
      </trkpt>
      <trkpt lat="49.23131" lon="1.22306">
        <ele>12</ele>
        <time>2017-04-27T09:33:27Z</time>
      </trkpt>
      <trkpt lat="49.2313" lon="1.223">
        <ele>12</ele>
        <time>2017-04-27T09:33:27Z</time>
      </trkpt>
      <trkpt lat="49.23126" lon="1.223">
        <ele>12</ele>
        <time>2017-04-27T09:33:27Z</time>
      </trkpt>
      <trkpt lat="49.23121" lon="1.22301">
        <ele>14</ele>
        <time>2017-04-27T09:33:43Z</time>
      </trkpt>
      <trkpt lat="49.23116" lon="1.22304">
        <ele>14</ele>
        <time>2017-04-27T09:33:43Z</time>
      </trkpt>
      <trkpt lat="49.23111" lon="1.22306">
        <ele>14</ele>
        <time>2017-04-27T09:33:43Z</time>
      </trkpt>
      <trkpt lat="49.23106" lon="1.22307">
        <ele>14</ele>
        <time>2017-04-27T09:33:43Z</time>
      </trkpt>
      <trkpt lat="49.23101" lon="1.22308">
        <ele>14</ele>
        <time>2017-04-27T09:33:59Z</time>
      </trkpt>
      <trkpt lat="49.23099" lon="1.22309">
        <ele>14</ele>
        <time>2017-04-27T09:33:59Z</time>
      </trkpt>
      <trkpt lat="49.23094" lon="1.22309">
        <ele>14</ele>
        <time>2017-04-27T09:33:59Z</time>
      </trkpt>
      <trkpt lat="49.2309" lon="1.2231">
        <ele>14</ele>
        <time>2017-04-27T09:33:59Z</time>
      </trkpt>
      <trkpt lat="49.23086" lon="1.22309">
        <ele>14</ele>
        <time>2017-04-27T09:34:15Z</time>
      </trkpt>
      <trkpt lat="49.23082" lon="1.22311">
        <ele>14</ele>
        <time>2017-04-27T09:34:15Z</time>
      </trkpt>
      <trkpt lat="49.23077" lon="1.2231">
        <ele>14</ele>
        <time>2017-04-27T09:34:15Z</time>
      </trkpt>
      <trkpt lat="49.23071" lon="1.2231">
        <ele>14</ele>
        <time>2017-04-27T09:34:15Z</time>
      </trkpt>
      <trkpt lat="49.23067" lon="1.22307">
        <ele>14</ele>
        <time>2017-04-27T09:34:31Z</time>
      </trkpt>
      <trkpt lat="49.23064" lon="1.22305">
        <ele>14</ele>
        <time>2017-04-27T09:34:31Z</time>
      </trkpt>
      <trkpt lat="49.23062" lon="1.22302">
        <ele>14</ele>
        <time>2017-04-27T09:34:31Z</time>
      </trkpt>
      <trkpt lat="49.2306" lon="1.22297">
        <ele>14</ele>
        <time>2017-04-27T09:34:31Z</time>
      </trkpt>
      <trkpt lat="49.23055" lon="1.22287">
        <ele>14</ele>
        <time>2017-04-27T09:34:47Z</time>
      </trkpt>
      <trkpt lat="49.23053" lon="1.22278">
        <ele>14</ele>
        <time>2017-04-27T09:34:47Z</time>
      </trkpt>
      <trkpt lat="49.23052" lon="1.22272">
        <ele>14</ele>
        <time>2017-04-27T09:34:47Z</time>
      </trkpt>
      <trkpt lat="49.23051" lon="1.22267">
        <ele>14</ele>
        <time>2017-04-27T09:34:47Z</time>
      </trkpt>
      <trkpt lat="49.23049" lon="1.22257">
        <ele>14</ele>
        <time>2017-04-27T09:35:07Z</time>
      </trkpt>
      <trkpt lat="49.2305" lon="1.22256">
        <ele>14</ele>
        <time>2017-04-27T09:35:07Z</time>
      </trkpt>
      <trkpt lat="49.23051" lon="1.22254">
        <ele>14</ele>
        <time>2017-04-27T09:35:07Z</time>
      </trkpt>
      <trkpt lat="49.23053" lon="1.22247">
        <ele>14</ele>
        <time>2017-04-27T09:35:07Z</time>
      </trkpt>
      <trkpt lat="49.23046" lon="1.22238">
        <ele>14</ele>
        <time>2017-04-27T09:35:07Z</time>
      </trkpt>
      <trkpt lat="49.23044" lon="1.22234">
        <ele>14</ele>
        <time>2017-04-27T09:35:23Z</time>
      </trkpt>
      <trkpt lat="49.2304" lon="1.2223">
        <ele>14</ele>
        <time>2017-04-27T09:35:23Z</time>
      </trkpt>
      <trkpt lat="49.23038" lon="1.2222">
        <ele>14</ele>
        <time>2017-04-27T09:35:23Z</time>
      </trkpt>
      <trkpt lat="49.23035" lon="1.22213">
        <ele>14</ele>
        <time>2017-04-27T09:35:23Z</time>
      </trkpt>
      <trkpt lat="49.2303" lon="1.22195">
        <ele>23</ele>
        <time>2017-04-27T09:35:43Z</time>
      </trkpt>
      <trkpt lat="49.23029" lon="1.22188">
        <ele>23</ele>
        <time>2017-04-27T09:35:43Z</time>
      </trkpt>
      <trkpt lat="49.23033" lon="1.22187">
        <ele>23</ele>
        <time>2017-04-27T09:35:43Z</time>
      </trkpt>
      <trkpt lat="49.23036" lon="1.22186">
        <ele>23</ele>
        <time>2017-04-27T09:35:43Z</time>
      </trkpt>
      <trkpt lat="49.23041" lon="1.22186">
        <ele>23</ele>
        <time>2017-04-27T09:35:43Z</time>
      </trkpt>
      <trkpt lat="49.23047" lon="1.22185">
        <ele>18</ele>
        <time>2017-04-27T09:35:59Z</time>
      </trkpt>
      <trkpt lat="49.23053" lon="1.22185">
        <ele>18</ele>
        <time>2017-04-27T09:35:59Z</time>
      </trkpt>
      <trkpt lat="49.23058" lon="1.22183">
        <ele>18</ele>
        <time>2017-04-27T09:35:59Z</time>
      </trkpt>
      <trkpt lat="49.23061" lon="1.22185">
        <ele>18</ele>
        <time>2017-04-27T09:35:59Z</time>
      </trkpt>
      <trkpt lat="49.23066" lon="1.22186">
        <ele>18</ele>
        <time>2017-04-27T09:36:15Z</time>
      </trkpt>
      <trkpt lat="49.23069" lon="1.22186">
        <ele>18</ele>
        <time>2017-04-27T09:36:15Z</time>
      </trkpt>
      <trkpt lat="49.23073" lon="1.22185">
        <ele>18</ele>
        <time>2017-04-27T09:36:15Z</time>
      </trkpt>
      <trkpt lat="49.23079" lon="1.22183">
        <ele>18</ele>
        <time>2017-04-27T09:36:15Z</time>
      </trkpt>
      <trkpt lat="49.23084" lon="1.22178">
        <ele>18</ele>
        <time>2017-04-27T09:36:31Z</time>
      </trkpt>
      <trkpt lat="49.23086" lon="1.22179">
        <ele>18</ele>
        <time>2017-04-27T09:36:31Z</time>
      </trkpt>
      <trkpt lat="49.23091" lon="1.2218">
        <ele>18</ele>
        <time>2017-04-27T09:36:31Z</time>
      </trkpt>
      <trkpt lat="49.23094" lon="1.2218">
        <ele>18</ele>
        <time>2017-04-27T09:36:31Z</time>
      </trkpt>
      <trkpt lat="49.231" lon="1.22179">
        <ele>18</ele>
        <time>2017-04-27T09:36:47Z</time>
      </trkpt>
      <trkpt lat="49.23105" lon="1.22177">
        <ele>18</ele>
        <time>2017-04-27T09:36:47Z</time>
      </trkpt>
      <trkpt lat="49.23109" lon="1.22173">
        <ele>18</ele>
        <time>2017-04-27T09:36:47Z</time>
      </trkpt>
      <trkpt lat="49.2311" lon="1.22168">
        <ele>18</ele>
        <time>2017-04-27T09:36:47Z</time>
      </trkpt>
      <trkpt lat="49.23109" lon="1.22162">
        <ele>18</ele>
        <time>2017-04-27T09:37:07Z</time>
      </trkpt>
      <trkpt lat="49.23109" lon="1.22158">
        <ele>18</ele>
        <time>2017-04-27T09:37:07Z</time>
      </trkpt>
      <trkpt lat="49.23108" lon="1.22155">
        <ele>18</ele>
        <time>2017-04-27T09:37:07Z</time>
      </trkpt>
      <trkpt lat="49.23106" lon="1.22149">
        <ele>18</ele>
        <time>2017-04-27T09:37:07Z</time>
      </trkpt>
      <trkpt lat="49.23103" lon="1.22145">
        <ele>18</ele>
        <time>2017-04-27T09:37:07Z</time>
      </trkpt>
      <trkpt lat="49.231" lon="1.22138">
        <ele>18</ele>
        <time>2017-04-27T09:37:31Z</time>
      </trkpt>
      <trkpt lat="49.23101" lon="1.22138">
        <ele>18</ele>
        <time>2017-04-27T09:37:31Z</time>
      </trkpt>
      <trkpt lat="49.23101" lon="1.22138">
        <ele>18</ele>
        <time>2017-04-27T09:37:31Z</time>
      </trkpt>
      <trkpt lat="49.23102" lon="1.22135">
        <ele>18</ele>
        <time>2017-04-27T09:37:31Z</time>
      </trkpt>
      <trkpt lat="49.23102" lon="1.22116">
        <ele>30</ele>
        <time>2017-04-27T09:37:31Z</time>
      </trkpt>
      <trkpt lat="49.23102" lon="1.22109">
        <ele>30</ele>
        <time>2017-04-27T09:37:59Z</time>
      </trkpt>
      <trkpt lat="49.23102" lon="1.22109">
        <ele>30</ele>
        <time>2017-04-27T09:37:59Z</time>
      </trkpt>
      <trkpt lat="49.23102" lon="1.22109">
        <ele>30</ele>
        <time>2017-04-27T09:37:59Z</time>
      </trkpt>
      <trkpt lat="49.23103" lon="1.22108">
        <ele>30</ele>
        <time>2017-04-27T09:37:59Z</time>
      </trkpt>
      <trkpt lat="49.23104" lon="1.22099">
        <ele>30</ele>
        <time>2017-04-27T09:37:59Z</time>
      </trkpt>
      <trkpt lat="49.23105" lon="1.22095">
        <ele>30</ele>
        <time>2017-04-27T09:38:31Z</time>
      </trkpt>
      <trkpt lat="49.23105" lon="1.22091">
        <ele>30</ele>
        <time>2017-04-27T09:38:31Z</time>
      </trkpt>
      <trkpt lat="49.23105" lon="1.22091">
        <ele>30</ele>
        <time>2017-04-27T09:38:31Z</time>
      </trkpt>
      <trkpt lat="49.23104" lon="1.22085">
        <ele>30</ele>
        <time>2017-04-27T09:38:31Z</time>
      </trkpt>
      <trkpt lat="49.231" lon="1.22079">
        <ele>30</ele>
        <time>2017-04-27T09:38:31Z</time>
      </trkpt>
      <trkpt lat="49.23095" lon="1.22071">
        <ele>30</ele>
        <time>2017-04-27T09:38:47Z</time>
      </trkpt>
      <trkpt lat="49.23088" lon="1.22066">
        <ele>30</ele>
        <time>2017-04-27T09:38:47Z</time>
      </trkpt>
      <trkpt lat="49.23086" lon="1.22065">
        <ele>30</ele>
        <time>2017-04-27T09:38:47Z</time>
      </trkpt>
      <trkpt lat="49.23086" lon="1.22063">
        <ele>30</ele>
        <time>2017-04-27T09:38:47Z</time>
      </trkpt>
      <trkpt lat="49.23086" lon="1.2206">
        <ele>30</ele>
        <time>2017-04-27T09:39:39Z</time>
      </trkpt>
      <trkpt lat="49.23087" lon="1.22058">
        <ele>30</ele>
        <time>2017-04-27T09:39:39Z</time>
      </trkpt>
      <trkpt lat="49.23088" lon="1.22049">
        <ele>30</ele>
        <time>2017-04-27T09:39:39Z</time>
      </trkpt>
      <trkpt lat="49.23088" lon="1.22042">
        <ele>39</ele>
        <time>2017-04-27T09:39:39Z</time>
      </trkpt>
      <trkpt lat="49.23088" lon="1.22031">
        <ele>39</ele>
        <time>2017-04-27T09:39:39Z</time>
      </trkpt>
      <trkpt lat="49.23087" lon="1.22026">
        <ele>39</ele>
        <time>2017-04-27T09:39:55Z</time>
      </trkpt>
      <trkpt lat="49.23084" lon="1.22024">
        <ele>39</ele>
        <time>2017-04-27T09:39:55Z</time>
      </trkpt>
      <trkpt lat="49.23079" lon="1.22023">
        <ele>39</ele>
        <time>2017-04-27T09:39:55Z</time>
      </trkpt>
      <trkpt lat="49.23074" lon="1.22021">
        <ele>39</ele>
        <time>2017-04-27T09:39:55Z</time>
      </trkpt>
      <trkpt lat="49.23069" lon="1.22019">
        <ele>39</ele>
        <time>2017-04-27T09:40:11Z</time>
      </trkpt>
      <trkpt lat="49.23064" lon="1.22017">
        <ele>39</ele>
        <time>2017-04-27T09:40:11Z</time>
      </trkpt>
      <trkpt lat="49.23061" lon="1.22014">
        <ele>39</ele>
        <time>2017-04-27T09:40:11Z</time>
      </trkpt>
      <trkpt lat="49.23056" lon="1.2201">
        <ele>39</ele>
        <time>2017-04-27T09:40:11Z</time>
      </trkpt>
      <trkpt lat="49.23053" lon="1.22007">
        <ele>39</ele>
        <time>2017-04-27T09:40:27Z</time>
      </trkpt>
      <trkpt lat="49.2305" lon="1.22003">
        <ele>39</ele>
        <time>2017-04-27T09:40:27Z</time>
      </trkpt>
      <trkpt lat="49.23046" lon="1.22">
        <ele>39</ele>
        <time>2017-04-27T09:40:27Z</time>
      </trkpt>
      <trkpt lat="49.23041" lon="1.21997">
        <ele>51</ele>
        <time>2017-04-27T09:40:27Z</time>
      </trkpt>
      <trkpt lat="49.23038" lon="1.21993">
        <ele>51</ele>
        <time>2017-04-27T09:40:47Z</time>
      </trkpt>
      <trkpt lat="49.23035" lon="1.21992">
        <ele>51</ele>
        <time>2017-04-27T09:40:47Z</time>
      </trkpt>
      <trkpt lat="49.23033" lon="1.21992">
        <ele>51</ele>
        <time>2017-04-27T09:40:47Z</time>
      </trkpt>
      <trkpt lat="49.23029" lon="1.21992">
        <ele>51</ele>
        <time>2017-04-27T09:40:47Z</time>
      </trkpt>
      <trkpt lat="49.23025" lon="1.21992">
        <ele>51</ele>
        <time>2017-04-27T09:40:47Z</time>
      </trkpt>
      <trkpt lat="49.23021" lon="1.21991">
        <ele>51</ele>
        <time>2017-04-27T09:41:03Z</time>
      </trkpt>
      <trkpt lat="49.23017" lon="1.21991">
        <ele>51</ele>
        <time>2017-04-27T09:41:03Z</time>
      </trkpt>
      <trkpt lat="49.23012" lon="1.2199">
        <ele>51</ele>
        <time>2017-04-27T09:41:03Z</time>
      </trkpt>
      <trkpt lat="49.23009" lon="1.21988">
        <ele>51</ele>
        <time>2017-04-27T09:41:03Z</time>
      </trkpt>
      <trkpt lat="49.23006" lon="1.21985">
        <ele>51</ele>
        <time>2017-04-27T09:41:19Z</time>
      </trkpt>
      <trkpt lat="49.23002" lon="1.21985">
        <ele>51</ele>
        <time>2017-04-27T09:41:19Z</time>
      </trkpt>
      <trkpt lat="49.22998" lon="1.21984">
        <ele>51</ele>
        <time>2017-04-27T09:41:19Z</time>
      </trkpt>
      <trkpt lat="49.22995" lon="1.21984">
        <ele>51</ele>
        <time>2017-04-27T09:41:19Z</time>
      </trkpt>
      <trkpt lat="49.22993" lon="1.21984">
        <ele>51</ele>
        <time>2017-04-27T09:41:35Z</time>
      </trkpt>
      <trkpt lat="49.22991" lon="1.21981">
        <ele>51</ele>
        <time>2017-04-27T09:41:35Z</time>
      </trkpt>
      <trkpt lat="49.22986" lon="1.21981">
        <ele>51</ele>
        <time>2017-04-27T09:41:35Z</time>
      </trkpt>
      <trkpt lat="49.22983" lon="1.2198">
        <ele>51</ele>
        <time>2017-04-27T09:41:35Z</time>
      </trkpt>
      <trkpt lat="49.2298" lon="1.2198">
        <ele>51</ele>
        <time>2017-04-27T09:41:51Z</time>
      </trkpt>
      <trkpt lat="49.22976" lon="1.2198">
        <ele>51</ele>
        <time>2017-04-27T09:41:51Z</time>
      </trkpt>
      <trkpt lat="49.22972" lon="1.2198">
        <ele>51</ele>
        <time>2017-04-27T09:41:51Z</time>
      </trkpt>
      <trkpt lat="49.22969" lon="1.21979">
        <ele>51</ele>
        <time>2017-04-27T09:41:51Z</time>
      </trkpt>
      <trkpt lat="49.22967" lon="1.21978">
        <ele>51</ele>
        <time>2017-04-27T09:42:11Z</time>
      </trkpt>
      <trkpt lat="49.22964" lon="1.21977">
        <ele>51</ele>
        <time>2017-04-27T09:42:11Z</time>
      </trkpt>
      <trkpt lat="49.22963" lon="1.21976">
        <ele>51</ele>
        <time>2017-04-27T09:42:11Z</time>
      </trkpt>
      <trkpt lat="49.2296" lon="1.21973">
        <ele>51</ele>
        <time>2017-04-27T09:42:11Z</time>
      </trkpt>
      <trkpt lat="49.22957" lon="1.21973">
        <ele>62</ele>
        <time>2017-04-27T09:42:11Z</time>
      </trkpt>
      <trkpt lat="49.22954" lon="1.21973">
        <ele>62</ele>
        <time>2017-04-27T09:42:27Z</time>
      </trkpt>
      <trkpt lat="49.22945" lon="1.21973">
        <ele>62</ele>
        <time>2017-04-27T09:42:27Z</time>
      </trkpt>
      <trkpt lat="49.2294" lon="1.21973">
        <ele>62</ele>
        <time>2017-04-27T09:42:27Z</time>
      </trkpt>
      <trkpt lat="49.22937" lon="1.21975">
        <ele>62</ele>
        <time>2017-04-27T09:42:27Z</time>
      </trkpt>
      <trkpt lat="49.22933" lon="1.21972">
        <ele>62</ele>
        <time>2017-04-27T09:42:51Z</time>
      </trkpt>
      <trkpt lat="49.22933" lon="1.21972">
        <ele>62</ele>
        <time>2017-04-27T09:42:51Z</time>
      </trkpt>
      <trkpt lat="49.22932" lon="1.21972">
        <ele>62</ele>
        <time>2017-04-27T09:42:51Z</time>
      </trkpt>
      <trkpt lat="49.22927" lon="1.2197">
        <ele>62</ele>
        <time>2017-04-27T09:42:51Z</time>
      </trkpt>
      <trkpt lat="49.22919" lon="1.21964">
        <ele>62</ele>
        <time>2017-04-27T09:42:51Z</time>
      </trkpt>
      <trkpt lat="49.22916" lon="1.21964">
        <ele>62</ele>
        <time>2017-04-27T09:43:15Z</time>
      </trkpt>
      <trkpt lat="49.22914" lon="1.21964">
        <ele>62</ele>
        <time>2017-04-27T09:43:15Z</time>
      </trkpt>
      <trkpt lat="49.22913" lon="1.21963">
        <ele>62</ele>
        <time>2017-04-27T09:43:15Z</time>
      </trkpt>
      <trkpt lat="49.22912" lon="1.21963">
        <ele>62</ele>
        <time>2017-04-27T09:43:15Z</time>
      </trkpt>
      <trkpt lat="49.22906" lon="1.21965">
        <ele>62</ele>
        <time>2017-04-27T09:43:15Z</time>
      </trkpt>
      <trkpt lat="49.22898" lon="1.21963">
        <ele>62</ele>
        <time>2017-04-27T09:43:31Z</time>
      </trkpt>
      <trkpt lat="49.22894" lon="1.2196">
        <ele>62</ele>
        <time>2017-04-27T09:43:31Z</time>
      </trkpt>
      <trkpt lat="49.22891" lon="1.21957">
        <ele>74</ele>
        <time>2017-04-27T09:43:31Z</time>
      </trkpt>
      <trkpt lat="49.22887" lon="1.21956">
        <ele>74</ele>
        <time>2017-04-27T09:43:31Z</time>
      </trkpt>
      <trkpt lat="49.22883" lon="1.21954">
        <ele>74</ele>
        <time>2017-04-27T09:43:47Z</time>
      </trkpt>
      <trkpt lat="49.22881" lon="1.21953">
        <ele>74</ele>
        <time>2017-04-27T09:43:47Z</time>
      </trkpt>
      <trkpt lat="49.22879" lon="1.21952">
        <ele>74</ele>
        <time>2017-04-27T09:43:47Z</time>
      </trkpt>
      <trkpt lat="49.22872" lon="1.21952">
        <ele>78</ele>
        <time>2017-04-27T09:43:47Z</time>
      </trkpt>
      <trkpt lat="49.2287" lon="1.21951">
        <ele>78</ele>
        <time>2017-04-27T09:44:07Z</time>
      </trkpt>
      <trkpt lat="49.22869" lon="1.2195">
        <ele>78</ele>
        <time>2017-04-27T09:44:07Z</time>
      </trkpt>
      <trkpt lat="49.22866" lon="1.21948">
        <ele>78</ele>
        <time>2017-04-27T09:44:07Z</time>
      </trkpt>
      <trkpt lat="49.22862" lon="1.21944">
        <ele>78</ele>
        <time>2017-04-27T09:44:07Z</time>
      </trkpt>
      <trkpt lat="49.22858" lon="1.21938">
        <ele>78</ele>
        <time>2017-04-27T09:44:07Z</time>
      </trkpt>
      <trkpt lat="49.22854" lon="1.21933">
        <ele>78</ele>
        <time>2017-04-27T09:44:23Z</time>
      </trkpt>
      <trkpt lat="49.22851" lon="1.21927">
        <ele>78</ele>
        <time>2017-04-27T09:44:23Z</time>
      </trkpt>
      <trkpt lat="49.22848" lon="1.21925">
        <ele>78</ele>
        <time>2017-04-27T09:44:23Z</time>
      </trkpt>
      <trkpt lat="49.22847" lon="1.21923">
        <ele>78</ele>
        <time>2017-04-27T09:44:23Z</time>
      </trkpt>
      <trkpt lat="49.22843" lon="1.21921">
        <ele>78</ele>
        <time>2017-04-27T09:44:39Z</time>
      </trkpt>
      <trkpt lat="49.22837" lon="1.21914">
        <ele>78</ele>
        <time>2017-04-27T09:44:39Z</time>
      </trkpt>
      <trkpt lat="49.22835" lon="1.21911">
        <ele>78</ele>
        <time>2017-04-27T09:44:39Z</time>
      </trkpt>
      <trkpt lat="49.22835" lon="1.21911">
        <ele>78</ele>
        <time>2017-04-27T09:44:39Z</time>
      </trkpt>
      <trkpt lat="49.22834" lon="1.21909">
        <ele>78</ele>
        <time>2017-04-27T09:44:59Z</time>
      </trkpt>
      <trkpt lat="49.22834" lon="1.21909">
        <ele>78</ele>
        <time>2017-04-27T09:44:59Z</time>
      </trkpt>
      <trkpt lat="49.22833" lon="1.21908">
        <ele>78</ele>
        <time>2017-04-27T09:44:59Z</time>
      </trkpt>
      <trkpt lat="49.22828" lon="1.21902">
        <ele>78</ele>
        <time>2017-04-27T09:44:59Z</time>
      </trkpt>
      <trkpt lat="49.22823" lon="1.21896">
        <ele>78</ele>
        <time>2017-04-27T09:44:59Z</time>
      </trkpt>
      <trkpt lat="49.2282" lon="1.21892">
        <ele>78</ele>
        <time>2017-04-27T09:45:15Z</time>
      </trkpt>
      <trkpt lat="49.22816" lon="1.21889">
        <ele>78</ele>
        <time>2017-04-27T09:45:15Z</time>
      </trkpt>
      <trkpt lat="49.22814" lon="1.21886">
        <ele>78</ele>
        <time>2017-04-27T09:45:15Z</time>
      </trkpt>
      <trkpt lat="49.22809" lon="1.21877">
        <ele>78</ele>
        <time>2017-04-27T09:45:15Z</time>
      </trkpt>
      <trkpt lat="49.22806" lon="1.21872">
        <ele>89</ele>
        <time>2017-04-27T09:45:35Z</time>
      </trkpt>
      <trkpt lat="49.22804" lon="1.21868">
        <ele>89</ele>
        <time>2017-04-27T09:45:35Z</time>
      </trkpt>
      <trkpt lat="49.22801" lon="1.21867">
        <ele>89</ele>
        <time>2017-04-27T09:45:35Z</time>
      </trkpt>
      <trkpt lat="49.228" lon="1.21865">
        <ele>89</ele>
        <time>2017-04-27T09:45:35Z</time>
      </trkpt>
      <trkpt lat="49.22796" lon="1.21859">
        <ele>89</ele>
        <time>2017-04-27T09:45:35Z</time>
      </trkpt>
      <trkpt lat="49.22795" lon="1.21859">
        <ele>89</ele>
        <time>2017-04-27T09:45:51Z</time>
      </trkpt>
      <trkpt lat="49.2279" lon="1.21856">
        <ele>90</ele>
        <time>2017-04-27T09:45:51Z</time>
      </trkpt>
      <trkpt lat="49.22784" lon="1.21852">
        <ele>90</ele>
        <time>2017-04-27T09:45:51Z</time>
      </trkpt>
      <trkpt lat="49.2278" lon="1.21849">
        <ele>90</ele>
        <time>2017-04-27T09:45:51Z</time>
      </trkpt>
      <trkpt lat="49.22777" lon="1.21847">
        <ele>90</ele>
        <time>2017-04-27T09:46:07Z</time>
      </trkpt>
      <trkpt lat="49.22775" lon="1.21847">
        <ele>90</ele>
        <time>2017-04-27T09:46:07Z</time>
      </trkpt>
      <trkpt lat="49.2277" lon="1.21845">
        <ele>90</ele>
        <time>2017-04-27T09:46:07Z</time>
      </trkpt>
      <trkpt lat="49.22765" lon="1.21842">
        <ele>90</ele>
        <time>2017-04-27T09:46:07Z</time>
      </trkpt>
      <trkpt lat="49.22763" lon="1.21841">
        <ele>90</ele>
        <time>2017-04-27T09:46:23Z</time>
      </trkpt>
      <trkpt lat="49.22759" lon="1.21837">
        <ele>90</ele>
        <time>2017-04-27T09:46:23Z</time>
      </trkpt>
      <trkpt lat="49.22756" lon="1.21836">
        <ele>90</ele>
        <time>2017-04-27T09:46:23Z</time>
      </trkpt>
      <trkpt lat="49.22753" lon="1.21833">
        <ele>90</ele>
        <time>2017-04-27T09:46:23Z</time>
      </trkpt>
      <trkpt lat="49.2275" lon="1.21832">
        <ele>90</ele>
        <time>2017-04-27T09:46:39Z</time>
      </trkpt>
      <trkpt lat="49.22748" lon="1.21828">
        <ele>90</ele>
        <time>2017-04-27T09:46:39Z</time>
      </trkpt>
      <trkpt lat="49.22742" lon="1.21825">
        <ele>90</ele>
        <time>2017-04-27T09:46:39Z</time>
      </trkpt>
      <trkpt lat="49.22738" lon="1.21821">
        <ele>90</ele>
        <time>2017-04-27T09:46:39Z</time>
      </trkpt>
      <trkpt lat="49.22731" lon="1.21816">
        <ele>90</ele>
        <time>2017-04-27T09:47:03Z</time>
      </trkpt>
      <trkpt lat="49.22731" lon="1.21815">
        <ele>90</ele>
        <time>2017-04-27T09:47:03Z</time>
      </trkpt>
      <trkpt lat="49.2273" lon="1.21815">
        <ele>90</ele>
        <time>2017-04-27T09:47:03Z</time>
      </trkpt>
      <trkpt lat="49.22728" lon="1.21813">
        <ele>90</ele>
        <time>2017-04-27T09:47:03Z</time>
      </trkpt>
      <trkpt lat="49.22725" lon="1.21811">
        <ele>90</ele>
        <time>2017-04-27T09:47:03Z</time>
      </trkpt>
      <trkpt lat="49.22721" lon="1.21806">
        <ele>90</ele>
        <time>2017-04-27T09:47:19Z</time>
      </trkpt>
      <trkpt lat="49.22718" lon="1.21803">
        <ele>90</ele>
        <time>2017-04-27T09:47:19Z</time>
      </trkpt>
      <trkpt lat="49.22716" lon="1.21798">
        <ele>90</ele>
        <time>2017-04-27T09:47:19Z</time>
      </trkpt>
      <trkpt lat="49.22712" lon="1.21794">
        <ele>90</ele>
        <time>2017-04-27T09:47:19Z</time>
      </trkpt>
      <trkpt lat="49.2271" lon="1.21793">
        <ele>90</ele>
        <time>2017-04-27T09:47:35Z</time>
      </trkpt>
      <trkpt lat="49.22706" lon="1.21791">
        <ele>108</ele>
        <time>2017-04-27T09:47:35Z</time>
      </trkpt>
      <trkpt lat="49.22704" lon="1.21789">
        <ele>108</ele>
        <time>2017-04-27T09:47:35Z</time>
      </trkpt>
      <trkpt lat="49.22701" lon="1.21785">
        <ele>108</ele>
        <time>2017-04-27T09:47:35Z</time>
      </trkpt>
      <trkpt lat="49.22697" lon="1.21782">
        <ele>108</ele>
        <time>2017-04-27T09:47:51Z</time>
      </trkpt>
      <trkpt lat="49.22694" lon="1.21778">
        <ele>108</ele>
        <time>2017-04-27T09:47:51Z</time>
      </trkpt>
      <trkpt lat="49.22691" lon="1.21776">
        <ele>108</ele>
        <time>2017-04-27T09:47:51Z</time>
      </trkpt>
      <trkpt lat="49.22688" lon="1.21775">
        <ele>108</ele>
        <time>2017-04-27T09:47:51Z</time>
      </trkpt>
      <trkpt lat="49.22685" lon="1.21773">
        <ele>108</ele>
        <time>2017-04-27T09:48:07Z</time>
      </trkpt>
      <trkpt lat="49.22684" lon="1.21772">
        <ele>108</ele>
        <time>2017-04-27T09:48:07Z</time>
      </trkpt>
      <trkpt lat="49.22679" lon="1.21771">
        <ele>108</ele>
        <time>2017-04-27T09:48:07Z</time>
      </trkpt>
      <trkpt lat="49.22676" lon="1.21772">
        <ele>108</ele>
        <time>2017-04-27T09:48:07Z</time>
      </trkpt>
      <trkpt lat="49.22669" lon="1.21766">
        <ele>108</ele>
        <time>2017-04-27T09:48:23Z</time>
      </trkpt>
      <trkpt lat="49.22663" lon="1.21764">
        <ele>108</ele>
        <time>2017-04-27T09:48:23Z</time>
      </trkpt>
      <trkpt lat="49.22657" lon="1.21761">
        <ele>108</ele>
        <time>2017-04-27T09:48:23Z</time>
      </trkpt>
      <trkpt lat="49.22654" lon="1.21762">
        <ele>108</ele>
        <time>2017-04-27T09:48:23Z</time>
      </trkpt>
      <trkpt lat="49.2265" lon="1.21762">
        <ele>108</ele>
        <time>2017-04-27T09:48:39Z</time>
      </trkpt>
      <trkpt lat="49.22646" lon="1.21762">
        <ele>108</ele>
        <time>2017-04-27T09:48:39Z</time>
      </trkpt>
      <trkpt lat="49.22642" lon="1.21763">
        <ele>108</ele>
        <time>2017-04-27T09:48:39Z</time>
      </trkpt>
      <trkpt lat="49.22639" lon="1.21762">
        <ele>108</ele>
        <time>2017-04-27T09:48:39Z</time>
      </trkpt>
      <trkpt lat="49.22635" lon="1.21762">
        <ele>108</ele>
        <time>2017-04-27T09:48:55Z</time>
      </trkpt>
      <trkpt lat="49.22631" lon="1.21765">
        <ele>108</ele>
        <time>2017-04-27T09:48:55Z</time>
      </trkpt>
      <trkpt lat="49.22629" lon="1.21767">
        <ele>108</ele>
        <time>2017-04-27T09:48:55Z</time>
      </trkpt>
      <trkpt lat="49.22624" lon="1.21772">
        <ele>113</ele>
        <time>2017-04-27T09:48:55Z</time>
      </trkpt>
      <trkpt lat="49.2262" lon="1.21776">
        <ele>113</ele>
        <time>2017-04-27T09:49:11Z</time>
      </trkpt>
      <trkpt lat="49.22617" lon="1.21779">
        <ele>113</ele>
        <time>2017-04-27T09:49:11Z</time>
      </trkpt>
      <trkpt lat="49.22614" lon="1.21783">
        <ele>113</ele>
        <time>2017-04-27T09:49:11Z</time>
      </trkpt>
      <trkpt lat="49.22612" lon="1.21786">
        <ele>113</ele>
        <time>2017-04-27T09:49:11Z</time>
      </trkpt>
      <trkpt lat="49.22609" lon="1.21789">
        <ele>113</ele>
        <time>2017-04-27T09:49:27Z</time>
      </trkpt>
      <trkpt lat="49.22604" lon="1.21792">
        <ele>111</ele>
        <time>2017-04-27T09:49:27Z</time>
      </trkpt>
      <trkpt lat="49.22601" lon="1.21795">
        <ele>111</ele>
        <time>2017-04-27T09:49:27Z</time>
      </trkpt>
      <trkpt lat="49.22597" lon="1.21798">
        <ele>111</ele>
        <time>2017-04-27T09:49:27Z</time>
      </trkpt>
      <trkpt lat="49.22592" lon="1.218">
        <ele>111</ele>
        <time>2017-04-27T09:49:43Z</time>
      </trkpt>
      <trkpt lat="49.22588" lon="1.21802">
        <ele>111</ele>
        <time>2017-04-27T09:49:43Z</time>
      </trkpt>
      <trkpt lat="49.22581" lon="1.21804">
        <ele>111</ele>
        <time>2017-04-27T09:49:43Z</time>
      </trkpt>
      <trkpt lat="49.22577" lon="1.21805">
        <ele>111</ele>
        <time>2017-04-27T09:49:43Z</time>
      </trkpt>
      <trkpt lat="49.2257" lon="1.21802">
        <ele>111</ele>
        <time>2017-04-27T09:49:59Z</time>
      </trkpt>
      <trkpt lat="49.22566" lon="1.21802">
        <ele>111</ele>
        <time>2017-04-27T09:49:59Z</time>
      </trkpt>
      <trkpt lat="49.22561" lon="1.21801">
        <ele>111</ele>
        <time>2017-04-27T09:49:59Z</time>
      </trkpt>
      <trkpt lat="49.22557" lon="1.21802">
        <ele>111</ele>
        <time>2017-04-27T09:49:59Z</time>
      </trkpt>
      <trkpt lat="49.22553" lon="1.21803">
        <ele>111</ele>
        <time>2017-04-27T09:50:15Z</time>
      </trkpt>
      <trkpt lat="49.22549" lon="1.21802">
        <ele>111</ele>
        <time>2017-04-27T09:50:15Z</time>
      </trkpt>
      <trkpt lat="49.22545" lon="1.21802">
        <ele>111</ele>
        <time>2017-04-27T09:50:15Z</time>
      </trkpt>
      <trkpt lat="49.2254" lon="1.21801">
        <ele>109</ele>
        <time>2017-04-27T09:50:15Z</time>
      </trkpt>
      <trkpt lat="49.22536" lon="1.21798">
        <ele>109</ele>
        <time>2017-04-27T09:50:31Z</time>
      </trkpt>
      <trkpt lat="49.22531" lon="1.21794">
        <ele>109</ele>
        <time>2017-04-27T09:50:31Z</time>
      </trkpt>
      <trkpt lat="49.22527" lon="1.21792">
        <ele>109</ele>
        <time>2017-04-27T09:50:31Z</time>
      </trkpt>
      <trkpt lat="49.22522" lon="1.21788">
        <ele>116</ele>
        <time>2017-04-27T09:50:31Z</time>
      </trkpt>
      <trkpt lat="49.22518" lon="1.21786">
        <ele>116</ele>
        <time>2017-04-27T09:50:47Z</time>
      </trkpt>
      <trkpt lat="49.22513" lon="1.21783">
        <ele>116</ele>
        <time>2017-04-27T09:50:47Z</time>
      </trkpt>
      <trkpt lat="49.22509" lon="1.21782">
        <ele>116</ele>
        <time>2017-04-27T09:50:47Z</time>
      </trkpt>
      <trkpt lat="49.22505" lon="1.21779">
        <ele>116</ele>
        <time>2017-04-27T09:50:47Z</time>
      </trkpt>
      <trkpt lat="49.225" lon="1.21777">
        <ele>116</ele>
        <time>2017-04-27T09:51:03Z</time>
      </trkpt>
      <trkpt lat="49.22497" lon="1.21774">
        <ele>116</ele>
        <time>2017-04-27T09:51:03Z</time>
      </trkpt>
      <trkpt lat="49.22491" lon="1.21772">
        <ele>116</ele>
        <time>2017-04-27T09:51:03Z</time>
      </trkpt>
      <trkpt lat="49.22488" lon="1.21772">
        <ele>116</ele>
        <time>2017-04-27T09:51:03Z</time>
      </trkpt>
      <trkpt lat="49.22483" lon="1.21771">
        <ele>116</ele>
        <time>2017-04-27T09:51:19Z</time>
      </trkpt>
      <trkpt lat="49.22479" lon="1.21772">
        <ele>116</ele>
        <time>2017-04-27T09:51:19Z</time>
      </trkpt>
      <trkpt lat="49.22472" lon="1.21774">
        <ele>116</ele>
        <time>2017-04-27T09:51:19Z</time>
      </trkpt>
      <trkpt lat="49.22467" lon="1.21775">
        <ele>116</ele>
        <time>2017-04-27T09:51:19Z</time>
      </trkpt>
      <trkpt lat="49.22462" lon="1.21777">
        <ele>116</ele>
        <time>2017-04-27T09:51:35Z</time>
      </trkpt>
      <trkpt lat="49.22456" lon="1.2178">
        <ele>119</ele>
        <time>2017-04-27T09:51:35Z</time>
      </trkpt>
      <trkpt lat="49.22452" lon="1.21782">
        <ele>119</ele>
        <time>2017-04-27T09:51:35Z</time>
      </trkpt>
      <trkpt lat="49.22449" lon="1.21783">
        <ele>119</ele>
        <time>2017-04-27T09:51:35Z</time>
      </trkpt>
      <trkpt lat="49.22444" lon="1.21785">
        <ele>119</ele>
        <time>2017-04-27T09:51:51Z</time>
      </trkpt>
      <trkpt lat="49.22438" lon="1.21788">
        <ele>119</ele>
        <time>2017-04-27T09:51:51Z</time>
      </trkpt>
      <trkpt lat="49.22434" lon="1.21789">
        <ele>119</ele>
        <time>2017-04-27T09:51:51Z</time>
      </trkpt>
      <trkpt lat="49.22431" lon="1.2179">
        <ele>119</ele>
        <time>2017-04-27T09:51:51Z</time>
      </trkpt>
      <trkpt lat="49.22428" lon="1.21795">
        <ele>113</ele>
        <time>2017-04-27T09:52:27Z</time>
      </trkpt>
      <trkpt lat="49.22427" lon="1.21795">
        <ele>113</ele>
        <time>2017-04-27T09:52:27Z</time>
      </trkpt>
      <trkpt lat="49.22423" lon="1.21795">
        <ele>113</ele>
        <time>2017-04-27T09:52:27Z</time>
      </trkpt>
      <trkpt lat="49.22419" lon="1.21799">
        <ele>113</ele>
        <time>2017-04-27T09:52:27Z</time>
      </trkpt>
      <trkpt lat="49.22413" lon="1.21799">
        <ele>113</ele>
        <time>2017-04-27T09:52:27Z</time>
      </trkpt>
      <trkpt lat="49.22409" lon="1.21801">
        <ele>113</ele>
        <time>2017-04-27T09:52:47Z</time>
      </trkpt>
      <trkpt lat="49.22405" lon="1.21802">
        <ele>113</ele>
        <time>2017-04-27T09:52:47Z</time>
      </trkpt>
      <trkpt lat="49.22404" lon="1.21801">
        <ele>113</ele>
        <time>2017-04-27T09:52:47Z</time>
      </trkpt>
      <trkpt lat="49.224" lon="1.21802">
        <ele>113</ele>
        <time>2017-04-27T09:52:47Z</time>
      </trkpt>
      <trkpt lat="49.22398" lon="1.21804">
        <ele>113</ele>
        <time>2017-04-27T09:52:47Z</time>
      </trkpt>
      <trkpt lat="49.22396" lon="1.21807">
        <ele>113</ele>
        <time>2017-04-27T09:53:11Z</time>
      </trkpt>
      <trkpt lat="49.22395" lon="1.21813">
        <ele>113</ele>
        <time>2017-04-27T09:53:11Z</time>
      </trkpt>
      <trkpt lat="49.22395" lon="1.21814">
        <ele>113</ele>
        <time>2017-04-27T09:53:11Z</time>
      </trkpt>
      <trkpt lat="49.22394" lon="1.21815">
        <ele>113</ele>
        <time>2017-04-27T09:53:11Z</time>
      </trkpt>
      <trkpt lat="49.22392" lon="1.21819">
        <ele>113</ele>
        <time>2017-04-27T09:53:11Z</time>
      </trkpt>
      <trkpt lat="49.22391" lon="1.21821">
        <ele>113</ele>
        <time>2017-04-27T09:53:27Z</time>
      </trkpt>
      <trkpt lat="49.22389" lon="1.21822">
        <ele>113</ele>
        <time>2017-04-27T09:53:27Z</time>
      </trkpt>
      <trkpt lat="49.22386" lon="1.21827">
        <ele>113</ele>
        <time>2017-04-27T09:53:27Z</time>
      </trkpt>
      <trkpt lat="49.22383" lon="1.21829">
        <ele>113</ele>
        <time>2017-04-27T09:53:27Z</time>
      </trkpt>
      <trkpt lat="49.2238" lon="1.21834">
        <ele>113</ele>
        <time>2017-04-27T09:53:43Z</time>
      </trkpt>
      <trkpt lat="49.22378" lon="1.21836">
        <ele>113</ele>
        <time>2017-04-27T09:53:43Z</time>
      </trkpt>
      <trkpt lat="49.22376" lon="1.21844">
        <ele>113</ele>
        <time>2017-04-27T09:53:43Z</time>
      </trkpt>
      <trkpt lat="49.22366" lon="1.21859">
        <ele>122</ele>
        <time>2017-04-27T09:53:43Z</time>
      </trkpt>
      <trkpt lat="49.22361" lon="1.2187">
        <ele>122</ele>
        <time>2017-04-27T09:53:59Z</time>
      </trkpt>
      <trkpt lat="49.22358" lon="1.21875">
        <ele>122</ele>
        <time>2017-04-27T09:53:59Z</time>
      </trkpt>
      <trkpt lat="49.22356" lon="1.21879">
        <ele>108</ele>
        <time>2017-04-27T09:53:59Z</time>
      </trkpt>
      <trkpt lat="49.22353" lon="1.21882">
        <ele>108</ele>
        <time>2017-04-27T09:53:59Z</time>
      </trkpt>
      <trkpt lat="49.22351" lon="1.21887">
        <ele>108</ele>
        <time>2017-04-27T09:54:15Z</time>
      </trkpt>
      <trkpt lat="49.2235" lon="1.21893">
        <ele>108</ele>
        <time>2017-04-27T09:54:15Z</time>
      </trkpt>
      <trkpt lat="49.22348" lon="1.21899">
        <ele>108</ele>
        <time>2017-04-27T09:54:15Z</time>
      </trkpt>
      <trkpt lat="49.22347" lon="1.21903">
        <ele>108</ele>
        <time>2017-04-27T09:54:15Z</time>
      </trkpt>
      <trkpt lat="49.22346" lon="1.21906">
        <ele>108</ele>
        <time>2017-04-27T09:54:31Z</time>
      </trkpt>
      <trkpt lat="49.22347" lon="1.21914">
        <ele>108</ele>
        <time>2017-04-27T09:54:31Z</time>
      </trkpt>
      <trkpt lat="49.22348" lon="1.21921">
        <ele>108</ele>
        <time>2017-04-27T09:54:31Z</time>
      </trkpt>
      <trkpt lat="49.22349" lon="1.21936">
        <ele>108</ele>
        <time>2017-04-27T09:54:31Z</time>
      </trkpt>
      <trkpt lat="49.22349" lon="1.21944">
        <ele>108</ele>
        <time>2017-04-27T09:54:47Z</time>
      </trkpt>
      <trkpt lat="49.22348" lon="1.21952">
        <ele>108</ele>
        <time>2017-04-27T09:54:47Z</time>
      </trkpt>
      <trkpt lat="49.22348" lon="1.21961">
        <ele>92</ele>
        <time>2017-04-27T09:54:47Z</time>
      </trkpt>
      <trkpt lat="49.22347" lon="1.21967">
        <ele>92</ele>
        <time>2017-04-27T09:54:47Z</time>
      </trkpt>
      <trkpt lat="49.22346" lon="1.21972">
        <ele>92</ele>
        <time>2017-04-27T09:55:03Z</time>
      </trkpt>
      <trkpt lat="49.22345" lon="1.21978">
        <ele>92</ele>
        <time>2017-04-27T09:55:03Z</time>
      </trkpt>
      <trkpt lat="49.22346" lon="1.21984">
        <ele>92</ele>
        <time>2017-04-27T09:55:03Z</time>
      </trkpt>
      <trkpt lat="49.22346" lon="1.21989">
        <ele>92</ele>
        <time>2017-04-27T09:55:03Z</time>
      </trkpt>
      <trkpt lat="49.22347" lon="1.21999">
        <ele>92</ele>
        <time>2017-04-27T09:56:27Z</time>
      </trkpt>
      <trkpt lat="49.22346" lon="1.22003">
        <ele>92</ele>
        <time>2017-04-27T09:56:27Z</time>
      </trkpt>
      <trkpt lat="49.22347" lon="1.22011">
        <ele>92</ele>
        <time>2017-04-27T09:56:27Z</time>
      </trkpt>
      <trkpt lat="49.22347" lon="1.22018">
        <ele>92</ele>
        <time>2017-04-27T09:56:27Z</time>
      </trkpt>
      <trkpt lat="49.22347" lon="1.22023">
        <ele>92</ele>
        <time>2017-04-27T09:56:27Z</time>
      </trkpt>
      <trkpt lat="49.22344" lon="1.22028">
        <ele>92</ele>
        <time>2017-04-27T09:56:43Z</time>
      </trkpt>
      <trkpt lat="49.22342" lon="1.22035">
        <ele>92</ele>
        <time>2017-04-27T09:56:43Z</time>
      </trkpt>
      <trkpt lat="49.22342" lon="1.22041">
        <ele>92</ele>
        <time>2017-04-27T09:56:43Z</time>
      </trkpt>
      <trkpt lat="49.22343" lon="1.22046">
        <ele>81</ele>
        <time>2017-04-27T09:56:43Z</time>
      </trkpt>
      <trkpt lat="49.22342" lon="1.2205">
        <ele>81</ele>
        <time>2017-04-27T09:56:59Z</time>
      </trkpt>
      <trkpt lat="49.22341" lon="1.22056">
        <ele>81</ele>
        <time>2017-04-27T09:56:59Z</time>
      </trkpt>
      <trkpt lat="49.22341" lon="1.22062">
        <ele>81</ele>
        <time>2017-04-27T09:56:59Z</time>
      </trkpt>
      <trkpt lat="49.22342" lon="1.22066">
        <ele>81</ele>
        <time>2017-04-27T09:56:59Z</time>
      </trkpt>
      <trkpt lat="49.22343" lon="1.22076">
        <ele>81</ele>
        <time>2017-04-27T09:57:15Z</time>
      </trkpt>
      <trkpt lat="49.22344" lon="1.22084">
        <ele>81</ele>
        <time>2017-04-27T09:57:15Z</time>
      </trkpt>
      <trkpt lat="49.22346" lon="1.22089">
        <ele>81</ele>
        <time>2017-04-27T09:57:15Z</time>
      </trkpt>
      <trkpt lat="49.22346" lon="1.22097">
        <ele>81</ele>
        <time>2017-04-27T09:57:15Z</time>
      </trkpt>
      <trkpt lat="49.22344" lon="1.22104">
        <ele>81</ele>
        <time>2017-04-27T09:57:31Z</time>
      </trkpt>
      <trkpt lat="49.22344" lon="1.22109">
        <ele>81</ele>
        <time>2017-04-27T09:57:31Z</time>
      </trkpt>
      <trkpt lat="49.22345" lon="1.22117">
        <ele>81</ele>
        <time>2017-04-27T09:57:31Z</time>
      </trkpt>
      <trkpt lat="49.22346" lon="1.22123">
        <ele>81</ele>
        <time>2017-04-27T09:57:31Z</time>
      </trkpt>
      <trkpt lat="49.22348" lon="1.22131">
        <ele>70</ele>
        <time>2017-04-27T09:57:47Z</time>
      </trkpt>
      <trkpt lat="49.22348" lon="1.22138">
        <ele>70</ele>
        <time>2017-04-27T09:57:47Z</time>
      </trkpt>
      <trkpt lat="49.22348" lon="1.22144">
        <ele>70</ele>
        <time>2017-04-27T09:57:47Z</time>
      </trkpt>
      <trkpt lat="49.22349" lon="1.22152">
        <ele>70</ele>
        <time>2017-04-27T09:57:47Z</time>
      </trkpt>
      <trkpt lat="49.2235" lon="1.22158">
        <ele>70</ele>
        <time>2017-04-27T09:58:03Z</time>
      </trkpt>
      <trkpt lat="49.22352" lon="1.22166">
        <ele>70</ele>
        <time>2017-04-27T09:58:03Z</time>
      </trkpt>
      <trkpt lat="49.22354" lon="1.22169">
        <ele>70</ele>
        <time>2017-04-27T09:58:03Z</time>
      </trkpt>
      <trkpt lat="49.22358" lon="1.22167">
        <ele>70</ele>
        <time>2017-04-27T09:58:03Z</time>
      </trkpt>
      <trkpt lat="49.22359" lon="1.22162">
        <ele>70</ele>
        <time>2017-04-27T09:58:19Z</time>
      </trkpt>
      <trkpt lat="49.22362" lon="1.22157">
        <ele>70</ele>
        <time>2017-04-27T09:58:19Z</time>
      </trkpt>
      <trkpt lat="49.22365" lon="1.22151">
        <ele>70</ele>
        <time>2017-04-27T09:58:19Z</time>
      </trkpt>
      <trkpt lat="49.22368" lon="1.22144">
        <ele>70</ele>
        <time>2017-04-27T09:58:19Z</time>
      </trkpt>
      <trkpt lat="49.2237" lon="1.22139">
        <ele>70</ele>
        <time>2017-04-27T09:58:35Z</time>
      </trkpt>
      <trkpt lat="49.22373" lon="1.22133">
        <ele>70</ele>
        <time>2017-04-27T09:58:35Z</time>
      </trkpt>
      <trkpt lat="49.22378" lon="1.22129">
        <ele>54</ele>
        <time>2017-04-27T09:58:35Z</time>
      </trkpt>
      <trkpt lat="49.22379" lon="1.22122">
        <ele>64</ele>
        <time>2017-04-27T09:58:35Z</time>
      </trkpt>
      <trkpt lat="49.22382" lon="1.22114">
        <ele>64</ele>
        <time>2017-04-27T09:58:51Z</time>
      </trkpt>
      <trkpt lat="49.22383" lon="1.22109">
        <ele>64</ele>
        <time>2017-04-27T09:58:51Z</time>
      </trkpt>
      <trkpt lat="49.22385" lon="1.22107">
        <ele>64</ele>
        <time>2017-04-27T09:58:51Z</time>
      </trkpt>
      <trkpt lat="49.22387" lon="1.22103">
        <ele>64</ele>
        <time>2017-04-27T09:58:51Z</time>
      </trkpt>
      <trkpt lat="49.22391" lon="1.22095">
        <ele>64</ele>
        <time>2017-04-27T09:59:07Z</time>
      </trkpt>
      <trkpt lat="49.22395" lon="1.22092">
        <ele>64</ele>
        <time>2017-04-27T09:59:07Z</time>
      </trkpt>
      <trkpt lat="49.22396" lon="1.22083">
        <ele>64</ele>
        <time>2017-04-27T09:59:07Z</time>
      </trkpt>
      <trkpt lat="49.22397" lon="1.22078">
        <ele>64</ele>
        <time>2017-04-27T09:59:07Z</time>
      </trkpt>
      <trkpt lat="49.224" lon="1.22073">
        <ele>64</ele>
        <time>2017-04-27T09:59:23Z</time>
      </trkpt>
      <trkpt lat="49.22402" lon="1.22062">
        <ele>64</ele>
        <time>2017-04-27T09:59:23Z</time>
      </trkpt>
      <trkpt lat="49.22404" lon="1.22054">
        <ele>64</ele>
        <time>2017-04-27T09:59:23Z</time>
      </trkpt>
      <trkpt lat="49.22406" lon="1.22048">
        <ele>64</ele>
        <time>2017-04-27T09:59:23Z</time>
      </trkpt>
      <trkpt lat="49.22408" lon="1.22043">
        <ele>64</ele>
        <time>2017-04-27T09:59:39Z</time>
      </trkpt>
      <trkpt lat="49.2241" lon="1.22036">
        <ele>75</ele>
        <time>2017-04-27T09:59:39Z</time>
      </trkpt>
      <trkpt lat="49.2241" lon="1.22029">
        <ele>75</ele>
        <time>2017-04-27T09:59:39Z</time>
      </trkpt>
      <trkpt lat="49.22414" lon="1.22026">
        <ele>75</ele>
        <time>2017-04-27T09:59:39Z</time>
      </trkpt>
      <trkpt lat="49.22417" lon="1.22023">
        <ele>75</ele>
        <time>2017-04-27T09:59:55Z</time>
      </trkpt>
      <trkpt lat="49.22421" lon="1.22017">
        <ele>75</ele>
        <time>2017-04-27T09:59:55Z</time>
      </trkpt>
      <trkpt lat="49.22423" lon="1.22014">
        <ele>75</ele>
        <time>2017-04-27T09:59:55Z</time>
      </trkpt>
      <trkpt lat="49.22424" lon="1.22011">
        <ele>75</ele>
        <time>2017-04-27T09:59:55Z</time>
      </trkpt>
      <trkpt lat="49.22424" lon="1.22015">
        <ele>75</ele>
        <time>2017-04-27T10:00:11Z</time>
      </trkpt>
      <trkpt lat="49.22422" lon="1.22018">
        <ele>75</ele>
        <time>2017-04-27T10:00:11Z</time>
      </trkpt>
      <trkpt lat="49.22423" lon="1.22023">
        <ele>75</ele>
        <time>2017-04-27T10:00:11Z</time>
      </trkpt>
      <trkpt lat="49.22422" lon="1.22029">
        <ele>75</ele>
        <time>2017-04-27T10:00:11Z</time>
      </trkpt>
      <trkpt lat="49.22424" lon="1.22033">
        <ele>75</ele>
        <time>2017-04-27T10:00:27Z</time>
      </trkpt>
      <trkpt lat="49.22424" lon="1.22041">
        <ele>75</ele>
        <time>2017-04-27T10:00:27Z</time>
      </trkpt>
      <trkpt lat="49.22426" lon="1.2205">
        <ele>64</ele>
        <time>2017-04-27T10:00:27Z</time>
      </trkpt>
      <trkpt lat="49.22428" lon="1.2206">
        <ele>64</ele>
        <time>2017-04-27T10:00:27Z</time>
      </trkpt>
      <trkpt lat="49.2243" lon="1.22068">
        <ele>64</ele>
        <time>2017-04-27T10:00:43Z</time>
      </trkpt>
      <trkpt lat="49.22431" lon="1.22077">
        <ele>64</ele>
        <time>2017-04-27T10:00:43Z</time>
      </trkpt>
      <trkpt lat="49.22432" lon="1.22081">
        <ele>64</ele>
        <time>2017-04-27T10:00:43Z</time>
      </trkpt>
      <trkpt lat="49.22432" lon="1.22082">
        <ele>64</ele>
        <time>2017-04-27T10:00:43Z</time>
      </trkpt>
      <trkpt lat="49.22433" lon="1.22086">
        <ele>64</ele>
        <time>2017-04-27T10:00:59Z</time>
      </trkpt>
      <trkpt lat="49.22436" lon="1.22106">
        <ele>64</ele>
        <time>2017-04-27T10:00:59Z</time>
      </trkpt>
      <trkpt lat="49.22436" lon="1.22113">
        <ele>64</ele>
        <time>2017-04-27T10:00:59Z</time>
      </trkpt>
      <trkpt lat="49.22436" lon="1.22116">
        <ele>64</ele>
        <time>2017-04-27T10:00:59Z</time>
      </trkpt>
      <trkpt lat="49.22437" lon="1.22122">
        <ele>64</ele>
        <time>2017-04-27T10:01:15Z</time>
      </trkpt>
      <trkpt lat="49.22436" lon="1.22126">
        <ele>54</ele>
        <time>2017-04-27T10:01:15Z</time>
      </trkpt>
      <trkpt lat="49.22436" lon="1.22133">
        <ele>54</ele>
        <time>2017-04-27T10:01:15Z</time>
      </trkpt>
      <trkpt lat="49.22437" lon="1.22139">
        <ele>54</ele>
        <time>2017-04-27T10:01:15Z</time>
      </trkpt>
      <trkpt lat="49.22438" lon="1.22146">
        <ele>54</ele>
        <time>2017-04-27T10:01:31Z</time>
      </trkpt>
      <trkpt lat="49.22439" lon="1.22148">
        <ele>54</ele>
        <time>2017-04-27T10:01:31Z</time>
      </trkpt>
      <trkpt lat="49.2244" lon="1.22155">
        <ele>54</ele>
        <time>2017-04-27T10:01:31Z</time>
      </trkpt>
      <trkpt lat="49.22442" lon="1.22162">
        <ele>54</ele>
        <time>2017-04-27T10:01:31Z</time>
      </trkpt>
      <trkpt lat="49.22444" lon="1.22171">
        <ele>54</ele>
        <time>2017-04-27T10:01:47Z</time>
      </trkpt>
      <trkpt lat="49.22444" lon="1.22177">
        <ele>54</ele>
        <time>2017-04-27T10:01:47Z</time>
      </trkpt>
      <trkpt lat="49.22447" lon="1.22185">
        <ele>54</ele>
        <time>2017-04-27T10:01:47Z</time>
      </trkpt>
      <trkpt lat="49.22447" lon="1.2219">
        <ele>54</ele>
        <time>2017-04-27T10:01:47Z</time>
      </trkpt>
      <trkpt lat="49.22449" lon="1.22193">
        <ele>54</ele>
        <time>2017-04-27T10:02:03Z</time>
      </trkpt>
      <trkpt lat="49.2245" lon="1.22198">
        <ele>54</ele>
        <time>2017-04-27T10:02:03Z</time>
      </trkpt>
      <trkpt lat="49.22448" lon="1.22208">
        <ele>54</ele>
        <time>2017-04-27T10:02:03Z</time>
      </trkpt>
      <trkpt lat="49.22446" lon="1.22217">
        <ele>47</ele>
        <time>2017-04-27T10:02:03Z</time>
      </trkpt>
      <trkpt lat="49.22445" lon="1.22225">
        <ele>47</ele>
        <time>2017-04-27T10:02:19Z</time>
      </trkpt>
      <trkpt lat="49.22443" lon="1.22232">
        <ele>47</ele>
        <time>2017-04-27T10:02:19Z</time>
      </trkpt>
      <trkpt lat="49.22442" lon="1.22236">
        <ele>47</ele>
        <time>2017-04-27T10:02:19Z</time>
      </trkpt>
      <trkpt lat="49.22441" lon="1.22244">
        <ele>47</ele>
        <time>2017-04-27T10:02:19Z</time>
      </trkpt>
      <trkpt lat="49.22441" lon="1.22249">
        <ele>47</ele>
        <time>2017-04-27T10:02:35Z</time>
      </trkpt>
      <trkpt lat="49.22439" lon="1.22255">
        <ele>47</ele>
        <time>2017-04-27T10:02:35Z</time>
      </trkpt>
      <trkpt lat="49.2244" lon="1.2226">
        <ele>47</ele>
        <time>2017-04-27T10:02:35Z</time>
      </trkpt>
      <trkpt lat="49.22441" lon="1.22267">
        <ele>47</ele>
        <time>2017-04-27T10:02:35Z</time>
      </trkpt>
      <trkpt lat="49.22443" lon="1.22272">
        <ele>47</ele>
        <time>2017-04-27T10:02:51Z</time>
      </trkpt>
      <trkpt lat="49.22446" lon="1.22281">
        <ele>47</ele>
        <time>2017-04-27T10:02:51Z</time>
      </trkpt>
      <trkpt lat="49.22448" lon="1.22287">
        <ele>47</ele>
        <time>2017-04-27T10:02:51Z</time>
      </trkpt>
      <trkpt lat="49.22449" lon="1.22295">
        <ele>32</ele>
        <time>2017-04-27T10:02:51Z</time>
      </trkpt>
      <trkpt lat="49.22449" lon="1.22303">
        <ele>32</ele>
        <time>2017-04-27T10:03:07Z</time>
      </trkpt>
      <trkpt lat="49.22451" lon="1.2231">
        <ele>32</ele>
        <time>2017-04-27T10:03:07Z</time>
      </trkpt>
      <trkpt lat="49.22454" lon="1.22318">
        <ele>32</ele>
        <time>2017-04-27T10:03:07Z</time>
      </trkpt>
      <trkpt lat="49.22455" lon="1.22323">
        <ele>32</ele>
        <time>2017-04-27T10:03:07Z</time>
      </trkpt>
      <trkpt lat="49.22457" lon="1.22327">
        <ele>32</ele>
        <time>2017-04-27T10:03:23Z</time>
      </trkpt>
      <trkpt lat="49.22461" lon="1.22332">
        <ele>24</ele>
        <time>2017-04-27T10:03:23Z</time>
      </trkpt>
      <trkpt lat="49.22466" lon="1.22334">
        <ele>24</ele>
        <time>2017-04-27T10:03:23Z</time>
      </trkpt>
      <trkpt lat="49.22469" lon="1.22335">
        <ele>24</ele>
        <time>2017-04-27T10:03:23Z</time>
      </trkpt>
      <trkpt lat="49.22473" lon="1.22337">
        <ele>24</ele>
        <time>2017-04-27T10:03:39Z</time>
      </trkpt>
      <trkpt lat="49.22476" lon="1.22337">
        <ele>24</ele>
        <time>2017-04-27T10:03:39Z</time>
      </trkpt>
      <trkpt lat="49.2248" lon="1.22338">
        <ele>24</ele>
        <time>2017-04-27T10:03:39Z</time>
      </trkpt>
      <trkpt lat="49.22483" lon="1.22338">
        <ele>24</ele>
        <time>2017-04-27T10:03:39Z</time>
      </trkpt>
      <trkpt lat="49.22487" lon="1.22339">
        <ele>24</ele>
        <time>2017-04-27T10:03:55Z</time>
      </trkpt>
      <trkpt lat="49.22491" lon="1.22341">
        <ele>24</ele>
        <time>2017-04-27T10:03:55Z</time>
      </trkpt>
      <trkpt lat="49.22495" lon="1.2234">
        <ele>24</ele>
        <time>2017-04-27T10:03:55Z</time>
      </trkpt>
      <trkpt lat="49.22498" lon="1.22341">
        <ele>24</ele>
        <time>2017-04-27T10:03:55Z</time>
      </trkpt>
      <trkpt lat="49.22507" lon="1.22342">
        <ele>24</ele>
        <time>2017-04-27T10:04:19Z</time>
      </trkpt>
      <trkpt lat="49.22507" lon="1.22347">
        <ele>24</ele>
        <time>2017-04-27T10:04:19Z</time>
      </trkpt>
      <trkpt lat="49.22505" lon="1.2235">
        <ele>24</ele>
        <time>2017-04-27T10:04:19Z</time>
      </trkpt>
      <trkpt lat="49.22505" lon="1.22353">
        <ele>24</ele>
        <time>2017-04-27T10:04:19Z</time>
      </trkpt>
      <trkpt lat="49.22505" lon="1.22356">
        <ele>24</ele>
        <time>2017-04-27T10:04:19Z</time>
      </trkpt>
      <trkpt lat="49.225" lon="1.22358">
        <ele>24</ele>
        <time>2017-04-27T10:04:35Z</time>
      </trkpt>
      <trkpt lat="49.22492" lon="1.22358">
        <ele>24</ele>
        <time>2017-04-27T10:04:35Z</time>
      </trkpt>
      <trkpt lat="49.22487" lon="1.22359">
        <ele>24</ele>
        <time>2017-04-27T10:04:35Z</time>
      </trkpt>
      <trkpt lat="49.22481" lon="1.22362">
        <ele>24</ele>
        <time>2017-04-27T10:04:35Z</time>
      </trkpt>
      <trkpt lat="49.22477" lon="1.22366">
        <ele>24</ele>
        <time>2017-04-27T10:04:51Z</time>
      </trkpt>
      <trkpt lat="49.22473" lon="1.22368">
        <ele>24</ele>
        <time>2017-04-27T10:04:51Z</time>
      </trkpt>
      <trkpt lat="49.2247" lon="1.2237">
        <ele>24</ele>
        <time>2017-04-27T10:04:51Z</time>
      </trkpt>
      <trkpt lat="49.22463" lon="1.22371">
        <ele>24</ele>
        <time>2017-04-27T10:04:51Z</time>
      </trkpt>
      <trkpt lat="49.22459" lon="1.22371">
        <ele>24</ele>
        <time>2017-04-27T10:05:07Z</time>
      </trkpt>
      <trkpt lat="49.22456" lon="1.22372">
        <ele>32</ele>
        <time>2017-04-27T10:05:07Z</time>
      </trkpt>
      <trkpt lat="49.22452" lon="1.22373">
        <ele>32</ele>
        <time>2017-04-27T10:05:07Z</time>
      </trkpt>
      <trkpt lat="49.22447" lon="1.22375">
        <ele>32</ele>
        <time>2017-04-27T10:05:07Z</time>
      </trkpt>
      <trkpt lat="49.22441" lon="1.22375">
        <ele>16</ele>
        <time>2017-04-27T10:05:23Z</time>
      </trkpt>
      <trkpt lat="49.22437" lon="1.22377">
        <ele>16</ele>
        <time>2017-04-27T10:05:23Z</time>
      </trkpt>
      <trkpt lat="49.22433" lon="1.22379">
        <ele>16</ele>
        <time>2017-04-27T10:05:23Z</time>
      </trkpt>
      <trkpt lat="49.22428" lon="1.22381">
        <ele>16</ele>
        <time>2017-04-27T10:05:23Z</time>
      </trkpt>
      <trkpt lat="49.22423" lon="1.22383">
        <ele>16</ele>
        <time>2017-04-27T10:05:39Z</time>
      </trkpt>
      <trkpt lat="49.2242" lon="1.22385">
        <ele>16</ele>
        <time>2017-04-27T10:05:39Z</time>
      </trkpt>
      <trkpt lat="49.22415" lon="1.22385">
        <ele>16</ele>
        <time>2017-04-27T10:05:39Z</time>
      </trkpt>
      <trkpt lat="49.22411" lon="1.22386">
        <ele>16</ele>
        <time>2017-04-27T10:05:39Z</time>
      </trkpt>
      <trkpt lat="49.22407" lon="1.22387">
        <ele>16</ele>
        <time>2017-04-27T10:05:55Z</time>
      </trkpt>
      <trkpt lat="49.22401" lon="1.2239">
        <ele>16</ele>
        <time>2017-04-27T10:05:55Z</time>
      </trkpt>
      <trkpt lat="49.22397" lon="1.22391">
        <ele>16</ele>
        <time>2017-04-27T10:05:55Z</time>
      </trkpt>
      <trkpt lat="49.22391" lon="1.22395">
        <ele>16</ele>
        <time>2017-04-27T10:05:55Z</time>
      </trkpt>
      <trkpt lat="49.22386" lon="1.22397">
        <ele>16</ele>
        <time>2017-04-27T10:06:11Z</time>
      </trkpt>
      <trkpt lat="49.22381" lon="1.22398">
        <ele>16</ele>
        <time>2017-04-27T10:06:11Z</time>
      </trkpt>
      <trkpt lat="49.22373" lon="1.22402">
        <ele>24</ele>
        <time>2017-04-27T10:06:11Z</time>
      </trkpt>
      <trkpt lat="49.22368" lon="1.22406">
        <ele>24</ele>
        <time>2017-04-27T10:06:11Z</time>
      </trkpt>
      <trkpt lat="49.22363" lon="1.22409">
        <ele>24</ele>
        <time>2017-04-27T10:06:27Z</time>
      </trkpt>
      <trkpt lat="49.22359" lon="1.22409">
        <ele>24</ele>
        <time>2017-04-27T10:06:27Z</time>
      </trkpt>
      <trkpt lat="49.2235" lon="1.22413">
        <ele>24</ele>
        <time>2017-04-27T10:06:27Z</time>
      </trkpt>
      <trkpt lat="49.22346" lon="1.22416">
        <ele>24</ele>
        <time>2017-04-27T10:06:27Z</time>
      </trkpt>
      <trkpt lat="49.2234" lon="1.2242">
        <ele>24</ele>
        <time>2017-04-27T10:06:43Z</time>
      </trkpt>
      <trkpt lat="49.22336" lon="1.22422">
        <ele>24</ele>
        <time>2017-04-27T10:06:43Z</time>
      </trkpt>
      <trkpt lat="49.2233" lon="1.22426">
        <ele>24</ele>
        <time>2017-04-27T10:06:43Z</time>
      </trkpt>
      <trkpt lat="49.22326" lon="1.22427">
        <ele>24</ele>
        <time>2017-04-27T10:06:43Z</time>
      </trkpt>
      <trkpt lat="49.2232" lon="1.22428">
        <ele>24</ele>
        <time>2017-04-27T10:06:59Z</time>
      </trkpt>
      <trkpt lat="49.22317" lon="1.22428">
        <ele>24</ele>
        <time>2017-04-27T10:06:59Z</time>
      </trkpt>
      <trkpt lat="49.22313" lon="1.2243">
        <ele>24</ele>
        <time>2017-04-27T10:06:59Z</time>
      </trkpt>
      <trkpt lat="49.22309" lon="1.2243">
        <ele>24</ele>
        <time>2017-04-27T10:06:59Z</time>
      </trkpt>
      <trkpt lat="49.22304" lon="1.22431">
        <ele>24</ele>
        <time>2017-04-27T10:07:15Z</time>
      </trkpt>
      <trkpt lat="49.22299" lon="1.22428">
        <ele>24</ele>
        <time>2017-04-27T10:07:15Z</time>
      </trkpt>
      <trkpt lat="49.22296" lon="1.22426">
        <ele>24</ele>
        <time>2017-04-27T10:07:15Z</time>
      </trkpt>
      <trkpt lat="49.22291" lon="1.22425">
        <ele>28</ele>
        <time>2017-04-27T10:07:15Z</time>
      </trkpt>
      <trkpt lat="49.22284" lon="1.22424">
        <ele>28</ele>
        <time>2017-04-27T10:07:31Z</time>
      </trkpt>
      <trkpt lat="49.22279" lon="1.22423">
        <ele>28</ele>
        <time>2017-04-27T10:07:31Z</time>
      </trkpt>
      <trkpt lat="49.22274" lon="1.22422">
        <ele>28</ele>
        <time>2017-04-27T10:07:31Z</time>
      </trkpt>
      <trkpt lat="49.22266" lon="1.22421">
        <ele>28</ele>
        <time>2017-04-27T10:07:31Z</time>
      </trkpt>
      <trkpt lat="49.22263" lon="1.22426">
        <ele>28</ele>
        <time>2017-04-27T10:07:47Z</time>
      </trkpt>
      <trkpt lat="49.2226" lon="1.22424">
        <ele>28</ele>
        <time>2017-04-27T10:07:47Z</time>
      </trkpt>
      <trkpt lat="49.22251" lon="1.22423">
        <ele>28</ele>
        <time>2017-04-27T10:07:47Z</time>
      </trkpt>
      <trkpt lat="49.22244" lon="1.22422">
        <ele>28</ele>
        <time>2017-04-27T10:07:47Z</time>
      </trkpt>
      <trkpt lat="49.22241" lon="1.22419">
        <ele>28</ele>
        <time>2017-04-27T10:08:03Z</time>
      </trkpt>
      <trkpt lat="49.22238" lon="1.22419">
        <ele>28</ele>
        <time>2017-04-27T10:08:03Z</time>
      </trkpt>
      <trkpt lat="49.2223" lon="1.22421">
        <ele>28</ele>
        <time>2017-04-27T10:08:03Z</time>
      </trkpt>
      <trkpt lat="49.22228" lon="1.22423">
        <ele>28</ele>
        <time>2017-04-27T10:08:03Z</time>
      </trkpt>
      <trkpt lat="49.22226" lon="1.22426">
        <ele>28</ele>
        <time>2017-04-27T10:08:23Z</time>
      </trkpt>
      <trkpt lat="49.22224" lon="1.22428">
        <ele>28</ele>
        <time>2017-04-27T10:08:23Z</time>
      </trkpt>
      <trkpt lat="49.22222" lon="1.2243">
        <ele>28</ele>
        <time>2017-04-27T10:08:23Z</time>
      </trkpt>
      <trkpt lat="49.2222" lon="1.22431">
        <ele>28</ele>
        <time>2017-04-27T10:08:23Z</time>
      </trkpt>
      <trkpt lat="49.22218" lon="1.22435">
        <ele>28</ele>
        <time>2017-04-27T10:08:23Z</time>
      </trkpt>
      <trkpt lat="49.22216" lon="1.22439">
        <ele>28</ele>
        <time>2017-04-27T10:08:39Z</time>
      </trkpt>
      <trkpt lat="49.22211" lon="1.22444">
        <ele>28</ele>
        <time>2017-04-27T10:08:39Z</time>
      </trkpt>
      <trkpt lat="49.22207" lon="1.22445">
        <ele>45</ele>
        <time>2017-04-27T10:08:39Z</time>
      </trkpt>
      <trkpt lat="49.22202" lon="1.22447">
        <ele>45</ele>
        <time>2017-04-27T10:08:39Z</time>
      </trkpt>
      <trkpt lat="49.22198" lon="1.22446">
        <ele>45</ele>
        <time>2017-04-27T10:08:55Z</time>
      </trkpt>
      <trkpt lat="49.22194" lon="1.22448">
        <ele>45</ele>
        <time>2017-04-27T10:08:55Z</time>
      </trkpt>
      <trkpt lat="49.22191" lon="1.22451">
        <ele>45</ele>
        <time>2017-04-27T10:08:55Z</time>
      </trkpt>
      <trkpt lat="49.22188" lon="1.22453">
        <ele>45</ele>
        <time>2017-04-27T10:08:55Z</time>
      </trkpt>
      <trkpt lat="49.22184" lon="1.22455">
        <ele>45</ele>
        <time>2017-04-27T10:09:11Z</time>
      </trkpt>
      <trkpt lat="49.2218" lon="1.22456">
        <ele>45</ele>
        <time>2017-04-27T10:09:11Z</time>
      </trkpt>
      <trkpt lat="49.22177" lon="1.22457">
        <ele>45</ele>
        <time>2017-04-27T10:09:11Z</time>
      </trkpt>
      <trkpt lat="49.22171" lon="1.22459">
        <ele>27</ele>
        <time>2017-04-27T10:09:11Z</time>
      </trkpt>
      <trkpt lat="49.22166" lon="1.22462">
        <ele>27</ele>
        <time>2017-04-27T10:09:27Z</time>
      </trkpt>
      <trkpt lat="49.22162" lon="1.22466">
        <ele>27</ele>
        <time>2017-04-27T10:09:27Z</time>
      </trkpt>
      <trkpt lat="49.22159" lon="1.22465">
        <ele>27</ele>
        <time>2017-04-27T10:09:27Z</time>
      </trkpt>
      <trkpt lat="49.22156" lon="1.22468">
        <ele>27</ele>
        <time>2017-04-27T10:09:27Z</time>
      </trkpt>
      <trkpt lat="49.22152" lon="1.22469">
        <ele>27</ele>
        <time>2017-04-27T10:09:43Z</time>
      </trkpt>
      <trkpt lat="49.22146" lon="1.22471">
        <ele>27</ele>
        <time>2017-04-27T10:09:43Z</time>
      </trkpt>
      <trkpt lat="49.22141" lon="1.22475">
        <ele>27</ele>
        <time>2017-04-27T10:09:43Z</time>
      </trkpt>
      <trkpt lat="49.22134" lon="1.22479">
        <ele>27</ele>
        <time>2017-04-27T10:09:43Z</time>
      </trkpt>
      <trkpt lat="49.22128" lon="1.22482">
        <ele>27</ele>
        <time>2017-04-27T10:09:59Z</time>
      </trkpt>
      <trkpt lat="49.22123" lon="1.22483">
        <ele>35</ele>
        <time>2017-04-27T10:09:59Z</time>
      </trkpt>
      <trkpt lat="49.22118" lon="1.22485">
        <ele>35</ele>
        <time>2017-04-27T10:09:59Z</time>
      </trkpt>
      <trkpt lat="49.22114" lon="1.22487">
        <ele>35</ele>
        <time>2017-04-27T10:09:59Z</time>
      </trkpt>
      <trkpt lat="49.22111" lon="1.22487">
        <ele>35</ele>
        <time>2017-04-27T10:10:15Z</time>
      </trkpt>
      <trkpt lat="49.22106" lon="1.22488">
        <ele>35</ele>
        <time>2017-04-27T10:10:15Z</time>
      </trkpt>
      <trkpt lat="49.22103" lon="1.2249">
        <ele>35</ele>
        <time>2017-04-27T10:10:15Z</time>
      </trkpt>
      <trkpt lat="49.22099" lon="1.22494">
        <ele>35</ele>
        <time>2017-04-27T10:10:15Z</time>
      </trkpt>
      <trkpt lat="49.22095" lon="1.22496">
        <ele>35</ele>
        <time>2017-04-27T10:10:31Z</time>
      </trkpt>
      <trkpt lat="49.22091" lon="1.225">
        <ele>35</ele>
        <time>2017-04-27T10:10:31Z</time>
      </trkpt>
      <trkpt lat="49.22086" lon="1.22503">
        <ele>35</ele>
        <time>2017-04-27T10:10:31Z</time>
      </trkpt>
      <trkpt lat="49.22083" lon="1.22507">
        <ele>35</ele>
        <time>2017-04-27T10:10:31Z</time>
      </trkpt>
      <trkpt lat="49.22078" lon="1.2251">
        <ele>35</ele>
        <time>2017-04-27T10:10:47Z</time>
      </trkpt>
      <trkpt lat="49.22073" lon="1.22511">
        <ele>35</ele>
        <time>2017-04-27T10:10:47Z</time>
      </trkpt>
      <trkpt lat="49.22068" lon="1.22514">
        <ele>35</ele>
        <time>2017-04-27T10:10:47Z</time>
      </trkpt>
      <trkpt lat="49.22062" lon="1.22517">
        <ele>35</ele>
        <time>2017-04-27T10:10:47Z</time>
      </trkpt>
      <trkpt lat="49.22058" lon="1.22518">
        <ele>35</ele>
        <time>2017-04-27T10:11:03Z</time>
      </trkpt>
      <trkpt lat="49.22052" lon="1.22518">
        <ele>35</ele>
        <time>2017-04-27T10:11:03Z</time>
      </trkpt>
      <trkpt lat="49.22047" lon="1.22519">
        <ele>35</ele>
        <time>2017-04-27T10:11:03Z</time>
      </trkpt>
      <trkpt lat="49.22041" lon="1.22519">
        <ele>34</ele>
        <time>2017-04-27T10:11:03Z</time>
      </trkpt>
      <trkpt lat="49.22038" lon="1.22521">
        <ele>34</ele>
        <time>2017-04-27T10:11:19Z</time>
      </trkpt>
      <trkpt lat="49.22034" lon="1.22519">
        <ele>34</ele>
        <time>2017-04-27T10:11:19Z</time>
      </trkpt>
      <trkpt lat="49.22029" lon="1.2252">
        <ele>34</ele>
        <time>2017-04-27T10:11:19Z</time>
      </trkpt>
      <trkpt lat="49.22023" lon="1.22525">
        <ele>34</ele>
        <time>2017-04-27T10:11:19Z</time>
      </trkpt>
      <trkpt lat="49.22021" lon="1.2253">
        <ele>34</ele>
        <time>2017-04-27T10:11:35Z</time>
      </trkpt>
      <trkpt lat="49.22018" lon="1.22539">
        <ele>34</ele>
        <time>2017-04-27T10:11:35Z</time>
      </trkpt>
      <trkpt lat="49.22015" lon="1.22543">
        <ele>22</ele>
        <time>2017-04-27T10:11:35Z</time>
      </trkpt>
      <trkpt lat="49.22011" lon="1.2255">
        <ele>22</ele>
        <time>2017-04-27T10:11:35Z</time>
      </trkpt>
      <trkpt lat="49.22007" lon="1.22556">
        <ele>22</ele>
        <time>2017-04-27T10:11:51Z</time>
      </trkpt>
      <trkpt lat="49.22004" lon="1.2256">
        <ele>22</ele>
        <time>2017-04-27T10:11:51Z</time>
      </trkpt>
      <trkpt lat="49.22" lon="1.22565">
        <ele>22</ele>
        <time>2017-04-27T10:11:51Z</time>
      </trkpt>
      <trkpt lat="49.21996" lon="1.22572">
        <ele>22</ele>
        <time>2017-04-27T10:11:51Z</time>
      </trkpt>
      <trkpt lat="49.2199" lon="1.22578">
        <ele>22</ele>
        <time>2017-04-27T10:12:07Z</time>
      </trkpt>
      <trkpt lat="49.21986" lon="1.22582">
        <ele>22</ele>
        <time>2017-04-27T10:12:07Z</time>
      </trkpt>
      <trkpt lat="49.21979" lon="1.22586">
        <ele>22</ele>
        <time>2017-04-27T10:12:07Z</time>
      </trkpt>
      <trkpt lat="49.21975" lon="1.2259">
        <ele>22</ele>
        <time>2017-04-27T10:12:07Z</time>
      </trkpt>
      <trkpt lat="49.21971" lon="1.22593">
        <ele>22</ele>
        <time>2017-04-27T10:12:23Z</time>
      </trkpt>
      <trkpt lat="49.21967" lon="1.22595">
        <ele>22</ele>
        <time>2017-04-27T10:12:23Z</time>
      </trkpt>
      <trkpt lat="49.21961" lon="1.22597">
        <ele>22</ele>
        <time>2017-04-27T10:12:23Z</time>
      </trkpt>
      <trkpt lat="49.21958" lon="1.22599">
        <ele>31</ele>
        <time>2017-04-27T10:12:23Z</time>
      </trkpt>
      <trkpt lat="49.21954" lon="1.22601">
        <ele>31</ele>
        <time>2017-04-27T10:12:39Z</time>
      </trkpt>
      <trkpt lat="49.21947" lon="1.22605">
        <ele>31</ele>
        <time>2017-04-27T10:12:39Z</time>
      </trkpt>
      <trkpt lat="49.21944" lon="1.22606">
        <ele>31</ele>
        <time>2017-04-27T10:12:39Z</time>
      </trkpt>
      <trkpt lat="49.2194" lon="1.22608">
        <ele>31</ele>
        <time>2017-04-27T10:12:39Z</time>
      </trkpt>
      <trkpt lat="49.21936" lon="1.22609">
        <ele>31</ele>
        <time>2017-04-27T10:12:55Z</time>
      </trkpt>
      <trkpt lat="49.21933" lon="1.2261">
        <ele>31</ele>
        <time>2017-04-27T10:12:55Z</time>
      </trkpt>
      <trkpt lat="49.21929" lon="1.22613">
        <ele>31</ele>
        <time>2017-04-27T10:12:55Z</time>
      </trkpt>
      <trkpt lat="49.21924" lon="1.22616">
        <ele>31</ele>
        <time>2017-04-27T10:12:55Z</time>
      </trkpt>
      <trkpt lat="49.21921" lon="1.22619">
        <ele>31</ele>
        <time>2017-04-27T10:13:11Z</time>
      </trkpt>
      <trkpt lat="49.21918" lon="1.22621">
        <ele>31</ele>
        <time>2017-04-27T10:13:11Z</time>
      </trkpt>
      <trkpt lat="49.21913" lon="1.22624">
        <ele>31</ele>
        <time>2017-04-27T10:13:11Z</time>
      </trkpt>
      <trkpt lat="49.21908" lon="1.22629">
        <ele>18</ele>
        <time>2017-04-27T10:13:11Z</time>
      </trkpt>
      <trkpt lat="49.21904" lon="1.22632">
        <ele>18</ele>
        <time>2017-04-27T10:13:27Z</time>
      </trkpt>
      <trkpt lat="49.219" lon="1.22636">
        <ele>18</ele>
        <time>2017-04-27T10:13:27Z</time>
      </trkpt>
      <trkpt lat="49.21895" lon="1.2264">
        <ele>18</ele>
        <time>2017-04-27T10:13:27Z</time>
      </trkpt>
      <trkpt lat="49.21889" lon="1.22641">
        <ele>18</ele>
        <time>2017-04-27T10:13:27Z</time>
      </trkpt>
      <trkpt lat="49.21883" lon="1.22647">
        <ele>18</ele>
        <time>2017-04-27T10:13:43Z</time>
      </trkpt>
      <trkpt lat="49.21878" lon="1.22651">
        <ele>18</ele>
        <time>2017-04-27T10:13:43Z</time>
      </trkpt>
      <trkpt lat="49.21874" lon="1.22656">
        <ele>26</ele>
        <time>2017-04-27T10:13:43Z</time>
      </trkpt>
      <trkpt lat="49.21867" lon="1.22664">
        <ele>26</ele>
        <time>2017-04-27T10:13:43Z</time>
      </trkpt>
      <trkpt lat="49.2186" lon="1.22669">
        <ele>26</ele>
        <time>2017-04-27T10:13:59Z</time>
      </trkpt>
      <trkpt lat="49.21856" lon="1.22673">
        <ele>26</ele>
        <time>2017-04-27T10:13:59Z</time>
      </trkpt>
      <trkpt lat="49.21851" lon="1.22679">
        <ele>26</ele>
        <time>2017-04-27T10:13:59Z</time>
      </trkpt>
      <trkpt lat="49.21847" lon="1.22684">
        <ele>26</ele>
        <time>2017-04-27T10:13:59Z</time>
      </trkpt>
      <trkpt lat="49.21845" lon="1.22691">
        <ele>26</ele>
        <time>2017-04-27T10:14:15Z</time>
      </trkpt>
      <trkpt lat="49.21844" lon="1.22698">
        <ele>26</ele>
        <time>2017-04-27T10:14:15Z</time>
      </trkpt>
      <trkpt lat="49.21842" lon="1.22702">
        <ele>26</ele>
        <time>2017-04-27T10:14:15Z</time>
      </trkpt>
      <trkpt lat="49.21838" lon="1.22709">
        <ele>15</ele>
        <time>2017-04-27T10:14:15Z</time>
      </trkpt>
      <trkpt lat="49.21836" lon="1.22711">
        <ele>15</ele>
        <time>2017-04-27T10:14:31Z</time>
      </trkpt>
      <trkpt lat="49.21834" lon="1.22714">
        <ele>15</ele>
        <time>2017-04-27T10:14:31Z</time>
      </trkpt>
      <trkpt lat="49.21831" lon="1.22716">
        <ele>15</ele>
        <time>2017-04-27T10:14:31Z</time>
      </trkpt>
      <trkpt lat="49.21826" lon="1.22717">
        <ele>15</ele>
        <time>2017-04-27T10:14:31Z</time>
      </trkpt>
      <trkpt lat="49.21822" lon="1.22719">
        <ele>15</ele>
        <time>2017-04-27T10:14:47Z</time>
      </trkpt>
      <trkpt lat="49.21816" lon="1.22724">
        <ele>15</ele>
        <time>2017-04-27T10:14:47Z</time>
      </trkpt>
      <trkpt lat="49.21813" lon="1.22726">
        <ele>15</ele>
        <time>2017-04-27T10:14:47Z</time>
      </trkpt>
      <trkpt lat="49.21809" lon="1.22729">
        <ele>15</ele>
        <time>2017-04-27T10:14:47Z</time>
      </trkpt>
      <trkpt lat="49.21806" lon="1.22731">
        <ele>15</ele>
        <time>2017-04-27T10:15:03Z</time>
      </trkpt>
      <trkpt lat="49.21802" lon="1.22734">
        <ele>15</ele>
        <time>2017-04-27T10:15:03Z</time>
      </trkpt>
      <trkpt lat="49.21797" lon="1.22739">
        <ele>15</ele>
        <time>2017-04-27T10:15:03Z</time>
      </trkpt>
      <trkpt lat="49.21791" lon="1.22744">
        <ele>21</ele>
        <time>2017-04-27T10:15:03Z</time>
      </trkpt>
      <trkpt lat="49.21785" lon="1.22746">
        <ele>21</ele>
        <time>2017-04-27T10:15:19Z</time>
      </trkpt>
      <trkpt lat="49.2178" lon="1.22747">
        <ele>21</ele>
        <time>2017-04-27T10:15:19Z</time>
      </trkpt>
      <trkpt lat="49.21776" lon="1.22751">
        <ele>21</ele>
        <time>2017-04-27T10:15:19Z</time>
      </trkpt>
      <trkpt lat="49.21772" lon="1.22753">
        <ele>21</ele>
        <time>2017-04-27T10:15:19Z</time>
      </trkpt>
      <trkpt lat="49.21768" lon="1.22757">
        <ele>21</ele>
        <time>2017-04-27T10:15:35Z</time>
      </trkpt>
      <trkpt lat="49.21764" lon="1.2276">
        <ele>21</ele>
        <time>2017-04-27T10:15:35Z</time>
      </trkpt>
      <trkpt lat="49.21757" lon="1.22765">
        <ele>21</ele>
        <time>2017-04-27T10:15:35Z</time>
      </trkpt>
      <trkpt lat="49.21753" lon="1.22766">
        <ele>21</ele>
        <time>2017-04-27T10:15:35Z</time>
      </trkpt>
      <trkpt lat="49.2175" lon="1.22768">
        <ele>21</ele>
        <time>2017-04-27T10:15:51Z</time>
      </trkpt>
      <trkpt lat="49.21745" lon="1.22772">
        <ele>21</ele>
        <time>2017-04-27T10:15:51Z</time>
      </trkpt>
      <trkpt lat="49.2174" lon="1.22776">
        <ele>21</ele>
        <time>2017-04-27T10:15:51Z</time>
      </trkpt>
      <trkpt lat="49.21735" lon="1.2278">
        <ele>21</ele>
        <time>2017-04-27T10:15:51Z</time>
      </trkpt>
      <trkpt lat="49.21733" lon="1.22781">
        <ele>21</ele>
        <time>2017-04-27T10:16:07Z</time>
      </trkpt>
      <trkpt lat="49.21728" lon="1.22786">
        <ele>21</ele>
        <time>2017-04-27T10:16:07Z</time>
      </trkpt>
      <trkpt lat="49.21723" lon="1.22789">
        <ele>21</ele>
        <time>2017-04-27T10:16:07Z</time>
      </trkpt>
      <trkpt lat="49.21718" lon="1.22794">
        <ele>12</ele>
        <time>2017-04-27T10:16:07Z</time>
      </trkpt>
      <trkpt lat="49.21715" lon="1.22796">
        <ele>12</ele>
        <time>2017-04-27T10:16:23Z</time>
      </trkpt>
      <trkpt lat="49.21712" lon="1.22798">
        <ele>12</ele>
        <time>2017-04-27T10:16:23Z</time>
      </trkpt>
      <trkpt lat="49.21708" lon="1.22802">
        <ele>18</ele>
        <time>2017-04-27T10:16:23Z</time>
      </trkpt>
      <trkpt lat="49.21704" lon="1.22804">
        <ele>18</ele>
        <time>2017-04-27T10:16:23Z</time>
      </trkpt>
      <trkpt lat="49.21698" lon="1.22807">
        <ele>18</ele>
        <time>2017-04-27T10:16:39Z</time>
      </trkpt>
      <trkpt lat="49.21692" lon="1.22809">
        <ele>18</ele>
        <time>2017-04-27T10:16:39Z</time>
      </trkpt>
      <trkpt lat="49.21688" lon="1.22812">
        <ele>18</ele>
        <time>2017-04-27T10:16:39Z</time>
      </trkpt>
      <trkpt lat="49.21686" lon="1.22813">
        <ele>18</ele>
        <time>2017-04-27T10:16:39Z</time>
      </trkpt>
      <trkpt lat="49.21682" lon="1.22816">
        <ele>18</ele>
        <time>2017-04-27T10:16:55Z</time>
      </trkpt>
      <trkpt lat="49.21679" lon="1.22819">
        <ele>18</ele>
        <time>2017-04-27T10:16:55Z</time>
      </trkpt>
      <trkpt lat="49.21673" lon="1.22822">
        <ele>18</ele>
        <time>2017-04-27T10:16:55Z</time>
      </trkpt>
      <trkpt lat="49.2167" lon="1.22823">
        <ele>18</ele>
        <time>2017-04-27T10:16:55Z</time>
      </trkpt>
      <trkpt lat="49.21664" lon="1.22825">
        <ele>18</ele>
        <time>2017-04-27T10:17:11Z</time>
      </trkpt>
      <trkpt lat="49.2166" lon="1.22829">
        <ele>18</ele>
        <time>2017-04-27T10:17:11Z</time>
      </trkpt>
      <trkpt lat="49.21656" lon="1.22832">
        <ele>18</ele>
        <time>2017-04-27T10:17:11Z</time>
      </trkpt>
      <trkpt lat="49.21651" lon="1.22838">
        <ele>18</ele>
        <time>2017-04-27T10:17:11Z</time>
      </trkpt>
      <trkpt lat="49.21646" lon="1.22845">
        <ele>18</ele>
        <time>2017-04-27T10:17:27Z</time>
      </trkpt>
      <trkpt lat="49.21642" lon="1.22851">
        <ele>18</ele>
        <time>2017-04-27T10:17:27Z</time>
      </trkpt>
      <trkpt lat="49.21636" lon="1.22855">
        <ele>18</ele>
        <time>2017-04-27T10:17:27Z</time>
      </trkpt>
      <trkpt lat="49.21632" lon="1.22859">
        <ele>18</ele>
        <time>2017-04-27T10:17:27Z</time>
      </trkpt>
      <trkpt lat="49.21631" lon="1.22859">
        <ele>18</ele>
        <time>2017-04-27T10:17:43Z</time>
      </trkpt>
      <trkpt lat="49.21625" lon="1.22863">
        <ele>18</ele>
        <time>2017-04-27T10:17:43Z</time>
      </trkpt>
      <trkpt lat="49.2162" lon="1.22867">
        <ele>29</ele>
        <time>2017-04-27T10:17:43Z</time>
      </trkpt>
      <trkpt lat="49.21617" lon="1.22871">
        <ele>29</ele>
        <time>2017-04-27T10:17:43Z</time>
      </trkpt>
      <trkpt lat="49.21614" lon="1.22873">
        <ele>29</ele>
        <time>2017-04-27T10:17:59Z</time>
      </trkpt>
      <trkpt lat="49.21611" lon="1.22873">
        <ele>29</ele>
        <time>2017-04-27T10:17:59Z</time>
      </trkpt>
      <trkpt lat="49.21606" lon="1.22873">
        <ele>29</ele>
        <time>2017-04-27T10:17:59Z</time>
      </trkpt>
      <trkpt lat="49.21602" lon="1.22876">
        <ele>16</ele>
        <time>2017-04-27T10:17:59Z</time>
      </trkpt>
      <trkpt lat="49.21598" lon="1.2288">
        <ele>16</ele>
        <time>2017-04-27T10:18:15Z</time>
      </trkpt>
      <trkpt lat="49.21593" lon="1.22881">
        <ele>16</ele>
        <time>2017-04-27T10:18:15Z</time>
      </trkpt>
      <trkpt lat="49.2159" lon="1.22884">
        <ele>16</ele>
        <time>2017-04-27T10:18:15Z</time>
      </trkpt>
      <trkpt lat="49.21587" lon="1.22888">
        <ele>16</ele>
        <time>2017-04-27T10:18:15Z</time>
      </trkpt>
      <trkpt lat="49.21583" lon="1.22891">
        <ele>16</ele>
        <time>2017-04-27T10:18:31Z</time>
      </trkpt>
      <trkpt lat="49.21578" lon="1.22898">
        <ele>16</ele>
        <time>2017-04-27T10:18:31Z</time>
      </trkpt>
      <trkpt lat="49.21573" lon="1.22907">
        <ele>16</ele>
        <time>2017-04-27T10:18:31Z</time>
      </trkpt>
      <trkpt lat="49.21568" lon="1.22916">
        <ele>16</ele>
        <time>2017-04-27T10:18:31Z</time>
      </trkpt>
      <trkpt lat="49.2156" lon="1.22923">
        <ele>16</ele>
        <time>2017-04-27T10:18:47Z</time>
      </trkpt>
      <trkpt lat="49.21557" lon="1.22927">
        <ele>16</ele>
        <time>2017-04-27T10:18:47Z</time>
      </trkpt>
      <trkpt lat="49.21553" lon="1.22931">
        <ele>16</ele>
        <time>2017-04-27T10:18:47Z</time>
      </trkpt>
      <trkpt lat="49.21548" lon="1.22934">
        <ele>16</ele>
        <time>2017-04-27T10:18:47Z</time>
      </trkpt>
      <trkpt lat="49.21544" lon="1.22937">
        <ele>16</ele>
        <time>2017-04-27T10:19:03Z</time>
      </trkpt>
      <trkpt lat="49.21539" lon="1.2294">
        <ele>35</ele>
        <time>2017-04-27T10:19:03Z</time>
      </trkpt>
      <trkpt lat="49.21534" lon="1.22947">
        <ele>35</ele>
        <time>2017-04-27T10:19:03Z</time>
      </trkpt>
      <trkpt lat="49.21532" lon="1.22953">
        <ele>35</ele>
        <time>2017-04-27T10:19:03Z</time>
      </trkpt>
      <trkpt lat="49.21527" lon="1.22959">
        <ele>17</ele>
        <time>2017-04-27T10:19:19Z</time>
      </trkpt>
      <trkpt lat="49.21522" lon="1.22962">
        <ele>17</ele>
        <time>2017-04-27T10:19:19Z</time>
      </trkpt>
      <trkpt lat="49.21518" lon="1.22967">
        <ele>17</ele>
        <time>2017-04-27T10:19:19Z</time>
      </trkpt>
      <trkpt lat="49.21514" lon="1.2297">
        <ele>17</ele>
        <time>2017-04-27T10:19:19Z</time>
      </trkpt>
      <trkpt lat="49.21509" lon="1.22972">
        <ele>17</ele>
        <time>2017-04-27T10:19:35Z</time>
      </trkpt>
      <trkpt lat="49.21501" lon="1.22974">
        <ele>17</ele>
        <time>2017-04-27T10:19:35Z</time>
      </trkpt>
      <trkpt lat="49.21499" lon="1.22975">
        <ele>17</ele>
        <time>2017-04-27T10:19:35Z</time>
      </trkpt>
      <trkpt lat="49.21497" lon="1.22979">
        <ele>17</ele>
        <time>2017-04-27T10:19:35Z</time>
      </trkpt>
      <trkpt lat="49.21497" lon="1.22979">
        <ele>17</ele>
        <time>2017-04-27T10:20:03Z</time>
      </trkpt>
      <trkpt lat="49.21497" lon="1.22979">
        <ele>17</ele>
        <time>2017-04-27T10:20:03Z</time>
      </trkpt>
      <trkpt lat="49.21495" lon="1.22979">
        <ele>17</ele>
        <time>2017-04-27T10:20:03Z</time>
      </trkpt>
      <trkpt lat="49.21491" lon="1.22983">
        <ele>17</ele>
        <time>2017-04-27T10:20:03Z</time>
      </trkpt>
      <trkpt lat="49.21489" lon="1.22987">
        <ele>17</ele>
        <time>2017-04-27T10:20:03Z</time>
      </trkpt>
      <trkpt lat="49.21487" lon="1.2299">
        <ele>17</ele>
        <time>2017-04-27T10:20:19Z</time>
      </trkpt>
      <trkpt lat="49.21485" lon="1.22993">
        <ele>17</ele>
        <time>2017-04-27T10:20:19Z</time>
      </trkpt>
      <trkpt lat="49.21483" lon="1.22994">
        <ele>17</ele>
        <time>2017-04-27T10:20:19Z</time>
      </trkpt>
      <trkpt lat="49.21478" lon="1.22997">
        <ele>17</ele>
        <time>2017-04-27T10:20:19Z</time>
      </trkpt>
      <trkpt lat="49.21474" lon="1.23">
        <ele>17</ele>
        <time>2017-04-27T10:20:35Z</time>
      </trkpt>
      <trkpt lat="49.21472" lon="1.23004">
        <ele>17</ele>
        <time>2017-04-27T10:20:35Z</time>
      </trkpt>
      <trkpt lat="49.21469" lon="1.23009">
        <ele>17</ele>
        <time>2017-04-27T10:20:35Z</time>
      </trkpt>
      <trkpt lat="49.21466" lon="1.23012">
        <ele>17</ele>
        <time>2017-04-27T10:20:35Z</time>
      </trkpt>
      <trkpt lat="49.21462" lon="1.23014">
        <ele>17</ele>
        <time>2017-04-27T10:20:51Z</time>
      </trkpt>
      <trkpt lat="49.21458" lon="1.23018">
        <ele>40</ele>
        <time>2017-04-27T10:20:51Z</time>
      </trkpt>
      <trkpt lat="49.21451" lon="1.23026">
        <ele>40</ele>
        <time>2017-04-27T10:20:51Z</time>
      </trkpt>
      <trkpt lat="49.21446" lon="1.2303">
        <ele>40</ele>
        <time>2017-04-27T10:20:51Z</time>
      </trkpt>
      <trkpt lat="49.21445" lon="1.23032">
        <ele>40</ele>
        <time>2017-04-27T10:21:07Z</time>
      </trkpt>
      <trkpt lat="49.21436" lon="1.23039">
        <ele>40</ele>
        <time>2017-04-27T10:21:07Z</time>
      </trkpt>
      <trkpt lat="49.21436" lon="1.23041">
        <ele>40</ele>
        <time>2017-04-27T10:21:07Z</time>
      </trkpt>
      <trkpt lat="49.21432" lon="1.23051">
        <ele>19</ele>
        <time>2017-04-27T10:21:07Z</time>
      </trkpt>
      <trkpt lat="49.2143" lon="1.23056">
        <ele>19</ele>
        <time>2017-04-27T10:21:23Z</time>
      </trkpt>
      <trkpt lat="49.21424" lon="1.23064">
        <ele>19</ele>
        <time>2017-04-27T10:21:23Z</time>
      </trkpt>
      <trkpt lat="49.2142" lon="1.23068">
        <ele>19</ele>
        <time>2017-04-27T10:21:23Z</time>
      </trkpt>
      <trkpt lat="49.21415" lon="1.23072">
        <ele>19</ele>
        <time>2017-04-27T10:21:23Z</time>
      </trkpt>
      <trkpt lat="49.21411" lon="1.23076">
        <ele>19</ele>
        <time>2017-04-27T10:21:39Z</time>
      </trkpt>
      <trkpt lat="49.21407" lon="1.23081">
        <ele>19</ele>
        <time>2017-04-27T10:21:39Z</time>
      </trkpt>
      <trkpt lat="49.21403" lon="1.23084">
        <ele>19</ele>
        <time>2017-04-27T10:21:39Z</time>
      </trkpt>
      <trkpt lat="49.21401" lon="1.23085">
        <ele>19</ele>
        <time>2017-04-27T10:21:39Z</time>
      </trkpt>
      <trkpt lat="49.21397" lon="1.23086">
        <ele>19</ele>
        <time>2017-04-27T10:21:55Z</time>
      </trkpt>
      <trkpt lat="49.21395" lon="1.2309">
        <ele>19</ele>
        <time>2017-04-27T10:21:55Z</time>
      </trkpt>
      <trkpt lat="49.2139" lon="1.23098">
        <ele>19</ele>
        <time>2017-04-27T10:21:55Z</time>
      </trkpt>
      <trkpt lat="49.21387" lon="1.23104">
        <ele>19</ele>
        <time>2017-04-27T10:21:55Z</time>
      </trkpt>
      <trkpt lat="49.21386" lon="1.23104">
        <ele>19</ele>
        <time>2017-04-27T10:22:11Z</time>
      </trkpt>
      <trkpt lat="49.2138" lon="1.23108">
        <ele>19</ele>
        <time>2017-04-27T10:22:11Z</time>
      </trkpt>
      <trkpt lat="49.21376" lon="1.2311">
        <ele>19</ele>
        <time>2017-04-27T10:22:11Z</time>
      </trkpt>
      <trkpt lat="49.21369" lon="1.23111">
        <ele>25</ele>
        <time>2017-04-27T10:22:11Z</time>
      </trkpt>
      <trkpt lat="49.21362" lon="1.23113">
        <ele>25</ele>
        <time>2017-04-27T10:22:27Z</time>
      </trkpt>
      <trkpt lat="49.21357" lon="1.23115">
        <ele>25</ele>
        <time>2017-04-27T10:22:27Z</time>
      </trkpt>
      <trkpt lat="49.21357" lon="1.23115">
        <ele>25</ele>
        <time>2017-04-27T10:22:27Z</time>
      </trkpt>
      <trkpt lat="49.21353" lon="1.23124">
        <ele>25</ele>
        <time>2017-04-27T10:22:27Z</time>
      </trkpt>
      <trkpt lat="49.2135" lon="1.23129">
        <ele>16</ele>
        <time>2017-04-27T10:22:43Z</time>
      </trkpt>
      <trkpt lat="49.21347" lon="1.23131">
        <ele>16</ele>
        <time>2017-04-27T10:22:43Z</time>
      </trkpt>
      <trkpt lat="49.21342" lon="1.23136">
        <ele>16</ele>
        <time>2017-04-27T10:22:43Z</time>
      </trkpt>
      <trkpt lat="49.21336" lon="1.23135">
        <ele>16</ele>
        <time>2017-04-27T10:22:43Z</time>
      </trkpt>
      <trkpt lat="49.21323" lon="1.23131">
        <ele>16</ele>
        <time>2017-04-27T10:28:43Z</time>
      </trkpt>
      <trkpt lat="49.21321" lon="1.2313">
        <ele>16</ele>
        <time>2017-04-27T10:28:43Z</time>
      </trkpt>
      <trkpt lat="49.2132" lon="1.23129">
        <ele>16</ele>
        <time>2017-04-27T10:28:43Z</time>
      </trkpt>
      <trkpt lat="49.21319" lon="1.23128">
        <ele>16</ele>
        <time>2017-04-27T10:28:43Z</time>
      </trkpt>
      <trkpt lat="49.21318" lon="1.23127">
        <ele>16</ele>
        <time>2017-04-27T10:28:43Z</time>
      </trkpt>
      <trkpt lat="49.21315" lon="1.23122">
        <ele>25</ele>
        <time>2017-04-27T10:28:59Z</time>
      </trkpt>
      <trkpt lat="49.21314" lon="1.23121">
        <ele>25</ele>
        <time>2017-04-27T10:28:59Z</time>
      </trkpt>
      <trkpt lat="49.21308" lon="1.23117">
        <ele>25</ele>
        <time>2017-04-27T10:28:59Z</time>
      </trkpt>
      <trkpt lat="49.21306" lon="1.23115">
        <ele>25</ele>
        <time>2017-04-27T10:28:59Z</time>
      </trkpt>
      <trkpt lat="49.21301" lon="1.2311">
        <ele>25</ele>
        <time>2017-04-27T10:29:15Z</time>
      </trkpt>
      <trkpt lat="49.213" lon="1.23108">
        <ele>25</ele>
        <time>2017-04-27T10:29:15Z</time>
      </trkpt>
      <trkpt lat="49.21296" lon="1.23106">
        <ele>25</ele>
        <time>2017-04-27T10:29:15Z</time>
      </trkpt>
      <trkpt lat="49.21292" lon="1.23103">
        <ele>25</ele>
        <time>2017-04-27T10:29:15Z</time>
      </trkpt>
      <trkpt lat="49.21284" lon="1.23101">
        <ele>36</ele>
        <time>2017-04-27T10:29:39Z</time>
      </trkpt>
      <trkpt lat="49.21283" lon="1.23102">
        <ele>36</ele>
        <time>2017-04-27T10:29:39Z</time>
      </trkpt>
      <trkpt lat="49.21281" lon="1.23102">
        <ele>36</ele>
        <time>2017-04-27T10:29:39Z</time>
      </trkpt>
      <trkpt lat="49.21278" lon="1.23104">
        <ele>36</ele>
        <time>2017-04-27T10:29:39Z</time>
      </trkpt>
      <trkpt lat="49.21273" lon="1.23109">
        <ele>36</ele>
        <time>2017-04-27T10:29:39Z</time>
      </trkpt>
      <trkpt lat="49.21271" lon="1.2311">
        <ele>36</ele>
        <time>2017-04-27T10:29:59Z</time>
      </trkpt>
      <trkpt lat="49.21269" lon="1.23111">
        <ele>36</ele>
        <time>2017-04-27T10:29:59Z</time>
      </trkpt>
      <trkpt lat="49.21268" lon="1.23117">
        <ele>36</ele>
        <time>2017-04-27T10:29:59Z</time>
      </trkpt>
      <trkpt lat="49.21266" lon="1.23119">
        <ele>36</ele>
        <time>2017-04-27T10:29:59Z</time>
      </trkpt>
      <trkpt lat="49.21264" lon="1.2312">
        <ele>36</ele>
        <time>2017-04-27T10:29:59Z</time>
      </trkpt>
      <trkpt lat="49.21258" lon="1.23126">
        <ele>26</ele>
        <time>2017-04-27T10:30:23Z</time>
      </trkpt>
      <trkpt lat="49.21256" lon="1.23127">
        <ele>26</ele>
        <time>2017-04-27T10:30:23Z</time>
      </trkpt>
      <trkpt lat="49.21255" lon="1.23129">
        <ele>26</ele>
        <time>2017-04-27T10:30:23Z</time>
      </trkpt>
      <trkpt lat="49.21253" lon="1.2313">
        <ele>26</ele>
        <time>2017-04-27T10:30:23Z</time>
      </trkpt>
      <trkpt lat="49.21251" lon="1.23132">
        <ele>26</ele>
        <time>2017-04-27T10:30:23Z</time>
      </trkpt>
      <trkpt lat="49.21249" lon="1.23133">
        <ele>26</ele>
        <time>2017-04-27T10:30:39Z</time>
      </trkpt>
      <trkpt lat="49.21245" lon="1.23135">
        <ele>26</ele>
        <time>2017-04-27T10:30:39Z</time>
      </trkpt>
      <trkpt lat="49.21242" lon="1.23138">
        <ele>26</ele>
        <time>2017-04-27T10:30:39Z</time>
      </trkpt>
      <trkpt lat="49.21239" lon="1.2314">
        <ele>26</ele>
        <time>2017-04-27T10:30:39Z</time>
      </trkpt>
      <trkpt lat="49.21237" lon="1.23144">
        <ele>26</ele>
        <time>2017-04-27T10:30:55Z</time>
      </trkpt>
      <trkpt lat="49.21236" lon="1.23146">
        <ele>26</ele>
        <time>2017-04-27T10:30:55Z</time>
      </trkpt>
      <trkpt lat="49.21235" lon="1.23148">
        <ele>26</ele>
        <time>2017-04-27T10:30:55Z</time>
      </trkpt>
      <trkpt lat="49.2123" lon="1.23155">
        <ele>26</ele>
        <time>2017-04-27T10:30:55Z</time>
      </trkpt>
      <trkpt lat="49.21228" lon="1.23158">
        <ele>26</ele>
        <time>2017-04-27T10:31:11Z</time>
      </trkpt>
      <trkpt lat="49.21226" lon="1.23161">
        <ele>26</ele>
        <time>2017-04-27T10:31:11Z</time>
      </trkpt>
      <trkpt lat="49.21222" lon="1.23165">
        <ele>26</ele>
        <time>2017-04-27T10:31:11Z</time>
      </trkpt>
      <trkpt lat="49.21219" lon="1.23167">
        <ele>26</ele>
        <time>2017-04-27T10:31:11Z</time>
      </trkpt>
      <trkpt lat="49.21213" lon="1.23175">
        <ele>26</ele>
        <time>2017-04-27T10:31:39Z</time>
      </trkpt>
      <trkpt lat="49.21213" lon="1.2318">
        <ele>26</ele>
        <time>2017-04-27T10:31:39Z</time>
      </trkpt>
      <trkpt lat="49.21212" lon="1.23185">
        <ele>26</ele>
        <time>2017-04-27T10:31:39Z</time>
      </trkpt>
      <trkpt lat="49.21211" lon="1.23189">
        <ele>26</ele>
        <time>2017-04-27T10:31:39Z</time>
      </trkpt>
      <trkpt lat="49.21212" lon="1.2319">
        <ele>26</ele>
        <time>2017-04-27T10:31:39Z</time>
      </trkpt>
      <trkpt lat="49.2121" lon="1.23184">
        <ele>26</ele>
        <time>2017-04-27T10:32:43Z</time>
      </trkpt>
      <trkpt lat="49.21209" lon="1.23185">
        <ele>26</ele>
        <time>2017-04-27T10:32:43Z</time>
      </trkpt>
      <trkpt lat="49.21205" lon="1.23186">
        <ele>48</ele>
        <time>2017-04-27T10:32:43Z</time>
      </trkpt>
      <trkpt lat="49.21203" lon="1.23185">
        <ele>48</ele>
        <time>2017-04-27T10:32:43Z</time>
      </trkpt>
      <trkpt lat="49.212" lon="1.23185">
        <ele>48</ele>
        <time>2017-04-27T10:32:43Z</time>
      </trkpt>
      <trkpt lat="49.21197" lon="1.23184">
        <ele>48</ele>
        <time>2017-04-27T10:33:03Z</time>
      </trkpt>
      <trkpt lat="49.21195" lon="1.23185">
        <ele>48</ele>
        <time>2017-04-27T10:33:03Z</time>
      </trkpt>
      <trkpt lat="49.21193" lon="1.23186">
        <ele>48</ele>
        <time>2017-04-27T10:33:03Z</time>
      </trkpt>
      <trkpt lat="49.2119" lon="1.23187">
        <ele>48</ele>
        <time>2017-04-27T10:33:03Z</time>
      </trkpt>
      <trkpt lat="49.21187" lon="1.23189">
        <ele>48</ele>
        <time>2017-04-27T10:33:03Z</time>
      </trkpt>
      <trkpt lat="49.21185" lon="1.23191">
        <ele>48</ele>
        <time>2017-04-27T10:33:23Z</time>
      </trkpt>
      <trkpt lat="49.21182" lon="1.23191">
        <ele>48</ele>
        <time>2017-04-27T10:33:23Z</time>
      </trkpt>
      <trkpt lat="49.21179" lon="1.23193">
        <ele>48</ele>
        <time>2017-04-27T10:33:23Z</time>
      </trkpt>
      <trkpt lat="49.21177" lon="1.23195">
        <ele>48</ele>
        <time>2017-04-27T10:33:23Z</time>
      </trkpt>
      <trkpt lat="49.21173" lon="1.23199">
        <ele>48</ele>
        <time>2017-04-27T10:33:23Z</time>
      </trkpt>
      <trkpt lat="49.21169" lon="1.23202">
        <ele>48</ele>
        <time>2017-04-27T10:33:39Z</time>
      </trkpt>
      <trkpt lat="49.21165" lon="1.23206">
        <ele>48</ele>
        <time>2017-04-27T10:33:39Z</time>
      </trkpt>
      <trkpt lat="49.21161" lon="1.23208">
        <ele>41</ele>
        <time>2017-04-27T10:33:39Z</time>
      </trkpt>
      <trkpt lat="49.21157" lon="1.2321">
        <ele>41</ele>
        <time>2017-04-27T10:33:39Z</time>
      </trkpt>
      <trkpt lat="49.21154" lon="1.2321">
        <ele>41</ele>
        <time>2017-04-27T10:33:59Z</time>
      </trkpt>
      <trkpt lat="49.2115" lon="1.23212">
        <ele>41</ele>
        <time>2017-04-27T10:33:59Z</time>
      </trkpt>
      <trkpt lat="49.21147" lon="1.23215">
        <ele>41</ele>
        <time>2017-04-27T10:33:59Z</time>
      </trkpt>
      <trkpt lat="49.21146" lon="1.23216">
        <ele>41</ele>
        <time>2017-04-27T10:33:59Z</time>
      </trkpt>
      <trkpt lat="49.21145" lon="1.23217">
        <ele>41</ele>
        <time>2017-04-27T10:33:59Z</time>
      </trkpt>
      <trkpt lat="49.21142" lon="1.23218">
        <ele>41</ele>
        <time>2017-04-27T10:34:19Z</time>
      </trkpt>
      <trkpt lat="49.2114" lon="1.23218">
        <ele>41</ele>
        <time>2017-04-27T10:34:19Z</time>
      </trkpt>
      <trkpt lat="49.21136" lon="1.23218">
        <ele>41</ele>
        <time>2017-04-27T10:34:19Z</time>
      </trkpt>
      <trkpt lat="49.21134" lon="1.2322">
        <ele>41</ele>
        <time>2017-04-27T10:34:19Z</time>
      </trkpt>
      <trkpt lat="49.21133" lon="1.23225">
        <ele>41</ele>
        <time>2017-04-27T10:34:19Z</time>
      </trkpt>
      <trkpt lat="49.2113" lon="1.23229">
        <ele>41</ele>
        <time>2017-04-27T10:34:35Z</time>
      </trkpt>
      <trkpt lat="49.21128" lon="1.23237">
        <ele>41</ele>
        <time>2017-04-27T10:34:35Z</time>
      </trkpt>
      <trkpt lat="49.21126" lon="1.23242">
        <ele>41</ele>
        <time>2017-04-27T10:34:35Z</time>
      </trkpt>
      <trkpt lat="49.21124" lon="1.23245">
        <ele>61</ele>
        <time>2017-04-27T10:34:35Z</time>
      </trkpt>
      <trkpt lat="49.21122" lon="1.23249">
        <ele>61</ele>
        <time>2017-04-27T10:34:51Z</time>
      </trkpt>
      <trkpt lat="49.2112" lon="1.23254">
        <ele>61</ele>
        <time>2017-04-27T10:34:51Z</time>
      </trkpt>
      <trkpt lat="49.21117" lon="1.23259">
        <ele>61</ele>
        <time>2017-04-27T10:34:51Z</time>
      </trkpt>
      <trkpt lat="49.21115" lon="1.23261">
        <ele>61</ele>
        <time>2017-04-27T10:34:51Z</time>
      </trkpt>
      <trkpt lat="49.21113" lon="1.23263">
        <ele>61</ele>
        <time>2017-04-27T10:35:11Z</time>
      </trkpt>
      <trkpt lat="49.21113" lon="1.23265">
        <ele>61</ele>
        <time>2017-04-27T10:35:11Z</time>
      </trkpt>
      <trkpt lat="49.21109" lon="1.23268">
        <ele>61</ele>
        <time>2017-04-27T10:35:11Z</time>
      </trkpt>
      <trkpt lat="49.21107" lon="1.2327">
        <ele>61</ele>
        <time>2017-04-27T10:35:11Z</time>
      </trkpt>
      <trkpt lat="49.21102" lon="1.23275">
        <ele>61</ele>
        <time>2017-04-27T10:35:11Z</time>
      </trkpt>
      <trkpt lat="49.21099" lon="1.23278">
        <ele>61</ele>
        <time>2017-04-27T10:35:31Z</time>
      </trkpt>
      <trkpt lat="49.21096" lon="1.23279">
        <ele>61</ele>
        <time>2017-04-27T10:35:31Z</time>
      </trkpt>
      <trkpt lat="49.21093" lon="1.2328">
        <ele>61</ele>
        <time>2017-04-27T10:35:31Z</time>
      </trkpt>
      <trkpt lat="49.21091" lon="1.23281">
        <ele>61</ele>
        <time>2017-04-27T10:35:31Z</time>
      </trkpt>
      <trkpt lat="49.21089" lon="1.23281">
        <ele>61</ele>
        <time>2017-04-27T10:35:31Z</time>
      </trkpt>
      <trkpt lat="49.21085" lon="1.23281">
        <ele>61</ele>
        <time>2017-04-27T10:35:47Z</time>
      </trkpt>
      <trkpt lat="49.21082" lon="1.2328">
        <ele>61</ele>
        <time>2017-04-27T10:35:47Z</time>
      </trkpt>
      <trkpt lat="49.21078" lon="1.23279">
        <ele>61</ele>
        <time>2017-04-27T10:35:47Z</time>
      </trkpt>
      <trkpt lat="49.21075" lon="1.23277">
        <ele>61</ele>
        <time>2017-04-27T10:35:47Z</time>
      </trkpt>
      <trkpt lat="49.21072" lon="1.23276">
        <ele>61</ele>
        <time>2017-04-27T10:36:03Z</time>
      </trkpt>
      <trkpt lat="49.21069" lon="1.23274">
        <ele>61</ele>
        <time>2017-04-27T10:36:03Z</time>
      </trkpt>
      <trkpt lat="49.21066" lon="1.23272">
        <ele>61</ele>
        <time>2017-04-27T10:36:03Z</time>
      </trkpt>
      <trkpt lat="49.21063" lon="1.23271">
        <ele>61</ele>
        <time>2017-04-27T10:36:03Z</time>
      </trkpt>
      <trkpt lat="49.2106" lon="1.23268">
        <ele>61</ele>
        <time>2017-04-27T10:36:19Z</time>
      </trkpt>
      <trkpt lat="49.21056" lon="1.23267">
        <ele>61</ele>
        <time>2017-04-27T10:36:19Z</time>
      </trkpt>
      <trkpt lat="49.21052" lon="1.23265">
        <ele>61</ele>
        <time>2017-04-27T10:36:19Z</time>
      </trkpt>
      <trkpt lat="49.21048" lon="1.23263">
        <ele>61</ele>
        <time>2017-04-27T10:36:19Z</time>
      </trkpt>
      <trkpt lat="49.21047" lon="1.23261">
        <ele>61</ele>
        <time>2017-04-27T10:36:35Z</time>
      </trkpt>
      <trkpt lat="49.21045" lon="1.23259">
        <ele>61</ele>
        <time>2017-04-27T10:36:35Z</time>
      </trkpt>
      <trkpt lat="49.21042" lon="1.23256">
        <ele>80</ele>
        <time>2017-04-27T10:36:35Z</time>
      </trkpt>
      <trkpt lat="49.21037" lon="1.23254">
        <ele>80</ele>
        <time>2017-04-27T10:36:35Z</time>
      </trkpt>
      <trkpt lat="49.21034" lon="1.23252">
        <ele>80</ele>
        <time>2017-04-27T10:36:55Z</time>
      </trkpt>
      <trkpt lat="49.21032" lon="1.23251">
        <ele>80</ele>
        <time>2017-04-27T10:36:55Z</time>
      </trkpt>
      <trkpt lat="49.2103" lon="1.23251">
        <ele>80</ele>
        <time>2017-04-27T10:36:55Z</time>
      </trkpt>
      <trkpt lat="49.21027" lon="1.2325">
        <ele>80</ele>
        <time>2017-04-27T10:36:55Z</time>
      </trkpt>
      <trkpt lat="49.21024" lon="1.23249">
        <ele>80</ele>
        <time>2017-04-27T10:36:55Z</time>
      </trkpt>
      <trkpt lat="49.21022" lon="1.23247">
        <ele>80</ele>
        <time>2017-04-27T10:37:11Z</time>
      </trkpt>
      <trkpt lat="49.21019" lon="1.23245">
        <ele>80</ele>
        <time>2017-04-27T10:37:11Z</time>
      </trkpt>
      <trkpt lat="49.21016" lon="1.23243">
        <ele>80</ele>
        <time>2017-04-27T10:37:11Z</time>
      </trkpt>
      <trkpt lat="49.21013" lon="1.23241">
        <ele>80</ele>
        <time>2017-04-27T10:37:11Z</time>
      </trkpt>
      <trkpt lat="49.21004" lon="1.23236">
        <ele>80</ele>
        <time>2017-04-27T10:37:39Z</time>
      </trkpt>
      <trkpt lat="49.21002" lon="1.23233">
        <ele>80</ele>
        <time>2017-04-27T10:37:39Z</time>
      </trkpt>
      <trkpt lat="49.21002" lon="1.23233">
        <ele>80</ele>
        <time>2017-04-27T10:37:39Z</time>
      </trkpt>
      <trkpt lat="49.21002" lon="1.23232">
        <ele>80</ele>
        <time>2017-04-27T10:37:39Z</time>
      </trkpt>
      <trkpt lat="49.21001" lon="1.23233">
        <ele>80</ele>
        <time>2017-04-27T10:37:39Z</time>
      </trkpt>
      <trkpt lat="49.20997" lon="1.2323">
        <ele>80</ele>
        <time>2017-04-27T10:37:59Z</time>
      </trkpt>
      <trkpt lat="49.20996" lon="1.23228">
        <ele>80</ele>
        <time>2017-04-27T10:37:59Z</time>
      </trkpt>
      <trkpt lat="49.20994" lon="1.23226">
        <ele>80</ele>
        <time>2017-04-27T10:37:59Z</time>
      </trkpt>
      <trkpt lat="49.20992" lon="1.23223">
        <ele>80</ele>
        <time>2017-04-27T10:37:59Z</time>
      </trkpt>
      <trkpt lat="49.2099" lon="1.23219">
        <ele>80</ele>
        <time>2017-04-27T10:37:59Z</time>
      </trkpt>
      <trkpt lat="49.20988" lon="1.23216">
        <ele>80</ele>
        <time>2017-04-27T10:38:19Z</time>
      </trkpt>
      <trkpt lat="49.20985" lon="1.23216">
        <ele>80</ele>
        <time>2017-04-27T10:38:19Z</time>
      </trkpt>
      <trkpt lat="49.20983" lon="1.23213">
        <ele>80</ele>
        <time>2017-04-27T10:38:19Z</time>
      </trkpt>
      <trkpt lat="49.2098" lon="1.2321">
        <ele>80</ele>
        <time>2017-04-27T10:38:19Z</time>
      </trkpt>
      <trkpt lat="49.20978" lon="1.23208">
        <ele>88</ele>
        <time>2017-04-27T10:38:19Z</time>
      </trkpt>
      <trkpt lat="49.20977" lon="1.23205">
        <ele>88</ele>
        <time>2017-04-27T10:38:35Z</time>
      </trkpt>
      <trkpt lat="49.20974" lon="1.23203">
        <ele>88</ele>
        <time>2017-04-27T10:38:35Z</time>
      </trkpt>
      <trkpt lat="49.20968" lon="1.23199">
        <ele>88</ele>
        <time>2017-04-27T10:38:35Z</time>
      </trkpt>
      <trkpt lat="49.20966" lon="1.23197">
        <ele>88</ele>
        <time>2017-04-27T10:38:35Z</time>
      </trkpt>
      <trkpt lat="49.20964" lon="1.23196">
        <ele>88</ele>
        <time>2017-04-27T10:38:55Z</time>
      </trkpt>
      <trkpt lat="49.20961" lon="1.23194">
        <ele>88</ele>
        <time>2017-04-27T10:38:55Z</time>
      </trkpt>
      <trkpt lat="49.2096" lon="1.23194">
        <ele>88</ele>
        <time>2017-04-27T10:38:55Z</time>
      </trkpt>
      <trkpt lat="49.20957" lon="1.23193">
        <ele>97</ele>
        <time>2017-04-27T10:38:55Z</time>
      </trkpt>
      <trkpt lat="49.20955" lon="1.23193">
        <ele>97</ele>
        <time>2017-04-27T10:38:55Z</time>
      </trkpt>
      <trkpt lat="49.20952" lon="1.23189">
        <ele>97</ele>
        <time>2017-04-27T10:39:11Z</time>
      </trkpt>
      <trkpt lat="49.20949" lon="1.23186">
        <ele>97</ele>
        <time>2017-04-27T10:39:11Z</time>
      </trkpt>
      <trkpt lat="49.20945" lon="1.23182">
        <ele>97</ele>
        <time>2017-04-27T10:39:11Z</time>
      </trkpt>
      <trkpt lat="49.20942" lon="1.2318">
        <ele>97</ele>
        <time>2017-04-27T10:39:11Z</time>
      </trkpt>
      <trkpt lat="49.20939" lon="1.2318">
        <ele>97</ele>
        <time>2017-04-27T10:39:27Z</time>
      </trkpt>
      <trkpt lat="49.20937" lon="1.23179">
        <ele>97</ele>
        <time>2017-04-27T10:39:27Z</time>
      </trkpt>
      <trkpt lat="49.20933" lon="1.23176">
        <ele>97</ele>
        <time>2017-04-27T10:39:27Z</time>
      </trkpt>
      <trkpt lat="49.20931" lon="1.23174">
        <ele>97</ele>
        <time>2017-04-27T10:39:27Z</time>
      </trkpt>
      <trkpt lat="49.20929" lon="1.23171">
        <ele>97</ele>
        <time>2017-04-27T10:39:43Z</time>
      </trkpt>
      <trkpt lat="49.20926" lon="1.23166">
        <ele>97</ele>
        <time>2017-04-27T10:39:43Z</time>
      </trkpt>
      <trkpt lat="49.20924" lon="1.23163">
        <ele>97</ele>
        <time>2017-04-27T10:39:43Z</time>
      </trkpt>
      <trkpt lat="49.20922" lon="1.23159">
        <ele>97</ele>
        <time>2017-04-27T10:39:43Z</time>
      </trkpt>
      <trkpt lat="49.20921" lon="1.23155">
        <ele>97</ele>
        <time>2017-04-27T10:39:59Z</time>
      </trkpt>
      <trkpt lat="49.20919" lon="1.23153">
        <ele>97</ele>
        <time>2017-04-27T10:39:59Z</time>
      </trkpt>
      <trkpt lat="49.20915" lon="1.23149">
        <ele>97</ele>
        <time>2017-04-27T10:39:59Z</time>
      </trkpt>
      <trkpt lat="49.20913" lon="1.23143">
        <ele>97</ele>
        <time>2017-04-27T10:39:59Z</time>
      </trkpt>
      <trkpt lat="49.20912" lon="1.23139">
        <ele>97</ele>
        <time>2017-04-27T10:40:15Z</time>
      </trkpt>
      <trkpt lat="49.20909" lon="1.23134">
        <ele>97</ele>
        <time>2017-04-27T10:40:15Z</time>
      </trkpt>
      <trkpt lat="49.20907" lon="1.23131">
        <ele>97</ele>
        <time>2017-04-27T10:40:15Z</time>
      </trkpt>
      <trkpt lat="49.20906" lon="1.23128">
        <ele>97</ele>
        <time>2017-04-27T10:40:15Z</time>
      </trkpt>
      <trkpt lat="49.20905" lon="1.23122">
        <ele>107</ele>
        <time>2017-04-27T10:40:35Z</time>
      </trkpt>
      <trkpt lat="49.20904" lon="1.23117">
        <ele>107</ele>
        <time>2017-04-27T10:40:35Z</time>
      </trkpt>
      <trkpt lat="49.20904" lon="1.23115">
        <ele>107</ele>
        <time>2017-04-27T10:40:35Z</time>
      </trkpt>
      <trkpt lat="49.20901" lon="1.2311">
        <ele>107</ele>
        <time>2017-04-27T10:40:35Z</time>
      </trkpt>
      <trkpt lat="49.209" lon="1.23106">
        <ele>107</ele>
        <time>2017-04-27T10:40:35Z</time>
      </trkpt>
      <trkpt lat="49.20898" lon="1.23102">
        <ele>107</ele>
        <time>2017-04-27T10:40:51Z</time>
      </trkpt>
      <trkpt lat="49.20898" lon="1.23099">
        <ele>107</ele>
        <time>2017-04-27T10:40:51Z</time>
      </trkpt>
      <trkpt lat="49.20896" lon="1.23093">
        <ele>107</ele>
        <time>2017-04-27T10:40:51Z</time>
      </trkpt>
      <trkpt lat="49.20895" lon="1.23087">
        <ele>107</ele>
        <time>2017-04-27T10:40:51Z</time>
      </trkpt>
      <trkpt lat="49.20895" lon="1.23082">
        <ele>107</ele>
        <time>2017-04-27T10:41:07Z</time>
      </trkpt>
      <trkpt lat="49.20894" lon="1.23077">
        <ele>107</ele>
        <time>2017-04-27T10:41:07Z</time>
      </trkpt>
      <trkpt lat="49.20891" lon="1.2307">
        <ele>107</ele>
        <time>2017-04-27T10:41:07Z</time>
      </trkpt>
      <trkpt lat="49.2089" lon="1.23066">
        <ele>107</ele>
        <time>2017-04-27T10:41:07Z</time>
      </trkpt>
      <trkpt lat="49.2089" lon="1.23063">
        <ele>107</ele>
        <time>2017-04-27T10:41:23Z</time>
      </trkpt>
      <trkpt lat="49.20891" lon="1.23059">
        <ele>107</ele>
        <time>2017-04-27T10:41:23Z</time>
      </trkpt>
      <trkpt lat="49.20891" lon="1.23054">
        <ele>107</ele>
        <time>2017-04-27T10:41:23Z</time>
      </trkpt>
      <trkpt lat="49.20891" lon="1.23048">
        <ele>107</ele>
        <time>2017-04-27T10:41:23Z</time>
      </trkpt>
      <trkpt lat="49.2089" lon="1.23043">
        <ele>107</ele>
        <time>2017-04-27T10:41:43Z</time>
      </trkpt>
      <trkpt lat="49.20889" lon="1.23039">
        <ele>116</ele>
        <time>2017-04-27T10:41:43Z</time>
      </trkpt>
      <trkpt lat="49.20889" lon="1.23035">
        <ele>116</ele>
        <time>2017-04-27T10:41:43Z</time>
      </trkpt>
      <trkpt lat="49.20889" lon="1.23032">
        <ele>116</ele>
        <time>2017-04-27T10:41:43Z</time>
      </trkpt>
      <trkpt lat="49.20887" lon="1.23027">
        <ele>116</ele>
        <time>2017-04-27T10:41:43Z</time>
      </trkpt>
      <trkpt lat="49.20886" lon="1.23023">
        <ele>116</ele>
        <time>2017-04-27T10:42:03Z</time>
      </trkpt>
      <trkpt lat="49.20887" lon="1.2302">
        <ele>116</ele>
        <time>2017-04-27T10:42:03Z</time>
      </trkpt>
      <trkpt lat="49.20887" lon="1.23016">
        <ele>116</ele>
        <time>2017-04-27T10:42:03Z</time>
      </trkpt>
      <trkpt lat="49.20887" lon="1.23013">
        <ele>116</ele>
        <time>2017-04-27T10:42:03Z</time>
      </trkpt>
      <trkpt lat="49.20887" lon="1.23007">
        <ele>116</ele>
        <time>2017-04-27T10:42:03Z</time>
      </trkpt>
      <trkpt lat="49.20887" lon="1.23002">
        <ele>116</ele>
        <time>2017-04-27T10:42:19Z</time>
      </trkpt>
      <trkpt lat="49.20888" lon="1.22997">
        <ele>116</ele>
        <time>2017-04-27T10:42:19Z</time>
      </trkpt>
      <trkpt lat="49.20888" lon="1.22991">
        <ele>116</ele>
        <time>2017-04-27T10:42:19Z</time>
      </trkpt>
      <trkpt lat="49.20887" lon="1.22987">
        <ele>116</ele>
        <time>2017-04-27T10:42:19Z</time>
      </trkpt>
      <trkpt lat="49.20887" lon="1.2298">
        <ele>116</ele>
        <time>2017-04-27T10:42:35Z</time>
      </trkpt>
      <trkpt lat="49.20887" lon="1.22971">
        <ele>116</ele>
        <time>2017-04-27T10:42:35Z</time>
      </trkpt>
      <trkpt lat="49.20887" lon="1.22968">
        <ele>116</ele>
        <time>2017-04-27T10:42:35Z</time>
      </trkpt>
      <trkpt lat="49.20887" lon="1.22964">
        <ele>116</ele>
        <time>2017-04-27T10:42:35Z</time>
      </trkpt>
      <trkpt lat="49.20886" lon="1.2296">
        <ele>116</ele>
        <time>2017-04-27T10:42:51Z</time>
      </trkpt>
      <trkpt lat="49.20884" lon="1.22953">
        <ele>121</ele>
        <time>2017-04-27T10:42:51Z</time>
      </trkpt>
      <trkpt lat="49.20883" lon="1.22949">
        <ele>121</ele>
        <time>2017-04-27T10:42:51Z</time>
      </trkpt>
      <trkpt lat="49.20885" lon="1.22944">
        <ele>121</ele>
        <time>2017-04-27T10:42:51Z</time>
      </trkpt>
      <trkpt lat="49.20892" lon="1.22942">
        <ele>121</ele>
        <time>2017-04-27T10:48:11Z</time>
      </trkpt>
      <trkpt lat="49.20893" lon="1.22943">
        <ele>121</ele>
        <time>2017-04-27T10:48:11Z</time>
      </trkpt>
      <trkpt lat="49.20895" lon="1.22949">
        <ele>121</ele>
        <time>2017-04-27T10:48:11Z</time>
      </trkpt>
      <trkpt lat="49.20896" lon="1.22955">
        <ele>121</ele>
        <time>2017-04-27T10:48:11Z</time>
      </trkpt>
      <trkpt lat="49.20897" lon="1.22959">
        <ele>116</ele>
        <time>2017-04-27T10:48:11Z</time>
      </trkpt>
      <trkpt lat="49.20888" lon="1.22943">
        <ele>121</ele>
        <time>2017-04-27T10:52:27Z</time>
      </trkpt>
      <trkpt lat="49.20886" lon="1.22943">
        <ele>121</ele>
        <time>2017-04-27T10:52:27Z</time>
      </trkpt>
      <trkpt lat="49.20884" lon="1.22941">
        <ele>121</ele>
        <time>2017-04-27T10:52:27Z</time>
      </trkpt>
      <trkpt lat="49.20881" lon="1.22937">
        <ele>121</ele>
        <time>2017-04-27T10:52:27Z</time>
      </trkpt>
      <trkpt lat="49.20877" lon="1.22931">
        <ele>121</ele>
        <time>2017-04-27T10:52:27Z</time>
      </trkpt>
      <trkpt lat="49.20875" lon="1.22924">
        <ele>126</ele>
        <time>2017-04-27T10:52:43Z</time>
      </trkpt>
      <trkpt lat="49.20873" lon="1.22917">
        <ele>126</ele>
        <time>2017-04-27T10:52:43Z</time>
      </trkpt>
      <trkpt lat="49.20872" lon="1.22911">
        <ele>126</ele>
        <time>2017-04-27T10:52:43Z</time>
      </trkpt>
      <trkpt lat="49.20871" lon="1.22905">
        <ele>126</ele>
        <time>2017-04-27T10:52:43Z</time>
      </trkpt>
      <trkpt lat="49.20871" lon="1.22899">
        <ele>126</ele>
        <time>2017-04-27T10:52:59Z</time>
      </trkpt>
      <trkpt lat="49.20871" lon="1.22892">
        <ele>126</ele>
        <time>2017-04-27T10:52:59Z</time>
      </trkpt>
      <trkpt lat="49.2087" lon="1.22887">
        <ele>126</ele>
        <time>2017-04-27T10:52:59Z</time>
      </trkpt>
      <trkpt lat="49.20867" lon="1.22879">
        <ele>126</ele>
        <time>2017-04-27T10:52:59Z</time>
      </trkpt>
      <trkpt lat="49.20863" lon="1.22874">
        <ele>127</ele>
        <time>2017-04-27T10:53:15Z</time>
      </trkpt>
      <trkpt lat="49.2086" lon="1.22872">
        <ele>127</ele>
        <time>2017-04-27T10:53:15Z</time>
      </trkpt>
      <trkpt lat="49.20855" lon="1.22871">
        <ele>127</ele>
        <time>2017-04-27T10:53:15Z</time>
      </trkpt>
      <trkpt lat="49.20851" lon="1.2287">
        <ele>127</ele>
        <time>2017-04-27T10:53:15Z</time>
      </trkpt>
      <trkpt lat="49.20843" lon="1.22875">
        <ele>126</ele>
        <time>2017-04-27T10:53:47Z</time>
      </trkpt>
      <trkpt lat="49.2084" lon="1.22875">
        <ele>126</ele>
        <time>2017-04-27T10:53:47Z</time>
      </trkpt>
      <trkpt lat="49.2084" lon="1.22875">
        <ele>127</ele>
        <time>2017-04-27T10:53:47Z</time>
      </trkpt>
      <trkpt lat="49.20838" lon="1.22874">
        <ele>127</ele>
        <time>2017-04-27T10:53:47Z</time>
      </trkpt>
      <trkpt lat="49.20833" lon="1.22871">
        <ele>127</ele>
        <time>2017-04-27T10:53:47Z</time>
      </trkpt>
      <trkpt lat="49.2083" lon="1.22869">
        <ele>127</ele>
        <time>2017-04-27T10:54:03Z</time>
      </trkpt>
      <trkpt lat="49.20828" lon="1.22868">
        <ele>127</ele>
        <time>2017-04-27T10:54:03Z</time>
      </trkpt>
      <trkpt lat="49.20824" lon="1.22867">
        <ele>127</ele>
        <time>2017-04-27T10:54:03Z</time>
      </trkpt>
      <trkpt lat="49.2082" lon="1.22867">
        <ele>127</ele>
        <time>2017-04-27T10:54:03Z</time>
      </trkpt>
      <trkpt lat="49.20816" lon="1.2287">
        <ele>127</ele>
        <time>2017-04-27T10:54:19Z</time>
      </trkpt>
      <trkpt lat="49.20813" lon="1.22873">
        <ele>127</ele>
        <time>2017-04-27T10:54:19Z</time>
      </trkpt>
      <trkpt lat="49.20808" lon="1.22874">
        <ele>127</ele>
        <time>2017-04-27T10:54:19Z</time>
      </trkpt>
      <trkpt lat="49.20804" lon="1.22877">
        <ele>126</ele>
        <time>2017-04-27T10:54:19Z</time>
      </trkpt>
      <trkpt lat="49.208" lon="1.2288">
        <ele>126</ele>
        <time>2017-04-27T10:54:35Z</time>
      </trkpt>
      <trkpt lat="49.20796" lon="1.22884">
        <ele>126</ele>
        <time>2017-04-27T10:54:35Z</time>
      </trkpt>
      <trkpt lat="49.20792" lon="1.22887">
        <ele>126</ele>
        <time>2017-04-27T10:54:35Z</time>
      </trkpt>
      <trkpt lat="49.2079" lon="1.22888">
        <ele>124</ele>
        <time>2017-04-27T10:54:35Z</time>
      </trkpt>
      <trkpt lat="49.20786" lon="1.22889">
        <ele>124</ele>
        <time>2017-04-27T10:54:55Z</time>
      </trkpt>
      <trkpt lat="49.20784" lon="1.22895">
        <ele>124</ele>
        <time>2017-04-27T10:54:55Z</time>
      </trkpt>
      <trkpt lat="49.20784" lon="1.22896">
        <ele>124</ele>
        <time>2017-04-27T10:54:55Z</time>
      </trkpt>
      <trkpt lat="49.20781" lon="1.22897">
        <ele>124</ele>
        <time>2017-04-27T10:54:55Z</time>
      </trkpt>
      <trkpt lat="49.20777" lon="1.22901">
        <ele>124</ele>
        <time>2017-04-27T10:54:55Z</time>
      </trkpt>
      <trkpt lat="49.20774" lon="1.22903">
        <ele>124</ele>
        <time>2017-04-27T10:55:11Z</time>
      </trkpt>
      <trkpt lat="49.20774" lon="1.22905">
        <ele>124</ele>
        <time>2017-04-27T10:55:11Z</time>
      </trkpt>
      <trkpt lat="49.20773" lon="1.22907">
        <ele>124</ele>
        <time>2017-04-27T10:55:11Z</time>
      </trkpt>
      <trkpt lat="49.20767" lon="1.22913">
        <ele>124</ele>
        <time>2017-04-27T10:55:11Z</time>
      </trkpt>
      <trkpt lat="49.20766" lon="1.22912">
        <ele>124</ele>
        <time>2017-04-27T10:55:43Z</time>
      </trkpt>
      <trkpt lat="49.20762" lon="1.22916">
        <ele>124</ele>
        <time>2017-04-27T10:55:43Z</time>
      </trkpt>
      <trkpt lat="49.2076" lon="1.22919">
        <ele>124</ele>
        <time>2017-04-27T10:55:43Z</time>
      </trkpt>
      <trkpt lat="49.20756" lon="1.22922">
        <ele>124</ele>
        <time>2017-04-27T10:55:43Z</time>
      </trkpt>
      <trkpt lat="49.20753" lon="1.22925">
        <ele>124</ele>
        <time>2017-04-27T10:55:43Z</time>
      </trkpt>
      <trkpt lat="49.20747" lon="1.22929">
        <ele>124</ele>
        <time>2017-04-27T10:56:23Z</time>
      </trkpt>
      <trkpt lat="49.20744" lon="1.22931">
        <ele>124</ele>
        <time>2017-04-27T10:56:23Z</time>
      </trkpt>
      <trkpt lat="49.20741" lon="1.22932">
        <ele>124</ele>
        <time>2017-04-27T10:56:23Z</time>
      </trkpt>
      <trkpt lat="49.20735" lon="1.22933">
        <ele>124</ele>
        <time>2017-04-27T10:56:23Z</time>
      </trkpt>
      <trkpt lat="49.20731" lon="1.22932">
        <ele>124</ele>
        <time>2017-04-27T10:56:23Z</time>
      </trkpt>
      <trkpt lat="49.20727" lon="1.22933">
        <ele>124</ele>
        <time>2017-04-27T10:56:39Z</time>
      </trkpt>
      <trkpt lat="49.20722" lon="1.22934">
        <ele>124</ele>
        <time>2017-04-27T10:56:39Z</time>
      </trkpt>
      <trkpt lat="49.20716" lon="1.22936">
        <ele>124</ele>
        <time>2017-04-27T10:56:39Z</time>
      </trkpt>
      <trkpt lat="49.2071" lon="1.22936">
        <ele>124</ele>
        <time>2017-04-27T10:56:39Z</time>
      </trkpt>
      <trkpt lat="49.20704" lon="1.22936">
        <ele>126</ele>
        <time>2017-04-27T10:56:55Z</time>
      </trkpt>
      <trkpt lat="49.20699" lon="1.22936">
        <ele>126</ele>
        <time>2017-04-27T10:56:55Z</time>
      </trkpt>
      <trkpt lat="49.20695" lon="1.22937">
        <ele>126</ele>
        <time>2017-04-27T10:56:55Z</time>
      </trkpt>
      <trkpt lat="49.2069" lon="1.22939">
        <ele>126</ele>
        <time>2017-04-27T10:56:55Z</time>
      </trkpt>
      <trkpt lat="49.20685" lon="1.2294">
        <ele>126</ele>
        <time>2017-04-27T10:57:11Z</time>
      </trkpt>
      <trkpt lat="49.20679" lon="1.22942">
        <ele>126</ele>
        <time>2017-04-27T10:57:11Z</time>
      </trkpt>
      <trkpt lat="49.20678" lon="1.22944">
        <ele>126</ele>
        <time>2017-04-27T10:57:11Z</time>
      </trkpt>
      <trkpt lat="49.20672" lon="1.22947">
        <ele>126</ele>
        <time>2017-04-27T10:57:11Z</time>
      </trkpt>
      <trkpt lat="49.20667" lon="1.2295">
        <ele>126</ele>
        <time>2017-04-27T10:57:27Z</time>
      </trkpt>
      <trkpt lat="49.20662" lon="1.22952">
        <ele>126</ele>
        <time>2017-04-27T10:57:27Z</time>
      </trkpt>
      <trkpt lat="49.20657" lon="1.22956">
        <ele>126</ele>
        <time>2017-04-27T10:57:27Z</time>
      </trkpt>
      <trkpt lat="49.20654" lon="1.22958">
        <ele>126</ele>
        <time>2017-04-27T10:57:27Z</time>
      </trkpt>
      <trkpt lat="49.2065" lon="1.22961">
        <ele>119</ele>
        <time>2017-04-27T10:57:43Z</time>
      </trkpt>
      <trkpt lat="49.20647" lon="1.22966">
        <ele>119</ele>
        <time>2017-04-27T10:57:43Z</time>
      </trkpt>
      <trkpt lat="49.20643" lon="1.2297">
        <ele>119</ele>
        <time>2017-04-27T10:57:43Z</time>
      </trkpt>
      <trkpt lat="49.20638" lon="1.22977">
        <ele>119</ele>
        <time>2017-04-27T10:57:43Z</time>
      </trkpt>
      <trkpt lat="49.20634" lon="1.22982">
        <ele>119</ele>
        <time>2017-04-27T10:57:59Z</time>
      </trkpt>
      <trkpt lat="49.2063" lon="1.22986">
        <ele>119</ele>
        <time>2017-04-27T10:57:59Z</time>
      </trkpt>
      <trkpt lat="49.20625" lon="1.22992">
        <ele>125</ele>
        <time>2017-04-27T10:57:59Z</time>
      </trkpt>
      <trkpt lat="49.20621" lon="1.22996">
        <ele>125</ele>
        <time>2017-04-27T10:57:59Z</time>
      </trkpt>
      <trkpt lat="49.20616" lon="1.23001">
        <ele>125</ele>
        <time>2017-04-27T10:58:15Z</time>
      </trkpt>
      <trkpt lat="49.20611" lon="1.23004">
        <ele>125</ele>
        <time>2017-04-27T10:58:15Z</time>
      </trkpt>
      <trkpt lat="49.20608" lon="1.23005">
        <ele>125</ele>
        <time>2017-04-27T10:58:15Z</time>
      </trkpt>
      <trkpt lat="49.20603" lon="1.23007">
        <ele>125</ele>
        <time>2017-04-27T10:58:15Z</time>
      </trkpt>
      <trkpt lat="49.20598" lon="1.23009">
        <ele>125</ele>
        <time>2017-04-27T10:58:31Z</time>
      </trkpt>
      <trkpt lat="49.20593" lon="1.23012">
        <ele>125</ele>
        <time>2017-04-27T10:58:31Z</time>
      </trkpt>
      <trkpt lat="49.20586" lon="1.23017">
        <ele>125</ele>
        <time>2017-04-27T10:58:31Z</time>
      </trkpt>
      <trkpt lat="49.2058" lon="1.2302">
        <ele>125</ele>
        <time>2017-04-27T10:58:31Z</time>
      </trkpt>
      <trkpt lat="49.20575" lon="1.23023">
        <ele>125</ele>
        <time>2017-04-27T10:58:47Z</time>
      </trkpt>
      <trkpt lat="49.20571" lon="1.23025">
        <ele>125</ele>
        <time>2017-04-27T10:58:47Z</time>
      </trkpt>
      <trkpt lat="49.20568" lon="1.23028">
        <ele>125</ele>
        <time>2017-04-27T10:58:47Z</time>
      </trkpt>
      <trkpt lat="49.20562" lon="1.23031">
        <ele>125</ele>
        <time>2017-04-27T10:58:47Z</time>
      </trkpt>
      <trkpt lat="49.20558" lon="1.23032">
        <ele>125</ele>
        <time>2017-04-27T10:59:03Z</time>
      </trkpt>
      <trkpt lat="49.20554" lon="1.23034">
        <ele>125</ele>
        <time>2017-04-27T10:59:03Z</time>
      </trkpt>
      <trkpt lat="49.20548" lon="1.23037">
        <ele>125</ele>
        <time>2017-04-27T10:59:03Z</time>
      </trkpt>
      <trkpt lat="49.20543" lon="1.23039">
        <ele>125</ele>
        <time>2017-04-27T10:59:03Z</time>
      </trkpt>
      <trkpt lat="49.20539" lon="1.2304">
        <ele>125</ele>
        <time>2017-04-27T10:59:19Z</time>
      </trkpt>
      <trkpt lat="49.20535" lon="1.23042">
        <ele>123</ele>
        <time>2017-04-27T10:59:19Z</time>
      </trkpt>
      <trkpt lat="49.2053" lon="1.23046">
        <ele>123</ele>
        <time>2017-04-27T10:59:19Z</time>
      </trkpt>
      <trkpt lat="49.20523" lon="1.23049">
        <ele>123</ele>
        <time>2017-04-27T10:59:19Z</time>
      </trkpt>
      <trkpt lat="49.20519" lon="1.23051">
        <ele>123</ele>
        <time>2017-04-27T10:59:35Z</time>
      </trkpt>
      <trkpt lat="49.20513" lon="1.23054">
        <ele>123</ele>
        <time>2017-04-27T10:59:35Z</time>
      </trkpt>
      <trkpt lat="49.20508" lon="1.23058">
        <ele>123</ele>
        <time>2017-04-27T10:59:35Z</time>
      </trkpt>
      <trkpt lat="49.20503" lon="1.23061">
        <ele>123</ele>
        <time>2017-04-27T10:59:35Z</time>
      </trkpt>
      <trkpt lat="49.20499" lon="1.23062">
        <ele>123</ele>
        <time>2017-04-27T10:59:51Z</time>
      </trkpt>
      <trkpt lat="49.20495" lon="1.23064">
        <ele>123</ele>
        <time>2017-04-27T10:59:51Z</time>
      </trkpt>
      <trkpt lat="49.20489" lon="1.23065">
        <ele>123</ele>
        <time>2017-04-27T10:59:51Z</time>
      </trkpt>
      <trkpt lat="49.20483" lon="1.23067">
        <ele>123</ele>
        <time>2017-04-27T10:59:51Z</time>
      </trkpt>
      <trkpt lat="49.20478" lon="1.23069">
        <ele>123</ele>
        <time>2017-04-27T11:00:07Z</time>
      </trkpt>
      <trkpt lat="49.20473" lon="1.23069">
        <ele>123</ele>
        <time>2017-04-27T11:00:07Z</time>
      </trkpt>
      <trkpt lat="49.20469" lon="1.23069">
        <ele>123</ele>
        <time>2017-04-27T11:00:07Z</time>
      </trkpt>
      <trkpt lat="49.20464" lon="1.2307">
        <ele>123</ele>
        <time>2017-04-27T11:00:07Z</time>
      </trkpt>
      <trkpt lat="49.20458" lon="1.23073">
        <ele>125</ele>
        <time>2017-04-27T11:00:23Z</time>
      </trkpt>
      <trkpt lat="49.20454" lon="1.23074">
        <ele>125</ele>
        <time>2017-04-27T11:00:23Z</time>
      </trkpt>
      <trkpt lat="49.20448" lon="1.23075">
        <ele>125</ele>
        <time>2017-04-27T11:00:23Z</time>
      </trkpt>
      <trkpt lat="49.20443" lon="1.23076">
        <ele>125</ele>
        <time>2017-04-27T11:00:23Z</time>
      </trkpt>
      <trkpt lat="49.20439" lon="1.23078">
        <ele>125</ele>
        <time>2017-04-27T11:00:39Z</time>
      </trkpt>
      <trkpt lat="49.20434" lon="1.23079">
        <ele>125</ele>
        <time>2017-04-27T11:00:39Z</time>
      </trkpt>
      <trkpt lat="49.20429" lon="1.23081">
        <ele>125</ele>
        <time>2017-04-27T11:00:39Z</time>
      </trkpt>
      <trkpt lat="49.20425" lon="1.2308">
        <ele>125</ele>
        <time>2017-04-27T11:00:39Z</time>
      </trkpt>
      <trkpt lat="49.2042" lon="1.23081">
        <ele>125</ele>
        <time>2017-04-27T11:00:55Z</time>
      </trkpt>
      <trkpt lat="49.20416" lon="1.23082">
        <ele>125</ele>
        <time>2017-04-27T11:00:55Z</time>
      </trkpt>
      <trkpt lat="49.20411" lon="1.23084">
        <ele>125</ele>
        <time>2017-04-27T11:00:55Z</time>
      </trkpt>
      <trkpt lat="49.20405" lon="1.23087">
        <ele>125</ele>
        <time>2017-04-27T11:00:55Z</time>
      </trkpt>
      <trkpt lat="49.204" lon="1.2309">
        <ele>125</ele>
        <time>2017-04-27T11:01:11Z</time>
      </trkpt>
      <trkpt lat="49.20395" lon="1.23091">
        <ele>125</ele>
        <time>2017-04-27T11:01:11Z</time>
      </trkpt>
      <trkpt lat="49.20391" lon="1.23095">
        <ele>125</ele>
        <time>2017-04-27T11:01:11Z</time>
      </trkpt>
      <trkpt lat="49.20386" lon="1.231">
        <ele>125</ele>
        <time>2017-04-27T11:01:11Z</time>
      </trkpt>
      <trkpt lat="49.20382" lon="1.23106">
        <ele>125</ele>
        <time>2017-04-27T11:01:27Z</time>
      </trkpt>
      <trkpt lat="49.2038" lon="1.2311">
        <ele>125</ele>
        <time>2017-04-27T11:01:27Z</time>
      </trkpt>
      <trkpt lat="49.20376" lon="1.23113">
        <ele>125</ele>
        <time>2017-04-27T11:01:27Z</time>
      </trkpt>
      <trkpt lat="49.20374" lon="1.23115">
        <ele>125</ele>
        <time>2017-04-27T11:01:27Z</time>
      </trkpt>
      <trkpt lat="49.2037" lon="1.23118">
        <ele>125</ele>
        <time>2017-04-27T11:01:43Z</time>
      </trkpt>
      <trkpt lat="49.20368" lon="1.23122">
        <ele>125</ele>
        <time>2017-04-27T11:01:43Z</time>
      </trkpt>
      <trkpt lat="49.20364" lon="1.23128">
        <ele>125</ele>
        <time>2017-04-27T11:01:43Z</time>
      </trkpt>
      <trkpt lat="49.2036" lon="1.23132">
        <ele>125</ele>
        <time>2017-04-27T11:01:43Z</time>
      </trkpt>
      <trkpt lat="49.20357" lon="1.23136">
        <ele>125</ele>
        <time>2017-04-27T11:01:59Z</time>
      </trkpt>
      <trkpt lat="49.20352" lon="1.23141">
        <ele>125</ele>
        <time>2017-04-27T11:01:59Z</time>
      </trkpt>
      <trkpt lat="49.20348" lon="1.23144">
        <ele>125</ele>
        <time>2017-04-27T11:01:59Z</time>
      </trkpt>
      <trkpt lat="49.20343" lon="1.23149">
        <ele>125</ele>
        <time>2017-04-27T11:01:59Z</time>
      </trkpt>
      <trkpt lat="49.2034" lon="1.23154">
        <ele>125</ele>
        <time>2017-04-27T11:02:15Z</time>
      </trkpt>
      <trkpt lat="49.20336" lon="1.23158">
        <ele>125</ele>
        <time>2017-04-27T11:02:15Z</time>
      </trkpt>
      <trkpt lat="49.20332" lon="1.23162">
        <ele>125</ele>
        <time>2017-04-27T11:02:15Z</time>
      </trkpt>
      <trkpt lat="49.20329" lon="1.23165">
        <ele>125</ele>
        <time>2017-04-27T11:02:15Z</time>
      </trkpt>
      <trkpt lat="49.20324" lon="1.2317">
        <ele>125</ele>
        <time>2017-04-27T11:02:31Z</time>
      </trkpt>
      <trkpt lat="49.20319" lon="1.23174">
        <ele>125</ele>
        <time>2017-04-27T11:02:31Z</time>
      </trkpt>
      <trkpt lat="49.20315" lon="1.23179">
        <ele>125</ele>
        <time>2017-04-27T11:02:31Z</time>
      </trkpt>
      <trkpt lat="49.20311" lon="1.23184">
        <ele>125</ele>
        <time>2017-04-27T11:02:31Z</time>
      </trkpt>
      <trkpt lat="49.20307" lon="1.23188">
        <ele>125</ele>
        <time>2017-04-27T11:02:47Z</time>
      </trkpt>
      <trkpt lat="49.20302" lon="1.2319">
        <ele>125</ele>
        <time>2017-04-27T11:02:47Z</time>
      </trkpt>
      <trkpt lat="49.20298" lon="1.23194">
        <ele>125</ele>
        <time>2017-04-27T11:02:47Z</time>
      </trkpt>
      <trkpt lat="49.20294" lon="1.232">
        <ele>125</ele>
        <time>2017-04-27T11:02:47Z</time>
      </trkpt>
      <trkpt lat="49.20291" lon="1.23202">
        <ele>128</ele>
        <time>2017-04-27T11:03:03Z</time>
      </trkpt>
      <trkpt lat="49.20288" lon="1.23204">
        <ele>128</ele>
        <time>2017-04-27T11:03:03Z</time>
      </trkpt>
      <trkpt lat="49.20284" lon="1.23208">
        <ele>128</ele>
        <time>2017-04-27T11:03:03Z</time>
      </trkpt>
      <trkpt lat="49.20279" lon="1.23211">
        <ele>129</ele>
        <time>2017-04-27T11:03:03Z</time>
      </trkpt>
      <trkpt lat="49.20275" lon="1.23213">
        <ele>129</ele>
        <time>2017-04-27T11:03:19Z</time>
      </trkpt>
      <trkpt lat="49.2027" lon="1.23218">
        <ele>129</ele>
        <time>2017-04-27T11:03:19Z</time>
      </trkpt>
      <trkpt lat="49.20264" lon="1.23222">
        <ele>129</ele>
        <time>2017-04-27T11:03:19Z</time>
      </trkpt>
      <trkpt lat="49.20259" lon="1.23224">
        <ele>129</ele>
        <time>2017-04-27T11:03:19Z</time>
      </trkpt>
      <trkpt lat="49.20255" lon="1.23228">
        <ele>129</ele>
        <time>2017-04-27T11:03:35Z</time>
      </trkpt>
      <trkpt lat="49.2025" lon="1.23231">
        <ele>129</ele>
        <time>2017-04-27T11:03:35Z</time>
      </trkpt>
      <trkpt lat="49.20245" lon="1.23234">
        <ele>129</ele>
        <time>2017-04-27T11:03:35Z</time>
      </trkpt>
      <trkpt lat="49.2024" lon="1.23238">
        <ele>129</ele>
        <time>2017-04-27T11:03:35Z</time>
      </trkpt>
      <trkpt lat="49.20235" lon="1.23242">
        <ele>129</ele>
        <time>2017-04-27T11:03:51Z</time>
      </trkpt>
      <trkpt lat="49.20231" lon="1.23246">
        <ele>129</ele>
        <time>2017-04-27T11:03:51Z</time>
      </trkpt>
      <trkpt lat="49.20227" lon="1.2325">
        <ele>129</ele>
        <time>2017-04-27T11:03:51Z</time>
      </trkpt>
      <trkpt lat="49.20223" lon="1.23254">
        <ele>129</ele>
        <time>2017-04-27T11:03:51Z</time>
      </trkpt>
      <trkpt lat="49.2022" lon="1.23257">
        <ele>129</ele>
        <time>2017-04-27T11:04:07Z</time>
      </trkpt>
      <trkpt lat="49.20218" lon="1.23258">
        <ele>129</ele>
        <time>2017-04-27T11:04:07Z</time>
      </trkpt>
      <trkpt lat="49.20214" lon="1.23259">
        <ele>129</ele>
        <time>2017-04-27T11:04:07Z</time>
      </trkpt>
      <trkpt lat="49.20208" lon="1.23261">
        <ele>130</ele>
        <time>2017-04-27T11:04:07Z</time>
      </trkpt>
      <trkpt lat="49.20203" lon="1.23264">
        <ele>130</ele>
        <time>2017-04-27T11:04:23Z</time>
      </trkpt>
      <trkpt lat="49.20199" lon="1.23266">
        <ele>130</ele>
        <time>2017-04-27T11:04:23Z</time>
      </trkpt>
      <trkpt lat="49.20196" lon="1.23268">
        <ele>130</ele>
        <time>2017-04-27T11:04:23Z</time>
      </trkpt>
      <trkpt lat="49.20192" lon="1.23271">
        <ele>130</ele>
        <time>2017-04-27T11:04:23Z</time>
      </trkpt>
      <trkpt lat="49.20189" lon="1.23274">
        <ele>130</ele>
        <time>2017-04-27T11:04:39Z</time>
      </trkpt>
      <trkpt lat="49.20184" lon="1.23276">
        <ele>130</ele>
        <time>2017-04-27T11:04:39Z</time>
      </trkpt>
      <trkpt lat="49.20179" lon="1.23278">
        <ele>130</ele>
        <time>2017-04-27T11:04:39Z</time>
      </trkpt>
      <trkpt lat="49.20172" lon="1.23283">
        <ele>130</ele>
        <time>2017-04-27T11:04:39Z</time>
      </trkpt>
      <trkpt lat="49.20168" lon="1.23285">
        <ele>130</ele>
        <time>2017-04-27T11:04:55Z</time>
      </trkpt>
      <trkpt lat="49.20162" lon="1.23285">
        <ele>130</ele>
        <time>2017-04-27T11:04:55Z</time>
      </trkpt>
      <trkpt lat="49.20156" lon="1.23288">
        <ele>130</ele>
        <time>2017-04-27T11:04:55Z</time>
      </trkpt>
      <trkpt lat="49.20153" lon="1.23291">
        <ele>130</ele>
        <time>2017-04-27T11:04:55Z</time>
      </trkpt>
      <trkpt lat="49.20149" lon="1.23296">
        <ele>131</ele>
        <time>2017-04-27T11:05:11Z</time>
      </trkpt>
      <trkpt lat="49.20145" lon="1.23299">
        <ele>131</ele>
        <time>2017-04-27T11:05:11Z</time>
      </trkpt>
      <trkpt lat="49.20141" lon="1.23303">
        <ele>131</ele>
        <time>2017-04-27T11:05:11Z</time>
      </trkpt>
      <trkpt lat="49.20137" lon="1.23308">
        <ele>131</ele>
        <time>2017-04-27T11:05:11Z</time>
      </trkpt>
      <trkpt lat="49.20135" lon="1.23312">
        <ele>131</ele>
        <time>2017-04-27T11:05:27Z</time>
      </trkpt>
      <trkpt lat="49.20132" lon="1.23316">
        <ele>131</ele>
        <time>2017-04-27T11:05:27Z</time>
      </trkpt>
      <trkpt lat="49.20128" lon="1.23321">
        <ele>131</ele>
        <time>2017-04-27T11:05:27Z</time>
      </trkpt>
      <trkpt lat="49.20123" lon="1.23326">
        <ele>133</ele>
        <time>2017-04-27T11:05:27Z</time>
      </trkpt>
      <trkpt lat="49.2012" lon="1.2333">
        <ele>133</ele>
        <time>2017-04-27T11:05:43Z</time>
      </trkpt>
      <trkpt lat="49.20116" lon="1.23333">
        <ele>133</ele>
        <time>2017-04-27T11:05:43Z</time>
      </trkpt>
      <trkpt lat="49.20113" lon="1.23337">
        <ele>133</ele>
        <time>2017-04-27T11:05:43Z</time>
      </trkpt>
      <trkpt lat="49.20109" lon="1.23342">
        <ele>133</ele>
        <time>2017-04-27T11:05:43Z</time>
      </trkpt>
      <trkpt lat="49.20105" lon="1.23347">
        <ele>133</ele>
        <time>2017-04-27T11:05:59Z</time>
      </trkpt>
      <trkpt lat="49.20101" lon="1.23352">
        <ele>133</ele>
        <time>2017-04-27T11:05:59Z</time>
      </trkpt>
      <trkpt lat="49.20098" lon="1.23356">
        <ele>133</ele>
        <time>2017-04-27T11:05:59Z</time>
      </trkpt>
      <trkpt lat="49.20094" lon="1.2336">
        <ele>133</ele>
        <time>2017-04-27T11:05:59Z</time>
      </trkpt>
      <trkpt lat="49.2009" lon="1.23364">
        <ele>133</ele>
        <time>2017-04-27T11:06:15Z</time>
      </trkpt>
      <trkpt lat="49.20087" lon="1.23369">
        <ele>133</ele>
        <time>2017-04-27T11:06:15Z</time>
      </trkpt>
      <trkpt lat="49.20084" lon="1.23372">
        <ele>133</ele>
        <time>2017-04-27T11:06:15Z</time>
      </trkpt>
      <trkpt lat="49.2008" lon="1.23375">
        <ele>133</ele>
        <time>2017-04-27T11:06:15Z</time>
      </trkpt>
      <trkpt lat="49.20076" lon="1.23381">
        <ele>133</ele>
        <time>2017-04-27T11:06:31Z</time>
      </trkpt>
      <trkpt lat="49.20071" lon="1.23388">
        <ele>133</ele>
        <time>2017-04-27T11:06:31Z</time>
      </trkpt>
      <trkpt lat="49.20067" lon="1.23391">
        <ele>133</ele>
        <time>2017-04-27T11:06:31Z</time>
      </trkpt>
      <trkpt lat="49.20063" lon="1.23394">
        <ele>133</ele>
        <time>2017-04-27T11:06:31Z</time>
      </trkpt>
      <trkpt lat="49.20059" lon="1.23398">
        <ele>133</ele>
        <time>2017-04-27T11:06:47Z</time>
      </trkpt>
      <trkpt lat="49.20055" lon="1.23403">
        <ele>133</ele>
        <time>2017-04-27T11:06:47Z</time>
      </trkpt>
      <trkpt lat="49.20051" lon="1.23408">
        <ele>133</ele>
        <time>2017-04-27T11:06:47Z</time>
      </trkpt>
      <trkpt lat="49.20048" lon="1.23413">
        <ele>133</ele>
        <time>2017-04-27T11:06:47Z</time>
      </trkpt>
      <trkpt lat="49.20043" lon="1.23419">
        <ele>133</ele>
        <time>2017-04-27T11:07:03Z</time>
      </trkpt>
      <trkpt lat="49.20039" lon="1.23423">
        <ele>135</ele>
        <time>2017-04-27T11:07:03Z</time>
      </trkpt>
      <trkpt lat="49.20036" lon="1.23427">
        <ele>135</ele>
        <time>2017-04-27T11:07:03Z</time>
      </trkpt>
      <trkpt lat="49.20032" lon="1.23433">
        <ele>135</ele>
        <time>2017-04-27T11:07:03Z</time>
      </trkpt>
      <trkpt lat="49.20027" lon="1.23438">
        <ele>135</ele>
        <time>2017-04-27T11:07:19Z</time>
      </trkpt>
      <trkpt lat="49.20024" lon="1.2344">
        <ele>135</ele>
        <time>2017-04-27T11:07:19Z</time>
      </trkpt>
      <trkpt lat="49.2002" lon="1.23447">
        <ele>135</ele>
        <time>2017-04-27T11:07:19Z</time>
      </trkpt>
      <trkpt lat="49.20015" lon="1.23452">
        <ele>135</ele>
        <time>2017-04-27T11:07:19Z</time>
      </trkpt>
      <trkpt lat="49.20011" lon="1.23455">
        <ele>135</ele>
        <time>2017-04-27T11:07:35Z</time>
      </trkpt>
      <trkpt lat="49.20007" lon="1.23461">
        <ele>137</ele>
        <time>2017-04-27T11:07:35Z</time>
      </trkpt>
      <trkpt lat="49.20004" lon="1.23468">
        <ele>137</ele>
        <time>2017-04-27T11:07:35Z</time>
      </trkpt>
      <trkpt lat="49.2" lon="1.23472">
        <ele>137</ele>
        <time>2017-04-27T11:07:35Z</time>
      </trkpt>
      <trkpt lat="49.19996" lon="1.23476">
        <ele>137</ele>
        <time>2017-04-27T11:07:51Z</time>
      </trkpt>
      <trkpt lat="49.19992" lon="1.23479">
        <ele>137</ele>
        <time>2017-04-27T11:07:51Z</time>
      </trkpt>
      <trkpt lat="49.19988" lon="1.23483">
        <ele>137</ele>
        <time>2017-04-27T11:07:51Z</time>
      </trkpt>
      <trkpt lat="49.19983" lon="1.23488">
        <ele>137</ele>
        <time>2017-04-27T11:07:51Z</time>
      </trkpt>
      <trkpt lat="49.19979" lon="1.23492">
        <ele>137</ele>
        <time>2017-04-27T11:08:07Z</time>
      </trkpt>
      <trkpt lat="49.19975" lon="1.23497">
        <ele>137</ele>
        <time>2017-04-27T11:08:07Z</time>
      </trkpt>
      <trkpt lat="49.19972" lon="1.23502">
        <ele>137</ele>
        <time>2017-04-27T11:08:07Z</time>
      </trkpt>
      <trkpt lat="49.19968" lon="1.23507">
        <ele>137</ele>
        <time>2017-04-27T11:08:07Z</time>
      </trkpt>
      <trkpt lat="49.19965" lon="1.23513">
        <ele>137</ele>
        <time>2017-04-27T11:08:23Z</time>
      </trkpt>
      <trkpt lat="49.19961" lon="1.23519">
        <ele>137</ele>
        <time>2017-04-27T11:08:23Z</time>
      </trkpt>
      <trkpt lat="49.19959" lon="1.23522">
        <ele>137</ele>
        <time>2017-04-27T11:08:23Z</time>
      </trkpt>
      <trkpt lat="49.19956" lon="1.23525">
        <ele>139</ele>
        <time>2017-04-27T11:08:23Z</time>
      </trkpt>
      <trkpt lat="49.19953" lon="1.23532">
        <ele>139</ele>
        <time>2017-04-27T11:08:39Z</time>
      </trkpt>
      <trkpt lat="49.1995" lon="1.23537">
        <ele>139</ele>
        <time>2017-04-27T11:08:39Z</time>
      </trkpt>
      <trkpt lat="49.19948" lon="1.23541">
        <ele>139</ele>
        <time>2017-04-27T11:08:39Z</time>
      </trkpt>
      <trkpt lat="49.19944" lon="1.23548">
        <ele>138</ele>
        <time>2017-04-27T11:08:39Z</time>
      </trkpt>
      <trkpt lat="49.1994" lon="1.23553">
        <ele>138</ele>
        <time>2017-04-27T11:08:55Z</time>
      </trkpt>
      <trkpt lat="49.19936" lon="1.23558">
        <ele>138</ele>
        <time>2017-04-27T11:08:55Z</time>
      </trkpt>
      <trkpt lat="49.19933" lon="1.23563">
        <ele>138</ele>
        <time>2017-04-27T11:08:55Z</time>
      </trkpt>
      <trkpt lat="49.19929" lon="1.23567">
        <ele>138</ele>
        <time>2017-04-27T11:08:55Z</time>
      </trkpt>
      <trkpt lat="49.19925" lon="1.23572">
        <ele>138</ele>
        <time>2017-04-27T11:09:11Z</time>
      </trkpt>
      <trkpt lat="49.19921" lon="1.2358">
        <ele>138</ele>
        <time>2017-04-27T11:09:11Z</time>
      </trkpt>
      <trkpt lat="49.19918" lon="1.23586">
        <ele>138</ele>
        <time>2017-04-27T11:09:11Z</time>
      </trkpt>
      <trkpt lat="49.19914" lon="1.23591">
        <ele>138</ele>
        <time>2017-04-27T11:09:11Z</time>
      </trkpt>
      <trkpt lat="49.1991" lon="1.23597">
        <ele>138</ele>
        <time>2017-04-27T11:09:27Z</time>
      </trkpt>
      <trkpt lat="49.19907" lon="1.23601">
        <ele>138</ele>
        <time>2017-04-27T11:09:27Z</time>
      </trkpt>
      <trkpt lat="49.19901" lon="1.23607">
        <ele>138</ele>
        <time>2017-04-27T11:09:27Z</time>
      </trkpt>
      <trkpt lat="49.19897" lon="1.2361">
        <ele>138</ele>
        <time>2017-04-27T11:09:27Z</time>
      </trkpt>
      <trkpt lat="49.19894" lon="1.23612">
        <ele>138</ele>
        <time>2017-04-27T11:09:43Z</time>
      </trkpt>
      <trkpt lat="49.1989" lon="1.23618">
        <ele>138</ele>
        <time>2017-04-27T11:09:43Z</time>
      </trkpt>
      <trkpt lat="49.19885" lon="1.23624">
        <ele>138</ele>
        <time>2017-04-27T11:09:43Z</time>
      </trkpt>
      <trkpt lat="49.19878" lon="1.23628">
        <ele>137</ele>
        <time>2017-04-27T11:09:43Z</time>
      </trkpt>
      <trkpt lat="49.19872" lon="1.23631">
        <ele>138</ele>
        <time>2017-04-27T11:09:59Z</time>
      </trkpt>
      <trkpt lat="49.19868" lon="1.23633">
        <ele>138</ele>
        <time>2017-04-27T11:09:59Z</time>
      </trkpt>
      <trkpt lat="49.19863" lon="1.23637">
        <ele>138</ele>
        <time>2017-04-27T11:09:59Z</time>
      </trkpt>
      <trkpt lat="49.19859" lon="1.23642">
        <ele>138</ele>
        <time>2017-04-27T11:09:59Z</time>
      </trkpt>
      <trkpt lat="49.19853" lon="1.23645">
        <ele>138</ele>
        <time>2017-04-27T11:10:15Z</time>
      </trkpt>
      <trkpt lat="49.19847" lon="1.23649">
        <ele>138</ele>
        <time>2017-04-27T11:10:15Z</time>
      </trkpt>
      <trkpt lat="49.19843" lon="1.23652">
        <ele>138</ele>
        <time>2017-04-27T11:10:15Z</time>
      </trkpt>
      <trkpt lat="49.1984" lon="1.23654">
        <ele>138</ele>
        <time>2017-04-27T11:10:15Z</time>
      </trkpt>
      <trkpt lat="49.19835" lon="1.2366">
        <ele>138</ele>
        <time>2017-04-27T11:10:31Z</time>
      </trkpt>
      <trkpt lat="49.19831" lon="1.23666">
        <ele>138</ele>
        <time>2017-04-27T11:10:31Z</time>
      </trkpt>
      <trkpt lat="49.19825" lon="1.23672">
        <ele>138</ele>
        <time>2017-04-27T11:10:31Z</time>
      </trkpt>
      <trkpt lat="49.1982" lon="1.23677">
        <ele>138</ele>
        <time>2017-04-27T11:10:31Z</time>
      </trkpt>
      <trkpt lat="49.19815" lon="1.23683">
        <ele>138</ele>
        <time>2017-04-27T11:10:47Z</time>
      </trkpt>
      <trkpt lat="49.19812" lon="1.23688">
        <ele>138</ele>
        <time>2017-04-27T11:10:47Z</time>
      </trkpt>
      <trkpt lat="49.1981" lon="1.23693">
        <ele>138</ele>
        <time>2017-04-27T11:10:47Z</time>
      </trkpt>
      <trkpt lat="49.19807" lon="1.23697">
        <ele>138</ele>
        <time>2017-04-27T11:10:47Z</time>
      </trkpt>
      <trkpt lat="49.19804" lon="1.23701">
        <ele>138</ele>
        <time>2017-04-27T11:11:03Z</time>
      </trkpt>
      <trkpt lat="49.198" lon="1.23707">
        <ele>138</ele>
        <time>2017-04-27T11:11:03Z</time>
      </trkpt>
      <trkpt lat="49.19795" lon="1.23714">
        <ele>137</ele>
        <time>2017-04-27T11:11:03Z</time>
      </trkpt>
      <trkpt lat="49.19791" lon="1.23719">
        <ele>137</ele>
        <time>2017-04-27T11:11:03Z</time>
      </trkpt>
      <trkpt lat="49.19787" lon="1.23726">
        <ele>137</ele>
        <time>2017-04-27T11:11:19Z</time>
      </trkpt>
      <trkpt lat="49.19783" lon="1.23733">
        <ele>137</ele>
        <time>2017-04-27T11:11:19Z</time>
      </trkpt>
      <trkpt lat="49.19781" lon="1.23736">
        <ele>137</ele>
        <time>2017-04-27T11:11:19Z</time>
      </trkpt>
      <trkpt lat="49.19778" lon="1.23742">
        <ele>137</ele>
        <time>2017-04-27T11:11:19Z</time>
      </trkpt>
      <trkpt lat="49.19774" lon="1.23747">
        <ele>137</ele>
        <time>2017-04-27T11:11:35Z</time>
      </trkpt>
      <trkpt lat="49.19769" lon="1.23755">
        <ele>137</ele>
        <time>2017-04-27T11:11:35Z</time>
      </trkpt>
      <trkpt lat="49.19765" lon="1.23759">
        <ele>137</ele>
        <time>2017-04-27T11:11:35Z</time>
      </trkpt>
      <trkpt lat="49.19762" lon="1.23765">
        <ele>137</ele>
        <time>2017-04-27T11:11:35Z</time>
      </trkpt>
      <trkpt lat="49.19759" lon="1.2377">
        <ele>137</ele>
        <time>2017-04-27T11:11:51Z</time>
      </trkpt>
      <trkpt lat="49.19756" lon="1.23776">
        <ele>137</ele>
        <time>2017-04-27T11:11:51Z</time>
      </trkpt>
      <trkpt lat="49.19752" lon="1.23783">
        <ele>137</ele>
        <time>2017-04-27T11:11:51Z</time>
      </trkpt>
      <trkpt lat="49.1975" lon="1.23789">
        <ele>137</ele>
        <time>2017-04-27T11:11:51Z</time>
      </trkpt>
      <trkpt lat="49.19747" lon="1.23796">
        <ele>135</ele>
        <time>2017-04-27T11:12:07Z</time>
      </trkpt>
      <trkpt lat="49.19745" lon="1.23802">
        <ele>135</ele>
        <time>2017-04-27T11:12:07Z</time>
      </trkpt>
      <trkpt lat="49.19742" lon="1.23807">
        <ele>135</ele>
        <time>2017-04-27T11:12:07Z</time>
      </trkpt>
      <trkpt lat="49.19739" lon="1.23815">
        <ele>135</ele>
        <time>2017-04-27T11:12:07Z</time>
      </trkpt>
      <trkpt lat="49.19735" lon="1.23822">
        <ele>135</ele>
        <time>2017-04-27T11:12:23Z</time>
      </trkpt>
      <trkpt lat="49.19731" lon="1.23826">
        <ele>135</ele>
        <time>2017-04-27T11:12:23Z</time>
      </trkpt>
      <trkpt lat="49.19727" lon="1.23828">
        <ele>135</ele>
        <time>2017-04-27T11:12:23Z</time>
      </trkpt>
      <trkpt lat="49.19722" lon="1.23829">
        <ele>135</ele>
        <time>2017-04-27T11:12:23Z</time>
      </trkpt>
      <trkpt lat="49.19718" lon="1.23831">
        <ele>135</ele>
        <time>2017-04-27T11:12:39Z</time>
      </trkpt>
      <trkpt lat="49.19714" lon="1.23832">
        <ele>135</ele>
        <time>2017-04-27T11:12:39Z</time>
      </trkpt>
      <trkpt lat="49.19708" lon="1.23835">
        <ele>136</ele>
        <time>2017-04-27T11:12:39Z</time>
      </trkpt>
      <trkpt lat="49.19704" lon="1.23838">
        <ele>136</ele>
        <time>2017-04-27T11:12:39Z</time>
      </trkpt>
      <trkpt lat="49.19698" lon="1.23841">
        <ele>136</ele>
        <time>2017-04-27T11:12:55Z</time>
      </trkpt>
      <trkpt lat="49.19694" lon="1.23845">
        <ele>136</ele>
        <time>2017-04-27T11:12:55Z</time>
      </trkpt>
      <trkpt lat="49.19689" lon="1.23848">
        <ele>136</ele>
        <time>2017-04-27T11:12:55Z</time>
      </trkpt>
      <trkpt lat="49.19683" lon="1.23849">
        <ele>136</ele>
        <time>2017-04-27T11:12:55Z</time>
      </trkpt>
      <trkpt lat="49.19678" lon="1.23852">
        <ele>136</ele>
        <time>2017-04-27T11:13:11Z</time>
      </trkpt>
      <trkpt lat="49.19674" lon="1.23855">
        <ele>136</ele>
        <time>2017-04-27T11:13:11Z</time>
      </trkpt>
      <trkpt lat="49.19671" lon="1.23858">
        <ele>136</ele>
        <time>2017-04-27T11:13:11Z</time>
      </trkpt>
      <trkpt lat="49.19668" lon="1.23862">
        <ele>136</ele>
        <time>2017-04-27T11:13:11Z</time>
      </trkpt>
      <trkpt lat="49.19663" lon="1.23864">
        <ele>136</ele>
        <time>2017-04-27T11:13:27Z</time>
      </trkpt>
      <trkpt lat="49.19659" lon="1.23866">
        <ele>136</ele>
        <time>2017-04-27T11:13:27Z</time>
      </trkpt>
      <trkpt lat="49.19653" lon="1.23869">
        <ele>136</ele>
        <time>2017-04-27T11:13:27Z</time>
      </trkpt>
      <trkpt lat="49.19648" lon="1.23872">
        <ele>136</ele>
        <time>2017-04-27T11:13:27Z</time>
      </trkpt>
      <trkpt lat="49.19644" lon="1.23875">
        <ele>135</ele>
        <time>2017-04-27T11:13:43Z</time>
      </trkpt>
      <trkpt lat="49.1964" lon="1.23877">
        <ele>135</ele>
        <time>2017-04-27T11:13:43Z</time>
      </trkpt>
      <trkpt lat="49.19633" lon="1.23878">
        <ele>135</ele>
        <time>2017-04-27T11:13:43Z</time>
      </trkpt>
      <trkpt lat="49.19628" lon="1.23884">
        <ele>135</ele>
        <time>2017-04-27T11:13:43Z</time>
      </trkpt>
      <trkpt lat="49.19623" lon="1.23888">
        <ele>136</ele>
        <time>2017-04-27T11:13:59Z</time>
      </trkpt>
      <trkpt lat="49.1962" lon="1.23891">
        <ele>136</ele>
        <time>2017-04-27T11:13:59Z</time>
      </trkpt>
      <trkpt lat="49.19618" lon="1.23894">
        <ele>136</ele>
        <time>2017-04-27T11:13:59Z</time>
      </trkpt>
      <trkpt lat="49.19612" lon="1.23901">
        <ele>136</ele>
        <time>2017-04-27T11:13:59Z</time>
      </trkpt>
      <trkpt lat="49.19608" lon="1.23906">
        <ele>136</ele>
        <time>2017-04-27T11:14:15Z</time>
      </trkpt>
      <trkpt lat="49.19604" lon="1.23909">
        <ele>136</ele>
        <time>2017-04-27T11:14:15Z</time>
      </trkpt>
      <trkpt lat="49.19599" lon="1.23913">
        <ele>136</ele>
        <time>2017-04-27T11:14:15Z</time>
      </trkpt>
      <trkpt lat="49.19595" lon="1.23916">
        <ele>136</ele>
        <time>2017-04-27T11:14:15Z</time>
      </trkpt>
      <trkpt lat="49.1959" lon="1.23921">
        <ele>136</ele>
        <time>2017-04-27T11:14:31Z</time>
      </trkpt>
      <trkpt lat="49.19586" lon="1.23927">
        <ele>136</ele>
        <time>2017-04-27T11:14:31Z</time>
      </trkpt>
      <trkpt lat="49.19581" lon="1.23932">
        <ele>136</ele>
        <time>2017-04-27T11:14:31Z</time>
      </trkpt>
      <trkpt lat="49.19578" lon="1.23936">
        <ele>136</ele>
        <time>2017-04-27T11:14:31Z</time>
      </trkpt>
      <trkpt lat="49.19574" lon="1.2394">
        <ele>136</ele>
        <time>2017-04-27T11:14:47Z</time>
      </trkpt>
      <trkpt lat="49.19569" lon="1.23943">
        <ele>136</ele>
        <time>2017-04-27T11:14:47Z</time>
      </trkpt>
      <trkpt lat="49.19563" lon="1.23947">
        <ele>136</ele>
        <time>2017-04-27T11:14:47Z</time>
      </trkpt>
      <trkpt lat="49.19559" lon="1.23949">
        <ele>136</ele>
        <time>2017-04-27T11:14:47Z</time>
      </trkpt>
      <trkpt lat="49.19554" lon="1.23952">
        <ele>136</ele>
        <time>2017-04-27T11:15:03Z</time>
      </trkpt>
      <trkpt lat="49.19549" lon="1.23957">
        <ele>136</ele>
        <time>2017-04-27T11:15:03Z</time>
      </trkpt>
      <trkpt lat="49.19545" lon="1.23961">
        <ele>135</ele>
        <time>2017-04-27T11:15:03Z</time>
      </trkpt>
      <trkpt lat="49.19541" lon="1.23964">
        <ele>137</ele>
        <time>2017-04-27T11:15:03Z</time>
      </trkpt>
      <trkpt lat="49.19539" lon="1.23967">
        <ele>137</ele>
        <time>2017-04-27T11:15:19Z</time>
      </trkpt>
      <trkpt lat="49.19536" lon="1.23969">
        <ele>137</ele>
        <time>2017-04-27T11:15:19Z</time>
      </trkpt>
      <trkpt lat="49.19533" lon="1.23973">
        <ele>137</ele>
        <time>2017-04-27T11:15:19Z</time>
      </trkpt>
      <trkpt lat="49.19529" lon="1.23976">
        <ele>137</ele>
        <time>2017-04-27T11:15:19Z</time>
      </trkpt>
      <trkpt lat="49.19524" lon="1.23979">
        <ele>137</ele>
        <time>2017-04-27T11:15:35Z</time>
      </trkpt>
      <trkpt lat="49.19519" lon="1.23984">
        <ele>137</ele>
        <time>2017-04-27T11:15:35Z</time>
      </trkpt>
      <trkpt lat="49.19513" lon="1.2399">
        <ele>137</ele>
        <time>2017-04-27T11:15:35Z</time>
      </trkpt>
      <trkpt lat="49.19509" lon="1.23995">
        <ele>137</ele>
        <time>2017-04-27T11:15:35Z</time>
      </trkpt>
      <trkpt lat="49.19506" lon="1.23999">
        <ele>137</ele>
        <time>2017-04-27T11:15:51Z</time>
      </trkpt>
      <trkpt lat="49.19501" lon="1.24003">
        <ele>137</ele>
        <time>2017-04-27T11:15:51Z</time>
      </trkpt>
      <trkpt lat="49.19497" lon="1.24006">
        <ele>137</ele>
        <time>2017-04-27T11:15:51Z</time>
      </trkpt>
      <trkpt lat="49.19494" lon="1.2401">
        <ele>137</ele>
        <time>2017-04-27T11:15:51Z</time>
      </trkpt>
      <trkpt lat="49.19489" lon="1.24016">
        <ele>137</ele>
        <time>2017-04-27T11:16:07Z</time>
      </trkpt>
      <trkpt lat="49.19487" lon="1.24021">
        <ele>137</ele>
        <time>2017-04-27T11:16:07Z</time>
      </trkpt>
      <trkpt lat="49.19483" lon="1.24024">
        <ele>137</ele>
        <time>2017-04-27T11:16:07Z</time>
      </trkpt>
      <trkpt lat="49.19481" lon="1.24027">
        <ele>137</ele>
        <time>2017-04-27T11:16:07Z</time>
      </trkpt>
      <trkpt lat="49.19475" lon="1.24033">
        <ele>137</ele>
        <time>2017-04-27T11:16:23Z</time>
      </trkpt>
      <trkpt lat="49.19471" lon="1.24038">
        <ele>137</ele>
        <time>2017-04-27T11:16:23Z</time>
      </trkpt>
      <trkpt lat="49.19468" lon="1.24043">
        <ele>136</ele>
        <time>2017-04-27T11:16:23Z</time>
      </trkpt>
      <trkpt lat="49.19464" lon="1.24047">
        <ele>136</ele>
        <time>2017-04-27T11:16:23Z</time>
      </trkpt>
      <trkpt lat="49.19459" lon="1.24052">
        <ele>136</ele>
        <time>2017-04-27T11:16:39Z</time>
      </trkpt>
      <trkpt lat="49.19456" lon="1.24057">
        <ele>139</ele>
        <time>2017-04-27T11:16:39Z</time>
      </trkpt>
      <trkpt lat="49.19452" lon="1.24062">
        <ele>139</ele>
        <time>2017-04-27T11:16:39Z</time>
      </trkpt>
      <trkpt lat="49.19447" lon="1.24068">
        <ele>139</ele>
        <time>2017-04-27T11:16:39Z</time>
      </trkpt>
      <trkpt lat="49.19443" lon="1.24078">
        <ele>139</ele>
        <time>2017-04-27T11:17:51Z</time>
      </trkpt>
      <trkpt lat="49.19442" lon="1.24079">
        <ele>139</ele>
        <time>2017-04-27T11:17:51Z</time>
      </trkpt>
      <trkpt lat="49.19439" lon="1.24081">
        <ele>139</ele>
        <time>2017-04-27T11:17:51Z</time>
      </trkpt>
      <trkpt lat="49.19438" lon="1.24082">
        <ele>139</ele>
        <time>2017-04-27T11:17:51Z</time>
      </trkpt>
      <trkpt lat="49.19437" lon="1.24083">
        <ele>139</ele>
        <time>2017-04-27T11:17:51Z</time>
      </trkpt>
      <trkpt lat="49.19443" lon="1.24076">
        <ele>139</ele>
        <time>2017-04-27T11:20:19Z</time>
      </trkpt>
      <trkpt lat="49.19443" lon="1.24076">
        <ele>139</ele>
        <time>2017-04-27T11:20:19Z</time>
      </trkpt>
      <trkpt lat="49.19444" lon="1.24076">
        <ele>139</ele>
        <time>2017-04-27T11:20:19Z</time>
      </trkpt>
      <trkpt lat="49.19445" lon="1.24076">
        <ele>139</ele>
        <time>2017-04-27T11:20:19Z</time>
      </trkpt>
      <trkpt lat="49.19445" lon="1.24075">
        <ele>139</ele>
        <time>2017-04-27T11:20:19Z</time>
      </trkpt>
      <trkpt lat="49.19446" lon="1.24076">
        <ele>139</ele>
        <time>2017-04-27T11:21:11Z</time>
      </trkpt>
      <trkpt lat="49.1945" lon="1.24077">
        <ele>139</ele>
        <time>2017-04-27T11:21:11Z</time>
      </trkpt>
      <trkpt lat="49.19452" lon="1.2408">
        <ele>139</ele>
        <time>2017-04-27T11:21:11Z</time>
      </trkpt>
      <trkpt lat="49.19456" lon="1.24086">
        <ele>139</ele>
        <time>2017-04-27T11:21:11Z</time>
      </trkpt>
      <trkpt lat="49.1946" lon="1.24089">
        <ele>136</ele>
        <time>2017-04-27T11:21:11Z</time>
      </trkpt>
      <trkpt lat="49.19463" lon="1.24093">
        <ele>136</ele>
        <time>2017-04-27T11:21:27Z</time>
      </trkpt>
      <trkpt lat="49.19465" lon="1.24096">
        <ele>136</ele>
        <time>2017-04-27T11:21:27Z</time>
      </trkpt>
      <trkpt lat="49.19469" lon="1.24102">
        <ele>136</ele>
        <time>2017-04-27T11:21:27Z</time>
      </trkpt>
      <trkpt lat="49.1947" lon="1.24106">
        <ele>136</ele>
        <time>2017-04-27T11:21:27Z</time>
      </trkpt>
      <trkpt lat="49.19473" lon="1.2411">
        <ele>136</ele>
        <time>2017-04-27T11:21:43Z</time>
      </trkpt>
      <trkpt lat="49.19476" lon="1.24114">
        <ele>136</ele>
        <time>2017-04-27T11:21:43Z</time>
      </trkpt>
      <trkpt lat="49.19481" lon="1.2412">
        <ele>136</ele>
        <time>2017-04-27T11:21:43Z</time>
      </trkpt>
      <trkpt lat="49.19484" lon="1.24125">
        <ele>136</ele>
        <time>2017-04-27T11:21:43Z</time>
      </trkpt>
      <trkpt lat="49.19487" lon="1.24131">
        <ele>136</ele>
        <time>2017-04-27T11:21:59Z</time>
      </trkpt>
      <trkpt lat="49.19491" lon="1.24135">
        <ele>136</ele>
        <time>2017-04-27T11:21:59Z</time>
      </trkpt>
      <trkpt lat="49.19493" lon="1.24139">
        <ele>136</ele>
        <time>2017-04-27T11:21:59Z</time>
      </trkpt>
      <trkpt lat="49.19496" lon="1.24144">
        <ele>136</ele>
        <time>2017-04-27T11:21:59Z</time>
      </trkpt>
      <trkpt lat="49.195" lon="1.24146">
        <ele>136</ele>
        <time>2017-04-27T11:22:15Z</time>
      </trkpt>
      <trkpt lat="49.19503" lon="1.24148">
        <ele>136</ele>
        <time>2017-04-27T11:22:15Z</time>
      </trkpt>
      <trkpt lat="49.19506" lon="1.24151">
        <ele>136</ele>
        <time>2017-04-27T11:22:15Z</time>
      </trkpt>
      <trkpt lat="49.1951" lon="1.24152">
        <ele>136</ele>
        <time>2017-04-27T11:22:15Z</time>
      </trkpt>
      <trkpt lat="49.19515" lon="1.24154">
        <ele>136</ele>
        <time>2017-04-27T11:22:31Z</time>
      </trkpt>
      <trkpt lat="49.19521" lon="1.24156">
        <ele>136</ele>
        <time>2017-04-27T11:22:31Z</time>
      </trkpt>
      <trkpt lat="49.19529" lon="1.24157">
        <ele>136</ele>
        <time>2017-04-27T11:22:31Z</time>
      </trkpt>
      <trkpt lat="49.19534" lon="1.24157">
        <ele>136</ele>
        <time>2017-04-27T11:22:31Z</time>
      </trkpt>
      <trkpt lat="49.19538" lon="1.24157">
        <ele>136</ele>
        <time>2017-04-27T11:22:47Z</time>
      </trkpt>
      <trkpt lat="49.19542" lon="1.24159">
        <ele>133</ele>
        <time>2017-04-27T11:22:47Z</time>
      </trkpt>
      <trkpt lat="49.19544" lon="1.24158">
        <ele>133</ele>
        <time>2017-04-27T11:22:47Z</time>
      </trkpt>
      <trkpt lat="49.19549" lon="1.24158">
        <ele>133</ele>
        <time>2017-04-27T11:22:47Z</time>
      </trkpt>
      <trkpt lat="49.19553" lon="1.24156">
        <ele>133</ele>
        <time>2017-04-27T11:23:03Z</time>
      </trkpt>
      <trkpt lat="49.19558" lon="1.24153">
        <ele>133</ele>
        <time>2017-04-27T11:23:03Z</time>
      </trkpt>
      <trkpt lat="49.19565" lon="1.24152">
        <ele>133</ele>
        <time>2017-04-27T11:23:03Z</time>
      </trkpt>
      <trkpt lat="49.19571" lon="1.24152">
        <ele>133</ele>
        <time>2017-04-27T11:23:03Z</time>
      </trkpt>
      <trkpt lat="49.19576" lon="1.24153">
        <ele>133</ele>
        <time>2017-04-27T11:23:19Z</time>
      </trkpt>
      <trkpt lat="49.1958" lon="1.24152">
        <ele>133</ele>
        <time>2017-04-27T11:23:19Z</time>
      </trkpt>
      <trkpt lat="49.19585" lon="1.2415">
        <ele>133</ele>
        <time>2017-04-27T11:23:19Z</time>
      </trkpt>
      <trkpt lat="49.1959" lon="1.24148">
        <ele>133</ele>
        <time>2017-04-27T11:23:19Z</time>
      </trkpt>
      <trkpt lat="49.19595" lon="1.24148">
        <ele>133</ele>
        <time>2017-04-27T11:23:35Z</time>
      </trkpt>
      <trkpt lat="49.196" lon="1.2415">
        <ele>133</ele>
        <time>2017-04-27T11:23:35Z</time>
      </trkpt>
      <trkpt lat="49.19606" lon="1.2415">
        <ele>133</ele>
        <time>2017-04-27T11:23:35Z</time>
      </trkpt>
      <trkpt lat="49.1961" lon="1.24153">
        <ele>133</ele>
        <time>2017-04-27T11:23:35Z</time>
      </trkpt>
      <trkpt lat="49.19616" lon="1.24155">
        <ele>133</ele>
        <time>2017-04-27T11:23:51Z</time>
      </trkpt>
      <trkpt lat="49.19619" lon="1.24159">
        <ele>133</ele>
        <time>2017-04-27T11:23:51Z</time>
      </trkpt>
      <trkpt lat="49.19619" lon="1.24167">
        <ele>133</ele>
        <time>2017-04-27T11:23:51Z</time>
      </trkpt>
      <trkpt lat="49.19617" lon="1.24174">
        <ele>133</ele>
        <time>2017-04-27T11:23:51Z</time>
      </trkpt>
      <trkpt lat="49.19613" lon="1.24183">
        <ele>133</ele>
        <time>2017-04-27T11:24:07Z</time>
      </trkpt>
      <trkpt lat="49.1961" lon="1.24186">
        <ele>133</ele>
        <time>2017-04-27T11:24:07Z</time>
      </trkpt>
      <trkpt lat="49.19607" lon="1.2419">
        <ele>133</ele>
        <time>2017-04-27T11:24:07Z</time>
      </trkpt>
      <trkpt lat="49.19603" lon="1.24198">
        <ele>133</ele>
        <time>2017-04-27T11:24:07Z</time>
      </trkpt>
      <trkpt lat="49.19599" lon="1.24202">
        <ele>133</ele>
        <time>2017-04-27T11:24:23Z</time>
      </trkpt>
      <trkpt lat="49.19596" lon="1.2421">
        <ele>132</ele>
        <time>2017-04-27T11:24:23Z</time>
      </trkpt>
      <trkpt lat="49.19591" lon="1.24216">
        <ele>132</ele>
        <time>2017-04-27T11:24:23Z</time>
      </trkpt>
      <trkpt lat="49.19587" lon="1.24222">
        <ele>132</ele>
        <time>2017-04-27T11:24:23Z</time>
      </trkpt>
      <trkpt lat="49.19582" lon="1.24228">
        <ele>132</ele>
        <time>2017-04-27T11:24:39Z</time>
      </trkpt>
      <trkpt lat="49.19578" lon="1.24232">
        <ele>132</ele>
        <time>2017-04-27T11:24:39Z</time>
      </trkpt>
      <trkpt lat="49.19574" lon="1.24237">
        <ele>132</ele>
        <time>2017-04-27T11:24:39Z</time>
      </trkpt>
      <trkpt lat="49.19569" lon="1.24242">
        <ele>132</ele>
        <time>2017-04-27T11:24:39Z</time>
      </trkpt>
      <trkpt lat="49.19565" lon="1.24246">
        <ele>132</ele>
        <time>2017-04-27T11:24:55Z</time>
      </trkpt>
      <trkpt lat="49.19561" lon="1.24252">
        <ele>132</ele>
        <time>2017-04-27T11:24:55Z</time>
      </trkpt>
      <trkpt lat="49.19557" lon="1.24257">
        <ele>132</ele>
        <time>2017-04-27T11:24:55Z</time>
      </trkpt>
      <trkpt lat="49.19552" lon="1.24263">
        <ele>132</ele>
        <time>2017-04-27T11:24:55Z</time>
      </trkpt>
      <trkpt lat="49.1955" lon="1.24267">
        <ele>132</ele>
        <time>2017-04-27T11:25:11Z</time>
      </trkpt>
      <trkpt lat="49.19547" lon="1.24272">
        <ele>132</ele>
        <time>2017-04-27T11:25:11Z</time>
      </trkpt>
      <trkpt lat="49.19543" lon="1.24278">
        <ele>132</ele>
        <time>2017-04-27T11:25:11Z</time>
      </trkpt>
      <trkpt lat="49.19538" lon="1.24284">
        <ele>133</ele>
        <time>2017-04-27T11:25:11Z</time>
      </trkpt>
      <trkpt lat="49.19534" lon="1.24291">
        <ele>133</ele>
        <time>2017-04-27T11:25:27Z</time>
      </trkpt>
      <trkpt lat="49.1953" lon="1.24296">
        <ele>132</ele>
        <time>2017-04-27T11:25:27Z</time>
      </trkpt>
      <trkpt lat="49.19525" lon="1.24302">
        <ele>132</ele>
        <time>2017-04-27T11:25:27Z</time>
      </trkpt>
      <trkpt lat="49.19521" lon="1.24308">
        <ele>132</ele>
        <time>2017-04-27T11:25:27Z</time>
      </trkpt>
      <trkpt lat="49.19517" lon="1.24312">
        <ele>132</ele>
        <time>2017-04-27T11:25:43Z</time>
      </trkpt>
      <trkpt lat="49.19513" lon="1.24318">
        <ele>132</ele>
        <time>2017-04-27T11:25:43Z</time>
      </trkpt>
      <trkpt lat="49.19511" lon="1.24322">
        <ele>132</ele>
        <time>2017-04-27T11:25:43Z</time>
      </trkpt>
      <trkpt lat="49.19508" lon="1.24326">
        <ele>132</ele>
        <time>2017-04-27T11:25:43Z</time>
      </trkpt>
      <trkpt lat="49.19506" lon="1.2433">
        <ele>132</ele>
        <time>2017-04-27T11:25:59Z</time>
      </trkpt>
      <trkpt lat="49.19501" lon="1.24336">
        <ele>132</ele>
        <time>2017-04-27T11:25:59Z</time>
      </trkpt>
      <trkpt lat="49.19496" lon="1.24344">
        <ele>132</ele>
        <time>2017-04-27T11:25:59Z</time>
      </trkpt>
      <trkpt lat="49.19493" lon="1.2435">
        <ele>132</ele>
        <time>2017-04-27T11:25:59Z</time>
      </trkpt>
      <trkpt lat="49.19489" lon="1.24357">
        <ele>132</ele>
        <time>2017-04-27T11:26:15Z</time>
      </trkpt>
      <trkpt lat="49.19485" lon="1.24363">
        <ele>132</ele>
        <time>2017-04-27T11:26:15Z</time>
      </trkpt>
      <trkpt lat="49.19482" lon="1.24371">
        <ele>132</ele>
        <time>2017-04-27T11:26:15Z</time>
      </trkpt>
      <trkpt lat="49.19481" lon="1.24376">
        <ele>130</ele>
        <time>2017-04-27T11:26:15Z</time>
      </trkpt>
      <trkpt lat="49.19481" lon="1.24386">
        <ele>130</ele>
        <time>2017-04-27T11:26:31Z</time>
      </trkpt>
      <trkpt lat="49.19483" lon="1.2439">
        <ele>130</ele>
        <time>2017-04-27T11:26:31Z</time>
      </trkpt>
      <trkpt lat="49.19486" lon="1.24396">
        <ele>130</ele>
        <time>2017-04-27T11:26:31Z</time>
      </trkpt>
      <trkpt lat="49.19489" lon="1.24402">
        <ele>130</ele>
        <time>2017-04-27T11:26:31Z</time>
      </trkpt>
      <trkpt lat="49.19492" lon="1.24409">
        <ele>130</ele>
        <time>2017-04-27T11:26:47Z</time>
      </trkpt>
      <trkpt lat="49.19495" lon="1.24416">
        <ele>130</ele>
        <time>2017-04-27T11:26:47Z</time>
      </trkpt>
      <trkpt lat="49.19497" lon="1.24424">
        <ele>130</ele>
        <time>2017-04-27T11:26:47Z</time>
      </trkpt>
      <trkpt lat="49.19498" lon="1.24432">
        <ele>130</ele>
        <time>2017-04-27T11:26:47Z</time>
      </trkpt>
      <trkpt lat="49.195" lon="1.24439">
        <ele>130</ele>
        <time>2017-04-27T11:27:03Z</time>
      </trkpt>
      <trkpt lat="49.19503" lon="1.24447">
        <ele>130</ele>
        <time>2017-04-27T11:27:03Z</time>
      </trkpt>
      <trkpt lat="49.19505" lon="1.24452">
        <ele>130</ele>
        <time>2017-04-27T11:27:03Z</time>
      </trkpt>
      <trkpt lat="49.19508" lon="1.24459">
        <ele>132</ele>
        <time>2017-04-27T11:27:03Z</time>
      </trkpt>
      <trkpt lat="49.19511" lon="1.24467">
        <ele>132</ele>
        <time>2017-04-27T11:27:19Z</time>
      </trkpt>
      <trkpt lat="49.19513" lon="1.24472">
        <ele>132</ele>
        <time>2017-04-27T11:27:19Z</time>
      </trkpt>
      <trkpt lat="49.19515" lon="1.24481">
        <ele>132</ele>
        <time>2017-04-27T11:27:19Z</time>
      </trkpt>
      <trkpt lat="49.19518" lon="1.24489">
        <ele>132</ele>
        <time>2017-04-27T11:27:19Z</time>
      </trkpt>
      <trkpt lat="49.19517" lon="1.24494">
        <ele>132</ele>
        <time>2017-04-27T11:27:35Z</time>
      </trkpt>
      <trkpt lat="49.19518" lon="1.24502">
        <ele>132</ele>
        <time>2017-04-27T11:27:35Z</time>
      </trkpt>
      <trkpt lat="49.19517" lon="1.24511">
        <ele>132</ele>
        <time>2017-04-27T11:27:35Z</time>
      </trkpt>
      <trkpt lat="49.19516" lon="1.2452">
        <ele>132</ele>
        <time>2017-04-27T11:27:35Z</time>
      </trkpt>
      <trkpt lat="49.19516" lon="1.24526">
        <ele>132</ele>
        <time>2017-04-27T11:27:51Z</time>
      </trkpt>
      <trkpt lat="49.19514" lon="1.24532">
        <ele>132</ele>
        <time>2017-04-27T11:27:51Z</time>
      </trkpt>
      <trkpt lat="49.19512" lon="1.24538">
        <ele>132</ele>
        <time>2017-04-27T11:27:51Z</time>
      </trkpt>
      <trkpt lat="49.19511" lon="1.24548">
        <ele>134</ele>
        <time>2017-04-27T11:27:51Z</time>
      </trkpt>
      <trkpt lat="49.19509" lon="1.24558">
        <ele>134</ele>
        <time>2017-04-27T11:28:07Z</time>
      </trkpt>
      <trkpt lat="49.19509" lon="1.24567">
        <ele>134</ele>
        <time>2017-04-27T11:28:07Z</time>
      </trkpt>
      <trkpt lat="49.19511" lon="1.24576">
        <ele>134</ele>
        <time>2017-04-27T11:28:07Z</time>
      </trkpt>
      <trkpt lat="49.19513" lon="1.24579">
        <ele>134</ele>
        <time>2017-04-27T11:28:07Z</time>
      </trkpt>
      <trkpt lat="49.19518" lon="1.24579">
        <ele>134</ele>
        <time>2017-04-27T11:28:35Z</time>
      </trkpt>
      <trkpt lat="49.19519" lon="1.24579">
        <ele>134</ele>
        <time>2017-04-27T11:28:35Z</time>
      </trkpt>
      <trkpt lat="49.1952" lon="1.24578">
        <ele>134</ele>
        <time>2017-04-27T11:28:35Z</time>
      </trkpt>
      <trkpt lat="49.19521" lon="1.24576">
        <ele>134</ele>
        <time>2017-04-27T11:28:35Z</time>
      </trkpt>
      <trkpt lat="49.19524" lon="1.24574">
        <ele>134</ele>
        <time>2017-04-27T11:28:35Z</time>
      </trkpt>
      <trkpt lat="49.19527" lon="1.24573">
        <ele>134</ele>
        <time>2017-04-27T11:28:55Z</time>
      </trkpt>
      <trkpt lat="49.19529" lon="1.24573">
        <ele>134</ele>
        <time>2017-04-27T11:28:55Z</time>
      </trkpt>
      <trkpt lat="49.1953" lon="1.24575">
        <ele>134</ele>
        <time>2017-04-27T11:28:55Z</time>
      </trkpt>
      <trkpt lat="49.1953" lon="1.24582">
        <ele>134</ele>
        <time>2017-04-27T11:28:55Z</time>
      </trkpt>
      <trkpt lat="49.19527" lon="1.24587">
        <ele>134</ele>
        <time>2017-04-27T11:28:55Z</time>
      </trkpt>
      <trkpt lat="49.19521" lon="1.24583">
        <ele>134</ele>
        <time>2017-04-27T11:29:31Z</time>
      </trkpt>
      <trkpt lat="49.19519" lon="1.24589">
        <ele>134</ele>
        <time>2017-04-27T11:29:31Z</time>
      </trkpt>
      <trkpt lat="49.19512" lon="1.24597">
        <ele>134</ele>
        <time>2017-04-27T11:29:31Z</time>
      </trkpt>
      <trkpt lat="49.1951" lon="1.246">
        <ele>134</ele>
        <time>2017-04-27T11:29:31Z</time>
      </trkpt>
      <trkpt lat="49.19507" lon="1.24603">
        <ele>134</ele>
        <time>2017-04-27T11:29:31Z</time>
      </trkpt>
      <trkpt lat="49.19506" lon="1.24602">
        <ele>134</ele>
        <time>2017-04-27T11:30:15Z</time>
      </trkpt>
      <trkpt lat="49.19506" lon="1.24603">
        <ele>134</ele>
        <time>2017-04-27T11:30:15Z</time>
      </trkpt>
      <trkpt lat="49.19505" lon="1.24605">
        <ele>134</ele>
        <time>2017-04-27T11:30:15Z</time>
      </trkpt>
      <trkpt lat="49.19508" lon="1.24611">
        <ele>134</ele>
        <time>2017-04-27T11:30:15Z</time>
      </trkpt>
      <trkpt lat="49.19511" lon="1.24616">
        <ele>134</ele>
        <time>2017-04-27T11:30:15Z</time>
      </trkpt>
      <trkpt lat="49.19515" lon="1.24621">
        <ele>134</ele>
        <time>2017-04-27T11:30:31Z</time>
      </trkpt>
      <trkpt lat="49.19518" lon="1.24627">
        <ele>135</ele>
        <time>2017-04-27T11:30:31Z</time>
      </trkpt>
      <trkpt lat="49.19522" lon="1.24632">
        <ele>135</ele>
        <time>2017-04-27T11:30:31Z</time>
      </trkpt>
      <trkpt lat="49.19524" lon="1.24632">
        <ele>135</ele>
        <time>2017-04-27T11:30:31Z</time>
      </trkpt>
      <trkpt lat="49.19529" lon="1.24632">
        <ele>135</ele>
        <time>2017-04-27T11:31:19Z</time>
      </trkpt>
      <trkpt lat="49.19529" lon="1.24633">
        <ele>135</ele>
        <time>2017-04-27T11:31:19Z</time>
      </trkpt>
      <trkpt lat="49.19529" lon="1.24633">
        <ele>135</ele>
        <time>2017-04-27T11:31:19Z</time>
      </trkpt>
      <trkpt lat="49.19529" lon="1.24633">
        <ele>135</ele>
        <time>2017-04-27T11:31:19Z</time>
      </trkpt>
      <trkpt lat="49.19527" lon="1.24646">
        <ele>135</ele>
        <time>2017-04-27T11:31:19Z</time>
      </trkpt>
      <trkpt lat="49.19524" lon="1.24658">
        <ele>135</ele>
        <time>2017-04-27T11:31:43Z</time>
      </trkpt>
      <trkpt lat="49.19526" lon="1.24662">
        <ele>135</ele>
        <time>2017-04-27T11:31:43Z</time>
      </trkpt>
      <trkpt lat="49.19526" lon="1.24664">
        <ele>135</ele>
        <time>2017-04-27T11:31:43Z</time>
      </trkpt>
      <trkpt lat="49.19526" lon="1.24664">
        <ele>135</ele>
        <time>2017-04-27T11:31:43Z</time>
      </trkpt>
      <trkpt lat="49.19525" lon="1.24672">
        <ele>135</ele>
        <time>2017-04-27T11:31:43Z</time>
      </trkpt>
      <trkpt lat="49.19525" lon="1.24672">
        <ele>135</ele>
        <time>2017-04-27T11:31:59Z</time>
      </trkpt>
      <trkpt lat="49.19523" lon="1.2469">
        <ele>135</ele>
        <time>2017-04-27T11:31:59Z</time>
      </trkpt>
      <trkpt lat="49.19523" lon="1.24694">
        <ele>135</ele>
        <time>2017-04-27T11:31:59Z</time>
      </trkpt>
      <trkpt lat="49.19523" lon="1.24694">
        <ele>135</ele>
        <time>2017-04-27T11:31:59Z</time>
      </trkpt>
      <trkpt lat="49.19526" lon="1.24709">
        <ele>137</ele>
        <time>2017-04-27T11:32:39Z</time>
      </trkpt>
      <trkpt lat="49.19526" lon="1.24723">
        <ele>137</ele>
        <time>2017-04-27T11:32:39Z</time>
      </trkpt>
      <trkpt lat="49.19526" lon="1.24734">
        <ele>137</ele>
        <time>2017-04-27T11:32:39Z</time>
      </trkpt>
      <trkpt lat="49.19531" lon="1.24741">
        <ele>137</ele>
        <time>2017-04-27T11:32:39Z</time>
      </trkpt>
      <trkpt lat="49.19537" lon="1.24749">
        <ele>137</ele>
        <time>2017-04-27T11:32:39Z</time>
      </trkpt>
      <trkpt lat="49.19541" lon="1.24759">
        <ele>137</ele>
        <time>2017-04-27T11:32:55Z</time>
      </trkpt>
      <trkpt lat="49.19543" lon="1.24769">
        <ele>134</ele>
        <time>2017-04-27T11:32:55Z</time>
      </trkpt>
      <trkpt lat="49.1955" lon="1.24777">
        <ele>134</ele>
        <time>2017-04-27T11:32:55Z</time>
      </trkpt>
      <trkpt lat="49.19552" lon="1.2478">
        <ele>134</ele>
        <time>2017-04-27T11:32:55Z</time>
      </trkpt>
      <trkpt lat="49.19556" lon="1.24785">
        <ele>134</ele>
        <time>2017-04-27T11:33:11Z</time>
      </trkpt>
      <trkpt lat="49.19559" lon="1.24789">
        <ele>134</ele>
        <time>2017-04-27T11:33:11Z</time>
      </trkpt>
      <trkpt lat="49.19566" lon="1.24797">
        <ele>137</ele>
        <time>2017-04-27T11:33:11Z</time>
      </trkpt>
      <trkpt lat="49.1957" lon="1.24801">
        <ele>137</ele>
        <time>2017-04-27T11:33:11Z</time>
      </trkpt>
      <trkpt lat="49.19574" lon="1.2481">
        <ele>137</ele>
        <time>2017-04-27T11:33:27Z</time>
      </trkpt>
      <trkpt lat="49.19574" lon="1.24814">
        <ele>137</ele>
        <time>2017-04-27T11:33:27Z</time>
      </trkpt>
      <trkpt lat="49.1957" lon="1.24818">
        <ele>137</ele>
        <time>2017-04-27T11:33:27Z</time>
      </trkpt>
      <trkpt lat="49.19569" lon="1.24821">
        <ele>137</ele>
        <time>2017-04-27T11:33:27Z</time>
      </trkpt>
      <trkpt lat="49.19571" lon="1.24827">
        <ele>137</ele>
        <time>2017-04-27T11:33:47Z</time>
      </trkpt>
      <trkpt lat="49.1957" lon="1.24829">
        <ele>137</ele>
        <time>2017-04-27T11:33:47Z</time>
      </trkpt>
      <trkpt lat="49.19567" lon="1.24831">
        <ele>137</ele>
        <time>2017-04-27T11:33:47Z</time>
      </trkpt>
      <trkpt lat="49.19564" lon="1.24835">
        <ele>137</ele>
        <time>2017-04-27T11:33:47Z</time>
      </trkpt>
      <trkpt lat="49.19561" lon="1.24839">
        <ele>137</ele>
        <time>2017-04-27T11:33:47Z</time>
      </trkpt>
      <trkpt lat="49.1956" lon="1.24843">
        <ele>137</ele>
        <time>2017-04-27T11:34:07Z</time>
      </trkpt>
      <trkpt lat="49.19557" lon="1.24847">
        <ele>137</ele>
        <time>2017-04-27T11:34:07Z</time>
      </trkpt>
      <trkpt lat="49.19556" lon="1.2485">
        <ele>137</ele>
        <time>2017-04-27T11:34:07Z</time>
      </trkpt>
      <trkpt lat="49.19554" lon="1.24853">
        <ele>137</ele>
        <time>2017-04-27T11:34:07Z</time>
      </trkpt>
      <trkpt lat="49.19551" lon="1.24858">
        <ele>137</ele>
        <time>2017-04-27T11:34:07Z</time>
      </trkpt>
      <trkpt lat="49.19548" lon="1.24861">
        <ele>137</ele>
        <time>2017-04-27T11:34:23Z</time>
      </trkpt>
      <trkpt lat="49.19545" lon="1.24863">
        <ele>137</ele>
        <time>2017-04-27T11:34:23Z</time>
      </trkpt>
      <trkpt lat="49.19544" lon="1.24863">
        <ele>137</ele>
        <time>2017-04-27T11:34:23Z</time>
      </trkpt>
      <trkpt lat="49.19539" lon="1.24861">
        <ele>136</ele>
        <time>2017-04-27T11:34:23Z</time>
      </trkpt>
      <trkpt lat="49.19533" lon="1.24859">
        <ele>136</ele>
        <time>2017-04-27T11:34:39Z</time>
      </trkpt>
      <trkpt lat="49.19527" lon="1.24856">
        <ele>136</ele>
        <time>2017-04-27T11:34:39Z</time>
      </trkpt>
      <trkpt lat="49.19521" lon="1.24852">
        <ele>136</ele>
        <time>2017-04-27T11:34:39Z</time>
      </trkpt>
      <trkpt lat="49.19519" lon="1.2485">
        <ele>136</ele>
        <time>2017-04-27T11:34:39Z</time>
      </trkpt>
      <trkpt lat="49.19516" lon="1.24847">
        <ele>136</ele>
        <time>2017-04-27T11:34:55Z</time>
      </trkpt>
      <trkpt lat="49.1951" lon="1.24845">
        <ele>136</ele>
        <time>2017-04-27T11:34:55Z</time>
      </trkpt>
      <trkpt lat="49.19505" lon="1.24843">
        <ele>136</ele>
        <time>2017-04-27T11:34:55Z</time>
      </trkpt>
      <trkpt lat="49.19501" lon="1.24841">
        <ele>136</ele>
        <time>2017-04-27T11:34:55Z</time>
      </trkpt>
      <trkpt lat="49.19497" lon="1.24841">
        <ele>136</ele>
        <time>2017-04-27T11:35:11Z</time>
      </trkpt>
      <trkpt lat="49.19492" lon="1.24838">
        <ele>136</ele>
        <time>2017-04-27T11:35:11Z</time>
      </trkpt>
      <trkpt lat="49.19486" lon="1.24837">
        <ele>136</ele>
        <time>2017-04-27T11:35:11Z</time>
      </trkpt>
      <trkpt lat="49.19482" lon="1.24836">
        <ele>136</ele>
        <time>2017-04-27T11:35:11Z</time>
      </trkpt>
      <trkpt lat="49.19478" lon="1.24836">
        <ele>136</ele>
        <time>2017-04-27T11:35:27Z</time>
      </trkpt>
      <trkpt lat="49.19474" lon="1.24835">
        <ele>136</ele>
        <time>2017-04-27T11:35:27Z</time>
      </trkpt>
      <trkpt lat="49.19469" lon="1.24834">
        <ele>136</ele>
        <time>2017-04-27T11:35:27Z</time>
      </trkpt>
      <trkpt lat="49.19464" lon="1.24835">
        <ele>136</ele>
        <time>2017-04-27T11:35:27Z</time>
      </trkpt>
      <trkpt lat="49.19458" lon="1.24834">
        <ele>136</ele>
        <time>2017-04-27T11:35:43Z</time>
      </trkpt>
      <trkpt lat="49.19453" lon="1.24834">
        <ele>136</ele>
        <time>2017-04-27T11:35:43Z</time>
      </trkpt>
      <trkpt lat="49.19451" lon="1.24832">
        <ele>136</ele>
        <time>2017-04-27T11:35:43Z</time>
      </trkpt>
      <trkpt lat="49.19448" lon="1.2483">
        <ele>136</ele>
        <time>2017-04-27T11:35:43Z</time>
      </trkpt>
      <trkpt lat="49.19446" lon="1.2483">
        <ele>136</ele>
        <time>2017-04-27T11:37:55Z</time>
      </trkpt>
      <trkpt lat="49.19446" lon="1.24832">
        <ele>136</ele>
        <time>2017-04-27T11:37:55Z</time>
      </trkpt>
      <trkpt lat="49.19444" lon="1.24834">
        <ele>136</ele>
        <time>2017-04-27T11:37:55Z</time>
      </trkpt>
      <trkpt lat="49.19441" lon="1.24837">
        <ele>136</ele>
        <time>2017-04-27T11:37:55Z</time>
      </trkpt>
      <trkpt lat="49.1944" lon="1.24841">
        <ele>136</ele>
        <time>2017-04-27T11:37:55Z</time>
      </trkpt>
      <trkpt lat="49.1944" lon="1.24841">
        <ele>136</ele>
        <time>2017-04-27T11:41:07Z</time>
      </trkpt>
      <trkpt lat="49.1944" lon="1.24841">
        <ele>136</ele>
        <time>2017-04-27T11:41:07Z</time>
      </trkpt>
      <trkpt lat="49.1944" lon="1.24841">
        <ele>136</ele>
        <time>2017-04-27T11:41:07Z</time>
      </trkpt>
      <trkpt lat="49.19435" lon="1.24836">
        <ele>136</ele>
        <time>2017-04-27T11:41:07Z</time>
      </trkpt>
      <trkpt lat="49.1943" lon="1.24832">
        <ele>136</ele>
        <time>2017-04-27T11:41:07Z</time>
      </trkpt>
      <trkpt lat="49.19427" lon="1.24828">
        <ele>136</ele>
        <time>2017-04-27T11:41:23Z</time>
      </trkpt>
      <trkpt lat="49.19422" lon="1.2483">
        <ele>136</ele>
        <time>2017-04-27T11:41:23Z</time>
      </trkpt>
      <trkpt lat="49.19419" lon="1.24832">
        <ele>136</ele>
        <time>2017-04-27T11:41:23Z</time>
      </trkpt>
      <trkpt lat="49.19416" lon="1.24834">
        <ele>136</ele>
        <time>2017-04-27T11:41:23Z</time>
      </trkpt>
      <trkpt lat="49.19413" lon="1.24838">
        <ele>136</ele>
        <time>2017-04-27T11:41:39Z</time>
      </trkpt>
      <trkpt lat="49.1941" lon="1.24841">
        <ele>136</ele>
        <time>2017-04-27T11:41:39Z</time>
      </trkpt>
      <trkpt lat="49.19408" lon="1.24844">
        <ele>136</ele>
        <time>2017-04-27T11:41:39Z</time>
      </trkpt>
      <trkpt lat="49.19405" lon="1.24848">
        <ele>136</ele>
        <time>2017-04-27T11:41:39Z</time>
      </trkpt>
      <trkpt lat="49.194" lon="1.24853">
        <ele>136</ele>
        <time>2017-04-27T11:41:55Z</time>
      </trkpt>
      <trkpt lat="49.19398" lon="1.24861">
        <ele>136</ele>
        <time>2017-04-27T11:41:55Z</time>
      </trkpt>
      <trkpt lat="49.19396" lon="1.24866">
        <ele>136</ele>
        <time>2017-04-27T11:41:55Z</time>
      </trkpt>
      <trkpt lat="49.19396" lon="1.24868">
        <ele>136</ele>
        <time>2017-04-27T11:41:55Z</time>
      </trkpt>
      <trkpt lat="49.19397" lon="1.24869">
        <ele>136</ele>
        <time>2017-04-27T11:42:15Z</time>
      </trkpt>
      <trkpt lat="49.19399" lon="1.24873">
        <ele>136</ele>
        <time>2017-04-27T11:42:15Z</time>
      </trkpt>
      <trkpt lat="49.19401" lon="1.24874">
        <ele>136</ele>
        <time>2017-04-27T11:42:15Z</time>
      </trkpt>
      <trkpt lat="49.19402" lon="1.24873">
        <ele>136</ele>
        <time>2017-04-27T11:42:15Z</time>
      </trkpt>
      <trkpt lat="49.19406" lon="1.24879">
        <ele>135</ele>
        <time>2017-04-27T11:42:15Z</time>
      </trkpt>
      <trkpt lat="49.19408" lon="1.24883">
        <ele>135</ele>
        <time>2017-04-27T11:42:31Z</time>
      </trkpt>
      <trkpt lat="49.1941" lon="1.24887">
        <ele>135</ele>
        <time>2017-04-27T11:42:31Z</time>
      </trkpt>
      <trkpt lat="49.19412" lon="1.24892">
        <ele>135</ele>
        <time>2017-04-27T11:42:31Z</time>
      </trkpt>
      <trkpt lat="49.19415" lon="1.24898">
        <ele>135</ele>
        <time>2017-04-27T11:42:31Z</time>
      </trkpt>
      <trkpt lat="49.1942" lon="1.24904">
        <ele>135</ele>
        <time>2017-04-27T11:42:47Z</time>
      </trkpt>
      <trkpt lat="49.19421" lon="1.2491">
        <ele>135</ele>
        <time>2017-04-27T11:42:47Z</time>
      </trkpt>
      <trkpt lat="49.19424" lon="1.24917">
        <ele>135</ele>
        <time>2017-04-27T11:42:47Z</time>
      </trkpt>
      <trkpt lat="49.19427" lon="1.24924">
        <ele>135</ele>
        <time>2017-04-27T11:42:47Z</time>
      </trkpt>
      <trkpt lat="49.19429" lon="1.24928">
        <ele>135</ele>
        <time>2017-04-27T11:43:03Z</time>
      </trkpt>
      <trkpt lat="49.19433" lon="1.24935">
        <ele>135</ele>
        <time>2017-04-27T11:43:03Z</time>
      </trkpt>
      <trkpt lat="49.19436" lon="1.24942">
        <ele>135</ele>
        <time>2017-04-27T11:43:03Z</time>
      </trkpt>
      <trkpt lat="49.19439" lon="1.24949">
        <ele>135</ele>
        <time>2017-04-27T11:43:03Z</time>
      </trkpt>
      <trkpt lat="49.19442" lon="1.24956">
        <ele>135</ele>
        <time>2017-04-27T11:43:19Z</time>
      </trkpt>
      <trkpt lat="49.19444" lon="1.24961">
        <ele>136</ele>
        <time>2017-04-27T11:43:19Z</time>
      </trkpt>
      <trkpt lat="49.19447" lon="1.24967">
        <ele>136</ele>
        <time>2017-04-27T11:43:19Z</time>
      </trkpt>
      <trkpt lat="49.1945" lon="1.24975">
        <ele>136</ele>
        <time>2017-04-27T11:43:19Z</time>
      </trkpt>
      <trkpt lat="49.19453" lon="1.24982">
        <ele>136</ele>
        <time>2017-04-27T11:43:35Z</time>
      </trkpt>
      <trkpt lat="49.19453" lon="1.24985">
        <ele>136</ele>
        <time>2017-04-27T11:43:35Z</time>
      </trkpt>
      <trkpt lat="49.19456" lon="1.2499">
        <ele>136</ele>
        <time>2017-04-27T11:43:35Z</time>
      </trkpt>
      <trkpt lat="49.19459" lon="1.24996">
        <ele>138</ele>
        <time>2017-04-27T11:43:35Z</time>
      </trkpt>
      <trkpt lat="49.19462" lon="1.25003">
        <ele>138</ele>
        <time>2017-04-27T11:43:51Z</time>
      </trkpt>
      <trkpt lat="49.19465" lon="1.2501">
        <ele>138</ele>
        <time>2017-04-27T11:43:51Z</time>
      </trkpt>
      <trkpt lat="49.19468" lon="1.25016">
        <ele>138</ele>
        <time>2017-04-27T11:43:51Z</time>
      </trkpt>
      <trkpt lat="49.19471" lon="1.25022">
        <ele>138</ele>
        <time>2017-04-27T11:43:51Z</time>
      </trkpt>
      <trkpt lat="49.19473" lon="1.25029">
        <ele>138</ele>
        <time>2017-04-27T11:44:07Z</time>
      </trkpt>
      <trkpt lat="49.19476" lon="1.25035">
        <ele>138</ele>
        <time>2017-04-27T11:44:07Z</time>
      </trkpt>
      <trkpt lat="49.19479" lon="1.25041">
        <ele>138</ele>
        <time>2017-04-27T11:44:07Z</time>
      </trkpt>
      <trkpt lat="49.19483" lon="1.25047">
        <ele>138</ele>
        <time>2017-04-27T11:44:07Z</time>
      </trkpt>
      <trkpt lat="49.19486" lon="1.25054">
        <ele>138</ele>
        <time>2017-04-27T11:44:23Z</time>
      </trkpt>
      <trkpt lat="49.19489" lon="1.25059">
        <ele>138</ele>
        <time>2017-04-27T11:44:23Z</time>
      </trkpt>
      <trkpt lat="49.19493" lon="1.25066">
        <ele>138</ele>
        <time>2017-04-27T11:44:23Z</time>
      </trkpt>
      <trkpt lat="49.19497" lon="1.25071">
        <ele>138</ele>
        <time>2017-04-27T11:44:23Z</time>
      </trkpt>
      <trkpt lat="49.19501" lon="1.25075">
        <ele>138</ele>
        <time>2017-04-27T11:44:39Z</time>
      </trkpt>
      <trkpt lat="49.19505" lon="1.25083">
        <ele>138</ele>
        <time>2017-04-27T11:44:39Z</time>
      </trkpt>
      <trkpt lat="49.19508" lon="1.25088">
        <ele>138</ele>
        <time>2017-04-27T11:44:39Z</time>
      </trkpt>
      <trkpt lat="49.19512" lon="1.25094">
        <ele>138</ele>
        <time>2017-04-27T11:44:39Z</time>
      </trkpt>
      <trkpt lat="49.19515" lon="1.25101">
        <ele>138</ele>
        <time>2017-04-27T11:44:55Z</time>
      </trkpt>
      <trkpt lat="49.19519" lon="1.25106">
        <ele>138</ele>
        <time>2017-04-27T11:44:55Z</time>
      </trkpt>
      <trkpt lat="49.19522" lon="1.25109">
        <ele>138</ele>
        <time>2017-04-27T11:44:55Z</time>
      </trkpt>
      <trkpt lat="49.19525" lon="1.25114">
        <ele>138</ele>
        <time>2017-04-27T11:44:55Z</time>
      </trkpt>
      <trkpt lat="49.19529" lon="1.25119">
        <ele>138</ele>
        <time>2017-04-27T11:45:11Z</time>
      </trkpt>
      <trkpt lat="49.19532" lon="1.25123">
        <ele>138</ele>
        <time>2017-04-27T11:45:11Z</time>
      </trkpt>
      <trkpt lat="49.19535" lon="1.25128">
        <ele>137</ele>
        <time>2017-04-27T11:45:11Z</time>
      </trkpt>
      <trkpt lat="49.19538" lon="1.25135">
        <ele>137</ele>
        <time>2017-04-27T11:45:11Z</time>
      </trkpt>
      <trkpt lat="49.19542" lon="1.25141">
        <ele>141</ele>
        <time>2017-04-27T11:45:27Z</time>
      </trkpt>
      <trkpt lat="49.19545" lon="1.25147">
        <ele>141</ele>
        <time>2017-04-27T11:45:27Z</time>
      </trkpt>
      <trkpt lat="49.19548" lon="1.2515">
        <ele>141</ele>
        <time>2017-04-27T11:45:27Z</time>
      </trkpt>
      <trkpt lat="49.19549" lon="1.25153">
        <ele>141</ele>
        <time>2017-04-27T11:45:27Z</time>
      </trkpt>
      <trkpt lat="49.19551" lon="1.25155">
        <ele>141</ele>
        <time>2017-04-27T11:45:59Z</time>
      </trkpt>
      <trkpt lat="49.19551" lon="1.25155">
        <ele>141</ele>
        <time>2017-04-27T11:45:59Z</time>
      </trkpt>
      <trkpt lat="49.19552" lon="1.25157">
        <ele>141</ele>
        <time>2017-04-27T11:45:59Z</time>
      </trkpt>
      <trkpt lat="49.19556" lon="1.25163">
        <ele>141</ele>
        <time>2017-04-27T11:45:59Z</time>
      </trkpt>
      <trkpt lat="49.19558" lon="1.25167">
        <ele>141</ele>
        <time>2017-04-27T11:45:59Z</time>
      </trkpt>
      <trkpt lat="49.19561" lon="1.25171">
        <ele>141</ele>
        <time>2017-04-27T11:46:15Z</time>
      </trkpt>
      <trkpt lat="49.19564" lon="1.25178">
        <ele>141</ele>
        <time>2017-04-27T11:46:15Z</time>
      </trkpt>
      <trkpt lat="49.19568" lon="1.25184">
        <ele>141</ele>
        <time>2017-04-27T11:46:15Z</time>
      </trkpt>
      <trkpt lat="49.1957" lon="1.2519">
        <ele>141</ele>
        <time>2017-04-27T11:46:15Z</time>
      </trkpt>
      <trkpt lat="49.19572" lon="1.25199">
        <ele>141</ele>
        <time>2017-04-27T11:46:43Z</time>
      </trkpt>
      <trkpt lat="49.19574" lon="1.25201">
        <ele>141</ele>
        <time>2017-04-27T11:46:43Z</time>
      </trkpt>
      <trkpt lat="49.19577" lon="1.25205">
        <ele>141</ele>
        <time>2017-04-27T11:46:43Z</time>
      </trkpt>
      <trkpt lat="49.19579" lon="1.25211">
        <ele>141</ele>
        <time>2017-04-27T11:46:43Z</time>
      </trkpt>
      <trkpt lat="49.19585" lon="1.25222">
        <ele>141</ele>
        <time>2017-04-27T11:46:43Z</time>
      </trkpt>
      <trkpt lat="49.19588" lon="1.25228">
        <ele>141</ele>
        <time>2017-04-27T11:46:59Z</time>
      </trkpt>
      <trkpt lat="49.19591" lon="1.25233">
        <ele>141</ele>
        <time>2017-04-27T11:46:59Z</time>
      </trkpt>
      <trkpt lat="49.19593" lon="1.25237">
        <ele>141</ele>
        <time>2017-04-27T11:46:59Z</time>
      </trkpt>
      <trkpt lat="49.19595" lon="1.25241">
        <ele>141</ele>
        <time>2017-04-27T11:46:59Z</time>
      </trkpt>
      <trkpt lat="49.19599" lon="1.25247">
        <ele>141</ele>
        <time>2017-04-27T11:47:15Z</time>
      </trkpt>
      <trkpt lat="49.19602" lon="1.25254">
        <ele>141</ele>
        <time>2017-04-27T11:47:15Z</time>
      </trkpt>
      <trkpt lat="49.19605" lon="1.2526">
        <ele>141</ele>
        <time>2017-04-27T11:47:15Z</time>
      </trkpt>
      <trkpt lat="49.19609" lon="1.25265">
        <ele>141</ele>
        <time>2017-04-27T11:47:15Z</time>
      </trkpt>
      <trkpt lat="49.19614" lon="1.25273">
        <ele>141</ele>
        <time>2017-04-27T11:47:31Z</time>
      </trkpt>
      <trkpt lat="49.19617" lon="1.25278">
        <ele>141</ele>
        <time>2017-04-27T11:47:31Z</time>
      </trkpt>
      <trkpt lat="49.19618" lon="1.25281">
        <ele>141</ele>
        <time>2017-04-27T11:47:31Z</time>
      </trkpt>
      <trkpt lat="49.19621" lon="1.25286">
        <ele>141</ele>
        <time>2017-04-27T11:47:31Z</time>
      </trkpt>
      <trkpt lat="49.19623" lon="1.25292">
        <ele>139</ele>
        <time>2017-04-27T11:47:51Z</time>
      </trkpt>
      <trkpt lat="49.19625" lon="1.25298">
        <ele>139</ele>
        <time>2017-04-27T11:47:51Z</time>
      </trkpt>
      <trkpt lat="49.19626" lon="1.25301">
        <ele>145</ele>
        <time>2017-04-27T11:47:51Z</time>
      </trkpt>
      <trkpt lat="49.19628" lon="1.25303">
        <ele>145</ele>
        <time>2017-04-27T11:47:51Z</time>
      </trkpt>
      <trkpt lat="49.19629" lon="1.25307">
        <ele>145</ele>
        <time>2017-04-27T11:47:51Z</time>
      </trkpt>
      <trkpt lat="49.19633" lon="1.25314">
        <ele>145</ele>
        <time>2017-04-27T11:48:07Z</time>
      </trkpt>
      <trkpt lat="49.19635" lon="1.25323">
        <ele>145</ele>
        <time>2017-04-27T11:48:07Z</time>
      </trkpt>
      <trkpt lat="49.19637" lon="1.25325">
        <ele>145</ele>
        <time>2017-04-27T11:48:07Z</time>
      </trkpt>
      <trkpt lat="49.19638" lon="1.2533">
        <ele>145</ele>
        <time>2017-04-27T11:48:07Z</time>
      </trkpt>
      <trkpt lat="49.19639" lon="1.25336">
        <ele>145</ele>
        <time>2017-04-27T11:48:23Z</time>
      </trkpt>
      <trkpt lat="49.19639" lon="1.25341">
        <ele>145</ele>
        <time>2017-04-27T11:48:23Z</time>
      </trkpt>
      <trkpt lat="49.19639" lon="1.2535">
        <ele>145</ele>
        <time>2017-04-27T11:48:23Z</time>
      </trkpt>
      <trkpt lat="49.19637" lon="1.2536">
        <ele>145</ele>
        <time>2017-04-27T11:48:23Z</time>
      </trkpt>
      <trkpt lat="49.19637" lon="1.25367">
        <ele>145</ele>
        <time>2017-04-27T11:48:39Z</time>
      </trkpt>
      <trkpt lat="49.19638" lon="1.25376">
        <ele>145</ele>
        <time>2017-04-27T11:48:39Z</time>
      </trkpt>
      <trkpt lat="49.19636" lon="1.25391">
        <ele>145</ele>
        <time>2017-04-27T11:48:39Z</time>
      </trkpt>
      <trkpt lat="49.19637" lon="1.254">
        <ele>145</ele>
        <time>2017-04-27T11:48:39Z</time>
      </trkpt>
      <trkpt lat="49.19638" lon="1.25405">
        <ele>145</ele>
        <time>2017-04-27T11:48:55Z</time>
      </trkpt>
      <trkpt lat="49.19635" lon="1.25413">
        <ele>145</ele>
        <time>2017-04-27T11:48:55Z</time>
      </trkpt>
      <trkpt lat="49.19635" lon="1.2542">
        <ele>145</ele>
        <time>2017-04-27T11:48:55Z</time>
      </trkpt>
      <trkpt lat="49.19635" lon="1.25428">
        <ele>145</ele>
        <time>2017-04-27T11:48:55Z</time>
      </trkpt>
      <trkpt lat="49.19635" lon="1.25435">
        <ele>145</ele>
        <time>2017-04-27T11:49:11Z</time>
      </trkpt>
      <trkpt lat="49.19636" lon="1.25443">
        <ele>145</ele>
        <time>2017-04-27T11:49:11Z</time>
      </trkpt>
      <trkpt lat="49.19635" lon="1.25454">
        <ele>145</ele>
        <time>2017-04-27T11:49:11Z</time>
      </trkpt>
      <trkpt lat="49.19634" lon="1.25461">
        <ele>144</ele>
        <time>2017-04-27T11:49:11Z</time>
      </trkpt>
      <trkpt lat="49.19635" lon="1.25463">
        <ele>144</ele>
        <time>2017-04-27T11:49:27Z</time>
      </trkpt>
      <trkpt lat="49.19634" lon="1.25474">
        <ele>144</ele>
        <time>2017-04-27T11:49:27Z</time>
      </trkpt>
      <trkpt lat="49.19635" lon="1.25482">
        <ele>144</ele>
        <time>2017-04-27T11:49:27Z</time>
      </trkpt>
      <trkpt lat="49.19635" lon="1.25487">
        <ele>144</ele>
        <time>2017-04-27T11:49:27Z</time>
      </trkpt>
      <trkpt lat="49.19634" lon="1.2549">
        <ele>144</ele>
        <time>2017-04-27T11:49:43Z</time>
      </trkpt>
      <trkpt lat="49.19633" lon="1.25499">
        <ele>144</ele>
        <time>2017-04-27T11:49:43Z</time>
      </trkpt>
      <trkpt lat="49.19633" lon="1.25505">
        <ele>144</ele>
        <time>2017-04-27T11:49:43Z</time>
      </trkpt>
      <trkpt lat="49.19634" lon="1.25508">
        <ele>144</ele>
        <time>2017-04-27T11:49:43Z</time>
      </trkpt>
      <trkpt lat="49.19633" lon="1.25515">
        <ele>144</ele>
        <time>2017-04-27T11:49:59Z</time>
      </trkpt>
      <trkpt lat="49.19629" lon="1.2553">
        <ele>144</ele>
        <time>2017-04-27T11:49:59Z</time>
      </trkpt>
      <trkpt lat="49.19627" lon="1.2554">
        <ele>144</ele>
        <time>2017-04-27T11:49:59Z</time>
      </trkpt>
      <trkpt lat="49.19628" lon="1.25545">
        <ele>141</ele>
        <time>2017-04-27T11:49:59Z</time>
      </trkpt>
      <trkpt lat="49.19628" lon="1.2555">
        <ele>141</ele>
        <time>2017-04-27T11:50:15Z</time>
      </trkpt>
      <trkpt lat="49.19629" lon="1.25556">
        <ele>141</ele>
        <time>2017-04-27T11:50:15Z</time>
      </trkpt>
      <trkpt lat="49.19628" lon="1.25563">
        <ele>141</ele>
        <time>2017-04-27T11:50:15Z</time>
      </trkpt>
      <trkpt lat="49.19628" lon="1.25567">
        <ele>141</ele>
        <time>2017-04-27T11:50:15Z</time>
      </trkpt>
      <trkpt lat="49.19626" lon="1.25575">
        <ele>141</ele>
        <time>2017-04-27T11:50:31Z</time>
      </trkpt>
      <trkpt lat="49.19625" lon="1.25584">
        <ele>141</ele>
        <time>2017-04-27T11:50:31Z</time>
      </trkpt>
      <trkpt lat="49.19625" lon="1.25591">
        <ele>138</ele>
        <time>2017-04-27T11:50:31Z</time>
      </trkpt>
      <trkpt lat="49.19623" lon="1.25599">
        <ele>138</ele>
        <time>2017-04-27T11:50:31Z</time>
      </trkpt>
      <trkpt lat="49.19621" lon="1.25605">
        <ele>138</ele>
        <time>2017-04-27T11:50:47Z</time>
      </trkpt>
      <trkpt lat="49.1962" lon="1.25617">
        <ele>138</ele>
        <time>2017-04-27T11:50:47Z</time>
      </trkpt>
      <trkpt lat="49.19621" lon="1.25621">
        <ele>138</ele>
        <time>2017-04-27T11:50:47Z</time>
      </trkpt>
      <trkpt lat="49.19621" lon="1.25629">
        <ele>136</ele>
        <time>2017-04-27T11:50:47Z</time>
      </trkpt>
      <trkpt lat="49.1962" lon="1.2564">
        <ele>136</ele>
        <time>2017-04-27T11:51:03Z</time>
      </trkpt>
      <trkpt lat="49.19619" lon="1.25647">
        <ele>136</ele>
        <time>2017-04-27T11:51:03Z</time>
      </trkpt>
      <trkpt lat="49.19618" lon="1.25654">
        <ele>136</ele>
        <time>2017-04-27T11:51:03Z</time>
      </trkpt>
      <trkpt lat="49.19616" lon="1.25665">
        <ele>136</ele>
        <time>2017-04-27T11:51:03Z</time>
      </trkpt>
      <trkpt lat="49.19616" lon="1.25672">
        <ele>136</ele>
        <time>2017-04-27T11:51:19Z</time>
      </trkpt>
      <trkpt lat="49.19616" lon="1.25677">
        <ele>136</ele>
        <time>2017-04-27T11:51:19Z</time>
      </trkpt>
      <trkpt lat="49.19615" lon="1.25687">
        <ele>136</ele>
        <time>2017-04-27T11:51:19Z</time>
      </trkpt>
      <trkpt lat="49.19615" lon="1.25694">
        <ele>136</ele>
        <time>2017-04-27T11:51:19Z</time>
      </trkpt>
      <trkpt lat="49.19614" lon="1.25701">
        <ele>136</ele>
        <time>2017-04-27T11:51:35Z</time>
      </trkpt>
      <trkpt lat="49.19615" lon="1.25709">
        <ele>134</ele>
        <time>2017-04-27T11:51:35Z</time>
      </trkpt>
      <trkpt lat="49.19617" lon="1.25715">
        <ele>134</ele>
        <time>2017-04-27T11:51:35Z</time>
      </trkpt>
      <trkpt lat="49.19618" lon="1.25722">
        <ele>134</ele>
        <time>2017-04-27T11:51:35Z</time>
      </trkpt>
      <trkpt lat="49.1962" lon="1.25727">
        <ele>134</ele>
        <time>2017-04-27T11:51:51Z</time>
      </trkpt>
      <trkpt lat="49.19621" lon="1.25732">
        <ele>134</ele>
        <time>2017-04-27T11:51:51Z</time>
      </trkpt>
      <trkpt lat="49.19622" lon="1.25735">
        <ele>134</ele>
        <time>2017-04-27T11:51:51Z</time>
      </trkpt>
      <trkpt lat="49.19624" lon="1.25741">
        <ele>134</ele>
        <time>2017-04-27T11:51:51Z</time>
      </trkpt>
      <trkpt lat="49.19625" lon="1.25749">
        <ele>137</ele>
        <time>2017-04-27T11:52:07Z</time>
      </trkpt>
      <trkpt lat="49.19627" lon="1.25758">
        <ele>137</ele>
        <time>2017-04-27T11:52:07Z</time>
      </trkpt>
      <trkpt lat="49.19628" lon="1.25764">
        <ele>137</ele>
        <time>2017-04-27T11:52:07Z</time>
      </trkpt>
      <trkpt lat="49.1963" lon="1.25769">
        <ele>137</ele>
        <time>2017-04-27T11:52:07Z</time>
      </trkpt>
      <trkpt lat="49.19632" lon="1.25774">
        <ele>137</ele>
        <time>2017-04-27T11:52:23Z</time>
      </trkpt>
      <trkpt lat="49.19633" lon="1.25782">
        <ele>137</ele>
        <time>2017-04-27T11:52:23Z</time>
      </trkpt>
      <trkpt lat="49.19634" lon="1.25792">
        <ele>134</ele>
        <time>2017-04-27T11:52:23Z</time>
      </trkpt>
      <trkpt lat="49.19637" lon="1.258">
        <ele>134</ele>
        <time>2017-04-27T11:52:23Z</time>
      </trkpt>
      <trkpt lat="49.19638" lon="1.25807">
        <ele>134</ele>
        <time>2017-04-27T11:52:39Z</time>
      </trkpt>
      <trkpt lat="49.19638" lon="1.25816">
        <ele>134</ele>
        <time>2017-04-27T11:52:39Z</time>
      </trkpt>
      <trkpt lat="49.1964" lon="1.25825">
        <ele>134</ele>
        <time>2017-04-27T11:52:39Z</time>
      </trkpt>
      <trkpt lat="49.1964" lon="1.2583">
        <ele>134</ele>
        <time>2017-04-27T11:52:39Z</time>
      </trkpt>
      <trkpt lat="49.19641" lon="1.25836">
        <ele>134</ele>
        <time>2017-04-27T11:52:55Z</time>
      </trkpt>
      <trkpt lat="49.1964" lon="1.25845">
        <ele>134</ele>
        <time>2017-04-27T11:52:55Z</time>
      </trkpt>
      <trkpt lat="49.1964" lon="1.25849">
        <ele>134</ele>
        <time>2017-04-27T11:52:55Z</time>
      </trkpt>
      <trkpt lat="49.19642" lon="1.25854">
        <ele>134</ele>
        <time>2017-04-27T11:52:55Z</time>
      </trkpt>
      <trkpt lat="49.19644" lon="1.25859">
        <ele>134</ele>
        <time>2017-04-27T11:53:11Z</time>
      </trkpt>
      <trkpt lat="49.19645" lon="1.25864">
        <ele>134</ele>
        <time>2017-04-27T11:53:11Z</time>
      </trkpt>
      <trkpt lat="49.19646" lon="1.25871">
        <ele>134</ele>
        <time>2017-04-27T11:53:11Z</time>
      </trkpt>
      <trkpt lat="49.19646" lon="1.25874">
        <ele>134</ele>
        <time>2017-04-27T11:53:11Z</time>
      </trkpt>
      <trkpt lat="49.19648" lon="1.2588">
        <ele>134</ele>
        <time>2017-04-27T11:53:27Z</time>
      </trkpt>
      <trkpt lat="49.19651" lon="1.25886">
        <ele>134</ele>
        <time>2017-04-27T11:53:27Z</time>
      </trkpt>
      <trkpt lat="49.19654" lon="1.25889">
        <ele>134</ele>
        <time>2017-04-27T11:53:27Z</time>
      </trkpt>
      <trkpt lat="49.19655" lon="1.2589">
        <ele>134</ele>
        <time>2017-04-27T11:53:27Z</time>
      </trkpt>
      <trkpt lat="49.19658" lon="1.25891">
        <ele>134</ele>
        <time>2017-04-27T11:53:43Z</time>
      </trkpt>
      <trkpt lat="49.19658" lon="1.25894">
        <ele>134</ele>
        <time>2017-04-27T11:53:43Z</time>
      </trkpt>
      <trkpt lat="49.19662" lon="1.25911">
        <ele>134</ele>
        <time>2017-04-27T11:53:43Z</time>
      </trkpt>
      <trkpt lat="49.19664" lon="1.25919">
        <ele>134</ele>
        <time>2017-04-27T11:53:43Z</time>
      </trkpt>
      <trkpt lat="49.19666" lon="1.25926">
        <ele>134</ele>
        <time>2017-04-27T11:53:59Z</time>
      </trkpt>
      <trkpt lat="49.19669" lon="1.2593">
        <ele>134</ele>
        <time>2017-04-27T11:53:59Z</time>
      </trkpt>
      <trkpt lat="49.19674" lon="1.25933">
        <ele>134</ele>
        <time>2017-04-27T11:53:59Z</time>
      </trkpt>
      <trkpt lat="49.19677" lon="1.25936">
        <ele>134</ele>
        <time>2017-04-27T11:53:59Z</time>
      </trkpt>
      <trkpt lat="49.19679" lon="1.25936">
        <ele>134</ele>
        <time>2017-04-27T11:54:19Z</time>
      </trkpt>
      <trkpt lat="49.19682" lon="1.25939">
        <ele>134</ele>
        <time>2017-04-27T11:54:19Z</time>
      </trkpt>
      <trkpt lat="49.19685" lon="1.25942">
        <ele>134</ele>
        <time>2017-04-27T11:54:19Z</time>
      </trkpt>
      <trkpt lat="49.19687" lon="1.25941">
        <ele>134</ele>
        <time>2017-04-27T11:54:19Z</time>
      </trkpt>
      <trkpt lat="49.1969" lon="1.25939">
        <ele>134</ele>
        <time>2017-04-27T11:54:19Z</time>
      </trkpt>
      <trkpt lat="49.19698" lon="1.2594">
        <ele>134</ele>
        <time>2017-04-27T11:54:35Z</time>
      </trkpt>
      <trkpt lat="49.19702" lon="1.2594">
        <ele>134</ele>
        <time>2017-04-27T11:54:35Z</time>
      </trkpt>
      <trkpt lat="49.19706" lon="1.25938">
        <ele>134</ele>
        <time>2017-04-27T11:54:35Z</time>
      </trkpt>
      <trkpt lat="49.19713" lon="1.25938">
        <ele>121</ele>
        <time>2017-04-27T11:54:35Z</time>
      </trkpt>
      <trkpt lat="49.1972" lon="1.2594">
        <ele>121</ele>
        <time>2017-04-27T11:54:51Z</time>
      </trkpt>
      <trkpt lat="49.19725" lon="1.25941">
        <ele>121</ele>
        <time>2017-04-27T11:54:51Z</time>
      </trkpt>
      <trkpt lat="49.19731" lon="1.25942">
        <ele>121</ele>
        <time>2017-04-27T11:54:51Z</time>
      </trkpt>
      <trkpt lat="49.19735" lon="1.25942">
        <ele>121</ele>
        <time>2017-04-27T11:54:51Z</time>
      </trkpt>
      <trkpt lat="49.19741" lon="1.25942">
        <ele>121</ele>
        <time>2017-04-27T11:55:07Z</time>
      </trkpt>
      <trkpt lat="49.19747" lon="1.2594">
        <ele>121</ele>
        <time>2017-04-27T11:55:07Z</time>
      </trkpt>
      <trkpt lat="49.19751" lon="1.2594">
        <ele>121</ele>
        <time>2017-04-27T11:55:07Z</time>
      </trkpt>
      <trkpt lat="49.19755" lon="1.2594">
        <ele>121</ele>
        <time>2017-04-27T11:55:07Z</time>
      </trkpt>
      <trkpt lat="49.19758" lon="1.25936">
        <ele>121</ele>
        <time>2017-04-27T11:55:23Z</time>
      </trkpt>
      <trkpt lat="49.19762" lon="1.25936">
        <ele>121</ele>
        <time>2017-04-27T11:55:23Z</time>
      </trkpt>
      <trkpt lat="49.19764" lon="1.25937">
        <ele>121</ele>
        <time>2017-04-27T11:55:23Z</time>
      </trkpt>
      <trkpt lat="49.19767" lon="1.25937">
        <ele>121</ele>
        <time>2017-04-27T11:55:23Z</time>
      </trkpt>
      <trkpt lat="49.19769" lon="1.25936">
        <ele>121</ele>
        <time>2017-04-27T11:55:39Z</time>
      </trkpt>
      <trkpt lat="49.19772" lon="1.25936">
        <ele>121</ele>
        <time>2017-04-27T11:55:39Z</time>
      </trkpt>
      <trkpt lat="49.19776" lon="1.25935">
        <ele>121</ele>
        <time>2017-04-27T11:55:39Z</time>
      </trkpt>
      <trkpt lat="49.19783" lon="1.25936">
        <ele>121</ele>
        <time>2017-04-27T11:55:39Z</time>
      </trkpt>
      <trkpt lat="49.19788" lon="1.25934">
        <ele>121</ele>
        <time>2017-04-27T11:55:55Z</time>
      </trkpt>
      <trkpt lat="49.19795" lon="1.25933">
        <ele>99</ele>
        <time>2017-04-27T11:55:55Z</time>
      </trkpt>
      <trkpt lat="49.198" lon="1.25933">
        <ele>99</ele>
        <time>2017-04-27T11:55:55Z</time>
      </trkpt>
      <trkpt lat="49.19804" lon="1.25933">
        <ele>99</ele>
        <time>2017-04-27T11:55:55Z</time>
      </trkpt>
      <trkpt lat="49.1981" lon="1.25936">
        <ele>99</ele>
        <time>2017-04-27T11:56:15Z</time>
      </trkpt>
      <trkpt lat="49.19812" lon="1.25936">
        <ele>99</ele>
        <time>2017-04-27T11:56:15Z</time>
      </trkpt>
      <trkpt lat="49.19817" lon="1.25935">
        <ele>99</ele>
        <time>2017-04-27T11:56:15Z</time>
      </trkpt>
      <trkpt lat="49.19819" lon="1.25935">
        <ele>99</ele>
        <time>2017-04-27T11:56:15Z</time>
      </trkpt>
      <trkpt lat="49.19822" lon="1.25937">
        <ele>99</ele>
        <time>2017-04-27T11:56:15Z</time>
      </trkpt>
      <trkpt lat="49.19826" lon="1.25938">
        <ele>99</ele>
        <time>2017-04-27T11:56:35Z</time>
      </trkpt>
      <trkpt lat="49.19829" lon="1.25938">
        <ele>99</ele>
        <time>2017-04-27T11:56:35Z</time>
      </trkpt>
      <trkpt lat="49.19831" lon="1.25937">
        <ele>99</ele>
        <time>2017-04-27T11:56:35Z</time>
      </trkpt>
      <trkpt lat="49.19834" lon="1.25938">
        <ele>99</ele>
        <time>2017-04-27T11:56:35Z</time>
      </trkpt>
      <trkpt lat="49.1984" lon="1.25941">
        <ele>99</ele>
        <time>2017-04-27T11:56:35Z</time>
      </trkpt>
      <trkpt lat="49.19844" lon="1.25936">
        <ele>99</ele>
        <time>2017-04-27T11:57:59Z</time>
      </trkpt>
      <trkpt lat="49.19843" lon="1.25935">
        <ele>99</ele>
        <time>2017-04-27T11:57:59Z</time>
      </trkpt>
      <trkpt lat="49.1984" lon="1.25935">
        <ele>99</ele>
        <time>2017-04-27T11:57:59Z</time>
      </trkpt>
      <trkpt lat="49.19836" lon="1.25934">
        <ele>99</ele>
        <time>2017-04-27T11:57:59Z</time>
      </trkpt>
      <trkpt lat="49.19833" lon="1.25934">
        <ele>99</ele>
        <time>2017-04-27T11:57:59Z</time>
      </trkpt>
      <trkpt lat="49.1983" lon="1.25941">
        <ele>99</ele>
        <time>2017-04-27T11:58:35Z</time>
      </trkpt>
      <trkpt lat="49.1983" lon="1.25941">
        <ele>99</ele>
        <time>2017-04-27T11:58:35Z</time>
      </trkpt>
      <trkpt lat="49.19832" lon="1.25942">
        <ele>99</ele>
        <time>2017-04-27T11:58:35Z</time>
      </trkpt>
      <trkpt lat="49.19837" lon="1.25943">
        <ele>99</ele>
        <time>2017-04-27T11:58:35Z</time>
      </trkpt>
      <trkpt lat="49.19842" lon="1.25945">
        <ele>99</ele>
        <time>2017-04-27T11:58:35Z</time>
      </trkpt>
      <trkpt lat="49.19845" lon="1.25947">
        <ele>99</ele>
        <time>2017-04-27T11:59:51Z</time>
      </trkpt>
      <trkpt lat="49.19845" lon="1.25947">
        <ele>99</ele>
        <time>2017-04-27T11:59:51Z</time>
      </trkpt>
      <trkpt lat="49.19851" lon="1.25947">
        <ele>99</ele>
        <time>2017-04-27T11:59:51Z</time>
      </trkpt>
      <trkpt lat="49.19854" lon="1.25948">
        <ele>99</ele>
        <time>2017-04-27T11:59:51Z</time>
      </trkpt>
      <trkpt lat="49.19856" lon="1.25949">
        <ele>99</ele>
        <time>2017-04-27T11:59:51Z</time>
      </trkpt>
      <trkpt lat="49.19861" lon="1.25951">
        <ele>99</ele>
        <time>2017-04-27T12:00:07Z</time>
      </trkpt>
      <trkpt lat="49.19866" lon="1.25952">
        <ele>99</ele>
        <time>2017-04-27T12:00:07Z</time>
      </trkpt>
      <trkpt lat="49.19872" lon="1.25954">
        <ele>99</ele>
        <time>2017-04-27T12:00:07Z</time>
      </trkpt>
      <trkpt lat="49.19876" lon="1.25956">
        <ele>73</ele>
        <time>2017-04-27T12:00:07Z</time>
      </trkpt>
      <trkpt lat="49.1988" lon="1.25957">
        <ele>73</ele>
        <time>2017-04-27T12:00:23Z</time>
      </trkpt>
      <trkpt lat="49.19881" lon="1.25958">
        <ele>73</ele>
        <time>2017-04-27T12:00:23Z</time>
      </trkpt>
      <trkpt lat="49.19886" lon="1.25961">
        <ele>76</ele>
        <time>2017-04-27T12:00:23Z</time>
      </trkpt>
      <trkpt lat="49.1989" lon="1.25965">
        <ele>76</ele>
        <time>2017-04-27T12:00:23Z</time>
      </trkpt>
      <trkpt lat="49.19893" lon="1.25968">
        <ele>76</ele>
        <time>2017-04-27T12:00:39Z</time>
      </trkpt>
      <trkpt lat="49.19896" lon="1.2597">
        <ele>76</ele>
        <time>2017-04-27T12:00:39Z</time>
      </trkpt>
      <trkpt lat="49.19901" lon="1.25973">
        <ele>76</ele>
        <time>2017-04-27T12:00:39Z</time>
      </trkpt>
      <trkpt lat="49.19905" lon="1.25975">
        <ele>76</ele>
        <time>2017-04-27T12:00:39Z</time>
      </trkpt>
      <trkpt lat="49.19909" lon="1.25977">
        <ele>76</ele>
        <time>2017-04-27T12:00:55Z</time>
      </trkpt>
      <trkpt lat="49.19915" lon="1.25979">
        <ele>76</ele>
        <time>2017-04-27T12:00:55Z</time>
      </trkpt>
      <trkpt lat="49.19919" lon="1.25981">
        <ele>76</ele>
        <time>2017-04-27T12:00:55Z</time>
      </trkpt>
      <trkpt lat="49.19922" lon="1.25982">
        <ele>76</ele>
        <time>2017-04-27T12:00:55Z</time>
      </trkpt>
      <trkpt lat="49.19926" lon="1.25983">
        <ele>76</ele>
        <time>2017-04-27T12:01:11Z</time>
      </trkpt>
      <trkpt lat="49.19929" lon="1.25985">
        <ele>76</ele>
        <time>2017-04-27T12:01:11Z</time>
      </trkpt>
      <trkpt lat="49.19934" lon="1.25986">
        <ele>76</ele>
        <time>2017-04-27T12:01:11Z</time>
      </trkpt>
      <trkpt lat="49.19938" lon="1.25986">
        <ele>76</ele>
        <time>2017-04-27T12:01:11Z</time>
      </trkpt>
      <trkpt lat="49.19943" lon="1.25987">
        <ele>76</ele>
        <time>2017-04-27T12:01:27Z</time>
      </trkpt>
      <trkpt lat="49.19947" lon="1.2599">
        <ele>76</ele>
        <time>2017-04-27T12:01:27Z</time>
      </trkpt>
      <trkpt lat="49.19953" lon="1.25991">
        <ele>76</ele>
        <time>2017-04-27T12:01:27Z</time>
      </trkpt>
      <trkpt lat="49.19956" lon="1.25993">
        <ele>76</ele>
        <time>2017-04-27T12:01:27Z</time>
      </trkpt>
      <trkpt lat="49.19958" lon="1.26">
        <ele>76</ele>
        <time>2017-04-27T12:01:43Z</time>
      </trkpt>
      <trkpt lat="49.1996" lon="1.26004">
        <ele>69</ele>
        <time>2017-04-27T12:01:43Z</time>
      </trkpt>
      <trkpt lat="49.19964" lon="1.26006">
        <ele>69</ele>
        <time>2017-04-27T12:01:43Z</time>
      </trkpt>
      <trkpt lat="49.19968" lon="1.2601">
        <ele>69</ele>
        <time>2017-04-27T12:01:43Z</time>
      </trkpt>
      <trkpt lat="49.19972" lon="1.26016">
        <ele>69</ele>
        <time>2017-04-27T12:01:59Z</time>
      </trkpt>
      <trkpt lat="49.19973" lon="1.26025">
        <ele>69</ele>
        <time>2017-04-27T12:01:59Z</time>
      </trkpt>
      <trkpt lat="49.19972" lon="1.26037">
        <ele>69</ele>
        <time>2017-04-27T12:01:59Z</time>
      </trkpt>
      <trkpt lat="49.19968" lon="1.26042">
        <ele>66</ele>
        <time>2017-04-27T12:01:59Z</time>
      </trkpt>
      <trkpt lat="49.19964" lon="1.26045">
        <ele>66</ele>
        <time>2017-04-27T12:02:15Z</time>
      </trkpt>
      <trkpt lat="49.1996" lon="1.26048">
        <ele>66</ele>
        <time>2017-04-27T12:02:15Z</time>
      </trkpt>
      <trkpt lat="49.19955" lon="1.2605">
        <ele>68</ele>
        <time>2017-04-27T12:02:15Z</time>
      </trkpt>
      <trkpt lat="49.19949" lon="1.26051">
        <ele>68</ele>
        <time>2017-04-27T12:02:15Z</time>
      </trkpt>
      <trkpt lat="49.19945" lon="1.26053">
        <ele>68</ele>
        <time>2017-04-27T12:02:31Z</time>
      </trkpt>
      <trkpt lat="49.1994" lon="1.26055">
        <ele>68</ele>
        <time>2017-04-27T12:02:31Z</time>
      </trkpt>
      <trkpt lat="49.19937" lon="1.26054">
        <ele>68</ele>
        <time>2017-04-27T12:02:31Z</time>
      </trkpt>
      <trkpt lat="49.19931" lon="1.26056">
        <ele>68</ele>
        <time>2017-04-27T12:02:31Z</time>
      </trkpt>
      <trkpt lat="49.19928" lon="1.26055">
        <ele>68</ele>
        <time>2017-04-27T12:02:47Z</time>
      </trkpt>
      <trkpt lat="49.19923" lon="1.26057">
        <ele>68</ele>
        <time>2017-04-27T12:02:47Z</time>
      </trkpt>
      <trkpt lat="49.1992" lon="1.26059">
        <ele>68</ele>
        <time>2017-04-27T12:02:47Z</time>
      </trkpt>
      <trkpt lat="49.19917" lon="1.2606">
        <ele>68</ele>
        <time>2017-04-27T12:02:47Z</time>
      </trkpt>
      <trkpt lat="49.19912" lon="1.26063">
        <ele>68</ele>
        <time>2017-04-27T12:03:03Z</time>
      </trkpt>
      <trkpt lat="49.19909" lon="1.26063">
        <ele>68</ele>
        <time>2017-04-27T12:03:03Z</time>
      </trkpt>
      <trkpt lat="49.19906" lon="1.26064">
        <ele>68</ele>
        <time>2017-04-27T12:03:03Z</time>
      </trkpt>
      <trkpt lat="49.19901" lon="1.26067">
        <ele>68</ele>
        <time>2017-04-27T12:03:03Z</time>
      </trkpt>
      <trkpt lat="49.19897" lon="1.26071">
        <ele>68</ele>
        <time>2017-04-27T12:03:19Z</time>
      </trkpt>
      <trkpt lat="49.19894" lon="1.26076">
        <ele>68</ele>
        <time>2017-04-27T12:03:19Z</time>
      </trkpt>
      <trkpt lat="49.19891" lon="1.26079">
        <ele>68</ele>
        <time>2017-04-27T12:03:19Z</time>
      </trkpt>
      <trkpt lat="49.19887" lon="1.26086">
        <ele>68</ele>
        <time>2017-04-27T12:03:19Z</time>
      </trkpt>
      <trkpt lat="49.19882" lon="1.26091">
        <ele>68</ele>
        <time>2017-04-27T12:03:39Z</time>
      </trkpt>
      <trkpt lat="49.1988" lon="1.26094">
        <ele>68</ele>
        <time>2017-04-27T12:03:39Z</time>
      </trkpt>
      <trkpt lat="49.1988" lon="1.26095">
        <ele>68</ele>
        <time>2017-04-27T12:03:39Z</time>
      </trkpt>
      <trkpt lat="49.19882" lon="1.26098">
        <ele>68</ele>
        <time>2017-04-27T12:03:39Z</time>
      </trkpt>
      <trkpt lat="49.19882" lon="1.26106">
        <ele>68</ele>
        <time>2017-04-27T12:03:39Z</time>
      </trkpt>
      <trkpt lat="49.19884" lon="1.26111">
        <ele>68</ele>
        <time>2017-04-27T12:03:55Z</time>
      </trkpt>
      <trkpt lat="49.19886" lon="1.26117">
        <ele>68</ele>
        <time>2017-04-27T12:03:55Z</time>
      </trkpt>
      <trkpt lat="49.1989" lon="1.26123">
        <ele>68</ele>
        <time>2017-04-27T12:03:55Z</time>
      </trkpt>
      <trkpt lat="49.19894" lon="1.26127">
        <ele>60</ele>
        <time>2017-04-27T12:03:55Z</time>
      </trkpt>
      <trkpt lat="49.19896" lon="1.2613">
        <ele>60</ele>
        <time>2017-04-27T12:04:11Z</time>
      </trkpt>
      <trkpt lat="49.19898" lon="1.26132">
        <ele>60</ele>
        <time>2017-04-27T12:04:11Z</time>
      </trkpt>
      <trkpt lat="49.19901" lon="1.26133">
        <ele>60</ele>
        <time>2017-04-27T12:04:11Z</time>
      </trkpt>
      <trkpt lat="49.19905" lon="1.26135">
        <ele>60</ele>
        <time>2017-04-27T12:04:11Z</time>
      </trkpt>
      <trkpt lat="49.19907" lon="1.26138">
        <ele>60</ele>
        <time>2017-04-27T12:04:27Z</time>
      </trkpt>
      <trkpt lat="49.19909" lon="1.26141">
        <ele>60</ele>
        <time>2017-04-27T12:04:27Z</time>
      </trkpt>
      <trkpt lat="49.19911" lon="1.26144">
        <ele>60</ele>
        <time>2017-04-27T12:04:27Z</time>
      </trkpt>
      <trkpt lat="49.19916" lon="1.26148">
        <ele>60</ele>
        <time>2017-04-27T12:04:27Z</time>
      </trkpt>
      <trkpt lat="49.19919" lon="1.26152">
        <ele>60</ele>
        <time>2017-04-27T12:04:47Z</time>
      </trkpt>
      <trkpt lat="49.19921" lon="1.26155">
        <ele>60</ele>
        <time>2017-04-27T12:04:47Z</time>
      </trkpt>
      <trkpt lat="49.19923" lon="1.26158">
        <ele>60</ele>
        <time>2017-04-27T12:04:47Z</time>
      </trkpt>
      <trkpt lat="49.19924" lon="1.26162">
        <ele>60</ele>
        <time>2017-04-27T12:04:47Z</time>
      </trkpt>
      <trkpt lat="49.19931" lon="1.26169">
        <ele>60</ele>
        <time>2017-04-27T12:04:47Z</time>
      </trkpt>
      <trkpt lat="49.19934" lon="1.26174">
        <ele>60</ele>
        <time>2017-04-27T12:05:03Z</time>
      </trkpt>
      <trkpt lat="49.19938" lon="1.26175">
        <ele>60</ele>
        <time>2017-04-27T12:05:03Z</time>
      </trkpt>
      <trkpt lat="49.19943" lon="1.26181">
        <ele>60</ele>
        <time>2017-04-27T12:05:03Z</time>
      </trkpt>
      <trkpt lat="49.19949" lon="1.26189">
        <ele>60</ele>
        <time>2017-04-27T12:05:03Z</time>
      </trkpt>
      <trkpt lat="49.19953" lon="1.26192">
        <ele>60</ele>
        <time>2017-04-27T12:05:19Z</time>
      </trkpt>
      <trkpt lat="49.19956" lon="1.26195">
        <ele>60</ele>
        <time>2017-04-27T12:05:19Z</time>
      </trkpt>
      <trkpt lat="49.1996" lon="1.26196">
        <ele>52</ele>
        <time>2017-04-27T12:05:19Z</time>
      </trkpt>
      <trkpt lat="49.19964" lon="1.26198">
        <ele>52</ele>
        <time>2017-04-27T12:05:19Z</time>
      </trkpt>
      <trkpt lat="49.19968" lon="1.26202">
        <ele>52</ele>
        <time>2017-04-27T12:05:35Z</time>
      </trkpt>
      <trkpt lat="49.19971" lon="1.26207">
        <ele>52</ele>
        <time>2017-04-27T12:05:35Z</time>
      </trkpt>
      <trkpt lat="49.19975" lon="1.2621">
        <ele>43</ele>
        <time>2017-04-27T12:05:35Z</time>
      </trkpt>
      <trkpt lat="49.19977" lon="1.26213">
        <ele>43</ele>
        <time>2017-04-27T12:05:35Z</time>
      </trkpt>
      <trkpt lat="49.1998" lon="1.26218">
        <ele>43</ele>
        <time>2017-04-27T12:05:51Z</time>
      </trkpt>
      <trkpt lat="49.19986" lon="1.26224">
        <ele>43</ele>
        <time>2017-04-27T12:05:51Z</time>
      </trkpt>
      <trkpt lat="49.1999" lon="1.26227">
        <ele>43</ele>
        <time>2017-04-27T12:05:51Z</time>
      </trkpt>
      <trkpt lat="49.19996" lon="1.26229">
        <ele>43</ele>
        <time>2017-04-27T12:05:51Z</time>
      </trkpt>
      <trkpt lat="49.19999" lon="1.26233">
        <ele>43</ele>
        <time>2017-04-27T12:06:07Z</time>
      </trkpt>
      <trkpt lat="49.20001" lon="1.26236">
        <ele>43</ele>
        <time>2017-04-27T12:06:07Z</time>
      </trkpt>
      <trkpt lat="49.20004" lon="1.26238">
        <ele>43</ele>
        <time>2017-04-27T12:06:07Z</time>
      </trkpt>
      <trkpt lat="49.20009" lon="1.26241">
        <ele>43</ele>
        <time>2017-04-27T12:06:07Z</time>
      </trkpt>
      <trkpt lat="49.20016" lon="1.26245">
        <ele>43</ele>
        <time>2017-04-27T12:06:23Z</time>
      </trkpt>
      <trkpt lat="49.20019" lon="1.26249">
        <ele>43</ele>
        <time>2017-04-27T12:06:23Z</time>
      </trkpt>
      <trkpt lat="49.20022" lon="1.26252">
        <ele>43</ele>
        <time>2017-04-27T12:06:23Z</time>
      </trkpt>
      <trkpt lat="49.20027" lon="1.2626">
        <ele>43</ele>
        <time>2017-04-27T12:06:23Z</time>
      </trkpt>
      <trkpt lat="49.2003" lon="1.26266">
        <ele>43</ele>
        <time>2017-04-27T12:06:39Z</time>
      </trkpt>
      <trkpt lat="49.20034" lon="1.2627">
        <ele>43</ele>
        <time>2017-04-27T12:06:39Z</time>
      </trkpt>
      <trkpt lat="49.20039" lon="1.26272">
        <ele>43</ele>
        <time>2017-04-27T12:06:39Z</time>
      </trkpt>
      <trkpt lat="49.20043" lon="1.26276">
        <ele>30</ele>
        <time>2017-04-27T12:06:39Z</time>
      </trkpt>
      <trkpt lat="49.20046" lon="1.26282">
        <ele>30</ele>
        <time>2017-04-27T12:06:55Z</time>
      </trkpt>
      <trkpt lat="49.20049" lon="1.26288">
        <ele>30</ele>
        <time>2017-04-27T12:06:55Z</time>
      </trkpt>
      <trkpt lat="49.20052" lon="1.26293">
        <ele>24</ele>
        <time>2017-04-27T12:06:55Z</time>
      </trkpt>
      <trkpt lat="49.20055" lon="1.26298">
        <ele>24</ele>
        <time>2017-04-27T12:06:55Z</time>
      </trkpt>
      <trkpt lat="49.20057" lon="1.26303">
        <ele>24</ele>
        <time>2017-04-27T12:07:11Z</time>
      </trkpt>
      <trkpt lat="49.20059" lon="1.26309">
        <ele>24</ele>
        <time>2017-04-27T12:07:11Z</time>
      </trkpt>
      <trkpt lat="49.20061" lon="1.26315">
        <ele>24</ele>
        <time>2017-04-27T12:07:11Z</time>
      </trkpt>
      <trkpt lat="49.20063" lon="1.26318">
        <ele>24</ele>
        <time>2017-04-27T12:07:11Z</time>
      </trkpt>
      <trkpt lat="49.20067" lon="1.26321">
        <ele>24</ele>
        <time>2017-04-27T12:07:27Z</time>
      </trkpt>
      <trkpt lat="49.20071" lon="1.26328">
        <ele>24</ele>
        <time>2017-04-27T12:07:27Z</time>
      </trkpt>
      <trkpt lat="49.20074" lon="1.26332">
        <ele>24</ele>
        <time>2017-04-27T12:07:27Z</time>
      </trkpt>
      <trkpt lat="49.20077" lon="1.26334">
        <ele>24</ele>
        <time>2017-04-27T12:07:27Z</time>
      </trkpt>
      <trkpt lat="49.20081" lon="1.26336">
        <ele>24</ele>
        <time>2017-04-27T12:07:43Z</time>
      </trkpt>
      <trkpt lat="49.20087" lon="1.26339">
        <ele>24</ele>
        <time>2017-04-27T12:07:43Z</time>
      </trkpt>
      <trkpt lat="49.20092" lon="1.26341">
        <ele>24</ele>
        <time>2017-04-27T12:07:43Z</time>
      </trkpt>
      <trkpt lat="49.20096" lon="1.26342">
        <ele>24</ele>
        <time>2017-04-27T12:07:43Z</time>
      </trkpt>
      <trkpt lat="49.20099" lon="1.26342">
        <ele>24</ele>
        <time>2017-04-27T12:07:59Z</time>
      </trkpt>
      <trkpt lat="49.20099" lon="1.26339">
        <ele>24</ele>
        <time>2017-04-27T12:07:59Z</time>
      </trkpt>
      <trkpt lat="49.20106" lon="1.26342">
        <ele>24</ele>
        <time>2017-04-27T12:07:59Z</time>
      </trkpt>
      <trkpt lat="49.20113" lon="1.26346">
        <ele>24</ele>
        <time>2017-04-27T12:07:59Z</time>
      </trkpt>
      <trkpt lat="49.20119" lon="1.26349">
        <ele>24</ele>
        <time>2017-04-27T12:08:15Z</time>
      </trkpt>
      <trkpt lat="49.20123" lon="1.26351">
        <ele>24</ele>
        <time>2017-04-27T12:08:15Z</time>
      </trkpt>
      <trkpt lat="49.20129" lon="1.26353">
        <ele>13</ele>
        <time>2017-04-27T12:08:15Z</time>
      </trkpt>
      <trkpt lat="49.20134" lon="1.26357">
        <ele>13</ele>
        <time>2017-04-27T12:08:15Z</time>
      </trkpt>
      <trkpt lat="49.20138" lon="1.26358">
        <ele>13</ele>
        <time>2017-04-27T12:08:31Z</time>
      </trkpt>
      <trkpt lat="49.20143" lon="1.26359">
        <ele>13</ele>
        <time>2017-04-27T12:08:31Z</time>
      </trkpt>
      <trkpt lat="49.20146" lon="1.2636">
        <ele>13</ele>
        <time>2017-04-27T12:08:31Z</time>
      </trkpt>
      <trkpt lat="49.20148" lon="1.26361">
        <ele>13</ele>
        <time>2017-04-27T12:08:31Z</time>
      </trkpt>
      <trkpt lat="49.20147" lon="1.26358">
        <ele>13</ele>
        <time>2017-04-27T12:09:07Z</time>
      </trkpt>
      <trkpt lat="49.20148" lon="1.26359">
        <ele>13</ele>
        <time>2017-04-27T12:09:07Z</time>
      </trkpt>
      <trkpt lat="49.20152" lon="1.26359">
        <ele>13</ele>
        <time>2017-04-27T12:09:07Z</time>
      </trkpt>
      <trkpt lat="49.20155" lon="1.26362">
        <ele>13</ele>
        <time>2017-04-27T12:09:07Z</time>
      </trkpt>
      <trkpt lat="49.20157" lon="1.26364">
        <ele>13</ele>
        <time>2017-04-27T12:09:07Z</time>
      </trkpt>
      <trkpt lat="49.20159" lon="1.26375">
        <ele>6</ele>
        <time>2017-04-27T12:11:11Z</time>
      </trkpt>
      <trkpt lat="49.2016" lon="1.26375">
        <ele>6</ele>
        <time>2017-04-27T12:11:11Z</time>
      </trkpt>
      <trkpt lat="49.2016" lon="1.26376">
        <ele>6</ele>
        <time>2017-04-27T12:11:11Z</time>
      </trkpt>
      <trkpt lat="49.20161" lon="1.26378">
        <ele>6</ele>
        <time>2017-04-27T12:11:11Z</time>
      </trkpt>
      <trkpt lat="49.2016" lon="1.26385">
        <ele>6</ele>
        <time>2017-04-27T12:11:11Z</time>
      </trkpt>
      <trkpt lat="49.2016" lon="1.26399">
        <ele>6</ele>
        <time>2017-04-27T12:11:59Z</time>
      </trkpt>
      <trkpt lat="49.20158" lon="1.26403">
        <ele>6</ele>
        <time>2017-04-27T12:11:59Z</time>
      </trkpt>
      <trkpt lat="49.20158" lon="1.26407">
        <ele>6</ele>
        <time>2017-04-27T12:11:59Z</time>
      </trkpt>
      <trkpt lat="49.20157" lon="1.26408">
        <ele>6</ele>
        <time>2017-04-27T12:11:59Z</time>
      </trkpt>
      <trkpt lat="49.20158" lon="1.26414">
        <ele>6</ele>
        <time>2017-04-27T12:11:59Z</time>
      </trkpt>
      <trkpt lat="49.20159" lon="1.26423">
        <ele>6</ele>
        <time>2017-04-27T12:12:15Z</time>
      </trkpt>
      <trkpt lat="49.2016" lon="1.2643">
        <ele>6</ele>
        <time>2017-04-27T12:12:15Z</time>
      </trkpt>
      <trkpt lat="49.20161" lon="1.26438">
        <ele>6</ele>
        <time>2017-04-27T12:12:15Z</time>
      </trkpt>
      <trkpt lat="49.20162" lon="1.26447">
        <ele>6</ele>
        <time>2017-04-27T12:12:15Z</time>
      </trkpt>
      <trkpt lat="49.20161" lon="1.26456">
        <ele>6</ele>
        <time>2017-04-27T12:12:31Z</time>
      </trkpt>
      <trkpt lat="49.20161" lon="1.26463">
        <ele>6</ele>
        <time>2017-04-27T12:12:31Z</time>
      </trkpt>
      <trkpt lat="49.20162" lon="1.26468">
        <ele>6</ele>
        <time>2017-04-27T12:12:31Z</time>
      </trkpt>
      <trkpt lat="49.20163" lon="1.26474">
        <ele>6</ele>
        <time>2017-04-27T12:12:31Z</time>
      </trkpt>
      <trkpt lat="49.20163" lon="1.26477">
        <ele>6</ele>
        <time>2017-04-27T12:12:51Z</time>
      </trkpt>
      <trkpt lat="49.20161" lon="1.26479">
        <ele>6</ele>
        <time>2017-04-27T12:12:51Z</time>
      </trkpt>
      <trkpt lat="49.20162" lon="1.26484">
        <ele>6</ele>
        <time>2017-04-27T12:12:51Z</time>
      </trkpt>
      <trkpt lat="49.20162" lon="1.2649">
        <ele>6</ele>
        <time>2017-04-27T12:12:51Z</time>
      </trkpt>
      <trkpt lat="49.20163" lon="1.26499">
        <ele>6</ele>
        <time>2017-04-27T12:12:51Z</time>
      </trkpt>
      <trkpt lat="49.20164" lon="1.26507">
        <ele>6</ele>
        <time>2017-04-27T12:13:07Z</time>
      </trkpt>
      <trkpt lat="49.20165" lon="1.26516">
        <ele>6</ele>
        <time>2017-04-27T12:13:07Z</time>
      </trkpt>
      <trkpt lat="49.20166" lon="1.26525">
        <ele>6</ele>
        <time>2017-04-27T12:13:07Z</time>
      </trkpt>
      <trkpt lat="49.20167" lon="1.26533">
        <ele>6</ele>
        <time>2017-04-27T12:13:07Z</time>
      </trkpt>
      <trkpt lat="49.20167" lon="1.26539">
        <ele>6</ele>
        <time>2017-04-27T12:13:23Z</time>
      </trkpt>
      <trkpt lat="49.20167" lon="1.26546">
        <ele>9</ele>
        <time>2017-04-27T12:13:23Z</time>
      </trkpt>
      <trkpt lat="49.20167" lon="1.26552">
        <ele>9</ele>
        <time>2017-04-27T12:13:23Z</time>
      </trkpt>
      <trkpt lat="49.20168" lon="1.26559">
        <ele>9</ele>
        <time>2017-04-27T12:13:23Z</time>
      </trkpt>
      <trkpt lat="49.20169" lon="1.26568">
        <ele>9</ele>
        <time>2017-04-27T12:13:39Z</time>
      </trkpt>
      <trkpt lat="49.20169" lon="1.26574">
        <ele>9</ele>
        <time>2017-04-27T12:13:39Z</time>
      </trkpt>
      <trkpt lat="49.20169" lon="1.26582">
        <ele>9</ele>
        <time>2017-04-27T12:13:39Z</time>
      </trkpt>
      <trkpt lat="49.20169" lon="1.2659">
        <ele>9</ele>
        <time>2017-04-27T12:13:39Z</time>
      </trkpt>
      <trkpt lat="49.2017" lon="1.26593">
        <ele>9</ele>
        <time>2017-04-27T12:13:55Z</time>
      </trkpt>
      <trkpt lat="49.20171" lon="1.26602">
        <ele>9</ele>
        <time>2017-04-27T12:13:55Z</time>
      </trkpt>
      <trkpt lat="49.20172" lon="1.26609">
        <ele>9</ele>
        <time>2017-04-27T12:13:55Z</time>
      </trkpt>
      <trkpt lat="49.20173" lon="1.26618">
        <ele>9</ele>
        <time>2017-04-27T12:13:55Z</time>
      </trkpt>
      <trkpt lat="49.20173" lon="1.26627">
        <ele>11</ele>
        <time>2017-04-27T12:14:11Z</time>
      </trkpt>
      <trkpt lat="49.20174" lon="1.26632">
        <ele>11</ele>
        <time>2017-04-27T12:14:11Z</time>
      </trkpt>
      <trkpt lat="49.20175" lon="1.2664">
        <ele>11</ele>
        <time>2017-04-27T12:14:11Z</time>
      </trkpt>
      <trkpt lat="49.20177" lon="1.26646">
        <ele>11</ele>
        <time>2017-04-27T12:14:11Z</time>
      </trkpt>
      <trkpt lat="49.20179" lon="1.26655">
        <ele>11</ele>
        <time>2017-04-27T12:14:27Z</time>
      </trkpt>
      <trkpt lat="49.2018" lon="1.26662">
        <ele>11</ele>
        <time>2017-04-27T12:14:27Z</time>
      </trkpt>
      <trkpt lat="49.20181" lon="1.26668">
        <ele>11</ele>
        <time>2017-04-27T12:14:27Z</time>
      </trkpt>
      <trkpt lat="49.20183" lon="1.26676">
        <ele>11</ele>
        <time>2017-04-27T12:14:27Z</time>
      </trkpt>
      <trkpt lat="49.20186" lon="1.26685">
        <ele>11</ele>
        <time>2017-04-27T12:14:43Z</time>
      </trkpt>
      <trkpt lat="49.20187" lon="1.2669">
        <ele>11</ele>
        <time>2017-04-27T12:14:43Z</time>
      </trkpt>
      <trkpt lat="49.20188" lon="1.26695">
        <ele>11</ele>
        <time>2017-04-27T12:14:43Z</time>
      </trkpt>
      <trkpt lat="49.20189" lon="1.26701">
        <ele>11</ele>
        <time>2017-04-27T12:14:43Z</time>
      </trkpt>
      <trkpt lat="49.20192" lon="1.26709">
        <ele>12</ele>
        <time>2017-04-27T12:14:59Z</time>
      </trkpt>
      <trkpt lat="49.20193" lon="1.26716">
        <ele>12</ele>
        <time>2017-04-27T12:14:59Z</time>
      </trkpt>
      <trkpt lat="49.20193" lon="1.26721">
        <ele>12</ele>
        <time>2017-04-27T12:14:59Z</time>
      </trkpt>
      <trkpt lat="49.20194" lon="1.26728">
        <ele>12</ele>
        <time>2017-04-27T12:14:59Z</time>
      </trkpt>
      <trkpt lat="49.20196" lon="1.26735">
        <ele>12</ele>
        <time>2017-04-27T12:15:15Z</time>
      </trkpt>
      <trkpt lat="49.20197" lon="1.26743">
        <ele>12</ele>
        <time>2017-04-27T12:15:15Z</time>
      </trkpt>
      <trkpt lat="49.20198" lon="1.26751">
        <ele>12</ele>
        <time>2017-04-27T12:15:15Z</time>
      </trkpt>
      <trkpt lat="49.20199" lon="1.26761">
        <ele>12</ele>
        <time>2017-04-27T12:15:15Z</time>
      </trkpt>
      <trkpt lat="49.202" lon="1.26768">
        <ele>12</ele>
        <time>2017-04-27T12:15:31Z</time>
      </trkpt>
      <trkpt lat="49.20201" lon="1.26774">
        <ele>12</ele>
        <time>2017-04-27T12:15:31Z</time>
      </trkpt>
      <trkpt lat="49.20203" lon="1.26781">
        <ele>12</ele>
        <time>2017-04-27T12:15:31Z</time>
      </trkpt>
      <trkpt lat="49.20206" lon="1.26789">
        <ele>12</ele>
        <time>2017-04-27T12:15:31Z</time>
      </trkpt>
      <trkpt lat="49.20207" lon="1.26796">
        <ele>11</ele>
        <time>2017-04-27T12:15:47Z</time>
      </trkpt>
      <trkpt lat="49.20208" lon="1.26802">
        <ele>11</ele>
        <time>2017-04-27T12:15:47Z</time>
      </trkpt>
      <trkpt lat="49.2021" lon="1.26811">
        <ele>6</ele>
        <time>2017-04-27T12:15:47Z</time>
      </trkpt>
      <trkpt lat="49.20211" lon="1.2682">
        <ele>6</ele>
        <time>2017-04-27T12:15:47Z</time>
      </trkpt>
      <trkpt lat="49.20213" lon="1.26825">
        <ele>6</ele>
        <time>2017-04-27T12:16:03Z</time>
      </trkpt>
      <trkpt lat="49.20214" lon="1.26831">
        <ele>6</ele>
        <time>2017-04-27T12:16:03Z</time>
      </trkpt>
      <trkpt lat="49.20215" lon="1.26841">
        <ele>6</ele>
        <time>2017-04-27T12:16:03Z</time>
      </trkpt>
      <trkpt lat="49.20216" lon="1.26847">
        <ele>6</ele>
        <time>2017-04-27T12:16:03Z</time>
      </trkpt>
      <trkpt lat="49.20218" lon="1.26853">
        <ele>6</ele>
        <time>2017-04-27T12:16:19Z</time>
      </trkpt>
      <trkpt lat="49.20219" lon="1.26858">
        <ele>6</ele>
        <time>2017-04-27T12:16:19Z</time>
      </trkpt>
      <trkpt lat="49.20221" lon="1.26866">
        <ele>6</ele>
        <time>2017-04-27T12:16:19Z</time>
      </trkpt>
      <trkpt lat="49.20223" lon="1.26876">
        <ele>7</ele>
        <time>2017-04-27T12:16:19Z</time>
      </trkpt>
      <trkpt lat="49.20224" lon="1.26883">
        <ele>7</ele>
        <time>2017-04-27T12:16:35Z</time>
      </trkpt>
      <trkpt lat="49.20225" lon="1.26889">
        <ele>7</ele>
        <time>2017-04-27T12:16:35Z</time>
      </trkpt>
      <trkpt lat="49.20227" lon="1.26897">
        <ele>7</ele>
        <time>2017-04-27T12:16:35Z</time>
      </trkpt>
      <trkpt lat="49.20228" lon="1.26903">
        <ele>7</ele>
        <time>2017-04-27T12:16:35Z</time>
      </trkpt>
      <trkpt lat="49.20229" lon="1.26909">
        <ele>7</ele>
        <time>2017-04-27T12:16:51Z</time>
      </trkpt>
      <trkpt lat="49.2023" lon="1.26916">
        <ele>7</ele>
        <time>2017-04-27T12:16:51Z</time>
      </trkpt>
      <trkpt lat="49.20231" lon="1.26919">
        <ele>7</ele>
        <time>2017-04-27T12:16:51Z</time>
      </trkpt>
      <trkpt lat="49.20232" lon="1.26925">
        <ele>7</ele>
        <time>2017-04-27T12:16:51Z</time>
      </trkpt>
      <trkpt lat="49.20234" lon="1.26931">
        <ele>7</ele>
        <time>2017-04-27T12:17:07Z</time>
      </trkpt>
      <trkpt lat="49.20235" lon="1.2694">
        <ele>7</ele>
        <time>2017-04-27T12:17:07Z</time>
      </trkpt>
      <trkpt lat="49.20236" lon="1.26946">
        <ele>7</ele>
        <time>2017-04-27T12:17:07Z</time>
      </trkpt>
      <trkpt lat="49.20239" lon="1.26953">
        <ele>7</ele>
        <time>2017-04-27T12:17:07Z</time>
      </trkpt>
      <trkpt lat="49.20241" lon="1.26961">
        <ele>9</ele>
        <time>2017-04-27T12:17:23Z</time>
      </trkpt>
      <trkpt lat="49.20242" lon="1.26967">
        <ele>9</ele>
        <time>2017-04-27T12:17:23Z</time>
      </trkpt>
      <trkpt lat="49.20243" lon="1.26973">
        <ele>9</ele>
        <time>2017-04-27T12:17:23Z</time>
      </trkpt>
      <trkpt lat="49.20245" lon="1.26981">
        <ele>9</ele>
        <time>2017-04-27T12:17:23Z</time>
      </trkpt>
      <trkpt lat="49.20247" lon="1.26985">
        <ele>9</ele>
        <time>2017-04-27T12:17:51Z</time>
      </trkpt>
      <trkpt lat="49.20248" lon="1.26984">
        <ele>9</ele>
        <time>2017-04-27T12:17:51Z</time>
      </trkpt>
      <trkpt lat="49.20249" lon="1.26989">
        <ele>9</ele>
        <time>2017-04-27T12:17:51Z</time>
      </trkpt>
      <trkpt lat="49.20251" lon="1.26996">
        <ele>9</ele>
        <time>2017-04-27T12:17:51Z</time>
      </trkpt>
      <trkpt lat="49.20254" lon="1.27003">
        <ele>9</ele>
        <time>2017-04-27T12:17:51Z</time>
      </trkpt>
      <trkpt lat="49.20257" lon="1.27009">
        <ele>9</ele>
        <time>2017-04-27T12:18:07Z</time>
      </trkpt>
      <trkpt lat="49.20258" lon="1.27016">
        <ele>9</ele>
        <time>2017-04-27T12:18:07Z</time>
      </trkpt>
      <trkpt lat="49.2026" lon="1.27022">
        <ele>9</ele>
        <time>2017-04-27T12:18:07Z</time>
      </trkpt>
      <trkpt lat="49.20262" lon="1.27028">
        <ele>9</ele>
        <time>2017-04-27T12:18:07Z</time>
      </trkpt>
      <trkpt lat="49.20263" lon="1.27034">
        <ele>9</ele>
        <time>2017-04-27T12:18:23Z</time>
      </trkpt>
      <trkpt lat="49.20266" lon="1.27044">
        <ele>10</ele>
        <time>2017-04-27T12:18:23Z</time>
      </trkpt>
      <trkpt lat="49.20267" lon="1.27047">
        <ele>10</ele>
        <time>2017-04-27T12:18:23Z</time>
      </trkpt>
      <trkpt lat="49.20268" lon="1.27052">
        <ele>10</ele>
        <time>2017-04-27T12:18:23Z</time>
      </trkpt>
      <trkpt lat="49.2027" lon="1.27059">
        <ele>10</ele>
        <time>2017-04-27T12:18:39Z</time>
      </trkpt>
      <trkpt lat="49.20272" lon="1.27066">
        <ele>10</ele>
        <time>2017-04-27T12:18:39Z</time>
      </trkpt>
      <trkpt lat="49.20275" lon="1.27072">
        <ele>10</ele>
        <time>2017-04-27T12:18:39Z</time>
      </trkpt>
      <trkpt lat="49.20278" lon="1.27078">
        <ele>10</ele>
        <time>2017-04-27T12:18:39Z</time>
      </trkpt>
      <trkpt lat="49.20281" lon="1.27083">
        <ele>10</ele>
        <time>2017-04-27T12:18:55Z</time>
      </trkpt>
      <trkpt lat="49.20283" lon="1.2709">
        <ele>10</ele>
        <time>2017-04-27T12:18:55Z</time>
      </trkpt>
      <trkpt lat="49.20284" lon="1.27096">
        <ele>10</ele>
        <time>2017-04-27T12:18:55Z</time>
      </trkpt>
      <trkpt lat="49.20286" lon="1.27104">
        <ele>10</ele>
        <time>2017-04-27T12:18:55Z</time>
      </trkpt>
      <trkpt lat="49.20289" lon="1.2711">
        <ele>10</ele>
        <time>2017-04-27T12:19:11Z</time>
      </trkpt>
      <trkpt lat="49.20292" lon="1.27118">
        <ele>6</ele>
        <time>2017-04-27T12:19:11Z</time>
      </trkpt>
      <trkpt lat="49.20294" lon="1.27124">
        <ele>6</ele>
        <time>2017-04-27T12:19:11Z</time>
      </trkpt>
      <trkpt lat="49.20296" lon="1.27131">
        <ele>9</ele>
        <time>2017-04-27T12:19:11Z</time>
      </trkpt>
      <trkpt lat="49.20299" lon="1.27139">
        <ele>9</ele>
        <time>2017-04-27T12:19:27Z</time>
      </trkpt>
      <trkpt lat="49.20301" lon="1.27147">
        <ele>9</ele>
        <time>2017-04-27T12:19:27Z</time>
      </trkpt>
      <trkpt lat="49.20304" lon="1.27154">
        <ele>9</ele>
        <time>2017-04-27T12:19:27Z</time>
      </trkpt>
      <trkpt lat="49.20306" lon="1.27162">
        <ele>9</ele>
        <time>2017-04-27T12:19:27Z</time>
      </trkpt>
      <trkpt lat="49.20309" lon="1.27168">
        <ele>9</ele>
        <time>2017-04-27T12:19:43Z</time>
      </trkpt>
      <trkpt lat="49.20311" lon="1.27174">
        <ele>9</ele>
        <time>2017-04-27T12:19:43Z</time>
      </trkpt>
      <trkpt lat="49.20315" lon="1.27181">
        <ele>9</ele>
        <time>2017-04-27T12:19:43Z</time>
      </trkpt>
      <trkpt lat="49.20316" lon="1.27185">
        <ele>9</ele>
        <time>2017-04-27T12:19:43Z</time>
      </trkpt>
      <trkpt lat="49.20319" lon="1.2719">
        <ele>9</ele>
        <time>2017-04-27T12:19:59Z</time>
      </trkpt>
      <trkpt lat="49.20321" lon="1.27197">
        <ele>9</ele>
        <time>2017-04-27T12:19:59Z</time>
      </trkpt>
      <trkpt lat="49.20324" lon="1.27204">
        <ele>9</ele>
        <time>2017-04-27T12:19:59Z</time>
      </trkpt>
      <trkpt lat="49.20326" lon="1.27208">
        <ele>9</ele>
        <time>2017-04-27T12:19:59Z</time>
      </trkpt>
      <trkpt lat="49.20328" lon="1.27214">
        <ele>12</ele>
        <time>2017-04-27T12:20:15Z</time>
      </trkpt>
      <trkpt lat="49.20331" lon="1.27218">
        <ele>12</ele>
        <time>2017-04-27T12:20:15Z</time>
      </trkpt>
      <trkpt lat="49.20333" lon="1.27222">
        <ele>12</ele>
        <time>2017-04-27T12:20:15Z</time>
      </trkpt>
      <trkpt lat="49.20335" lon="1.2723">
        <ele>12</ele>
        <time>2017-04-27T12:20:15Z</time>
      </trkpt>
      <trkpt lat="49.20338" lon="1.27236">
        <ele>12</ele>
        <time>2017-04-27T12:20:31Z</time>
      </trkpt>
      <trkpt lat="49.20339" lon="1.27244">
        <ele>12</ele>
        <time>2017-04-27T12:20:31Z</time>
      </trkpt>
      <trkpt lat="49.2034" lon="1.27251">
        <ele>12</ele>
        <time>2017-04-27T12:20:31Z</time>
      </trkpt>
      <trkpt lat="49.20344" lon="1.27259">
        <ele>12</ele>
        <time>2017-04-27T12:20:31Z</time>
      </trkpt>
      <trkpt lat="49.20347" lon="1.27265">
        <ele>12</ele>
        <time>2017-04-27T12:20:47Z</time>
      </trkpt>
      <trkpt lat="49.20351" lon="1.27274">
        <ele>12</ele>
        <time>2017-04-27T12:20:47Z</time>
      </trkpt>
      <trkpt lat="49.20353" lon="1.27277">
        <ele>12</ele>
        <time>2017-04-27T12:20:47Z</time>
      </trkpt>
      <trkpt lat="49.20356" lon="1.27283">
        <ele>12</ele>
        <time>2017-04-27T12:20:47Z</time>
      </trkpt>
      <trkpt lat="49.2036" lon="1.2729">
        <ele>12</ele>
        <time>2017-04-27T12:21:03Z</time>
      </trkpt>
      <trkpt lat="49.20363" lon="1.27297">
        <ele>13</ele>
        <time>2017-04-27T12:21:03Z</time>
      </trkpt>
      <trkpt lat="49.20366" lon="1.27303">
        <ele>13</ele>
        <time>2017-04-27T12:21:03Z</time>
      </trkpt>
      <trkpt lat="49.20367" lon="1.27309">
        <ele>13</ele>
        <time>2017-04-27T12:21:03Z</time>
      </trkpt>
      <trkpt lat="49.20371" lon="1.27318">
        <ele>13</ele>
        <time>2017-04-27T12:21:19Z</time>
      </trkpt>
      <trkpt lat="49.20374" lon="1.27323">
        <ele>13</ele>
        <time>2017-04-27T12:21:19Z</time>
      </trkpt>
      <trkpt lat="49.20377" lon="1.27328">
        <ele>13</ele>
        <time>2017-04-27T12:21:19Z</time>
      </trkpt>
      <trkpt lat="49.20381" lon="1.27334">
        <ele>13</ele>
        <time>2017-04-27T12:21:19Z</time>
      </trkpt>
      <trkpt lat="49.20385" lon="1.2734">
        <ele>13</ele>
        <time>2017-04-27T12:21:35Z</time>
      </trkpt>
      <trkpt lat="49.20387" lon="1.27344">
        <ele>13</ele>
        <time>2017-04-27T12:21:35Z</time>
      </trkpt>
      <trkpt lat="49.2039" lon="1.27349">
        <ele>13</ele>
        <time>2017-04-27T12:21:35Z</time>
      </trkpt>
      <trkpt lat="49.20392" lon="1.27351">
        <ele>13</ele>
        <time>2017-04-27T12:21:35Z</time>
      </trkpt>
      <trkpt lat="49.20392" lon="1.27363">
        <ele>13</ele>
        <time>2017-04-27T12:22:39Z</time>
      </trkpt>
      <trkpt lat="49.20393" lon="1.27364">
        <ele>13</ele>
        <time>2017-04-27T12:22:39Z</time>
      </trkpt>
      <trkpt lat="49.20392" lon="1.27365">
        <ele>13</ele>
        <time>2017-04-27T12:22:39Z</time>
      </trkpt>
      <trkpt lat="49.20393" lon="1.27366">
        <ele>13</ele>
        <time>2017-04-27T12:22:39Z</time>
      </trkpt>
      <trkpt lat="49.20394" lon="1.27368">
        <ele>13</ele>
        <time>2017-04-27T12:22:39Z</time>
      </trkpt>
      <trkpt lat="49.20394" lon="1.27364">
        <ele>13</ele>
        <time>2017-04-27T12:23:59Z</time>
      </trkpt>
      <trkpt lat="49.20398" lon="1.27363">
        <ele>13</ele>
        <time>2017-04-27T12:23:59Z</time>
      </trkpt>
      <trkpt lat="49.20403" lon="1.27366">
        <ele>13</ele>
        <time>2017-04-27T12:23:59Z</time>
      </trkpt>
      <trkpt lat="49.20407" lon="1.2737">
        <ele>13</ele>
        <time>2017-04-27T12:23:59Z</time>
      </trkpt>
      <trkpt lat="49.20413" lon="1.27377">
        <ele>12</ele>
        <time>2017-04-27T12:23:59Z</time>
      </trkpt>
      <trkpt lat="49.20416" lon="1.27382">
        <ele>12</ele>
        <time>2017-04-27T12:24:15Z</time>
      </trkpt>
      <trkpt lat="49.20419" lon="1.27389">
        <ele>12</ele>
        <time>2017-04-27T12:24:15Z</time>
      </trkpt>
      <trkpt lat="49.20421" lon="1.27393">
        <ele>12</ele>
        <time>2017-04-27T12:24:15Z</time>
      </trkpt>
      <trkpt lat="49.20423" lon="1.27397">
        <ele>12</ele>
        <time>2017-04-27T12:24:15Z</time>
      </trkpt>
      <trkpt lat="49.20428" lon="1.27404">
        <ele>12</ele>
        <time>2017-04-27T12:24:31Z</time>
      </trkpt>
      <trkpt lat="49.20432" lon="1.27409">
        <ele>12</ele>
        <time>2017-04-27T12:24:31Z</time>
      </trkpt>
      <trkpt lat="49.20436" lon="1.27414">
        <ele>12</ele>
        <time>2017-04-27T12:24:31Z</time>
      </trkpt>
      <trkpt lat="49.20438" lon="1.2742">
        <ele>12</ele>
        <time>2017-04-27T12:24:31Z</time>
      </trkpt>
      <trkpt lat="49.20442" lon="1.27425">
        <ele>12</ele>
        <time>2017-04-27T12:24:47Z</time>
      </trkpt>
      <trkpt lat="49.20447" lon="1.27431">
        <ele>12</ele>
        <time>2017-04-27T12:24:47Z</time>
      </trkpt>
      <trkpt lat="49.20451" lon="1.27438">
        <ele>12</ele>
        <time>2017-04-27T12:24:47Z</time>
      </trkpt>
      <trkpt lat="49.20454" lon="1.27443">
        <ele>12</ele>
        <time>2017-04-27T12:24:47Z</time>
      </trkpt>
      <trkpt lat="49.20457" lon="1.2745">
        <ele>12</ele>
        <time>2017-04-27T12:25:03Z</time>
      </trkpt>
      <trkpt lat="49.2046" lon="1.27457">
        <ele>6</ele>
        <time>2017-04-27T12:25:03Z</time>
      </trkpt>
      <trkpt lat="49.20461" lon="1.27463">
        <ele>9</ele>
        <time>2017-04-27T12:25:03Z</time>
      </trkpt>
      <trkpt lat="49.20464" lon="1.27468">
        <ele>9</ele>
        <time>2017-04-27T12:25:03Z</time>
      </trkpt>
      <trkpt lat="49.20467" lon="1.27472">
        <ele>9</ele>
        <time>2017-04-27T12:25:19Z</time>
      </trkpt>
      <trkpt lat="49.20471" lon="1.27476">
        <ele>9</ele>
        <time>2017-04-27T12:25:19Z</time>
      </trkpt>
      <trkpt lat="49.20475" lon="1.27481">
        <ele>9</ele>
        <time>2017-04-27T12:25:19Z</time>
      </trkpt>
      <trkpt lat="49.2048" lon="1.27485">
        <ele>9</ele>
        <time>2017-04-27T12:25:19Z</time>
      </trkpt>
      <trkpt lat="49.20483" lon="1.2749">
        <ele>9</ele>
        <time>2017-04-27T12:25:35Z</time>
      </trkpt>
      <trkpt lat="49.20487" lon="1.27494">
        <ele>9</ele>
        <time>2017-04-27T12:25:35Z</time>
      </trkpt>
      <trkpt lat="49.20491" lon="1.27501">
        <ele>9</ele>
        <time>2017-04-27T12:25:35Z</time>
      </trkpt>
      <trkpt lat="49.20494" lon="1.27507">
        <ele>9</ele>
        <time>2017-04-27T12:25:35Z</time>
      </trkpt>
      <trkpt lat="49.20499" lon="1.27515">
        <ele>9</ele>
        <time>2017-04-27T12:25:51Z</time>
      </trkpt>
      <trkpt lat="49.20501" lon="1.27519">
        <ele>9</ele>
        <time>2017-04-27T12:25:51Z</time>
      </trkpt>
      <trkpt lat="49.20504" lon="1.27525">
        <ele>9</ele>
        <time>2017-04-27T12:25:51Z</time>
      </trkpt>
      <trkpt lat="49.20506" lon="1.27529">
        <ele>9</ele>
        <time>2017-04-27T12:25:51Z</time>
      </trkpt>
      <trkpt lat="49.20508" lon="1.27535">
        <ele>9</ele>
        <time>2017-04-27T12:26:07Z</time>
      </trkpt>
      <trkpt lat="49.2051" lon="1.27541">
        <ele>9</ele>
        <time>2017-04-27T12:26:07Z</time>
      </trkpt>
      <trkpt lat="49.20516" lon="1.27548">
        <ele>13</ele>
        <time>2017-04-27T12:26:07Z</time>
      </trkpt>
      <trkpt lat="49.20519" lon="1.27553">
        <ele>13</ele>
        <time>2017-04-27T12:26:07Z</time>
      </trkpt>
      <trkpt lat="49.20522" lon="1.27556">
        <ele>13</ele>
        <time>2017-04-27T12:26:23Z</time>
      </trkpt>
      <trkpt lat="49.20526" lon="1.27561">
        <ele>13</ele>
        <time>2017-04-27T12:26:23Z</time>
      </trkpt>
      <trkpt lat="49.20528" lon="1.27571">
        <ele>13</ele>
        <time>2017-04-27T12:26:23Z</time>
      </trkpt>
      <trkpt lat="49.2053" lon="1.27577">
        <ele>13</ele>
        <time>2017-04-27T12:26:23Z</time>
      </trkpt>
      <trkpt lat="49.20532" lon="1.27582">
        <ele>13</ele>
        <time>2017-04-27T12:26:39Z</time>
      </trkpt>
      <trkpt lat="49.20535" lon="1.27586">
        <ele>13</ele>
        <time>2017-04-27T12:26:39Z</time>
      </trkpt>
      <trkpt lat="49.20537" lon="1.27591">
        <ele>13</ele>
        <time>2017-04-27T12:26:39Z</time>
      </trkpt>
      <trkpt lat="49.20538" lon="1.27593">
        <ele>13</ele>
        <time>2017-04-27T12:26:39Z</time>
      </trkpt>
      <trkpt lat="49.20535" lon="1.27588">
        <ele>13</ele>
        <time>2017-04-27T12:28:39Z</time>
      </trkpt>
      <trkpt lat="49.20534" lon="1.27587">
        <ele>13</ele>
        <time>2017-04-27T12:28:39Z</time>
      </trkpt>
      <trkpt lat="49.20533" lon="1.27585">
        <ele>13</ele>
        <time>2017-04-27T12:28:39Z</time>
      </trkpt>
      <trkpt lat="49.20533" lon="1.27585">
        <ele>13</ele>
        <time>2017-04-27T12:28:39Z</time>
      </trkpt>
      <trkpt lat="49.2053" lon="1.2758">
        <ele>13</ele>
        <time>2017-04-27T12:28:39Z</time>
      </trkpt>
      <trkpt lat="49.20528" lon="1.27572">
        <ele>13</ele>
        <time>2017-04-27T12:28:55Z</time>
      </trkpt>
      <trkpt lat="49.20524" lon="1.27564">
        <ele>13</ele>
        <time>2017-04-27T12:28:55Z</time>
      </trkpt>
      <trkpt lat="49.20522" lon="1.27557">
        <ele>13</ele>
        <time>2017-04-27T12:28:55Z</time>
      </trkpt>
      <trkpt lat="49.20519" lon="1.27553">
        <ele>13</ele>
        <time>2017-04-27T12:28:55Z</time>
      </trkpt>
      <trkpt lat="49.20516" lon="1.27549">
        <ele>13</ele>
        <time>2017-04-27T12:29:11Z</time>
      </trkpt>
      <trkpt lat="49.20512" lon="1.27543">
        <ele>13</ele>
        <time>2017-04-27T12:29:11Z</time>
      </trkpt>
      <trkpt lat="49.20508" lon="1.27537">
        <ele>9</ele>
        <time>2017-04-27T12:29:11Z</time>
      </trkpt>
      <trkpt lat="49.20504" lon="1.27534">
        <ele>9</ele>
        <time>2017-04-27T12:29:11Z</time>
      </trkpt>
      <trkpt lat="49.20503" lon="1.2753">
        <ele>9</ele>
        <time>2017-04-27T12:29:27Z</time>
      </trkpt>
      <trkpt lat="49.205" lon="1.27522">
        <ele>9</ele>
        <time>2017-04-27T12:29:27Z</time>
      </trkpt>
      <trkpt lat="49.20497" lon="1.27516">
        <ele>9</ele>
        <time>2017-04-27T12:29:27Z</time>
      </trkpt>
      <trkpt lat="49.20493" lon="1.2751">
        <ele>9</ele>
        <time>2017-04-27T12:29:27Z</time>
      </trkpt>
      <trkpt lat="49.20489" lon="1.275">
        <ele>9</ele>
        <time>2017-04-27T12:29:43Z</time>
      </trkpt>
      <trkpt lat="49.20486" lon="1.27496">
        <ele>9</ele>
        <time>2017-04-27T12:29:43Z</time>
      </trkpt>
      <trkpt lat="49.20481" lon="1.2749">
        <ele>9</ele>
        <time>2017-04-27T12:29:43Z</time>
      </trkpt>
      <trkpt lat="49.20476" lon="1.27484">
        <ele>9</ele>
        <time>2017-04-27T12:29:43Z</time>
      </trkpt>
      <trkpt lat="49.20472" lon="1.27479">
        <ele>9</ele>
        <time>2017-04-27T12:29:59Z</time>
      </trkpt>
      <trkpt lat="49.20467" lon="1.27474">
        <ele>9</ele>
        <time>2017-04-27T12:29:59Z</time>
      </trkpt>
      <trkpt lat="49.20464" lon="1.27468">
        <ele>9</ele>
        <time>2017-04-27T12:29:59Z</time>
      </trkpt>
      <trkpt lat="49.20461" lon="1.27463">
        <ele>9</ele>
        <time>2017-04-27T12:29:59Z</time>
      </trkpt>
      <trkpt lat="49.20457" lon="1.27458">
        <ele>12</ele>
        <time>2017-04-27T12:30:15Z</time>
      </trkpt>
      <trkpt lat="49.20454" lon="1.2745">
        <ele>12</ele>
        <time>2017-04-27T12:30:15Z</time>
      </trkpt>
      <trkpt lat="49.20451" lon="1.27442">
        <ele>12</ele>
        <time>2017-04-27T12:30:15Z</time>
      </trkpt>
      <trkpt lat="49.20449" lon="1.27436">
        <ele>12</ele>
        <time>2017-04-27T12:30:15Z</time>
      </trkpt>
      <trkpt lat="49.20446" lon="1.27431">
        <ele>12</ele>
        <time>2017-04-27T12:30:31Z</time>
      </trkpt>
      <trkpt lat="49.20444" lon="1.27427">
        <ele>12</ele>
        <time>2017-04-27T12:30:31Z</time>
      </trkpt>
      <trkpt lat="49.2044" lon="1.27417">
        <ele>12</ele>
        <time>2017-04-27T12:30:31Z</time>
      </trkpt>
      <trkpt lat="49.20437" lon="1.27414">
        <ele>12</ele>
        <time>2017-04-27T12:30:31Z</time>
      </trkpt>
      <trkpt lat="49.20434" lon="1.27408">
        <ele>12</ele>
        <time>2017-04-27T12:30:47Z</time>
      </trkpt>
      <trkpt lat="49.20428" lon="1.27401">
        <ele>12</ele>
        <time>2017-04-27T12:30:47Z</time>
      </trkpt>
      <trkpt lat="49.20425" lon="1.27397">
        <ele>12</ele>
        <time>2017-04-27T12:30:47Z</time>
      </trkpt>
      <trkpt lat="49.20421" lon="1.27393">
        <ele>12</ele>
        <time>2017-04-27T12:30:47Z</time>
      </trkpt>
      <trkpt lat="49.20418" lon="1.27388">
        <ele>12</ele>
        <time>2017-04-27T12:31:03Z</time>
      </trkpt>
      <trkpt lat="49.20413" lon="1.27382">
        <ele>12</ele>
        <time>2017-04-27T12:31:03Z</time>
      </trkpt>
      <trkpt lat="49.2041" lon="1.27376">
        <ele>12</ele>
        <time>2017-04-27T12:31:03Z</time>
      </trkpt>
      <trkpt lat="49.20404" lon="1.27371">
        <ele>13</ele>
        <time>2017-04-27T12:31:03Z</time>
      </trkpt>
      <trkpt lat="49.20401" lon="1.27366">
        <ele>13</ele>
        <time>2017-04-27T12:31:19Z</time>
      </trkpt>
      <trkpt lat="49.20398" lon="1.27362">
        <ele>13</ele>
        <time>2017-04-27T12:31:19Z</time>
      </trkpt>
      <trkpt lat="49.20393" lon="1.27358">
        <ele>13</ele>
        <time>2017-04-27T12:31:19Z</time>
      </trkpt>
      <trkpt lat="49.20389" lon="1.27359">
        <ele>13</ele>
        <time>2017-04-27T12:31:19Z</time>
      </trkpt>
      <trkpt lat="49.20388" lon="1.27371">
        <ele>13</ele>
        <time>2017-04-27T12:31:47Z</time>
      </trkpt>
      <trkpt lat="49.20392" lon="1.27372">
        <ele>13</ele>
        <time>2017-04-27T12:31:47Z</time>
      </trkpt>
      <trkpt lat="49.20395" lon="1.27373">
        <ele>13</ele>
        <time>2017-04-27T12:31:47Z</time>
      </trkpt>
      <trkpt lat="49.20396" lon="1.27374">
        <ele>13</ele>
        <time>2017-04-27T12:31:47Z</time>
      </trkpt>
      <trkpt lat="49.20394" lon="1.27378">
        <ele>12</ele>
        <time>2017-04-27T12:31:47Z</time>
      </trkpt>
      <trkpt lat="49.20386" lon="1.27389">
        <ele>12</ele>
        <time>2017-04-27T12:32:19Z</time>
      </trkpt>
      <trkpt lat="49.20386" lon="1.27397">
        <ele>12</ele>
        <time>2017-04-27T12:32:19Z</time>
      </trkpt>
      <trkpt lat="49.20385" lon="1.27405">
        <ele>12</ele>
        <time>2017-04-27T12:32:19Z</time>
      </trkpt>
      <trkpt lat="49.20384" lon="1.27414">
        <ele>12</ele>
        <time>2017-04-27T12:32:19Z</time>
      </trkpt>
      <trkpt lat="49.20382" lon="1.27421">
        <ele>12</ele>
        <time>2017-04-27T12:32:19Z</time>
      </trkpt>
      <trkpt lat="49.20381" lon="1.27427">
        <ele>12</ele>
        <time>2017-04-27T12:32:35Z</time>
      </trkpt>
      <trkpt lat="49.2038" lon="1.27433">
        <ele>12</ele>
        <time>2017-04-27T12:32:35Z</time>
      </trkpt>
      <trkpt lat="49.20378" lon="1.27441">
        <ele>12</ele>
        <time>2017-04-27T12:32:35Z</time>
      </trkpt>
      <trkpt lat="49.20377" lon="1.27447">
        <ele>12</ele>
        <time>2017-04-27T12:32:35Z</time>
      </trkpt>
      <trkpt lat="49.20377" lon="1.27451">
        <ele>12</ele>
        <time>2017-04-27T12:32:51Z</time>
      </trkpt>
      <trkpt lat="49.20376" lon="1.2746">
        <ele>12</ele>
        <time>2017-04-27T12:32:51Z</time>
      </trkpt>
      <trkpt lat="49.20376" lon="1.27471">
        <ele>12</ele>
        <time>2017-04-27T12:32:51Z</time>
      </trkpt>
      <trkpt lat="49.20373" lon="1.27478">
        <ele>11</ele>
        <time>2017-04-27T12:32:51Z</time>
      </trkpt>
      <trkpt lat="49.20371" lon="1.27485">
        <ele>11</ele>
        <time>2017-04-27T12:33:07Z</time>
      </trkpt>
      <trkpt lat="49.20369" lon="1.27492">
        <ele>11</ele>
        <time>2017-04-27T12:33:07Z</time>
      </trkpt>
      <trkpt lat="49.20368" lon="1.275">
        <ele>11</ele>
        <time>2017-04-27T12:33:07Z</time>
      </trkpt>
      <trkpt lat="49.20366" lon="1.27506">
        <ele>11</ele>
        <time>2017-04-27T12:33:07Z</time>
      </trkpt>
      <trkpt lat="49.20365" lon="1.27513">
        <ele>11</ele>
        <time>2017-04-27T12:33:23Z</time>
      </trkpt>
      <trkpt lat="49.20364" lon="1.27519">
        <ele>11</ele>
        <time>2017-04-27T12:33:23Z</time>
      </trkpt>
      <trkpt lat="49.2036" lon="1.27529">
        <ele>11</ele>
        <time>2017-04-27T12:33:23Z</time>
      </trkpt>
      <trkpt lat="49.2036" lon="1.27537">
        <ele>11</ele>
        <time>2017-04-27T12:33:23Z</time>
      </trkpt>
      <trkpt lat="49.2036" lon="1.27545">
        <ele>11</ele>
        <time>2017-04-27T12:33:39Z</time>
      </trkpt>
      <trkpt lat="49.20359" lon="1.27552">
        <ele>11</ele>
        <time>2017-04-27T12:33:39Z</time>
      </trkpt>
      <trkpt lat="49.20357" lon="1.27558">
        <ele>11</ele>
        <time>2017-04-27T12:33:39Z</time>
      </trkpt>
      <trkpt lat="49.20356" lon="1.27566">
        <ele>11</ele>
        <time>2017-04-27T12:33:39Z</time>
      </trkpt>
      <trkpt lat="49.20355" lon="1.27573">
        <ele>11</ele>
        <time>2017-04-27T12:33:55Z</time>
      </trkpt>
      <trkpt lat="49.20355" lon="1.27579">
        <ele>11</ele>
        <time>2017-04-27T12:33:55Z</time>
      </trkpt>
      <trkpt lat="49.20353" lon="1.27587">
        <ele>11</ele>
        <time>2017-04-27T12:33:55Z</time>
      </trkpt>
      <trkpt lat="49.20351" lon="1.27597">
        <ele>11</ele>
        <time>2017-04-27T12:33:55Z</time>
      </trkpt>
      <trkpt lat="49.20351" lon="1.27603">
        <ele>11</ele>
        <time>2017-04-27T12:34:11Z</time>
      </trkpt>
      <trkpt lat="49.2035" lon="1.2761">
        <ele>11</ele>
        <time>2017-04-27T12:34:11Z</time>
      </trkpt>
      <trkpt lat="49.20348" lon="1.27619">
        <ele>11</ele>
        <time>2017-04-27T12:34:11Z</time>
      </trkpt>
      <trkpt lat="49.20346" lon="1.27626">
        <ele>12</ele>
        <time>2017-04-27T12:34:11Z</time>
      </trkpt>
      <trkpt lat="49.20346" lon="1.27633">
        <ele>12</ele>
        <time>2017-04-27T12:34:27Z</time>
      </trkpt>
      <trkpt lat="49.20345" lon="1.27641">
        <ele>12</ele>
        <time>2017-04-27T12:34:27Z</time>
      </trkpt>
      <trkpt lat="49.20345" lon="1.27651">
        <ele>12</ele>
        <time>2017-04-27T12:34:27Z</time>
      </trkpt>
      <trkpt lat="49.20344" lon="1.27659">
        <ele>12</ele>
        <time>2017-04-27T12:34:27Z</time>
      </trkpt>
      <trkpt lat="49.20345" lon="1.27665">
        <ele>12</ele>
        <time>2017-04-27T12:34:43Z</time>
      </trkpt>
      <trkpt lat="49.20346" lon="1.27671">
        <ele>12</ele>
        <time>2017-04-27T12:34:43Z</time>
      </trkpt>
      <trkpt lat="49.20347" lon="1.27677">
        <ele>12</ele>
        <time>2017-04-27T12:34:43Z</time>
      </trkpt>
      <trkpt lat="49.20346" lon="1.27684">
        <ele>12</ele>
        <time>2017-04-27T12:34:43Z</time>
      </trkpt>
      <trkpt lat="49.20347" lon="1.2769">
        <ele>12</ele>
        <time>2017-04-27T12:34:59Z</time>
      </trkpt>
      <trkpt lat="49.20347" lon="1.27699">
        <ele>12</ele>
        <time>2017-04-27T12:34:59Z</time>
      </trkpt>
      <trkpt lat="49.20347" lon="1.27707">
        <ele>12</ele>
        <time>2017-04-27T12:34:59Z</time>
      </trkpt>
      <trkpt lat="49.20347" lon="1.27715">
        <ele>12</ele>
        <time>2017-04-27T12:34:59Z</time>
      </trkpt>
      <trkpt lat="49.20346" lon="1.27723">
        <ele>12</ele>
        <time>2017-04-27T12:35:15Z</time>
      </trkpt>
      <trkpt lat="49.20346" lon="1.27729">
        <ele>12</ele>
        <time>2017-04-27T12:35:15Z</time>
      </trkpt>
      <trkpt lat="49.20345" lon="1.27735">
        <ele>12</ele>
        <time>2017-04-27T12:35:15Z</time>
      </trkpt>
      <trkpt lat="49.20344" lon="1.27745">
        <ele>12</ele>
        <time>2017-04-27T12:35:15Z</time>
      </trkpt>
      <trkpt lat="49.20342" lon="1.27754">
        <ele>12</ele>
        <time>2017-04-27T12:35:35Z</time>
      </trkpt>
      <trkpt lat="49.20341" lon="1.27757">
        <ele>12</ele>
        <time>2017-04-27T12:35:35Z</time>
      </trkpt>
      <trkpt lat="49.20339" lon="1.27762">
        <ele>12</ele>
        <time>2017-04-27T12:35:35Z</time>
      </trkpt>
      <trkpt lat="49.20339" lon="1.27763">
        <ele>12</ele>
        <time>2017-04-27T12:35:35Z</time>
      </trkpt>
      <trkpt lat="49.2034" lon="1.2777">
        <ele>12</ele>
        <time>2017-04-27T12:35:35Z</time>
      </trkpt>
      <trkpt lat="49.20339" lon="1.27782">
        <ele>12</ele>
        <time>2017-04-27T12:36:31Z</time>
      </trkpt>
      <trkpt lat="49.20338" lon="1.27784">
        <ele>12</ele>
        <time>2017-04-27T12:36:31Z</time>
      </trkpt>
      <trkpt lat="49.20338" lon="1.27789">
        <ele>12</ele>
        <time>2017-04-27T12:36:31Z</time>
      </trkpt>
      <trkpt lat="49.20338" lon="1.27792">
        <ele>13</ele>
        <time>2017-04-27T12:36:31Z</time>
      </trkpt>
      <trkpt lat="49.20336" lon="1.27807">
        <ele>13</ele>
        <time>2017-04-27T12:36:31Z</time>
      </trkpt>
      <trkpt lat="49.20333" lon="1.27816">
        <ele>13</ele>
        <time>2017-04-27T12:36:47Z</time>
      </trkpt>
      <trkpt lat="49.20329" lon="1.27824">
        <ele>13</ele>
        <time>2017-04-27T12:36:47Z</time>
      </trkpt>
      <trkpt lat="49.20328" lon="1.27831">
        <ele>13</ele>
        <time>2017-04-27T12:36:47Z</time>
      </trkpt>
      <trkpt lat="49.20326" lon="1.27841">
        <ele>13</ele>
        <time>2017-04-27T12:36:47Z</time>
      </trkpt>
      <trkpt lat="49.20325" lon="1.27849">
        <ele>13</ele>
        <time>2017-04-27T12:37:03Z</time>
      </trkpt>
      <trkpt lat="49.20323" lon="1.27858">
        <ele>13</ele>
        <time>2017-04-27T12:37:03Z</time>
      </trkpt>
      <trkpt lat="49.20322" lon="1.27866">
        <ele>13</ele>
        <time>2017-04-27T12:37:03Z</time>
      </trkpt>
      <trkpt lat="49.20323" lon="1.27873">
        <ele>13</ele>
        <time>2017-04-27T12:37:03Z</time>
      </trkpt>
      <trkpt lat="49.20324" lon="1.27878">
        <ele>14</ele>
        <time>2017-04-27T12:37:19Z</time>
      </trkpt>
      <trkpt lat="49.20325" lon="1.27886">
        <ele>14</ele>
        <time>2017-04-27T12:37:19Z</time>
      </trkpt>
      <trkpt lat="49.20325" lon="1.27896">
        <ele>14</ele>
        <time>2017-04-27T12:37:19Z</time>
      </trkpt>
      <trkpt lat="49.20326" lon="1.27903">
        <ele>14</ele>
        <time>2017-04-27T12:37:19Z</time>
      </trkpt>
      <trkpt lat="49.20329" lon="1.2791">
        <ele>14</ele>
        <time>2017-04-27T12:37:35Z</time>
      </trkpt>
      <trkpt lat="49.2033" lon="1.27917">
        <ele>14</ele>
        <time>2017-04-27T12:37:35Z</time>
      </trkpt>
      <trkpt lat="49.2033" lon="1.27923">
        <ele>14</ele>
        <time>2017-04-27T12:37:35Z</time>
      </trkpt>
      <trkpt lat="49.20331" lon="1.27928">
        <ele>14</ele>
        <time>2017-04-27T12:37:35Z</time>
      </trkpt>
      <trkpt lat="49.20331" lon="1.27929">
        <ele>14</ele>
        <time>2017-04-27T12:37:55Z</time>
      </trkpt>
      <trkpt lat="49.2033" lon="1.27929">
        <ele>14</ele>
        <time>2017-04-27T12:37:55Z</time>
      </trkpt>
      <trkpt lat="49.20332" lon="1.27932">
        <ele>14</ele>
        <time>2017-04-27T12:37:55Z</time>
      </trkpt>
      <trkpt lat="49.20334" lon="1.27938">
        <ele>14</ele>
        <time>2017-04-27T12:37:55Z</time>
      </trkpt>
      <trkpt lat="49.20335" lon="1.27944">
        <ele>14</ele>
        <time>2017-04-27T12:37:55Z</time>
      </trkpt>
      <trkpt lat="49.20336" lon="1.27952">
        <ele>14</ele>
        <time>2017-04-27T12:38:11Z</time>
      </trkpt>
      <trkpt lat="49.20339" lon="1.27962">
        <ele>12</ele>
        <time>2017-04-27T12:38:11Z</time>
      </trkpt>
      <trkpt lat="49.20342" lon="1.27971">
        <ele>12</ele>
        <time>2017-04-27T12:38:11Z</time>
      </trkpt>
      <trkpt lat="49.20342" lon="1.27978">
        <ele>12</ele>
        <time>2017-04-27T12:38:11Z</time>
      </trkpt>
      <trkpt lat="49.20342" lon="1.27983">
        <ele>12</ele>
        <time>2017-04-27T12:38:27Z</time>
      </trkpt>
      <trkpt lat="49.20343" lon="1.27989">
        <ele>12</ele>
        <time>2017-04-27T12:38:27Z</time>
      </trkpt>
      <trkpt lat="49.20344" lon="1.27996">
        <ele>12</ele>
        <time>2017-04-27T12:38:27Z</time>
      </trkpt>
      <trkpt lat="49.20346" lon="1.28004">
        <ele>12</ele>
        <time>2017-04-27T12:38:27Z</time>
      </trkpt>
      <trkpt lat="49.20348" lon="1.28013">
        <ele>12</ele>
        <time>2017-04-27T12:38:43Z</time>
      </trkpt>
      <trkpt lat="49.2035" lon="1.28018">
        <ele>12</ele>
        <time>2017-04-27T12:38:43Z</time>
      </trkpt>
      <trkpt lat="49.20351" lon="1.28027">
        <ele>12</ele>
        <time>2017-04-27T12:38:43Z</time>
      </trkpt>
      <trkpt lat="49.20352" lon="1.28035">
        <ele>12</ele>
        <time>2017-04-27T12:38:43Z</time>
      </trkpt>
      <trkpt lat="49.20354" lon="1.28044">
        <ele>11</ele>
        <time>2017-04-27T12:38:59Z</time>
      </trkpt>
      <trkpt lat="49.20356" lon="1.28051">
        <ele>11</ele>
        <time>2017-04-27T12:38:59Z</time>
      </trkpt>
      <trkpt lat="49.20357" lon="1.28058">
        <ele>11</ele>
        <time>2017-04-27T12:38:59Z</time>
      </trkpt>
      <trkpt lat="49.20358" lon="1.28062">
        <ele>11</ele>
        <time>2017-04-27T12:38:59Z</time>
      </trkpt>
      <trkpt lat="49.20359" lon="1.2807">
        <ele>11</ele>
        <time>2017-04-27T12:39:15Z</time>
      </trkpt>
      <trkpt lat="49.2036" lon="1.28076">
        <ele>11</ele>
        <time>2017-04-27T12:39:15Z</time>
      </trkpt>
      <trkpt lat="49.20363" lon="1.28083">
        <ele>11</ele>
        <time>2017-04-27T12:39:15Z</time>
      </trkpt>
      <trkpt lat="49.20364" lon="1.28092">
        <ele>11</ele>
        <time>2017-04-27T12:39:15Z</time>
      </trkpt>
      <trkpt lat="49.20364" lon="1.28099">
        <ele>11</ele>
        <time>2017-04-27T12:39:31Z</time>
      </trkpt>
      <trkpt lat="49.20364" lon="1.28105">
        <ele>11</ele>
        <time>2017-04-27T12:39:31Z</time>
      </trkpt>
      <trkpt lat="49.20366" lon="1.28114">
        <ele>11</ele>
        <time>2017-04-27T12:39:31Z</time>
      </trkpt>
      <trkpt lat="49.20368" lon="1.28122">
        <ele>11</ele>
        <time>2017-04-27T12:39:31Z</time>
      </trkpt>
      <trkpt lat="49.20371" lon="1.28131">
        <ele>8</ele>
        <time>2017-04-27T12:39:47Z</time>
      </trkpt>
      <trkpt lat="49.20371" lon="1.28139">
        <ele>8</ele>
        <time>2017-04-27T12:39:47Z</time>
      </trkpt>
      <trkpt lat="49.20372" lon="1.28146">
        <ele>8</ele>
        <time>2017-04-27T12:39:47Z</time>
      </trkpt>
      <trkpt lat="49.20373" lon="1.28154">
        <ele>8</ele>
        <time>2017-04-27T12:39:47Z</time>
      </trkpt>
      <trkpt lat="49.20375" lon="1.2816">
        <ele>8</ele>
        <time>2017-04-27T12:40:03Z</time>
      </trkpt>
      <trkpt lat="49.20377" lon="1.28167">
        <ele>9</ele>
        <time>2017-04-27T12:40:03Z</time>
      </trkpt>
      <trkpt lat="49.20378" lon="1.28171">
        <ele>9</ele>
        <time>2017-04-27T12:40:03Z</time>
      </trkpt>
      <trkpt lat="49.20379" lon="1.28179">
        <ele>9</ele>
        <time>2017-04-27T12:40:03Z</time>
      </trkpt>
      <trkpt lat="49.20379" lon="1.28186">
        <ele>9</ele>
        <time>2017-04-27T12:40:19Z</time>
      </trkpt>
      <trkpt lat="49.2038" lon="1.28191">
        <ele>9</ele>
        <time>2017-04-27T12:40:19Z</time>
      </trkpt>
      <trkpt lat="49.20382" lon="1.28198">
        <ele>9</ele>
        <time>2017-04-27T12:40:19Z</time>
      </trkpt>
      <trkpt lat="49.20384" lon="1.28206">
        <ele>9</ele>
        <time>2017-04-27T12:40:19Z</time>
      </trkpt>
      <trkpt lat="49.20386" lon="1.28212">
        <ele>8</ele>
        <time>2017-04-27T12:40:35Z</time>
      </trkpt>
      <trkpt lat="49.20387" lon="1.28221">
        <ele>8</ele>
        <time>2017-04-27T12:40:35Z</time>
      </trkpt>
      <trkpt lat="49.20389" lon="1.28229">
        <ele>8</ele>
        <time>2017-04-27T12:40:35Z</time>
      </trkpt>
      <trkpt lat="49.2039" lon="1.28236">
        <ele>8</ele>
        <time>2017-04-27T12:40:35Z</time>
      </trkpt>
      <trkpt lat="49.2039" lon="1.28244">
        <ele>8</ele>
        <time>2017-04-27T12:40:51Z</time>
      </trkpt>
      <trkpt lat="49.20392" lon="1.28253">
        <ele>8</ele>
        <time>2017-04-27T12:40:51Z</time>
      </trkpt>
      <trkpt lat="49.20393" lon="1.28261">
        <ele>8</ele>
        <time>2017-04-27T12:40:51Z</time>
      </trkpt>
      <trkpt lat="49.20393" lon="1.28267">
        <ele>8</ele>
        <time>2017-04-27T12:40:51Z</time>
      </trkpt>
      <trkpt lat="49.20395" lon="1.28275">
        <ele>8</ele>
        <time>2017-04-27T12:41:07Z</time>
      </trkpt>
      <trkpt lat="49.20398" lon="1.28282">
        <ele>8</ele>
        <time>2017-04-27T12:41:07Z</time>
      </trkpt>
      <trkpt lat="49.20401" lon="1.28289">
        <ele>8</ele>
        <time>2017-04-27T12:41:07Z</time>
      </trkpt>
      <trkpt lat="49.20402" lon="1.28293">
        <ele>8</ele>
        <time>2017-04-27T12:41:07Z</time>
      </trkpt>
      <trkpt lat="49.20403" lon="1.28301">
        <ele>8</ele>
        <time>2017-04-27T12:41:23Z</time>
      </trkpt>
      <trkpt lat="49.20404" lon="1.28307">
        <ele>8</ele>
        <time>2017-04-27T12:41:23Z</time>
      </trkpt>
      <trkpt lat="49.20405" lon="1.28314">
        <ele>8</ele>
        <time>2017-04-27T12:41:23Z</time>
      </trkpt>
      <trkpt lat="49.20406" lon="1.28319">
        <ele>8</ele>
        <time>2017-04-27T12:41:23Z</time>
      </trkpt>
      <trkpt lat="49.20407" lon="1.28327">
        <ele>8</ele>
        <time>2017-04-27T12:41:39Z</time>
      </trkpt>
      <trkpt lat="49.20411" lon="1.28336">
        <ele>8</ele>
        <time>2017-04-27T12:41:39Z</time>
      </trkpt>
      <trkpt lat="49.20412" lon="1.28341">
        <ele>8</ele>
        <time>2017-04-27T12:41:39Z</time>
      </trkpt>
      <trkpt lat="49.20414" lon="1.28347">
        <ele>8</ele>
        <time>2017-04-27T12:41:39Z</time>
      </trkpt>
      <trkpt lat="49.20415" lon="1.28356">
        <ele>8</ele>
        <time>2017-04-27T12:41:55Z</time>
      </trkpt>
      <trkpt lat="49.20416" lon="1.28364">
        <ele>8</ele>
        <time>2017-04-27T12:41:55Z</time>
      </trkpt>
      <trkpt lat="49.20418" lon="1.28369">
        <ele>8</ele>
        <time>2017-04-27T12:41:55Z</time>
      </trkpt>
      <trkpt lat="49.2042" lon="1.28377">
        <ele>9</ele>
        <time>2017-04-27T12:41:55Z</time>
      </trkpt>
      <trkpt lat="49.20424" lon="1.28385">
        <ele>9</ele>
        <time>2017-04-27T12:42:11Z</time>
      </trkpt>
      <trkpt lat="49.20425" lon="1.2839">
        <ele>9</ele>
        <time>2017-04-27T12:42:11Z</time>
      </trkpt>
      <trkpt lat="49.20428" lon="1.28396">
        <ele>9</ele>
        <time>2017-04-27T12:42:11Z</time>
      </trkpt>
      <trkpt lat="49.20432" lon="1.28401">
        <ele>9</ele>
        <time>2017-04-27T12:42:11Z</time>
      </trkpt>
      <trkpt lat="49.20434" lon="1.28407">
        <ele>9</ele>
        <time>2017-04-27T12:42:27Z</time>
      </trkpt>
      <trkpt lat="49.20437" lon="1.28413">
        <ele>9</ele>
        <time>2017-04-27T12:42:27Z</time>
      </trkpt>
      <trkpt lat="49.20438" lon="1.28417">
        <ele>9</ele>
        <time>2017-04-27T12:42:27Z</time>
      </trkpt>
      <trkpt lat="49.20441" lon="1.28423">
        <ele>9</ele>
        <time>2017-04-27T12:42:27Z</time>
      </trkpt>
      <trkpt lat="49.20444" lon="1.28429">
        <ele>9</ele>
        <time>2017-04-27T12:42:43Z</time>
      </trkpt>
      <trkpt lat="49.20449" lon="1.28435">
        <ele>9</ele>
        <time>2017-04-27T12:42:43Z</time>
      </trkpt>
      <trkpt lat="49.20453" lon="1.28441">
        <ele>9</ele>
        <time>2017-04-27T12:42:43Z</time>
      </trkpt>
      <trkpt lat="49.20456" lon="1.28446">
        <ele>9</ele>
        <time>2017-04-27T12:42:43Z</time>
      </trkpt>
      <trkpt lat="49.2046" lon="1.28451">
        <ele>6</ele>
        <time>2017-04-27T12:42:59Z</time>
      </trkpt>
      <trkpt lat="49.20462" lon="1.28454">
        <ele>6</ele>
        <time>2017-04-27T12:42:59Z</time>
      </trkpt>
      <trkpt lat="49.20467" lon="1.28461">
        <ele>10</ele>
        <time>2017-04-27T12:42:59Z</time>
      </trkpt>
      <trkpt lat="49.2047" lon="1.28467">
        <ele>10</ele>
        <time>2017-04-27T12:42:59Z</time>
      </trkpt>
      <trkpt lat="49.20473" lon="1.28471">
        <ele>10</ele>
        <time>2017-04-27T12:43:15Z</time>
      </trkpt>
      <trkpt lat="49.20475" lon="1.28478">
        <ele>10</ele>
        <time>2017-04-27T12:43:15Z</time>
      </trkpt>
      <trkpt lat="49.20478" lon="1.28484">
        <ele>10</ele>
        <time>2017-04-27T12:43:15Z</time>
      </trkpt>
      <trkpt lat="49.20481" lon="1.28489">
        <ele>10</ele>
        <time>2017-04-27T12:43:15Z</time>
      </trkpt>
      <trkpt lat="49.20484" lon="1.28496">
        <ele>10</ele>
        <time>2017-04-27T12:43:31Z</time>
      </trkpt>
      <trkpt lat="49.20486" lon="1.28505">
        <ele>10</ele>
        <time>2017-04-27T12:43:31Z</time>
      </trkpt>
      <trkpt lat="49.20487" lon="1.28514">
        <ele>10</ele>
        <time>2017-04-27T12:43:31Z</time>
      </trkpt>
      <trkpt lat="49.20487" lon="1.28521">
        <ele>10</ele>
        <time>2017-04-27T12:43:31Z</time>
      </trkpt>
      <trkpt lat="49.20488" lon="1.28527">
        <ele>10</ele>
        <time>2017-04-27T12:43:47Z</time>
      </trkpt>
      <trkpt lat="49.2049" lon="1.28536">
        <ele>10</ele>
        <time>2017-04-27T12:43:47Z</time>
      </trkpt>
      <trkpt lat="49.20492" lon="1.28543">
        <ele>10</ele>
        <time>2017-04-27T12:43:47Z</time>
      </trkpt>
      <trkpt lat="49.20492" lon="1.28548">
        <ele>10</ele>
        <time>2017-04-27T12:43:47Z</time>
      </trkpt>
      <trkpt lat="49.20496" lon="1.28563">
        <ele>10</ele>
        <time>2017-04-27T12:44:23Z</time>
      </trkpt>
      <trkpt lat="49.20496" lon="1.28565">
        <ele>10</ele>
        <time>2017-04-27T12:44:23Z</time>
      </trkpt>
      <trkpt lat="49.20498" lon="1.28574">
        <ele>10</ele>
        <time>2017-04-27T12:44:23Z</time>
      </trkpt>
      <trkpt lat="49.205" lon="1.28585">
        <ele>10</ele>
        <time>2017-04-27T12:44:23Z</time>
      </trkpt>
      <trkpt lat="49.20501" lon="1.28589">
        <ele>10</ele>
        <time>2017-04-27T12:44:23Z</time>
      </trkpt>
      <trkpt lat="49.20503" lon="1.28595">
        <ele>10</ele>
        <time>2017-04-27T12:44:39Z</time>
      </trkpt>
      <trkpt lat="49.20504" lon="1.28603">
        <ele>10</ele>
        <time>2017-04-27T12:44:39Z</time>
      </trkpt>
      <trkpt lat="49.20505" lon="1.2861">
        <ele>10</ele>
        <time>2017-04-27T12:44:39Z</time>
      </trkpt>
      <trkpt lat="49.20506" lon="1.28615">
        <ele>10</ele>
        <time>2017-04-27T12:44:39Z</time>
      </trkpt>
      <trkpt lat="49.20508" lon="1.28625">
        <ele>9</ele>
        <time>2017-04-27T12:44:55Z</time>
      </trkpt>
      <trkpt lat="49.2051" lon="1.28633">
        <ele>9</ele>
        <time>2017-04-27T12:44:55Z</time>
      </trkpt>
      <trkpt lat="49.20511" lon="1.28641">
        <ele>9</ele>
        <time>2017-04-27T12:44:55Z</time>
      </trkpt>
      <trkpt lat="49.20512" lon="1.28649">
        <ele>9</ele>
        <time>2017-04-27T12:44:55Z</time>
      </trkpt>
      <trkpt lat="49.20513" lon="1.28656">
        <ele>9</ele>
        <time>2017-04-27T12:45:11Z</time>
      </trkpt>
      <trkpt lat="49.20514" lon="1.28664">
        <ele>9</ele>
        <time>2017-04-27T12:45:11Z</time>
      </trkpt>
      <trkpt lat="49.20516" lon="1.28671">
        <ele>9</ele>
        <time>2017-04-27T12:45:11Z</time>
      </trkpt>
      <trkpt lat="49.20517" lon="1.28676">
        <ele>9</ele>
        <time>2017-04-27T12:45:11Z</time>
      </trkpt>
      <trkpt lat="49.2052" lon="1.28684">
        <ele>9</ele>
        <time>2017-04-27T12:45:27Z</time>
      </trkpt>
      <trkpt lat="49.20522" lon="1.28691">
        <ele>9</ele>
        <time>2017-04-27T12:45:27Z</time>
      </trkpt>
      <trkpt lat="49.20524" lon="1.28695">
        <ele>9</ele>
        <time>2017-04-27T12:45:27Z</time>
      </trkpt>
      <trkpt lat="49.20526" lon="1.28704">
        <ele>9</ele>
        <time>2017-04-27T12:45:27Z</time>
      </trkpt>
      <trkpt lat="49.20527" lon="1.28711">
        <ele>10</ele>
        <time>2017-04-27T12:45:43Z</time>
      </trkpt>
      <trkpt lat="49.20529" lon="1.28719">
        <ele>10</ele>
        <time>2017-04-27T12:45:43Z</time>
      </trkpt>
      <trkpt lat="49.20532" lon="1.28725">
        <ele>10</ele>
        <time>2017-04-27T12:45:43Z</time>
      </trkpt>
      <trkpt lat="49.20535" lon="1.28731">
        <ele>10</ele>
        <time>2017-04-27T12:45:43Z</time>
      </trkpt>
      <trkpt lat="49.20537" lon="1.28738">
        <ele>10</ele>
        <time>2017-04-27T12:45:59Z</time>
      </trkpt>
      <trkpt lat="49.2054" lon="1.28744">
        <ele>10</ele>
        <time>2017-04-27T12:45:59Z</time>
      </trkpt>
      <trkpt lat="49.20542" lon="1.28751">
        <ele>6</ele>
        <time>2017-04-27T12:45:59Z</time>
      </trkpt>
      <trkpt lat="49.20544" lon="1.28756">
        <ele>6</ele>
        <time>2017-04-27T12:45:59Z</time>
      </trkpt>
      <trkpt lat="49.20547" lon="1.28765">
        <ele>6</ele>
        <time>2017-04-27T12:46:15Z</time>
      </trkpt>
      <trkpt lat="49.20549" lon="1.28772">
        <ele>6</ele>
        <time>2017-04-27T12:46:15Z</time>
      </trkpt>
      <trkpt lat="49.20551" lon="1.2878">
        <ele>6</ele>
        <time>2017-04-27T12:46:15Z</time>
      </trkpt>
      <trkpt lat="49.20554" lon="1.28787">
        <ele>6</ele>
        <time>2017-04-27T12:46:15Z</time>
      </trkpt>
      <trkpt lat="49.20557" lon="1.28794">
        <ele>11</ele>
        <time>2017-04-27T12:46:31Z</time>
      </trkpt>
      <trkpt lat="49.2056" lon="1.28798">
        <ele>11</ele>
        <time>2017-04-27T12:46:31Z</time>
      </trkpt>
      <trkpt lat="49.20563" lon="1.28806">
        <ele>11</ele>
        <time>2017-04-27T12:46:31Z</time>
      </trkpt>
      <trkpt lat="49.20566" lon="1.2881">
        <ele>11</ele>
        <time>2017-04-27T12:46:31Z</time>
      </trkpt>
      <trkpt lat="49.20569" lon="1.28818">
        <ele>11</ele>
        <time>2017-04-27T12:46:47Z</time>
      </trkpt>
      <trkpt lat="49.20573" lon="1.28825">
        <ele>11</ele>
        <time>2017-04-27T12:46:47Z</time>
      </trkpt>
      <trkpt lat="49.20575" lon="1.28832">
        <ele>11</ele>
        <time>2017-04-27T12:46:47Z</time>
      </trkpt>
      <trkpt lat="49.20578" lon="1.28839">
        <ele>11</ele>
        <time>2017-04-27T12:46:47Z</time>
      </trkpt>
      <trkpt lat="49.20581" lon="1.28847">
        <ele>11</ele>
        <time>2017-04-27T12:47:03Z</time>
      </trkpt>
      <trkpt lat="49.20585" lon="1.28853">
        <ele>11</ele>
        <time>2017-04-27T12:47:03Z</time>
      </trkpt>
      <trkpt lat="49.20587" lon="1.28857">
        <ele>11</ele>
        <time>2017-04-27T12:47:03Z</time>
      </trkpt>
      <trkpt lat="49.20589" lon="1.28863">
        <ele>11</ele>
        <time>2017-04-27T12:47:03Z</time>
      </trkpt>
      <trkpt lat="49.20593" lon="1.28869">
        <ele>11</ele>
        <time>2017-04-27T12:47:19Z</time>
      </trkpt>
      <trkpt lat="49.20596" lon="1.28877">
        <ele>10</ele>
        <time>2017-04-27T12:47:19Z</time>
      </trkpt>
      <trkpt lat="49.20599" lon="1.28884">
        <ele>10</ele>
        <time>2017-04-27T12:47:19Z</time>
      </trkpt>
      <trkpt lat="49.20602" lon="1.28892">
        <ele>10</ele>
        <time>2017-04-27T12:47:19Z</time>
      </trkpt>
      <trkpt lat="49.20606" lon="1.28899">
        <ele>10</ele>
        <time>2017-04-27T12:47:35Z</time>
      </trkpt>
      <trkpt lat="49.20609" lon="1.28906">
        <ele>10</ele>
        <time>2017-04-27T12:47:35Z</time>
      </trkpt>
      <trkpt lat="49.20612" lon="1.28907">
        <ele>10</ele>
        <time>2017-04-27T12:47:35Z</time>
      </trkpt>
      <trkpt lat="49.20614" lon="1.28907">
        <ele>10</ele>
        <time>2017-04-27T12:47:35Z</time>
      </trkpt>
      <trkpt lat="49.20611" lon="1.28909">
        <ele>10</ele>
        <time>2017-04-27T12:49:27Z</time>
      </trkpt>
      <trkpt lat="49.2061" lon="1.28908">
        <ele>10</ele>
        <time>2017-04-27T12:49:27Z</time>
      </trkpt>
      <trkpt lat="49.2061" lon="1.28913">
        <ele>10</ele>
        <time>2017-04-27T12:49:27Z</time>
      </trkpt>
      <trkpt lat="49.20611" lon="1.28919">
        <ele>10</ele>
        <time>2017-04-27T12:49:27Z</time>
      </trkpt>
      <trkpt lat="49.20614" lon="1.28926">
        <ele>10</ele>
        <time>2017-04-27T12:49:27Z</time>
      </trkpt>
      <trkpt lat="49.20618" lon="1.28933">
        <ele>10</ele>
        <time>2017-04-27T12:49:43Z</time>
      </trkpt>
      <trkpt lat="49.20622" lon="1.28938">
        <ele>10</ele>
        <time>2017-04-27T12:49:43Z</time>
      </trkpt>
      <trkpt lat="49.20626" lon="1.28944">
        <ele>8</ele>
        <time>2017-04-27T12:49:43Z</time>
      </trkpt>
      <trkpt lat="49.20629" lon="1.28953">
        <ele>8</ele>
        <time>2017-04-27T12:49:43Z</time>
      </trkpt>
      <trkpt lat="49.20632" lon="1.28959">
        <ele>10</ele>
        <time>2017-04-27T12:49:59Z</time>
      </trkpt>
      <trkpt lat="49.20637" lon="1.28967">
        <ele>10</ele>
        <time>2017-04-27T12:49:59Z</time>
      </trkpt>
      <trkpt lat="49.20639" lon="1.28972">
        <ele>10</ele>
        <time>2017-04-27T12:49:59Z</time>
      </trkpt>
      <trkpt lat="49.20643" lon="1.28979">
        <ele>10</ele>
        <time>2017-04-27T12:49:59Z</time>
      </trkpt>
      <trkpt lat="49.20645" lon="1.28987">
        <ele>10</ele>
        <time>2017-04-27T12:50:15Z</time>
      </trkpt>
      <trkpt lat="49.20647" lon="1.28992">
        <ele>10</ele>
        <time>2017-04-27T12:50:15Z</time>
      </trkpt>
      <trkpt lat="49.2065" lon="1.28999">
        <ele>10</ele>
        <time>2017-04-27T12:50:15Z</time>
      </trkpt>
      <trkpt lat="49.20653" lon="1.29004">
        <ele>10</ele>
        <time>2017-04-27T12:50:15Z</time>
      </trkpt>
      <trkpt lat="49.20655" lon="1.29012">
        <ele>10</ele>
        <time>2017-04-27T12:50:31Z</time>
      </trkpt>
      <trkpt lat="49.20658" lon="1.29018">
        <ele>10</ele>
        <time>2017-04-27T12:50:31Z</time>
      </trkpt>
      <trkpt lat="49.20661" lon="1.29022">
        <ele>10</ele>
        <time>2017-04-27T12:50:31Z</time>
      </trkpt>
      <trkpt lat="49.20663" lon="1.29026">
        <ele>10</ele>
        <time>2017-04-27T12:50:31Z</time>
      </trkpt>
      <trkpt lat="49.20667" lon="1.29033">
        <ele>10</ele>
        <time>2017-04-27T12:50:47Z</time>
      </trkpt>
      <trkpt lat="49.2067" lon="1.2904">
        <ele>10</ele>
        <time>2017-04-27T12:50:47Z</time>
      </trkpt>
      <trkpt lat="49.20674" lon="1.29044">
        <ele>10</ele>
        <time>2017-04-27T12:50:47Z</time>
      </trkpt>
      <trkpt lat="49.20677" lon="1.29049">
        <ele>10</ele>
        <time>2017-04-27T12:50:47Z</time>
      </trkpt>
      <trkpt lat="49.20682" lon="1.29055">
        <ele>10</ele>
        <time>2017-04-27T12:51:03Z</time>
      </trkpt>
      <trkpt lat="49.20683" lon="1.29062">
        <ele>10</ele>
        <time>2017-04-27T12:51:03Z</time>
      </trkpt>
      <trkpt lat="49.20685" lon="1.29066">
        <ele>10</ele>
        <time>2017-04-27T12:51:03Z</time>
      </trkpt>
      <trkpt lat="49.20688" lon="1.29071">
        <ele>10</ele>
        <time>2017-04-27T12:51:03Z</time>
      </trkpt>
      <trkpt lat="49.20691" lon="1.29076">
        <ele>10</ele>
        <time>2017-04-27T12:51:19Z</time>
      </trkpt>
      <trkpt lat="49.20697" lon="1.29079">
        <ele>10</ele>
        <time>2017-04-27T12:51:19Z</time>
      </trkpt>
      <trkpt lat="49.20699" lon="1.29083">
        <ele>10</ele>
        <time>2017-04-27T12:51:19Z</time>
      </trkpt>
      <trkpt lat="49.20703" lon="1.29094">
        <ele>10</ele>
        <time>2017-04-27T12:51:19Z</time>
      </trkpt>
      <trkpt lat="49.20707" lon="1.29099">
        <ele>10</ele>
        <time>2017-04-27T12:51:35Z</time>
      </trkpt>
      <trkpt lat="49.20709" lon="1.29104">
        <ele>11</ele>
        <time>2017-04-27T12:51:35Z</time>
      </trkpt>
      <trkpt lat="49.20713" lon="1.29108">
        <ele>11</ele>
        <time>2017-04-27T12:51:35Z</time>
      </trkpt>
      <trkpt lat="49.20716" lon="1.29113">
        <ele>11</ele>
        <time>2017-04-27T12:51:35Z</time>
      </trkpt>
      <trkpt lat="49.20719" lon="1.29117">
        <ele>11</ele>
        <time>2017-04-27T12:51:51Z</time>
      </trkpt>
      <trkpt lat="49.20724" lon="1.29122">
        <ele>11</ele>
        <time>2017-04-27T12:51:51Z</time>
      </trkpt>
      <trkpt lat="49.20729" lon="1.29129">
        <ele>12</ele>
        <time>2017-04-27T12:51:51Z</time>
      </trkpt>
      <trkpt lat="49.20732" lon="1.29133">
        <ele>12</ele>
        <time>2017-04-27T12:51:51Z</time>
      </trkpt>
      <trkpt lat="49.20734" lon="1.29137">
        <ele>12</ele>
        <time>2017-04-27T12:52:07Z</time>
      </trkpt>
      <trkpt lat="49.20737" lon="1.29142">
        <ele>12</ele>
        <time>2017-04-27T12:52:07Z</time>
      </trkpt>
      <trkpt lat="49.20741" lon="1.29149">
        <ele>12</ele>
        <time>2017-04-27T12:52:07Z</time>
      </trkpt>
      <trkpt lat="49.20744" lon="1.29155">
        <ele>12</ele>
        <time>2017-04-27T12:52:07Z</time>
      </trkpt>
      <trkpt lat="49.20747" lon="1.29162">
        <ele>12</ele>
        <time>2017-04-27T12:52:23Z</time>
      </trkpt>
      <trkpt lat="49.2075" lon="1.29169">
        <ele>12</ele>
        <time>2017-04-27T12:52:23Z</time>
      </trkpt>
      <trkpt lat="49.20753" lon="1.29174">
        <ele>12</ele>
        <time>2017-04-27T12:52:23Z</time>
      </trkpt>
      <trkpt lat="49.20757" lon="1.2918">
        <ele>12</ele>
        <time>2017-04-27T12:52:23Z</time>
      </trkpt>
      <trkpt lat="49.2076" lon="1.29184">
        <ele>12</ele>
        <time>2017-04-27T12:52:39Z</time>
      </trkpt>
      <trkpt lat="49.20765" lon="1.2919">
        <ele>12</ele>
        <time>2017-04-27T12:52:39Z</time>
      </trkpt>
      <trkpt lat="49.2077" lon="1.29195">
        <ele>12</ele>
        <time>2017-04-27T12:52:39Z</time>
      </trkpt>
      <trkpt lat="49.20774" lon="1.292">
        <ele>12</ele>
        <time>2017-04-27T12:52:39Z</time>
      </trkpt>
      <trkpt lat="49.20779" lon="1.29206">
        <ele>12</ele>
        <time>2017-04-27T12:52:55Z</time>
      </trkpt>
      <trkpt lat="49.20781" lon="1.2921">
        <ele>11</ele>
        <time>2017-04-27T12:52:55Z</time>
      </trkpt>
      <trkpt lat="49.20785" lon="1.29215">
        <ele>11</ele>
        <time>2017-04-27T12:52:55Z</time>
      </trkpt>
      <trkpt lat="49.20788" lon="1.2922">
        <ele>11</ele>
        <time>2017-04-27T12:52:55Z</time>
      </trkpt>
      <trkpt lat="49.20791" lon="1.29225">
        <ele>11</ele>
        <time>2017-04-27T12:53:11Z</time>
      </trkpt>
      <trkpt lat="49.20793" lon="1.29228">
        <ele>15</ele>
        <time>2017-04-27T12:53:11Z</time>
      </trkpt>
      <trkpt lat="49.20798" lon="1.29233">
        <ele>15</ele>
        <time>2017-04-27T12:53:11Z</time>
      </trkpt>
      <trkpt lat="49.208" lon="1.29236">
        <ele>15</ele>
        <time>2017-04-27T12:53:11Z</time>
      </trkpt>
      <trkpt lat="49.20805" lon="1.29245">
        <ele>15</ele>
        <time>2017-04-27T12:53:27Z</time>
      </trkpt>
      <trkpt lat="49.2081" lon="1.29249">
        <ele>15</ele>
        <time>2017-04-27T12:53:27Z</time>
      </trkpt>
      <trkpt lat="49.20812" lon="1.29252">
        <ele>15</ele>
        <time>2017-04-27T12:53:27Z</time>
      </trkpt>
      <trkpt lat="49.20816" lon="1.29257">
        <ele>15</ele>
        <time>2017-04-27T12:53:27Z</time>
      </trkpt>
      <trkpt lat="49.20818" lon="1.29263">
        <ele>15</ele>
        <time>2017-04-27T12:53:43Z</time>
      </trkpt>
      <trkpt lat="49.20821" lon="1.29268">
        <ele>15</ele>
        <time>2017-04-27T12:53:43Z</time>
      </trkpt>
      <trkpt lat="49.20824" lon="1.29276">
        <ele>15</ele>
        <time>2017-04-27T12:53:43Z</time>
      </trkpt>
      <trkpt lat="49.20827" lon="1.29281">
        <ele>15</ele>
        <time>2017-04-27T12:53:43Z</time>
      </trkpt>
      <trkpt lat="49.2083" lon="1.29287">
        <ele>15</ele>
        <time>2017-04-27T12:53:59Z</time>
      </trkpt>
      <trkpt lat="49.20833" lon="1.29292">
        <ele>11</ele>
        <time>2017-04-27T12:53:59Z</time>
      </trkpt>
      <trkpt lat="49.20836" lon="1.29296">
        <ele>11</ele>
        <time>2017-04-27T12:53:59Z</time>
      </trkpt>
      <trkpt lat="49.20839" lon="1.29302">
        <ele>11</ele>
        <time>2017-04-27T12:53:59Z</time>
      </trkpt>
      <trkpt lat="49.20844" lon="1.29309">
        <ele>11</ele>
        <time>2017-04-27T12:54:15Z</time>
      </trkpt>
      <trkpt lat="49.20847" lon="1.29314">
        <ele>11</ele>
        <time>2017-04-27T12:54:15Z</time>
      </trkpt>
      <trkpt lat="49.2085" lon="1.29318">
        <ele>11</ele>
        <time>2017-04-27T12:54:15Z</time>
      </trkpt>
      <trkpt lat="49.20853" lon="1.29324">
        <ele>11</ele>
        <time>2017-04-27T12:54:15Z</time>
      </trkpt>
      <trkpt lat="49.20856" lon="1.29329">
        <ele>11</ele>
        <time>2017-04-27T12:54:31Z</time>
      </trkpt>
      <trkpt lat="49.20861" lon="1.29335">
        <ele>11</ele>
        <time>2017-04-27T12:54:31Z</time>
      </trkpt>
      <trkpt lat="49.20865" lon="1.2934">
        <ele>11</ele>
        <time>2017-04-27T12:54:31Z</time>
      </trkpt>
      <trkpt lat="49.2087" lon="1.29344">
        <ele>11</ele>
        <time>2017-04-27T12:54:31Z</time>
      </trkpt>
      <trkpt lat="49.20874" lon="1.2935">
        <ele>11</ele>
        <time>2017-04-27T12:54:47Z</time>
      </trkpt>
      <trkpt lat="49.20878" lon="1.29356">
        <ele>13</ele>
        <time>2017-04-27T12:54:47Z</time>
      </trkpt>
      <trkpt lat="49.20882" lon="1.29362">
        <ele>13</ele>
        <time>2017-04-27T12:54:47Z</time>
      </trkpt>
      <trkpt lat="49.20885" lon="1.29368">
        <ele>13</ele>
        <time>2017-04-27T12:54:47Z</time>
      </trkpt>
      <trkpt lat="49.20888" lon="1.29374">
        <ele>13</ele>
        <time>2017-04-27T12:55:03Z</time>
      </trkpt>
      <trkpt lat="49.20892" lon="1.2938">
        <ele>12</ele>
        <time>2017-04-27T12:55:03Z</time>
      </trkpt>
      <trkpt lat="49.20897" lon="1.29386">
        <ele>12</ele>
        <time>2017-04-27T12:55:03Z</time>
      </trkpt>
      <trkpt lat="49.209" lon="1.29391">
        <ele>12</ele>
        <time>2017-04-27T12:55:03Z</time>
      </trkpt>
      <trkpt lat="49.20903" lon="1.29394">
        <ele>12</ele>
        <time>2017-04-27T12:55:19Z</time>
      </trkpt>
      <trkpt lat="49.20907" lon="1.29402">
        <ele>12</ele>
        <time>2017-04-27T12:55:19Z</time>
      </trkpt>
      <trkpt lat="49.20911" lon="1.29408">
        <ele>12</ele>
        <time>2017-04-27T12:55:19Z</time>
      </trkpt>
      <trkpt lat="49.20913" lon="1.29412">
        <ele>12</ele>
        <time>2017-04-27T12:55:19Z</time>
      </trkpt>
      <trkpt lat="49.20918" lon="1.29417">
        <ele>12</ele>
        <time>2017-04-27T12:55:35Z</time>
      </trkpt>
      <trkpt lat="49.2092" lon="1.29424">
        <ele>12</ele>
        <time>2017-04-27T12:55:35Z</time>
      </trkpt>
      <trkpt lat="49.20923" lon="1.29429">
        <ele>12</ele>
        <time>2017-04-27T12:55:35Z</time>
      </trkpt>
      <trkpt lat="49.20924" lon="1.29436">
        <ele>12</ele>
        <time>2017-04-27T12:55:35Z</time>
      </trkpt>
      <trkpt lat="49.20927" lon="1.29442">
        <ele>12</ele>
        <time>2017-04-27T12:55:51Z</time>
      </trkpt>
      <trkpt lat="49.20929" lon="1.29445">
        <ele>12</ele>
        <time>2017-04-27T12:55:51Z</time>
      </trkpt>
      <trkpt lat="49.20933" lon="1.29452">
        <ele>12</ele>
        <time>2017-04-27T12:55:51Z</time>
      </trkpt>
      <trkpt lat="49.20937" lon="1.29457">
        <ele>12</ele>
        <time>2017-04-27T12:55:51Z</time>
      </trkpt>
      <trkpt lat="49.2094" lon="1.29462">
        <ele>11</ele>
        <time>2017-04-27T12:56:07Z</time>
      </trkpt>
      <trkpt lat="49.20946" lon="1.2947">
        <ele>11</ele>
        <time>2017-04-27T12:56:07Z</time>
      </trkpt>
      <trkpt lat="49.2095" lon="1.29474">
        <ele>11</ele>
        <time>2017-04-27T12:56:07Z</time>
      </trkpt>
      <trkpt lat="49.20953" lon="1.2948">
        <ele>11</ele>
        <time>2017-04-27T12:56:07Z</time>
      </trkpt>
      <trkpt lat="49.20957" lon="1.29486">
        <ele>11</ele>
        <time>2017-04-27T12:56:23Z</time>
      </trkpt>
      <trkpt lat="49.2096" lon="1.29491">
        <ele>14</ele>
        <time>2017-04-27T12:56:23Z</time>
      </trkpt>
      <trkpt lat="49.20964" lon="1.29496">
        <ele>14</ele>
        <time>2017-04-27T12:56:23Z</time>
      </trkpt>
      <trkpt lat="49.20967" lon="1.29501">
        <ele>14</ele>
        <time>2017-04-27T12:56:23Z</time>
      </trkpt>
      <trkpt lat="49.2097" lon="1.29506">
        <ele>14</ele>
        <time>2017-04-27T12:56:39Z</time>
      </trkpt>
      <trkpt lat="49.20973" lon="1.29513">
        <ele>14</ele>
        <time>2017-04-27T12:56:39Z</time>
      </trkpt>
      <trkpt lat="49.20976" lon="1.29517">
        <ele>14</ele>
        <time>2017-04-27T12:56:39Z</time>
      </trkpt>
      <trkpt lat="49.20978" lon="1.29522">
        <ele>14</ele>
        <time>2017-04-27T12:56:39Z</time>
      </trkpt>
      <trkpt lat="49.20981" lon="1.29527">
        <ele>14</ele>
        <time>2017-04-27T12:56:55Z</time>
      </trkpt>
      <trkpt lat="49.20985" lon="1.29534">
        <ele>14</ele>
        <time>2017-04-27T12:56:55Z</time>
      </trkpt>
      <trkpt lat="49.20988" lon="1.2954">
        <ele>14</ele>
        <time>2017-04-27T12:56:55Z</time>
      </trkpt>
      <trkpt lat="49.20992" lon="1.29546">
        <ele>10</ele>
        <time>2017-04-27T12:56:55Z</time>
      </trkpt>
      <trkpt lat="49.20996" lon="1.29551">
        <ele>10</ele>
        <time>2017-04-27T12:57:11Z</time>
      </trkpt>
      <trkpt lat="49.21001" lon="1.29558">
        <ele>10</ele>
        <time>2017-04-27T12:57:11Z</time>
      </trkpt>
      <trkpt lat="49.21005" lon="1.29563">
        <ele>10</ele>
        <time>2017-04-27T12:57:11Z</time>
      </trkpt>
      <trkpt lat="49.21008" lon="1.29568">
        <ele>10</ele>
        <time>2017-04-27T12:57:11Z</time>
      </trkpt>
      <trkpt lat="49.21011" lon="1.29574">
        <ele>10</ele>
        <time>2017-04-27T12:57:27Z</time>
      </trkpt>
      <trkpt lat="49.21012" lon="1.29578">
        <ele>10</ele>
        <time>2017-04-27T12:57:27Z</time>
      </trkpt>
      <trkpt lat="49.21015" lon="1.29586">
        <ele>10</ele>
        <time>2017-04-27T12:57:27Z</time>
      </trkpt>
      <trkpt lat="49.21018" lon="1.29591">
        <ele>10</ele>
        <time>2017-04-27T12:57:27Z</time>
      </trkpt>
      <trkpt lat="49.21023" lon="1.29597">
        <ele>10</ele>
        <time>2017-04-27T12:57:43Z</time>
      </trkpt>
      <trkpt lat="49.21027" lon="1.29603">
        <ele>10</ele>
        <time>2017-04-27T12:57:43Z</time>
      </trkpt>
      <trkpt lat="49.21029" lon="1.29609">
        <ele>10</ele>
        <time>2017-04-27T12:57:43Z</time>
      </trkpt>
      <trkpt lat="49.21032" lon="1.29614">
        <ele>10</ele>
        <time>2017-04-27T12:57:43Z</time>
      </trkpt>
      <trkpt lat="49.21035" lon="1.2962">
        <ele>10</ele>
        <time>2017-04-27T12:57:59Z</time>
      </trkpt>
      <trkpt lat="49.21038" lon="1.29626">
        <ele>8</ele>
        <time>2017-04-27T12:57:59Z</time>
      </trkpt>
      <trkpt lat="49.21042" lon="1.29632">
        <ele>11</ele>
        <time>2017-04-27T12:57:59Z</time>
      </trkpt>
      <trkpt lat="49.21046" lon="1.29638">
        <ele>11</ele>
        <time>2017-04-27T12:57:59Z</time>
      </trkpt>
      <trkpt lat="49.21049" lon="1.29644">
        <ele>11</ele>
        <time>2017-04-27T12:58:15Z</time>
      </trkpt>
      <trkpt lat="49.21053" lon="1.29648">
        <ele>11</ele>
        <time>2017-04-27T12:58:15Z</time>
      </trkpt>
      <trkpt lat="49.21058" lon="1.29654">
        <ele>11</ele>
        <time>2017-04-27T12:58:15Z</time>
      </trkpt>
      <trkpt lat="49.2106" lon="1.29661">
        <ele>11</ele>
        <time>2017-04-27T12:58:15Z</time>
      </trkpt>
      <trkpt lat="49.21065" lon="1.29667">
        <ele>11</ele>
        <time>2017-04-27T12:58:31Z</time>
      </trkpt>
      <trkpt lat="49.21068" lon="1.29672">
        <ele>11</ele>
        <time>2017-04-27T12:58:31Z</time>
      </trkpt>
      <trkpt lat="49.21071" lon="1.29678">
        <ele>11</ele>
        <time>2017-04-27T12:58:31Z</time>
      </trkpt>
      <trkpt lat="49.21075" lon="1.29682">
        <ele>11</ele>
        <time>2017-04-27T12:58:31Z</time>
      </trkpt>
      <trkpt lat="49.21079" lon="1.29689">
        <ele>11</ele>
        <time>2017-04-27T12:58:47Z</time>
      </trkpt>
      <trkpt lat="49.21084" lon="1.29696">
        <ele>11</ele>
        <time>2017-04-27T12:58:47Z</time>
      </trkpt>
      <trkpt lat="49.21087" lon="1.29701">
        <ele>11</ele>
        <time>2017-04-27T12:58:47Z</time>
      </trkpt>
      <trkpt lat="49.2109" lon="1.29706">
        <ele>11</ele>
        <time>2017-04-27T12:58:47Z</time>
      </trkpt>
      <trkpt lat="49.21092" lon="1.29712">
        <ele>11</ele>
        <time>2017-04-27T12:59:03Z</time>
      </trkpt>
      <trkpt lat="49.21094" lon="1.29717">
        <ele>11</ele>
        <time>2017-04-27T12:59:03Z</time>
      </trkpt>
      <trkpt lat="49.21097" lon="1.29721">
        <ele>11</ele>
        <time>2017-04-27T12:59:03Z</time>
      </trkpt>
      <trkpt lat="49.211" lon="1.29725">
        <ele>11</ele>
        <time>2017-04-27T12:59:03Z</time>
      </trkpt>
      <trkpt lat="49.21101" lon="1.29732">
        <ele>11</ele>
        <time>2017-04-27T12:59:19Z</time>
      </trkpt>
      <trkpt lat="49.21105" lon="1.29739">
        <ele>11</ele>
        <time>2017-04-27T12:59:19Z</time>
      </trkpt>
      <trkpt lat="49.2111" lon="1.29744">
        <ele>11</ele>
        <time>2017-04-27T12:59:19Z</time>
      </trkpt>
      <trkpt lat="49.21113" lon="1.2975">
        <ele>11</ele>
        <time>2017-04-27T12:59:19Z</time>
      </trkpt>
      <trkpt lat="49.21118" lon="1.29754">
        <ele>11</ele>
        <time>2017-04-27T12:59:35Z</time>
      </trkpt>
      <trkpt lat="49.21122" lon="1.29759">
        <ele>11</ele>
        <time>2017-04-27T12:59:35Z</time>
      </trkpt>
      <trkpt lat="49.21126" lon="1.29765">
        <ele>12</ele>
        <time>2017-04-27T12:59:35Z</time>
      </trkpt>
      <trkpt lat="49.21128" lon="1.29772">
        <ele>12</ele>
        <time>2017-04-27T12:59:35Z</time>
      </trkpt>
      <trkpt lat="49.2113" lon="1.29777">
        <ele>12</ele>
        <time>2017-04-27T12:59:51Z</time>
      </trkpt>
      <trkpt lat="49.21134" lon="1.29782">
        <ele>12</ele>
        <time>2017-04-27T12:59:51Z</time>
      </trkpt>
      <trkpt lat="49.21139" lon="1.29788">
        <ele>12</ele>
        <time>2017-04-27T12:59:51Z</time>
      </trkpt>
      <trkpt lat="49.21144" lon="1.29796">
        <ele>11</ele>
        <time>2017-04-27T12:59:51Z</time>
      </trkpt>
      <trkpt lat="49.21148" lon="1.29802">
        <ele>11</ele>
        <time>2017-04-27T13:00:07Z</time>
      </trkpt>
      <trkpt lat="49.2115" lon="1.29809">
        <ele>11</ele>
        <time>2017-04-27T13:00:07Z</time>
      </trkpt>
      <trkpt lat="49.21153" lon="1.29814">
        <ele>11</ele>
        <time>2017-04-27T13:00:07Z</time>
      </trkpt>
      <trkpt lat="49.21157" lon="1.29819">
        <ele>11</ele>
        <time>2017-04-27T13:00:07Z</time>
      </trkpt>
      <trkpt lat="49.2116" lon="1.29824">
        <ele>11</ele>
        <time>2017-04-27T13:00:23Z</time>
      </trkpt>
      <trkpt lat="49.21163" lon="1.29831">
        <ele>11</ele>
        <time>2017-04-27T13:00:23Z</time>
      </trkpt>
      <trkpt lat="49.21167" lon="1.29838">
        <ele>11</ele>
        <time>2017-04-27T13:00:23Z</time>
      </trkpt>
      <trkpt lat="49.21169" lon="1.2984">
        <ele>11</ele>
        <time>2017-04-27T13:00:23Z</time>
      </trkpt>
      <trkpt lat="49.21175" lon="1.29845">
        <ele>11</ele>
        <time>2017-04-27T13:00:39Z</time>
      </trkpt>
      <trkpt lat="49.21179" lon="1.29852">
        <ele>11</ele>
        <time>2017-04-27T13:00:39Z</time>
      </trkpt>
      <trkpt lat="49.21182" lon="1.29858">
        <ele>11</ele>
        <time>2017-04-27T13:00:39Z</time>
      </trkpt>
      <trkpt lat="49.21184" lon="1.29863">
        <ele>11</ele>
        <time>2017-04-27T13:00:39Z</time>
      </trkpt>
      <trkpt lat="49.21186" lon="1.29871">
        <ele>11</ele>
        <time>2017-04-27T13:00:55Z</time>
      </trkpt>
      <trkpt lat="49.21191" lon="1.29878">
        <ele>10</ele>
        <time>2017-04-27T13:00:55Z</time>
      </trkpt>
      <trkpt lat="49.21195" lon="1.29882">
        <ele>10</ele>
        <time>2017-04-27T13:00:55Z</time>
      </trkpt>
      <trkpt lat="49.21198" lon="1.29889">
        <ele>10</ele>
        <time>2017-04-27T13:00:55Z</time>
      </trkpt>
      <trkpt lat="49.212" lon="1.29892">
        <ele>10</ele>
        <time>2017-04-27T13:01:11Z</time>
      </trkpt>
      <trkpt lat="49.21204" lon="1.29899">
        <ele>10</ele>
        <time>2017-04-27T13:01:11Z</time>
      </trkpt>
      <trkpt lat="49.21207" lon="1.29904">
        <ele>10</ele>
        <time>2017-04-27T13:01:11Z</time>
      </trkpt>
      <trkpt lat="49.2121" lon="1.29909">
        <ele>15</ele>
        <time>2017-04-27T13:01:11Z</time>
      </trkpt>
      <trkpt lat="49.21213" lon="1.29914">
        <ele>15</ele>
        <time>2017-04-27T13:01:27Z</time>
      </trkpt>
      <trkpt lat="49.21215" lon="1.2992">
        <ele>15</ele>
        <time>2017-04-27T13:01:27Z</time>
      </trkpt>
      <trkpt lat="49.2122" lon="1.29927">
        <ele>15</ele>
        <time>2017-04-27T13:01:27Z</time>
      </trkpt>
      <trkpt lat="49.21225" lon="1.29933">
        <ele>15</ele>
        <time>2017-04-27T13:01:27Z</time>
      </trkpt>
      <trkpt lat="49.21229" lon="1.29941">
        <ele>15</ele>
        <time>2017-04-27T13:01:43Z</time>
      </trkpt>
      <trkpt lat="49.21234" lon="1.29945">
        <ele>15</ele>
        <time>2017-04-27T13:01:43Z</time>
      </trkpt>
      <trkpt lat="49.21237" lon="1.29949">
        <ele>15</ele>
        <time>2017-04-27T13:01:43Z</time>
      </trkpt>
      <trkpt lat="49.2124" lon="1.29956">
        <ele>15</ele>
        <time>2017-04-27T13:01:43Z</time>
      </trkpt>
      <trkpt lat="49.21243" lon="1.29963">
        <ele>12</ele>
        <time>2017-04-27T13:01:59Z</time>
      </trkpt>
      <trkpt lat="49.21247" lon="1.29969">
        <ele>12</ele>
        <time>2017-04-27T13:01:59Z</time>
      </trkpt>
      <trkpt lat="49.21249" lon="1.29973">
        <ele>12</ele>
        <time>2017-04-27T13:01:59Z</time>
      </trkpt>
      <trkpt lat="49.21254" lon="1.2998">
        <ele>12</ele>
        <time>2017-04-27T13:01:59Z</time>
      </trkpt>
      <trkpt lat="49.21258" lon="1.29985">
        <ele>12</ele>
        <time>2017-04-27T13:02:15Z</time>
      </trkpt>
      <trkpt lat="49.21261" lon="1.2999">
        <ele>12</ele>
        <time>2017-04-27T13:02:15Z</time>
      </trkpt>
      <trkpt lat="49.21263" lon="1.29993">
        <ele>12</ele>
        <time>2017-04-27T13:02:15Z</time>
      </trkpt>
      <trkpt lat="49.21266" lon="1.29999">
        <ele>12</ele>
        <time>2017-04-27T13:02:15Z</time>
      </trkpt>
      <trkpt lat="49.21268" lon="1.30003">
        <ele>12</ele>
        <time>2017-04-27T13:02:31Z</time>
      </trkpt>
      <trkpt lat="49.21269" lon="1.30008">
        <ele>12</ele>
        <time>2017-04-27T13:02:31Z</time>
      </trkpt>
      <trkpt lat="49.21272" lon="1.30012">
        <ele>12</ele>
        <time>2017-04-27T13:02:31Z</time>
      </trkpt>
      <trkpt lat="49.21274" lon="1.30014">
        <ele>12</ele>
        <time>2017-04-27T13:02:31Z</time>
      </trkpt>
      <trkpt lat="49.21278" lon="1.30004">
        <ele>12</ele>
        <time>2017-04-27T13:03:11Z</time>
      </trkpt>
      <trkpt lat="49.21279" lon="1.30003">
        <ele>12</ele>
        <time>2017-04-27T13:03:11Z</time>
      </trkpt>
      <trkpt lat="49.2128" lon="1.30004">
        <ele>12</ele>
        <time>2017-04-27T13:03:11Z</time>
      </trkpt>
      <trkpt lat="49.21281" lon="1.30004">
        <ele>12</ele>
        <time>2017-04-27T13:03:11Z</time>
      </trkpt>
      <trkpt lat="49.21282" lon="1.30003">
        <ele>12</ele>
        <time>2017-04-27T13:03:11Z</time>
      </trkpt>
      <trkpt lat="49.21281" lon="1.29999">
        <ele>12</ele>
        <time>2017-04-27T13:04:03Z</time>
      </trkpt>
      <trkpt lat="49.21284" lon="1.29996">
        <ele>12</ele>
        <time>2017-04-27T13:04:03Z</time>
      </trkpt>
      <trkpt lat="49.21291" lon="1.29993">
        <ele>12</ele>
        <time>2017-04-27T13:04:03Z</time>
      </trkpt>
      <trkpt lat="49.21296" lon="1.29989">
        <ele>13</ele>
        <time>2017-04-27T13:04:03Z</time>
      </trkpt>
      <trkpt lat="49.21298" lon="1.29988">
        <ele>13</ele>
        <time>2017-04-27T13:04:03Z</time>
      </trkpt>
      <trkpt lat="49.21302" lon="1.29986">
        <ele>13</ele>
        <time>2017-04-27T13:04:19Z</time>
      </trkpt>
      <trkpt lat="49.21307" lon="1.29983">
        <ele>13</ele>
        <time>2017-04-27T13:04:19Z</time>
      </trkpt>
      <trkpt lat="49.21309" lon="1.29982">
        <ele>13</ele>
        <time>2017-04-27T13:04:19Z</time>
      </trkpt>
      <trkpt lat="49.21316" lon="1.2998">
        <ele>13</ele>
        <time>2017-04-27T13:04:19Z</time>
      </trkpt>
      <trkpt lat="49.21325" lon="1.29975">
        <ele>13</ele>
        <time>2017-04-27T13:04:47Z</time>
      </trkpt>
      <trkpt lat="49.21326" lon="1.29976">
        <ele>13</ele>
        <time>2017-04-27T13:04:47Z</time>
      </trkpt>
      <trkpt lat="49.21327" lon="1.2998">
        <ele>13</ele>
        <time>2017-04-27T13:04:47Z</time>
      </trkpt>
      <trkpt lat="49.21329" lon="1.2998">
        <ele>13</ele>
        <time>2017-04-27T13:04:47Z</time>
      </trkpt>
      <trkpt lat="49.21332" lon="1.2998">
        <ele>13</ele>
        <time>2017-04-27T13:04:47Z</time>
      </trkpt>
      <trkpt lat="49.21334" lon="1.29983">
        <ele>13</ele>
        <time>2017-04-27T13:06:03Z</time>
      </trkpt>
      <trkpt lat="49.21332" lon="1.29984">
        <ele>13</ele>
        <time>2017-04-27T13:06:03Z</time>
      </trkpt>
      <trkpt lat="49.21328" lon="1.29984">
        <ele>13</ele>
        <time>2017-04-27T13:06:03Z</time>
      </trkpt>
      <trkpt lat="49.21325" lon="1.29984">
        <ele>13</ele>
        <time>2017-04-27T13:06:03Z</time>
      </trkpt>
      <trkpt lat="49.21324" lon="1.2998">
        <ele>13</ele>
        <time>2017-04-27T13:06:03Z</time>
      </trkpt>
      <trkpt lat="49.21323" lon="1.2998">
        <ele>13</ele>
        <time>2017-04-27T13:06:19Z</time>
      </trkpt>
      <trkpt lat="49.2132" lon="1.2998">
        <ele>13</ele>
        <time>2017-04-27T13:06:19Z</time>
      </trkpt>
      <trkpt lat="49.21317" lon="1.29978">
        <ele>13</ele>
        <time>2017-04-27T13:06:19Z</time>
      </trkpt>
      <trkpt lat="49.21314" lon="1.29977">
        <ele>13</ele>
        <time>2017-04-27T13:06:19Z</time>
      </trkpt>
      <trkpt lat="49.21315" lon="1.29982">
        <ele>13</ele>
        <time>2017-04-27T13:06:47Z</time>
      </trkpt>
      <trkpt lat="49.21316" lon="1.29982">
        <ele>13</ele>
        <time>2017-04-27T13:06:47Z</time>
      </trkpt>
      <trkpt lat="49.21318" lon="1.29985">
        <ele>13</ele>
        <time>2017-04-27T13:06:47Z</time>
      </trkpt>
      <trkpt lat="49.2132" lon="1.29987">
        <ele>13</ele>
        <time>2017-04-27T13:06:47Z</time>
      </trkpt>
      <trkpt lat="49.21324" lon="1.29988">
        <ele>13</ele>
        <time>2017-04-27T13:06:47Z</time>
      </trkpt>
      <trkpt lat="49.2133" lon="1.29984">
        <ele>13</ele>
        <time>2017-04-27T13:13:03Z</time>
      </trkpt>
      <trkpt lat="49.21332" lon="1.29983">
        <ele>13</ele>
        <time>2017-04-27T13:13:03Z</time>
      </trkpt>
      <trkpt lat="49.21335" lon="1.29982">
        <ele>13</ele>
        <time>2017-04-27T13:13:03Z</time>
      </trkpt>
      <trkpt lat="49.21336" lon="1.29982">
        <ele>13</ele>
        <time>2017-04-27T13:13:03Z</time>
      </trkpt>
      <trkpt lat="49.21337" lon="1.29982">
        <ele>13</ele>
        <time>2017-04-27T13:13:03Z</time>
      </trkpt>
      <trkpt lat="49.21329" lon="1.29978">
        <ele>13</ele>
        <time>2017-04-27T13:37:51Z</time>
      </trkpt>
      <trkpt lat="49.21329" lon="1.29978">
        <ele>13</ele>
        <time>2017-04-27T13:37:51Z</time>
      </trkpt>
      <trkpt lat="49.21328" lon="1.29986">
        <ele>13</ele>
        <time>2017-04-27T13:37:51Z</time>
      </trkpt>
      <trkpt lat="49.21328" lon="1.30004">
        <ele>13</ele>
        <time>2017-04-27T13:37:51Z</time>
      </trkpt>
      <trkpt lat="49.21327" lon="1.30014">
        <ele>13</ele>
        <time>2017-04-27T13:37:51Z</time>
      </trkpt>
      <trkpt lat="49.21332" lon="1.30005">
        <ele>13</ele>
        <time>2017-04-27T13:38:39Z</time>
      </trkpt>
      <trkpt lat="49.21336" lon="1.30003">
        <ele>13</ele>
        <time>2017-04-27T13:38:39Z</time>
      </trkpt>
      <trkpt lat="49.2134" lon="1.30004">
        <ele>13</ele>
        <time>2017-04-27T13:38:39Z</time>
      </trkpt>
      <trkpt lat="49.21341" lon="1.30002">
        <ele>13</ele>
        <time>2017-04-27T13:38:39Z</time>
      </trkpt>
      <trkpt lat="49.21342" lon="1.30002">
        <ele>13</ele>
        <time>2017-04-27T13:38:39Z</time>
      </trkpt>
      <trkpt lat="49.21344" lon="1.29999">
        <ele>13</ele>
        <time>2017-04-27T13:39:31Z</time>
      </trkpt>
      <trkpt lat="49.21345" lon="1.3">
        <ele>13</ele>
        <time>2017-04-27T13:39:31Z</time>
      </trkpt>
      <trkpt lat="49.21339" lon="1.30001">
        <ele>13</ele>
        <time>2017-04-27T13:39:31Z</time>
      </trkpt>
      <trkpt lat="49.21336" lon="1.30002">
        <ele>13</ele>
        <time>2017-04-27T13:39:31Z</time>
      </trkpt>
      <trkpt lat="49.21331" lon="1.29999">
        <ele>13</ele>
        <time>2017-04-27T13:39:31Z</time>
      </trkpt>
      <trkpt lat="49.2133" lon="1.29994">
        <ele>13</ele>
        <time>2017-04-27T13:39:51Z</time>
      </trkpt>
      <trkpt lat="49.21329" lon="1.29987">
        <ele>13</ele>
        <time>2017-04-27T13:39:51Z</time>
      </trkpt>
      <trkpt lat="49.21328" lon="1.29983">
        <ele>13</ele>
        <time>2017-04-27T13:39:51Z</time>
      </trkpt>
      <trkpt lat="49.21327" lon="1.29982">
        <ele>13</ele>
        <time>2017-04-27T13:39:51Z</time>
      </trkpt>
      <trkpt lat="49.21326" lon="1.29981">
        <ele>13</ele>
        <time>2017-04-27T13:39:51Z</time>
      </trkpt>
      <trkpt lat="49.21327" lon="1.29985">
        <ele>13</ele>
        <time>2017-04-27T13:46:59Z</time>
      </trkpt>
      <trkpt lat="49.21325" lon="1.29986">
        <ele>13</ele>
        <time>2017-04-27T13:46:59Z</time>
      </trkpt>
      <trkpt lat="49.21322" lon="1.29986">
        <ele>13</ele>
        <time>2017-04-27T13:46:59Z</time>
      </trkpt>
      <trkpt lat="49.21319" lon="1.29985">
        <ele>13</ele>
        <time>2017-04-27T13:46:59Z</time>
      </trkpt>
      <trkpt lat="49.21314" lon="1.29982">
        <ele>13</ele>
        <time>2017-04-27T13:46:59Z</time>
      </trkpt>
      <trkpt lat="49.21307" lon="1.29981">
        <ele>13</ele>
        <time>2017-04-27T13:47:15Z</time>
      </trkpt>
      <trkpt lat="49.21303" lon="1.29981">
        <ele>13</ele>
        <time>2017-04-27T13:47:15Z</time>
      </trkpt>
      <trkpt lat="49.21301" lon="1.29983">
        <ele>13</ele>
        <time>2017-04-27T13:47:15Z</time>
      </trkpt>
      <trkpt lat="49.21297" lon="1.29988">
        <ele>13</ele>
        <time>2017-04-27T13:47:15Z</time>
      </trkpt>
      <trkpt lat="49.21293" lon="1.29994">
        <ele>13</ele>
        <time>2017-04-27T13:47:31Z</time>
      </trkpt>
      <trkpt lat="49.21288" lon="1.3">
        <ele>12</ele>
        <time>2017-04-27T13:47:31Z</time>
      </trkpt>
      <trkpt lat="49.21286" lon="1.30004">
        <ele>12</ele>
        <time>2017-04-27T13:47:31Z</time>
      </trkpt>
      <trkpt lat="49.21283" lon="1.30009">
        <ele>12</ele>
        <time>2017-04-27T13:47:31Z</time>
      </trkpt>
      <trkpt lat="49.21278" lon="1.30013">
        <ele>12</ele>
        <time>2017-04-27T13:47:59Z</time>
      </trkpt>
      <trkpt lat="49.21278" lon="1.30014">
        <ele>12</ele>
        <time>2017-04-27T13:47:59Z</time>
      </trkpt>
      <trkpt lat="49.21274" lon="1.30014">
        <ele>12</ele>
        <time>2017-04-27T13:47:59Z</time>
      </trkpt>
      <trkpt lat="49.2127" lon="1.30014">
        <ele>12</ele>
        <time>2017-04-27T13:47:59Z</time>
      </trkpt>
      <trkpt lat="49.21268" lon="1.30014">
        <ele>12</ele>
        <time>2017-04-27T13:47:59Z</time>
      </trkpt>
      <trkpt lat="49.21267" lon="1.30014">
        <ele>12</ele>
        <time>2017-04-27T13:48:15Z</time>
      </trkpt>
      <trkpt lat="49.21267" lon="1.30023">
        <ele>12</ele>
        <time>2017-04-27T13:48:15Z</time>
      </trkpt>
      <trkpt lat="49.21265" lon="1.30031">
        <ele>12</ele>
        <time>2017-04-27T13:48:15Z</time>
      </trkpt>
      <trkpt lat="49.21265" lon="1.30031">
        <ele>12</ele>
        <time>2017-04-27T13:48:15Z</time>
      </trkpt>
      <trkpt lat="49.21264" lon="1.30032">
        <ele>12</ele>
        <time>2017-04-27T13:48:51Z</time>
      </trkpt>
      <trkpt lat="49.21263" lon="1.30032">
        <ele>12</ele>
        <time>2017-04-27T13:48:51Z</time>
      </trkpt>
      <trkpt lat="49.21263" lon="1.30033">
        <ele>12</ele>
        <time>2017-04-27T13:48:51Z</time>
      </trkpt>
      <trkpt lat="49.21259" lon="1.30036">
        <ele>12</ele>
        <time>2017-04-27T13:48:51Z</time>
      </trkpt>
      <trkpt lat="49.21254" lon="1.30041">
        <ele>12</ele>
        <time>2017-04-27T13:48:51Z</time>
      </trkpt>
      <trkpt lat="49.21251" lon="1.30044">
        <ele>10</ele>
        <time>2017-04-27T13:49:07Z</time>
      </trkpt>
      <trkpt lat="49.21247" lon="1.3005">
        <ele>10</ele>
        <time>2017-04-27T13:49:07Z</time>
      </trkpt>
      <trkpt lat="49.21245" lon="1.30052">
        <ele>10</ele>
        <time>2017-04-27T13:49:07Z</time>
      </trkpt>
      <trkpt lat="49.2124" lon="1.30057">
        <ele>10</ele>
        <time>2017-04-27T13:49:07Z</time>
      </trkpt>
      <trkpt lat="49.21236" lon="1.30061">
        <ele>10</ele>
        <time>2017-04-27T13:49:23Z</time>
      </trkpt>
      <trkpt lat="49.21233" lon="1.30063">
        <ele>10</ele>
        <time>2017-04-27T13:49:23Z</time>
      </trkpt>
      <trkpt lat="49.21229" lon="1.30068">
        <ele>10</ele>
        <time>2017-04-27T13:49:23Z</time>
      </trkpt>
      <trkpt lat="49.21224" lon="1.30073">
        <ele>10</ele>
        <time>2017-04-27T13:49:23Z</time>
      </trkpt>
      <trkpt lat="49.2122" lon="1.30077">
        <ele>10</ele>
        <time>2017-04-27T13:49:39Z</time>
      </trkpt>
      <trkpt lat="49.21217" lon="1.30081">
        <ele>10</ele>
        <time>2017-04-27T13:49:39Z</time>
      </trkpt>
      <trkpt lat="49.21213" lon="1.30085">
        <ele>10</ele>
        <time>2017-04-27T13:49:39Z</time>
      </trkpt>
      <trkpt lat="49.21208" lon="1.30089">
        <ele>8</ele>
        <time>2017-04-27T13:49:39Z</time>
      </trkpt>
      <trkpt lat="49.21204" lon="1.30093">
        <ele>8</ele>
        <time>2017-04-27T13:49:55Z</time>
      </trkpt>
      <trkpt lat="49.21201" lon="1.30097">
        <ele>8</ele>
        <time>2017-04-27T13:49:55Z</time>
      </trkpt>
      <trkpt lat="49.21195" lon="1.30106">
        <ele>8</ele>
        <time>2017-04-27T13:49:55Z</time>
      </trkpt>
      <trkpt lat="49.21192" lon="1.30109">
        <ele>8</ele>
        <time>2017-04-27T13:49:55Z</time>
      </trkpt>
      <trkpt lat="49.21187" lon="1.30115">
        <ele>8</ele>
        <time>2017-04-27T13:50:11Z</time>
      </trkpt>
      <trkpt lat="49.21184" lon="1.30118">
        <ele>8</ele>
        <time>2017-04-27T13:50:11Z</time>
      </trkpt>
      <trkpt lat="49.21181" lon="1.30121">
        <ele>8</ele>
        <time>2017-04-27T13:50:11Z</time>
      </trkpt>
      <trkpt lat="49.21176" lon="1.30127">
        <ele>9</ele>
        <time>2017-04-27T13:50:11Z</time>
      </trkpt>
      <trkpt lat="49.21171" lon="1.30133">
        <ele>9</ele>
        <time>2017-04-27T13:50:27Z</time>
      </trkpt>
      <trkpt lat="49.21168" lon="1.30136">
        <ele>9</ele>
        <time>2017-04-27T13:50:27Z</time>
      </trkpt>
      <trkpt lat="49.21164" lon="1.30141">
        <ele>9</ele>
        <time>2017-04-27T13:50:27Z</time>
      </trkpt>
      <trkpt lat="49.21158" lon="1.30148">
        <ele>9</ele>
        <time>2017-04-27T13:50:27Z</time>
      </trkpt>
      <trkpt lat="49.21155" lon="1.30152">
        <ele>9</ele>
        <time>2017-04-27T13:50:43Z</time>
      </trkpt>
      <trkpt lat="49.21151" lon="1.30155">
        <ele>9</ele>
        <time>2017-04-27T13:50:43Z</time>
      </trkpt>
      <trkpt lat="49.21146" lon="1.30158">
        <ele>9</ele>
        <time>2017-04-27T13:50:43Z</time>
      </trkpt>
      <trkpt lat="49.21143" lon="1.30163">
        <ele>9</ele>
        <time>2017-04-27T13:50:43Z</time>
      </trkpt>
      <trkpt lat="49.21137" lon="1.3017">
        <ele>9</ele>
        <time>2017-04-27T13:50:59Z</time>
      </trkpt>
      <trkpt lat="49.21134" lon="1.30174">
        <ele>9</ele>
        <time>2017-04-27T13:50:59Z</time>
      </trkpt>
      <trkpt lat="49.21131" lon="1.30178">
        <ele>9</ele>
        <time>2017-04-27T13:50:59Z</time>
      </trkpt>
      <trkpt lat="49.21126" lon="1.30183">
        <ele>9</ele>
        <time>2017-04-27T13:50:59Z</time>
      </trkpt>
      <trkpt lat="49.21122" lon="1.30186">
        <ele>8</ele>
        <time>2017-04-27T13:51:15Z</time>
      </trkpt>
      <trkpt lat="49.21118" lon="1.30192">
        <ele>8</ele>
        <time>2017-04-27T13:51:15Z</time>
      </trkpt>
      <trkpt lat="49.21115" lon="1.30196">
        <ele>8</ele>
        <time>2017-04-27T13:51:15Z</time>
      </trkpt>
      <trkpt lat="49.2111" lon="1.302">
        <ele>8</ele>
        <time>2017-04-27T13:51:15Z</time>
      </trkpt>
      <trkpt lat="49.21105" lon="1.30205">
        <ele>8</ele>
        <time>2017-04-27T13:51:31Z</time>
      </trkpt>
      <trkpt lat="49.21101" lon="1.3021">
        <ele>8</ele>
        <time>2017-04-27T13:51:31Z</time>
      </trkpt>
      <trkpt lat="49.21095" lon="1.30217">
        <ele>8</ele>
        <time>2017-04-27T13:51:31Z</time>
      </trkpt>
      <trkpt lat="49.21091" lon="1.30222">
        <ele>8</ele>
        <time>2017-04-27T13:51:31Z</time>
      </trkpt>
      <trkpt lat="49.21088" lon="1.30224">
        <ele>8</ele>
        <time>2017-04-27T13:51:47Z</time>
      </trkpt>
      <trkpt lat="49.21084" lon="1.30227">
        <ele>8</ele>
        <time>2017-04-27T13:51:47Z</time>
      </trkpt>
      <trkpt lat="49.21081" lon="1.30231">
        <ele>8</ele>
        <time>2017-04-27T13:51:47Z</time>
      </trkpt>
      <trkpt lat="49.21076" lon="1.30235">
        <ele>8</ele>
        <time>2017-04-27T13:51:47Z</time>
      </trkpt>
      <trkpt lat="49.21072" lon="1.3024">
        <ele>8</ele>
        <time>2017-04-27T13:52:03Z</time>
      </trkpt>
      <trkpt lat="49.21067" lon="1.30247">
        <ele>8</ele>
        <time>2017-04-27T13:52:03Z</time>
      </trkpt>
      <trkpt lat="49.21064" lon="1.3025">
        <ele>8</ele>
        <time>2017-04-27T13:52:03Z</time>
      </trkpt>
      <trkpt lat="49.2106" lon="1.30254">
        <ele>8</ele>
        <time>2017-04-27T13:52:03Z</time>
      </trkpt>
      <trkpt lat="49.21055" lon="1.3026">
        <ele>8</ele>
        <time>2017-04-27T13:52:19Z</time>
      </trkpt>
      <trkpt lat="49.21051" lon="1.30264">
        <ele>8</ele>
        <time>2017-04-27T13:52:19Z</time>
      </trkpt>
      <trkpt lat="49.21045" lon="1.30272">
        <ele>8</ele>
        <time>2017-04-27T13:52:19Z</time>
      </trkpt>
      <trkpt lat="49.21041" lon="1.30276">
        <ele>8</ele>
        <time>2017-04-27T13:52:19Z</time>
      </trkpt>
      <trkpt lat="49.21038" lon="1.30278">
        <ele>8</ele>
        <time>2017-04-27T13:52:35Z</time>
      </trkpt>
      <trkpt lat="49.21032" lon="1.30285">
        <ele>8</ele>
        <time>2017-04-27T13:52:35Z</time>
      </trkpt>
      <trkpt lat="49.21029" lon="1.3029">
        <ele>8</ele>
        <time>2017-04-27T13:52:35Z</time>
      </trkpt>
      <trkpt lat="49.21025" lon="1.30294">
        <ele>10</ele>
        <time>2017-04-27T13:52:35Z</time>
      </trkpt>
      <trkpt lat="49.21022" lon="1.30298">
        <ele>10</ele>
        <time>2017-04-27T13:52:51Z</time>
      </trkpt>
      <trkpt lat="49.21018" lon="1.30301">
        <ele>10</ele>
        <time>2017-04-27T13:52:51Z</time>
      </trkpt>
      <trkpt lat="49.21013" lon="1.30307">
        <ele>10</ele>
        <time>2017-04-27T13:52:51Z</time>
      </trkpt>
      <trkpt lat="49.21008" lon="1.30313">
        <ele>10</ele>
        <time>2017-04-27T13:52:51Z</time>
      </trkpt>
      <trkpt lat="49.21004" lon="1.30318">
        <ele>10</ele>
        <time>2017-04-27T13:53:07Z</time>
      </trkpt>
      <trkpt lat="49.21" lon="1.30322">
        <ele>10</ele>
        <time>2017-04-27T13:53:07Z</time>
      </trkpt>
      <trkpt lat="49.20997" lon="1.30327">
        <ele>10</ele>
        <time>2017-04-27T13:53:07Z</time>
      </trkpt>
      <trkpt lat="49.20993" lon="1.30331">
        <ele>10</ele>
        <time>2017-04-27T13:53:07Z</time>
      </trkpt>
      <trkpt lat="49.20988" lon="1.30338">
        <ele>10</ele>
        <time>2017-04-27T13:53:23Z</time>
      </trkpt>
      <trkpt lat="49.20985" lon="1.30342">
        <ele>10</ele>
        <time>2017-04-27T13:53:23Z</time>
      </trkpt>
      <trkpt lat="49.20979" lon="1.30348">
        <ele>10</ele>
        <time>2017-04-27T13:53:23Z</time>
      </trkpt>
      <trkpt lat="49.20977" lon="1.30349">
        <ele>10</ele>
        <time>2017-04-27T13:53:23Z</time>
      </trkpt>
      <trkpt lat="49.20973" lon="1.30352">
        <ele>10</ele>
        <time>2017-04-27T13:53:39Z</time>
      </trkpt>
      <trkpt lat="49.20971" lon="1.30355">
        <ele>10</ele>
        <time>2017-04-27T13:53:39Z</time>
      </trkpt>
      <trkpt lat="49.20966" lon="1.30361">
        <ele>10</ele>
        <time>2017-04-27T13:53:39Z</time>
      </trkpt>
      <trkpt lat="49.20962" lon="1.30365">
        <ele>10</ele>
        <time>2017-04-27T13:53:39Z</time>
      </trkpt>
      <trkpt lat="49.20958" lon="1.30368">
        <ele>17</ele>
        <time>2017-04-27T13:53:55Z</time>
      </trkpt>
      <trkpt lat="49.20953" lon="1.30373">
        <ele>17</ele>
        <time>2017-04-27T13:53:55Z</time>
      </trkpt>
      <trkpt lat="49.20949" lon="1.30379">
        <ele>20</ele>
        <time>2017-04-27T13:53:55Z</time>
      </trkpt>
      <trkpt lat="49.20946" lon="1.30383">
        <ele>20</ele>
        <time>2017-04-27T13:53:55Z</time>
      </trkpt>
      <trkpt lat="49.20943" lon="1.30386">
        <ele>20</ele>
        <time>2017-04-27T13:54:11Z</time>
      </trkpt>
      <trkpt lat="49.20939" lon="1.3039">
        <ele>20</ele>
        <time>2017-04-27T13:54:11Z</time>
      </trkpt>
      <trkpt lat="49.20934" lon="1.30397">
        <ele>20</ele>
        <time>2017-04-27T13:54:11Z</time>
      </trkpt>
      <trkpt lat="49.2093" lon="1.30402">
        <ele>20</ele>
        <time>2017-04-27T13:54:11Z</time>
      </trkpt>
      <trkpt lat="49.20925" lon="1.3041">
        <ele>20</ele>
        <time>2017-04-27T13:54:27Z</time>
      </trkpt>
      <trkpt lat="49.20923" lon="1.30413">
        <ele>20</ele>
        <time>2017-04-27T13:54:27Z</time>
      </trkpt>
      <trkpt lat="49.20921" lon="1.30417">
        <ele>20</ele>
        <time>2017-04-27T13:54:27Z</time>
      </trkpt>
      <trkpt lat="49.20917" lon="1.30421">
        <ele>20</ele>
        <time>2017-04-27T13:54:27Z</time>
      </trkpt>
      <trkpt lat="49.20912" lon="1.30426">
        <ele>20</ele>
        <time>2017-04-27T13:54:43Z</time>
      </trkpt>
      <trkpt lat="49.20908" lon="1.30428">
        <ele>20</ele>
        <time>2017-04-27T13:54:43Z</time>
      </trkpt>
      <trkpt lat="49.20903" lon="1.30432">
        <ele>20</ele>
        <time>2017-04-27T13:54:43Z</time>
      </trkpt>
      <trkpt lat="49.20899" lon="1.30435">
        <ele>20</ele>
        <time>2017-04-27T13:54:43Z</time>
      </trkpt>
      <trkpt lat="49.20895" lon="1.30437">
        <ele>20</ele>
        <time>2017-04-27T13:54:59Z</time>
      </trkpt>
      <trkpt lat="49.20893" lon="1.30438">
        <ele>20</ele>
        <time>2017-04-27T13:54:59Z</time>
      </trkpt>
      <trkpt lat="49.20889" lon="1.3044">
        <ele>20</ele>
        <time>2017-04-27T13:54:59Z</time>
      </trkpt>
      <trkpt lat="49.20885" lon="1.3044">
        <ele>20</ele>
        <time>2017-04-27T13:54:59Z</time>
      </trkpt>
      <trkpt lat="49.20881" lon="1.30443">
        <ele>20</ele>
        <time>2017-04-27T13:55:15Z</time>
      </trkpt>
      <trkpt lat="49.20877" lon="1.30445">
        <ele>20</ele>
        <time>2017-04-27T13:55:15Z</time>
      </trkpt>
      <trkpt lat="49.20873" lon="1.30446">
        <ele>27</ele>
        <time>2017-04-27T13:55:15Z</time>
      </trkpt>
      <trkpt lat="49.20868" lon="1.30449">
        <ele>27</ele>
        <time>2017-04-27T13:55:15Z</time>
      </trkpt>
      <trkpt lat="49.20864" lon="1.30454">
        <ele>27</ele>
        <time>2017-04-27T13:55:31Z</time>
      </trkpt>
      <trkpt lat="49.20861" lon="1.30458">
        <ele>27</ele>
        <time>2017-04-27T13:55:31Z</time>
      </trkpt>
      <trkpt lat="49.20855" lon="1.30463">
        <ele>28</ele>
        <time>2017-04-27T13:55:31Z</time>
      </trkpt>
      <trkpt lat="49.20852" lon="1.30466">
        <ele>28</ele>
        <time>2017-04-27T13:55:31Z</time>
      </trkpt>
      <trkpt lat="49.20851" lon="1.30471">
        <ele>28</ele>
        <time>2017-04-27T13:55:47Z</time>
      </trkpt>
      <trkpt lat="49.20845" lon="1.30479">
        <ele>28</ele>
        <time>2017-04-27T13:55:47Z</time>
      </trkpt>
      <trkpt lat="49.20842" lon="1.30483">
        <ele>28</ele>
        <time>2017-04-27T13:55:47Z</time>
      </trkpt>
      <trkpt lat="49.20839" lon="1.30486">
        <ele>28</ele>
        <time>2017-04-27T13:55:47Z</time>
      </trkpt>
      <trkpt lat="49.20835" lon="1.3049">
        <ele>28</ele>
        <time>2017-04-27T13:56:03Z</time>
      </trkpt>
      <trkpt lat="49.20832" lon="1.30496">
        <ele>28</ele>
        <time>2017-04-27T13:56:03Z</time>
      </trkpt>
      <trkpt lat="49.20828" lon="1.30501">
        <ele>28</ele>
        <time>2017-04-27T13:56:03Z</time>
      </trkpt>
      <trkpt lat="49.20824" lon="1.30504">
        <ele>28</ele>
        <time>2017-04-27T13:56:03Z</time>
      </trkpt>
      <trkpt lat="49.20821" lon="1.30507">
        <ele>28</ele>
        <time>2017-04-27T13:56:19Z</time>
      </trkpt>
      <trkpt lat="49.20816" lon="1.30506">
        <ele>28</ele>
        <time>2017-04-27T13:56:19Z</time>
      </trkpt>
      <trkpt lat="49.2081" lon="1.30505">
        <ele>28</ele>
        <time>2017-04-27T13:56:19Z</time>
      </trkpt>
      <trkpt lat="49.20804" lon="1.30501">
        <ele>28</ele>
        <time>2017-04-27T13:56:19Z</time>
      </trkpt>
      <trkpt lat="49.20807" lon="1.30497">
        <ele>28</ele>
        <time>2017-04-27T13:56:59Z</time>
      </trkpt>
      <trkpt lat="49.208" lon="1.30496">
        <ele>28</ele>
        <time>2017-04-27T13:56:59Z</time>
      </trkpt>
      <trkpt lat="49.20793" lon="1.30493">
        <ele>28</ele>
        <time>2017-04-27T13:56:59Z</time>
      </trkpt>
      <trkpt lat="49.20788" lon="1.3049">
        <ele>33</ele>
        <time>2017-04-27T13:56:59Z</time>
      </trkpt>
      <trkpt lat="49.20785" lon="1.30488">
        <ele>33</ele>
        <time>2017-04-27T13:56:59Z</time>
      </trkpt>
      <trkpt lat="49.20779" lon="1.30488">
        <ele>33</ele>
        <time>2017-04-27T13:57:15Z</time>
      </trkpt>
      <trkpt lat="49.20773" lon="1.30481">
        <ele>33</ele>
        <time>2017-04-27T13:57:15Z</time>
      </trkpt>
      <trkpt lat="49.2077" lon="1.3048">
        <ele>33</ele>
        <time>2017-04-27T13:57:15Z</time>
      </trkpt>
      <trkpt lat="49.20767" lon="1.30479">
        <ele>33</ele>
        <time>2017-04-27T13:57:15Z</time>
      </trkpt>
      <trkpt lat="49.20761" lon="1.30478">
        <ele>33</ele>
        <time>2017-04-27T13:57:31Z</time>
      </trkpt>
      <trkpt lat="49.20756" lon="1.30477">
        <ele>33</ele>
        <time>2017-04-27T13:57:31Z</time>
      </trkpt>
      <trkpt lat="49.20751" lon="1.30476">
        <ele>33</ele>
        <time>2017-04-27T13:57:31Z</time>
      </trkpt>
      <trkpt lat="49.20746" lon="1.30476">
        <ele>33</ele>
        <time>2017-04-27T13:57:31Z</time>
      </trkpt>
      <trkpt lat="49.20741" lon="1.30478">
        <ele>33</ele>
        <time>2017-04-27T13:57:47Z</time>
      </trkpt>
      <trkpt lat="49.20734" lon="1.30481">
        <ele>33</ele>
        <time>2017-04-27T13:57:47Z</time>
      </trkpt>
      <trkpt lat="49.20731" lon="1.30481">
        <ele>33</ele>
        <time>2017-04-27T13:57:47Z</time>
      </trkpt>
      <trkpt lat="49.20727" lon="1.30482">
        <ele>33</ele>
        <time>2017-04-27T13:57:47Z</time>
      </trkpt>
      <trkpt lat="49.20715" lon="1.3049">
        <ele>33</ele>
        <time>2017-04-27T13:58:19Z</time>
      </trkpt>
      <trkpt lat="49.20713" lon="1.30491">
        <ele>33</ele>
        <time>2017-04-27T13:58:19Z</time>
      </trkpt>
      <trkpt lat="49.20712" lon="1.30489">
        <ele>33</ele>
        <time>2017-04-27T13:58:19Z</time>
      </trkpt>
      <trkpt lat="49.20707" lon="1.30488">
        <ele>33</ele>
        <time>2017-04-27T13:58:19Z</time>
      </trkpt>
      <trkpt lat="49.20702" lon="1.30486">
        <ele>33</ele>
        <time>2017-04-27T13:58:19Z</time>
      </trkpt>
      <trkpt lat="49.20699" lon="1.3048">
        <ele>33</ele>
        <time>2017-04-27T13:58:35Z</time>
      </trkpt>
      <trkpt lat="49.20695" lon="1.30473">
        <ele>33</ele>
        <time>2017-04-27T13:58:35Z</time>
      </trkpt>
      <trkpt lat="49.20693" lon="1.30466">
        <ele>33</ele>
        <time>2017-04-27T13:58:35Z</time>
      </trkpt>
      <trkpt lat="49.2069" lon="1.30457">
        <ele>33</ele>
        <time>2017-04-27T13:58:35Z</time>
      </trkpt>
      <trkpt lat="49.20689" lon="1.3045">
        <ele>33</ele>
        <time>2017-04-27T13:58:51Z</time>
      </trkpt>
      <trkpt lat="49.20688" lon="1.30441">
        <ele>33</ele>
        <time>2017-04-27T13:58:51Z</time>
      </trkpt>
      <trkpt lat="49.20687" lon="1.30435">
        <ele>33</ele>
        <time>2017-04-27T13:58:51Z</time>
      </trkpt>
      <trkpt lat="49.20685" lon="1.30427">
        <ele>33</ele>
        <time>2017-04-27T13:58:51Z</time>
      </trkpt>
      <trkpt lat="49.20682" lon="1.3042">
        <ele>33</ele>
        <time>2017-04-27T13:59:07Z</time>
      </trkpt>
      <trkpt lat="49.20679" lon="1.30412">
        <ele>33</ele>
        <time>2017-04-27T13:59:07Z</time>
      </trkpt>
      <trkpt lat="49.20675" lon="1.30408">
        <ele>33</ele>
        <time>2017-04-27T13:59:07Z</time>
      </trkpt>
      <trkpt lat="49.20671" lon="1.30404">
        <ele>33</ele>
        <time>2017-04-27T13:59:07Z</time>
      </trkpt>
      <trkpt lat="49.20666" lon="1.30402">
        <ele>33</ele>
        <time>2017-04-27T13:59:23Z</time>
      </trkpt>
      <trkpt lat="49.20661" lon="1.30401">
        <ele>33</ele>
        <time>2017-04-27T13:59:23Z</time>
      </trkpt>
      <trkpt lat="49.20655" lon="1.30401">
        <ele>33</ele>
        <time>2017-04-27T13:59:23Z</time>
      </trkpt>
      <trkpt lat="49.20648" lon="1.30403">
        <ele>33</ele>
        <time>2017-04-27T13:59:23Z</time>
      </trkpt>
      <trkpt lat="49.20644" lon="1.30405">
        <ele>33</ele>
        <time>2017-04-27T13:59:39Z</time>
      </trkpt>
      <trkpt lat="49.20638" lon="1.30405">
        <ele>33</ele>
        <time>2017-04-27T13:59:39Z</time>
      </trkpt>
      <trkpt lat="49.20634" lon="1.30405">
        <ele>33</ele>
        <time>2017-04-27T13:59:39Z</time>
      </trkpt>
      <trkpt lat="49.20631" lon="1.30404">
        <ele>33</ele>
        <time>2017-04-27T13:59:39Z</time>
      </trkpt>
      <trkpt lat="49.20625" lon="1.30403">
        <ele>39</ele>
        <time>2017-04-27T13:59:55Z</time>
      </trkpt>
      <trkpt lat="49.20619" lon="1.30401">
        <ele>39</ele>
        <time>2017-04-27T13:59:55Z</time>
      </trkpt>
      <trkpt lat="49.20615" lon="1.304">
        <ele>39</ele>
        <time>2017-04-27T13:59:55Z</time>
      </trkpt>
      <trkpt lat="49.2061" lon="1.30399">
        <ele>39</ele>
        <time>2017-04-27T13:59:55Z</time>
      </trkpt>
      <trkpt lat="49.20605" lon="1.30398">
        <ele>39</ele>
        <time>2017-04-27T14:00:11Z</time>
      </trkpt>
      <trkpt lat="49.20598" lon="1.30397">
        <ele>39</ele>
        <time>2017-04-27T14:00:11Z</time>
      </trkpt>
      <trkpt lat="49.20595" lon="1.30396">
        <ele>39</ele>
        <time>2017-04-27T14:00:11Z</time>
      </trkpt>
      <trkpt lat="49.20589" lon="1.30396">
        <ele>39</ele>
        <time>2017-04-27T14:00:11Z</time>
      </trkpt>
      <trkpt lat="49.20585" lon="1.30393">
        <ele>39</ele>
        <time>2017-04-27T14:00:27Z</time>
      </trkpt>
      <trkpt lat="49.2058" lon="1.30391">
        <ele>39</ele>
        <time>2017-04-27T14:00:27Z</time>
      </trkpt>
      <trkpt lat="49.20574" lon="1.30388">
        <ele>39</ele>
        <time>2017-04-27T14:00:27Z</time>
      </trkpt>
      <trkpt lat="49.2057" lon="1.30386">
        <ele>39</ele>
        <time>2017-04-27T14:00:27Z</time>
      </trkpt>
      <trkpt lat="49.20565" lon="1.30383">
        <ele>39</ele>
        <time>2017-04-27T14:00:43Z</time>
      </trkpt>
      <trkpt lat="49.20561" lon="1.30383">
        <ele>39</ele>
        <time>2017-04-27T14:00:43Z</time>
      </trkpt>
      <trkpt lat="49.20557" lon="1.30382">
        <ele>39</ele>
        <time>2017-04-27T14:00:43Z</time>
      </trkpt>
      <trkpt lat="49.2055" lon="1.3038">
        <ele>39</ele>
        <time>2017-04-27T14:00:43Z</time>
      </trkpt>
      <trkpt lat="49.20545" lon="1.30379">
        <ele>39</ele>
        <time>2017-04-27T14:00:59Z</time>
      </trkpt>
      <trkpt lat="49.20541" lon="1.30379">
        <ele>43</ele>
        <time>2017-04-27T14:00:59Z</time>
      </trkpt>
      <trkpt lat="49.20536" lon="1.30379">
        <ele>43</ele>
        <time>2017-04-27T14:00:59Z</time>
      </trkpt>
      <trkpt lat="49.20531" lon="1.30379">
        <ele>43</ele>
        <time>2017-04-27T14:00:59Z</time>
      </trkpt>
      <trkpt lat="49.20526" lon="1.30378">
        <ele>43</ele>
        <time>2017-04-27T14:01:15Z</time>
      </trkpt>
      <trkpt lat="49.20522" lon="1.30376">
        <ele>43</ele>
        <time>2017-04-27T14:01:15Z</time>
      </trkpt>
      <trkpt lat="49.20518" lon="1.30375">
        <ele>44</ele>
        <time>2017-04-27T14:01:15Z</time>
      </trkpt>
      <trkpt lat="49.20515" lon="1.30374">
        <ele>44</ele>
        <time>2017-04-27T14:01:15Z</time>
      </trkpt>
      <trkpt lat="49.20509" lon="1.30373">
        <ele>44</ele>
        <time>2017-04-27T14:01:31Z</time>
      </trkpt>
      <trkpt lat="49.20504" lon="1.30371">
        <ele>44</ele>
        <time>2017-04-27T14:01:31Z</time>
      </trkpt>
      <trkpt lat="49.20498" lon="1.30369">
        <ele>44</ele>
        <time>2017-04-27T14:01:31Z</time>
      </trkpt>
      <trkpt lat="49.20493" lon="1.30368">
        <ele>44</ele>
        <time>2017-04-27T14:01:31Z</time>
      </trkpt>
      <trkpt lat="49.20487" lon="1.30368">
        <ele>44</ele>
        <time>2017-04-27T14:01:47Z</time>
      </trkpt>
      <trkpt lat="49.20482" lon="1.30367">
        <ele>44</ele>
        <time>2017-04-27T14:01:47Z</time>
      </trkpt>
      <trkpt lat="49.20478" lon="1.30367">
        <ele>44</ele>
        <time>2017-04-27T14:01:47Z</time>
      </trkpt>
      <trkpt lat="49.20473" lon="1.30367">
        <ele>44</ele>
        <time>2017-04-27T14:01:47Z</time>
      </trkpt>
      <trkpt lat="49.20466" lon="1.30366">
        <ele>44</ele>
        <time>2017-04-27T14:02:03Z</time>
      </trkpt>
      <trkpt lat="49.20462" lon="1.30365">
        <ele>44</ele>
        <time>2017-04-27T14:02:03Z</time>
      </trkpt>
      <trkpt lat="49.20459" lon="1.30365">
        <ele>44</ele>
        <time>2017-04-27T14:02:03Z</time>
      </trkpt>
      <trkpt lat="49.20455" lon="1.30365">
        <ele>51</ele>
        <time>2017-04-27T14:02:03Z</time>
      </trkpt>
      <trkpt lat="49.20451" lon="1.30364">
        <ele>51</ele>
        <time>2017-04-27T14:02:19Z</time>
      </trkpt>
      <trkpt lat="49.20448" lon="1.30361">
        <ele>51</ele>
        <time>2017-04-27T14:02:19Z</time>
      </trkpt>
      <trkpt lat="49.20442" lon="1.30359">
        <ele>51</ele>
        <time>2017-04-27T14:02:19Z</time>
      </trkpt>
      <trkpt lat="49.20438" lon="1.30356">
        <ele>51</ele>
        <time>2017-04-27T14:02:19Z</time>
      </trkpt>
      <trkpt lat="49.20437" lon="1.30355">
        <ele>51</ele>
        <time>2017-04-27T14:02:47Z</time>
      </trkpt>
      <trkpt lat="49.20436" lon="1.30353">
        <ele>51</ele>
        <time>2017-04-27T14:02:47Z</time>
      </trkpt>
      <trkpt lat="49.20433" lon="1.30354">
        <ele>51</ele>
        <time>2017-04-27T14:02:47Z</time>
      </trkpt>
      <trkpt lat="49.20429" lon="1.30356">
        <ele>51</ele>
        <time>2017-04-27T14:02:47Z</time>
      </trkpt>
      <trkpt lat="49.20425" lon="1.30356">
        <ele>51</ele>
        <time>2017-04-27T14:02:47Z</time>
      </trkpt>
      <trkpt lat="49.2042" lon="1.30357">
        <ele>51</ele>
        <time>2017-04-27T14:03:03Z</time>
      </trkpt>
      <trkpt lat="49.20414" lon="1.30355">
        <ele>51</ele>
        <time>2017-04-27T14:03:03Z</time>
      </trkpt>
      <trkpt lat="49.20409" lon="1.30351">
        <ele>51</ele>
        <time>2017-04-27T14:03:03Z</time>
      </trkpt>
      <trkpt lat="49.20405" lon="1.30347">
        <ele>51</ele>
        <time>2017-04-27T14:03:03Z</time>
      </trkpt>
      <trkpt lat="49.20396" lon="1.30335">
        <ele>51</ele>
        <time>2017-04-27T14:03:51Z</time>
      </trkpt>
      <trkpt lat="49.20395" lon="1.30337">
        <ele>51</ele>
        <time>2017-04-27T14:03:51Z</time>
      </trkpt>
      <trkpt lat="49.20391" lon="1.30336">
        <ele>51</ele>
        <time>2017-04-27T14:03:51Z</time>
      </trkpt>
      <trkpt lat="49.20388" lon="1.30333">
        <ele>51</ele>
        <time>2017-04-27T14:03:51Z</time>
      </trkpt>
      <trkpt lat="49.20386" lon="1.3033">
        <ele>51</ele>
        <time>2017-04-27T14:03:51Z</time>
      </trkpt>
      <trkpt lat="49.20386" lon="1.3033">
        <ele>51</ele>
        <time>2017-04-27T14:04:07Z</time>
      </trkpt>
      <trkpt lat="49.20386" lon="1.30331">
        <ele>51</ele>
        <time>2017-04-27T14:04:07Z</time>
      </trkpt>
      <trkpt lat="49.2038" lon="1.30327">
        <ele>51</ele>
        <time>2017-04-27T14:04:07Z</time>
      </trkpt>
      <trkpt lat="49.20375" lon="1.30324">
        <ele>51</ele>
        <time>2017-04-27T14:04:07Z</time>
      </trkpt>
      <trkpt lat="49.2037" lon="1.3032">
        <ele>59</ele>
        <time>2017-04-27T14:04:23Z</time>
      </trkpt>
      <trkpt lat="49.20365" lon="1.30317">
        <ele>59</ele>
        <time>2017-04-27T14:04:23Z</time>
      </trkpt>
      <trkpt lat="49.20361" lon="1.30315">
        <ele>59</ele>
        <time>2017-04-27T14:04:23Z</time>
      </trkpt>
      <trkpt lat="49.20357" lon="1.30311">
        <ele>59</ele>
        <time>2017-04-27T14:04:23Z</time>
      </trkpt>
      <trkpt lat="49.20354" lon="1.30309">
        <ele>59</ele>
        <time>2017-04-27T14:04:39Z</time>
      </trkpt>
      <trkpt lat="49.20351" lon="1.30304">
        <ele>59</ele>
        <time>2017-04-27T14:04:39Z</time>
      </trkpt>
      <trkpt lat="49.20346" lon="1.30301">
        <ele>59</ele>
        <time>2017-04-27T14:04:39Z</time>
      </trkpt>
      <trkpt lat="49.20342" lon="1.30295">
        <ele>59</ele>
        <time>2017-04-27T14:04:39Z</time>
      </trkpt>
      <trkpt lat="49.20338" lon="1.30292">
        <ele>59</ele>
        <time>2017-04-27T14:04:55Z</time>
      </trkpt>
      <trkpt lat="49.20334" lon="1.30286">
        <ele>61</ele>
        <time>2017-04-27T14:04:55Z</time>
      </trkpt>
      <trkpt lat="49.20331" lon="1.30282">
        <ele>61</ele>
        <time>2017-04-27T14:04:55Z</time>
      </trkpt>
      <trkpt lat="49.20327" lon="1.30278">
        <ele>61</ele>
        <time>2017-04-27T14:04:55Z</time>
      </trkpt>
      <trkpt lat="49.20324" lon="1.30273">
        <ele>61</ele>
        <time>2017-04-27T14:05:11Z</time>
      </trkpt>
      <trkpt lat="49.20321" lon="1.3027">
        <ele>61</ele>
        <time>2017-04-27T14:05:11Z</time>
      </trkpt>
      <trkpt lat="49.20317" lon="1.30265">
        <ele>61</ele>
        <time>2017-04-27T14:05:11Z</time>
      </trkpt>
      <trkpt lat="49.20314" lon="1.3026">
        <ele>61</ele>
        <time>2017-04-27T14:05:11Z</time>
      </trkpt>
      <trkpt lat="49.20312" lon="1.30257">
        <ele>61</ele>
        <time>2017-04-27T14:05:27Z</time>
      </trkpt>
      <trkpt lat="49.2031" lon="1.30252">
        <ele>61</ele>
        <time>2017-04-27T14:05:27Z</time>
      </trkpt>
      <trkpt lat="49.20308" lon="1.30247">
        <ele>61</ele>
        <time>2017-04-27T14:05:27Z</time>
      </trkpt>
      <trkpt lat="49.20306" lon="1.30245">
        <ele>61</ele>
        <time>2017-04-27T14:05:27Z</time>
      </trkpt>
      <trkpt lat="49.20302" lon="1.30238">
        <ele>61</ele>
        <time>2017-04-27T14:05:43Z</time>
      </trkpt>
      <trkpt lat="49.203" lon="1.30233">
        <ele>61</ele>
        <time>2017-04-27T14:05:43Z</time>
      </trkpt>
      <trkpt lat="49.20298" lon="1.30228">
        <ele>61</ele>
        <time>2017-04-27T14:05:43Z</time>
      </trkpt>
      <trkpt lat="49.20296" lon="1.30223">
        <ele>61</ele>
        <time>2017-04-27T14:05:43Z</time>
      </trkpt>
      <trkpt lat="49.20294" lon="1.3022">
        <ele>61</ele>
        <time>2017-04-27T14:05:59Z</time>
      </trkpt>
      <trkpt lat="49.20292" lon="1.30214">
        <ele>72</ele>
        <time>2017-04-27T14:05:59Z</time>
      </trkpt>
      <trkpt lat="49.2029" lon="1.30208">
        <ele>76</ele>
        <time>2017-04-27T14:05:59Z</time>
      </trkpt>
      <trkpt lat="49.20287" lon="1.302">
        <ele>76</ele>
        <time>2017-04-27T14:05:59Z</time>
      </trkpt>
      <trkpt lat="49.20285" lon="1.30196">
        <ele>76</ele>
        <time>2017-04-27T14:06:15Z</time>
      </trkpt>
      <trkpt lat="49.20282" lon="1.30191">
        <ele>76</ele>
        <time>2017-04-27T14:06:15Z</time>
      </trkpt>
      <trkpt lat="49.20279" lon="1.30186">
        <ele>76</ele>
        <time>2017-04-27T14:06:15Z</time>
      </trkpt>
      <trkpt lat="49.20277" lon="1.3018">
        <ele>76</ele>
        <time>2017-04-27T14:06:15Z</time>
      </trkpt>
      <trkpt lat="49.20276" lon="1.30176">
        <ele>76</ele>
        <time>2017-04-27T14:06:31Z</time>
      </trkpt>
      <trkpt lat="49.20274" lon="1.30169">
        <ele>76</ele>
        <time>2017-04-27T14:06:31Z</time>
      </trkpt>
      <trkpt lat="49.20273" lon="1.30165">
        <ele>76</ele>
        <time>2017-04-27T14:06:31Z</time>
      </trkpt>
      <trkpt lat="49.2027" lon="1.30156">
        <ele>76</ele>
        <time>2017-04-27T14:06:31Z</time>
      </trkpt>
      <trkpt lat="49.20265" lon="1.30147">
        <ele>76</ele>
        <time>2017-04-27T14:07:03Z</time>
      </trkpt>
      <trkpt lat="49.20266" lon="1.30144">
        <ele>76</ele>
        <time>2017-04-27T14:07:03Z</time>
      </trkpt>
      <trkpt lat="49.20263" lon="1.30137">
        <ele>76</ele>
        <time>2017-04-27T14:07:03Z</time>
      </trkpt>
      <trkpt lat="49.2026" lon="1.30131">
        <ele>76</ele>
        <time>2017-04-27T14:07:03Z</time>
      </trkpt>
      <trkpt lat="49.20257" lon="1.30124">
        <ele>79</ele>
        <time>2017-04-27T14:07:03Z</time>
      </trkpt>
      <trkpt lat="49.20255" lon="1.3012">
        <ele>79</ele>
        <time>2017-04-27T14:07:19Z</time>
      </trkpt>
      <trkpt lat="49.20254" lon="1.30115">
        <ele>79</ele>
        <time>2017-04-27T14:07:19Z</time>
      </trkpt>
      <trkpt lat="49.20252" lon="1.30109">
        <ele>79</ele>
        <time>2017-04-27T14:07:19Z</time>
      </trkpt>
      <trkpt lat="49.20249" lon="1.30102">
        <ele>79</ele>
        <time>2017-04-27T14:07:19Z</time>
      </trkpt>
      <trkpt lat="49.20247" lon="1.30095">
        <ele>79</ele>
        <time>2017-04-27T14:07:35Z</time>
      </trkpt>
      <trkpt lat="49.20246" lon="1.30091">
        <ele>79</ele>
        <time>2017-04-27T14:07:35Z</time>
      </trkpt>
      <trkpt lat="49.20244" lon="1.30084">
        <ele>79</ele>
        <time>2017-04-27T14:07:35Z</time>
      </trkpt>
      <trkpt lat="49.20242" lon="1.30078">
        <ele>79</ele>
        <time>2017-04-27T14:07:35Z</time>
      </trkpt>
      <trkpt lat="49.20239" lon="1.30072">
        <ele>79</ele>
        <time>2017-04-27T14:07:51Z</time>
      </trkpt>
      <trkpt lat="49.20237" lon="1.30067">
        <ele>79</ele>
        <time>2017-04-27T14:07:51Z</time>
      </trkpt>
      <trkpt lat="49.20235" lon="1.30063">
        <ele>79</ele>
        <time>2017-04-27T14:07:51Z</time>
      </trkpt>
      <trkpt lat="49.20232" lon="1.30059">
        <ele>79</ele>
        <time>2017-04-27T14:07:51Z</time>
      </trkpt>
      <trkpt lat="49.20228" lon="1.30055">
        <ele>79</ele>
        <time>2017-04-27T14:08:07Z</time>
      </trkpt>
      <trkpt lat="49.20226" lon="1.3005">
        <ele>79</ele>
        <time>2017-04-27T14:08:07Z</time>
      </trkpt>
      <trkpt lat="49.20223" lon="1.30048">
        <ele>79</ele>
        <time>2017-04-27T14:08:07Z</time>
      </trkpt>
      <trkpt lat="49.20218" lon="1.30044">
        <ele>79</ele>
        <time>2017-04-27T14:08:07Z</time>
      </trkpt>
      <trkpt lat="49.20214" lon="1.30041">
        <ele>83</ele>
        <time>2017-04-27T14:08:23Z</time>
      </trkpt>
      <trkpt lat="49.20212" lon="1.30039">
        <ele>83</ele>
        <time>2017-04-27T14:08:23Z</time>
      </trkpt>
      <trkpt lat="49.20209" lon="1.30037">
        <ele>83</ele>
        <time>2017-04-27T14:08:23Z</time>
      </trkpt>
      <trkpt lat="49.20204" lon="1.30035">
        <ele>93</ele>
        <time>2017-04-27T14:08:23Z</time>
      </trkpt>
      <trkpt lat="49.20201" lon="1.30032">
        <ele>93</ele>
        <time>2017-04-27T14:08:39Z</time>
      </trkpt>
      <trkpt lat="49.20197" lon="1.30029">
        <ele>93</ele>
        <time>2017-04-27T14:08:39Z</time>
      </trkpt>
      <trkpt lat="49.20193" lon="1.30027">
        <ele>93</ele>
        <time>2017-04-27T14:08:39Z</time>
      </trkpt>
      <trkpt lat="49.20185" lon="1.30024">
        <ele>93</ele>
        <time>2017-04-27T14:08:39Z</time>
      </trkpt>
      <trkpt lat="49.20183" lon="1.30022">
        <ele>93</ele>
        <time>2017-04-27T14:08:55Z</time>
      </trkpt>
      <trkpt lat="49.20179" lon="1.30019">
        <ele>93</ele>
        <time>2017-04-27T14:08:55Z</time>
      </trkpt>
      <trkpt lat="49.20175" lon="1.30014">
        <ele>93</ele>
        <time>2017-04-27T14:08:55Z</time>
      </trkpt>
      <trkpt lat="49.20173" lon="1.30011">
        <ele>93</ele>
        <time>2017-04-27T14:08:55Z</time>
      </trkpt>
      <trkpt lat="49.20167" lon="1.30007">
        <ele>93</ele>
        <time>2017-04-27T14:09:11Z</time>
      </trkpt>
      <trkpt lat="49.20164" lon="1.30003">
        <ele>93</ele>
        <time>2017-04-27T14:09:11Z</time>
      </trkpt>
      <trkpt lat="49.20161" lon="1.3">
        <ele>93</ele>
        <time>2017-04-27T14:09:11Z</time>
      </trkpt>
      <trkpt lat="49.20156" lon="1.29994">
        <ele>93</ele>
        <time>2017-04-27T14:09:11Z</time>
      </trkpt>
      <trkpt lat="49.20153" lon="1.29992">
        <ele>93</ele>
        <time>2017-04-27T14:09:27Z</time>
      </trkpt>
      <trkpt lat="49.20149" lon="1.29986">
        <ele>93</ele>
        <time>2017-04-27T14:09:27Z</time>
      </trkpt>
      <trkpt lat="49.20146" lon="1.29982">
        <ele>93</ele>
        <time>2017-04-27T14:09:27Z</time>
      </trkpt>
      <trkpt lat="49.20142" lon="1.29977">
        <ele>93</ele>
        <time>2017-04-27T14:09:27Z</time>
      </trkpt>
      <trkpt lat="49.20139" lon="1.29974">
        <ele>93</ele>
        <time>2017-04-27T14:09:43Z</time>
      </trkpt>
      <trkpt lat="49.20134" lon="1.29971">
        <ele>93</ele>
        <time>2017-04-27T14:09:43Z</time>
      </trkpt>
      <trkpt lat="49.2013" lon="1.29967">
        <ele>93</ele>
        <time>2017-04-27T14:09:43Z</time>
      </trkpt>
      <trkpt lat="49.20128" lon="1.29964">
        <ele>93</ele>
        <time>2017-04-27T14:09:43Z</time>
      </trkpt>
      <trkpt lat="49.20125" lon="1.29959">
        <ele>93</ele>
        <time>2017-04-27T14:09:59Z</time>
      </trkpt>
      <trkpt lat="49.20123" lon="1.29952">
        <ele>104</ele>
        <time>2017-04-27T14:09:59Z</time>
      </trkpt>
      <trkpt lat="49.2012" lon="1.29946">
        <ele>104</ele>
        <time>2017-04-27T14:09:59Z</time>
      </trkpt>
      <trkpt lat="49.20119" lon="1.2994">
        <ele>104</ele>
        <time>2017-04-27T14:09:59Z</time>
      </trkpt>
      <trkpt lat="49.20117" lon="1.29935">
        <ele>104</ele>
        <time>2017-04-27T14:10:15Z</time>
      </trkpt>
      <trkpt lat="49.20116" lon="1.29928">
        <ele>104</ele>
        <time>2017-04-27T14:10:15Z</time>
      </trkpt>
      <trkpt lat="49.20113" lon="1.2992">
        <ele>104</ele>
        <time>2017-04-27T14:10:15Z</time>
      </trkpt>
      <trkpt lat="49.20111" lon="1.29915">
        <ele>104</ele>
        <time>2017-04-27T14:10:15Z</time>
      </trkpt>
      <trkpt lat="49.20109" lon="1.29909">
        <ele>104</ele>
        <time>2017-04-27T14:10:31Z</time>
      </trkpt>
      <trkpt lat="49.20108" lon="1.29903">
        <ele>104</ele>
        <time>2017-04-27T14:10:31Z</time>
      </trkpt>
      <trkpt lat="49.20106" lon="1.29898">
        <ele>104</ele>
        <time>2017-04-27T14:10:31Z</time>
      </trkpt>
      <trkpt lat="49.20104" lon="1.29891">
        <ele>104</ele>
        <time>2017-04-27T14:10:31Z</time>
      </trkpt>
      <trkpt lat="49.20101" lon="1.29882">
        <ele>104</ele>
        <time>2017-04-27T14:10:47Z</time>
      </trkpt>
      <trkpt lat="49.201" lon="1.29878">
        <ele>104</ele>
        <time>2017-04-27T14:10:47Z</time>
      </trkpt>
      <trkpt lat="49.20098" lon="1.29872">
        <ele>109</ele>
        <time>2017-04-27T14:10:47Z</time>
      </trkpt>
      <trkpt lat="49.20096" lon="1.29866">
        <ele>109</ele>
        <time>2017-04-27T14:10:47Z</time>
      </trkpt>
      <trkpt lat="49.20094" lon="1.29861">
        <ele>109</ele>
        <time>2017-04-27T14:11:03Z</time>
      </trkpt>
      <trkpt lat="49.2009" lon="1.29856">
        <ele>109</ele>
        <time>2017-04-27T14:11:03Z</time>
      </trkpt>
      <trkpt lat="49.20088" lon="1.29848">
        <ele>109</ele>
        <time>2017-04-27T14:11:03Z</time>
      </trkpt>
      <trkpt lat="49.20086" lon="1.29843">
        <ele>109</ele>
        <time>2017-04-27T14:11:03Z</time>
      </trkpt>
      <trkpt lat="49.20083" lon="1.29839">
        <ele>109</ele>
        <time>2017-04-27T14:11:19Z</time>
      </trkpt>
      <trkpt lat="49.2008" lon="1.29833">
        <ele>109</ele>
        <time>2017-04-27T14:11:19Z</time>
      </trkpt>
      <trkpt lat="49.20078" lon="1.29829">
        <ele>109</ele>
        <time>2017-04-27T14:11:19Z</time>
      </trkpt>
      <trkpt lat="49.20076" lon="1.29822">
        <ele>109</ele>
        <time>2017-04-27T14:11:19Z</time>
      </trkpt>
      <trkpt lat="49.20075" lon="1.29817">
        <ele>109</ele>
        <time>2017-04-27T14:11:35Z</time>
      </trkpt>
      <trkpt lat="49.20074" lon="1.2981">
        <ele>109</ele>
        <time>2017-04-27T14:11:35Z</time>
      </trkpt>
      <trkpt lat="49.20072" lon="1.29806">
        <ele>109</ele>
        <time>2017-04-27T14:11:35Z</time>
      </trkpt>
      <trkpt lat="49.2007" lon="1.29801">
        <ele>109</ele>
        <time>2017-04-27T14:11:35Z</time>
      </trkpt>
      <trkpt lat="49.20067" lon="1.29796">
        <ele>109</ele>
        <time>2017-04-27T14:11:51Z</time>
      </trkpt>
      <trkpt lat="49.20065" lon="1.2979">
        <ele>114</ele>
        <time>2017-04-27T14:11:51Z</time>
      </trkpt>
      <trkpt lat="49.20062" lon="1.29783">
        <ele>114</ele>
        <time>2017-04-27T14:11:51Z</time>
      </trkpt>
      <trkpt lat="49.2006" lon="1.2978">
        <ele>114</ele>
        <time>2017-04-27T14:11:51Z</time>
      </trkpt>
      <trkpt lat="49.20057" lon="1.29772">
        <ele>114</ele>
        <time>2017-04-27T14:12:07Z</time>
      </trkpt>
      <trkpt lat="49.20054" lon="1.29769">
        <ele>114</ele>
        <time>2017-04-27T14:12:07Z</time>
      </trkpt>
      <trkpt lat="49.2005" lon="1.29765">
        <ele>114</ele>
        <time>2017-04-27T14:12:07Z</time>
      </trkpt>
      <trkpt lat="49.20046" lon="1.2976">
        <ele>114</ele>
        <time>2017-04-27T14:12:07Z</time>
      </trkpt>
      <trkpt lat="49.20043" lon="1.29754">
        <ele>114</ele>
        <time>2017-04-27T14:12:23Z</time>
      </trkpt>
      <trkpt lat="49.20041" lon="1.29749">
        <ele>118</ele>
        <time>2017-04-27T14:12:23Z</time>
      </trkpt>
      <trkpt lat="49.20038" lon="1.29744">
        <ele>118</ele>
        <time>2017-04-27T14:12:23Z</time>
      </trkpt>
      <trkpt lat="49.20035" lon="1.29738">
        <ele>118</ele>
        <time>2017-04-27T14:12:23Z</time>
      </trkpt>
      <trkpt lat="49.20031" lon="1.29734">
        <ele>118</ele>
        <time>2017-04-27T14:12:39Z</time>
      </trkpt>
      <trkpt lat="49.2003" lon="1.29729">
        <ele>118</ele>
        <time>2017-04-27T14:12:39Z</time>
      </trkpt>
      <trkpt lat="49.20027" lon="1.29724">
        <ele>118</ele>
        <time>2017-04-27T14:12:39Z</time>
      </trkpt>
      <trkpt lat="49.20026" lon="1.2972">
        <ele>118</ele>
        <time>2017-04-27T14:12:39Z</time>
      </trkpt>
      <trkpt lat="49.20018" lon="1.29707">
        <ele>118</ele>
        <time>2017-04-27T14:14:11Z</time>
      </trkpt>
      <trkpt lat="49.20017" lon="1.29707">
        <ele>118</ele>
        <time>2017-04-27T14:14:11Z</time>
      </trkpt>
      <trkpt lat="49.20016" lon="1.29707">
        <ele>118</ele>
        <time>2017-04-27T14:14:11Z</time>
      </trkpt>
      <trkpt lat="49.20016" lon="1.29707">
        <ele>118</ele>
        <time>2017-04-27T14:14:11Z</time>
      </trkpt>
      <trkpt lat="49.20015" lon="1.29707">
        <ele>118</ele>
        <time>2017-04-27T14:14:11Z</time>
      </trkpt>
      <trkpt lat="49.20015" lon="1.29697">
        <ele>118</ele>
        <time>2017-04-27T14:14:59Z</time>
      </trkpt>
      <trkpt lat="49.20013" lon="1.29693">
        <ele>118</ele>
        <time>2017-04-27T14:14:59Z</time>
      </trkpt>
      <trkpt lat="49.20011" lon="1.29692">
        <ele>118</ele>
        <time>2017-04-27T14:14:59Z</time>
      </trkpt>
      <trkpt lat="49.20009" lon="1.29689">
        <ele>118</ele>
        <time>2017-04-27T14:14:59Z</time>
      </trkpt>
      <trkpt lat="49.20007" lon="1.29683">
        <ele>118</ele>
        <time>2017-04-27T14:14:59Z</time>
      </trkpt>
      <trkpt lat="49.20004" lon="1.29676">
        <ele>118</ele>
        <time>2017-04-27T14:15:15Z</time>
      </trkpt>
      <trkpt lat="49.20001" lon="1.2967">
        <ele>118</ele>
        <time>2017-04-27T14:15:15Z</time>
      </trkpt>
      <trkpt lat="49.19997" lon="1.29664">
        <ele>118</ele>
        <time>2017-04-27T14:15:15Z</time>
      </trkpt>
      <trkpt lat="49.19993" lon="1.29656">
        <ele>118</ele>
        <time>2017-04-27T14:15:15Z</time>
      </trkpt>
      <trkpt lat="49.19992" lon="1.29651">
        <ele>118</ele>
        <time>2017-04-27T14:15:31Z</time>
      </trkpt>
      <trkpt lat="49.1999" lon="1.29646">
        <ele>118</ele>
        <time>2017-04-27T14:15:31Z</time>
      </trkpt>
      <trkpt lat="49.19987" lon="1.29639">
        <ele>118</ele>
        <time>2017-04-27T14:15:31Z</time>
      </trkpt>
      <trkpt lat="49.19984" lon="1.29636">
        <ele>118</ele>
        <time>2017-04-27T14:15:31Z</time>
      </trkpt>
      <trkpt lat="49.1998" lon="1.2963">
        <ele>118</ele>
        <time>2017-04-27T14:16:19Z</time>
      </trkpt>
      <trkpt lat="49.1998" lon="1.29629">
        <ele>118</ele>
        <time>2017-04-27T14:16:19Z</time>
      </trkpt>
      <trkpt lat="49.19978" lon="1.29628">
        <ele>118</ele>
        <time>2017-04-27T14:16:19Z</time>
      </trkpt>
      <trkpt lat="49.19975" lon="1.29623">
        <ele>119</ele>
        <time>2017-04-27T14:16:19Z</time>
      </trkpt>
      <trkpt lat="49.19973" lon="1.2962">
        <ele>119</ele>
        <time>2017-04-27T14:16:19Z</time>
      </trkpt>
      <trkpt lat="49.19958" lon="1.29611">
        <ele>116</ele>
        <time>2017-04-27T14:17:07Z</time>
      </trkpt>
      <trkpt lat="49.19957" lon="1.29607">
        <ele>116</ele>
        <time>2017-04-27T14:17:07Z</time>
      </trkpt>
      <trkpt lat="49.1996" lon="1.29599">
        <ele>119</ele>
        <time>2017-04-27T14:17:07Z</time>
      </trkpt>
      <trkpt lat="49.19958" lon="1.29595">
        <ele>116</ele>
        <time>2017-04-27T14:17:07Z</time>
      </trkpt>
      <trkpt lat="49.19955" lon="1.29588">
        <ele>116</ele>
        <time>2017-04-27T14:17:07Z</time>
      </trkpt>
      <trkpt lat="49.19953" lon="1.29583">
        <ele>116</ele>
        <time>2017-04-27T14:17:23Z</time>
      </trkpt>
      <trkpt lat="49.19949" lon="1.29576">
        <ele>116</ele>
        <time>2017-04-27T14:17:23Z</time>
      </trkpt>
      <trkpt lat="49.19947" lon="1.29568">
        <ele>116</ele>
        <time>2017-04-27T14:17:23Z</time>
      </trkpt>
      <trkpt lat="49.19944" lon="1.29561">
        <ele>116</ele>
        <time>2017-04-27T14:17:23Z</time>
      </trkpt>
      <trkpt lat="49.19944" lon="1.29554">
        <ele>116</ele>
        <time>2017-04-27T14:17:39Z</time>
      </trkpt>
      <trkpt lat="49.19942" lon="1.29548">
        <ele>116</ele>
        <time>2017-04-27T14:17:39Z</time>
      </trkpt>
      <trkpt lat="49.1994" lon="1.29543">
        <ele>116</ele>
        <time>2017-04-27T14:17:39Z</time>
      </trkpt>
      <trkpt lat="49.19938" lon="1.29536">
        <ele>116</ele>
        <time>2017-04-27T14:17:39Z</time>
      </trkpt>
      <trkpt lat="49.19934" lon="1.29527">
        <ele>116</ele>
        <time>2017-04-27T14:17:59Z</time>
      </trkpt>
      <trkpt lat="49.19931" lon="1.29522">
        <ele>116</ele>
        <time>2017-04-27T14:17:59Z</time>
      </trkpt>
      <trkpt lat="49.19932" lon="1.29517">
        <ele>116</ele>
        <time>2017-04-27T14:17:59Z</time>
      </trkpt>
      <trkpt lat="49.19935" lon="1.29514">
        <ele>116</ele>
        <time>2017-04-27T14:17:59Z</time>
      </trkpt>
      <trkpt lat="49.19938" lon="1.29508">
        <ele>116</ele>
        <time>2017-04-27T14:17:59Z</time>
      </trkpt>
      <trkpt lat="49.19943" lon="1.29503">
        <ele>116</ele>
        <time>2017-04-27T14:18:15Z</time>
      </trkpt>
      <trkpt lat="49.19948" lon="1.29499">
        <ele>116</ele>
        <time>2017-04-27T14:18:15Z</time>
      </trkpt>
      <trkpt lat="49.19952" lon="1.29497">
        <ele>116</ele>
        <time>2017-04-27T14:18:15Z</time>
      </trkpt>
      <trkpt lat="49.19956" lon="1.29493">
        <ele>116</ele>
        <time>2017-04-27T14:18:15Z</time>
      </trkpt>
      <trkpt lat="49.19961" lon="1.29491">
        <ele>119</ele>
        <time>2017-04-27T14:18:31Z</time>
      </trkpt>
      <trkpt lat="49.19965" lon="1.29487">
        <ele>119</ele>
        <time>2017-04-27T14:18:31Z</time>
      </trkpt>
      <trkpt lat="49.19969" lon="1.29483">
        <ele>119</ele>
        <time>2017-04-27T14:18:31Z</time>
      </trkpt>
      <trkpt lat="49.19973" lon="1.29479">
        <ele>119</ele>
        <time>2017-04-27T14:18:31Z</time>
      </trkpt>
      <trkpt lat="49.19977" lon="1.29473">
        <ele>119</ele>
        <time>2017-04-27T14:18:47Z</time>
      </trkpt>
      <trkpt lat="49.19982" lon="1.29468">
        <ele>119</ele>
        <time>2017-04-27T14:18:47Z</time>
      </trkpt>
      <trkpt lat="49.19986" lon="1.29464">
        <ele>119</ele>
        <time>2017-04-27T14:18:47Z</time>
      </trkpt>
      <trkpt lat="49.19989" lon="1.29461">
        <ele>119</ele>
        <time>2017-04-27T14:18:47Z</time>
      </trkpt>
      <trkpt lat="49.19994" lon="1.29456">
        <ele>121</ele>
        <time>2017-04-27T14:19:03Z</time>
      </trkpt>
      <trkpt lat="49.19998" lon="1.29453">
        <ele>121</ele>
        <time>2017-04-27T14:19:03Z</time>
      </trkpt>
      <trkpt lat="49.20002" lon="1.2945">
        <ele>121</ele>
        <time>2017-04-27T14:19:03Z</time>
      </trkpt>
      <trkpt lat="49.20006" lon="1.29446">
        <ele>121</ele>
        <time>2017-04-27T14:19:03Z</time>
      </trkpt>
      <trkpt lat="49.20007" lon="1.29443">
        <ele>121</ele>
        <time>2017-04-27T14:19:23Z</time>
      </trkpt>
      <trkpt lat="49.20008" lon="1.2944">
        <ele>121</ele>
        <time>2017-04-27T14:19:23Z</time>
      </trkpt>
      <trkpt lat="49.2001" lon="1.29437">
        <ele>121</ele>
        <time>2017-04-27T14:19:23Z</time>
      </trkpt>
      <trkpt lat="49.20012" lon="1.29432">
        <ele>121</ele>
        <time>2017-04-27T14:19:23Z</time>
      </trkpt>
      <trkpt lat="49.20012" lon="1.29427">
        <ele>121</ele>
        <time>2017-04-27T14:19:23Z</time>
      </trkpt>
      <trkpt lat="49.20012" lon="1.29422">
        <ele>121</ele>
        <time>2017-04-27T14:19:39Z</time>
      </trkpt>
      <trkpt lat="49.20011" lon="1.29417">
        <ele>121</ele>
        <time>2017-04-27T14:19:39Z</time>
      </trkpt>
      <trkpt lat="49.20013" lon="1.29413">
        <ele>121</ele>
        <time>2017-04-27T14:19:39Z</time>
      </trkpt>
      <trkpt lat="49.20012" lon="1.29404">
        <ele>121</ele>
        <time>2017-04-27T14:19:39Z</time>
      </trkpt>
      <trkpt lat="49.20012" lon="1.29399">
        <ele>121</ele>
        <time>2017-04-27T14:19:55Z</time>
      </trkpt>
      <trkpt lat="49.20012" lon="1.29394">
        <ele>121</ele>
        <time>2017-04-27T14:19:55Z</time>
      </trkpt>
      <trkpt lat="49.20014" lon="1.29388">
        <ele>121</ele>
        <time>2017-04-27T14:19:55Z</time>
      </trkpt>
      <trkpt lat="49.20014" lon="1.29381">
        <ele>121</ele>
        <time>2017-04-27T14:19:55Z</time>
      </trkpt>
      <trkpt lat="49.20014" lon="1.29376">
        <ele>121</ele>
        <time>2017-04-27T14:20:11Z</time>
      </trkpt>
      <trkpt lat="49.20016" lon="1.29372">
        <ele>119</ele>
        <time>2017-04-27T14:20:11Z</time>
      </trkpt>
      <trkpt lat="49.20015" lon="1.29365">
        <ele>119</ele>
        <time>2017-04-27T14:20:11Z</time>
      </trkpt>
      <trkpt lat="49.20013" lon="1.29358">
        <ele>119</ele>
        <time>2017-04-27T14:20:11Z</time>
      </trkpt>
      <trkpt lat="49.20009" lon="1.29348">
        <ele>119</ele>
        <time>2017-04-27T14:20:27Z</time>
      </trkpt>
      <trkpt lat="49.20008" lon="1.29341">
        <ele>119</ele>
        <time>2017-04-27T14:20:27Z</time>
      </trkpt>
      <trkpt lat="49.20005" lon="1.29331">
        <ele>119</ele>
        <time>2017-04-27T14:20:27Z</time>
      </trkpt>
      <trkpt lat="49.20002" lon="1.29326">
        <ele>119</ele>
        <time>2017-04-27T14:20:27Z</time>
      </trkpt>
      <trkpt lat="49.2" lon="1.29321">
        <ele>119</ele>
        <time>2017-04-27T14:20:43Z</time>
      </trkpt>
      <trkpt lat="49.19996" lon="1.29312">
        <ele>119</ele>
        <time>2017-04-27T14:20:43Z</time>
      </trkpt>
      <trkpt lat="49.19994" lon="1.29306">
        <ele>119</ele>
        <time>2017-04-27T14:20:43Z</time>
      </trkpt>
      <trkpt lat="49.19992" lon="1.29301">
        <ele>119</ele>
        <time>2017-04-27T14:20:43Z</time>
      </trkpt>
      <trkpt lat="49.19989" lon="1.29294">
        <ele>119</ele>
        <time>2017-04-27T14:20:59Z</time>
      </trkpt>
      <trkpt lat="49.19986" lon="1.29286">
        <ele>117</ele>
        <time>2017-04-27T14:20:59Z</time>
      </trkpt>
      <trkpt lat="49.19985" lon="1.29282">
        <ele>117</ele>
        <time>2017-04-27T14:20:59Z</time>
      </trkpt>
      <trkpt lat="49.19984" lon="1.29277">
        <ele>117</ele>
        <time>2017-04-27T14:20:59Z</time>
      </trkpt>
      <trkpt lat="49.19984" lon="1.29272">
        <ele>117</ele>
        <time>2017-04-27T14:21:15Z</time>
      </trkpt>
      <trkpt lat="49.19984" lon="1.29267">
        <ele>117</ele>
        <time>2017-04-27T14:21:15Z</time>
      </trkpt>
      <trkpt lat="49.19983" lon="1.29263">
        <ele>117</ele>
        <time>2017-04-27T14:21:15Z</time>
      </trkpt>
      <trkpt lat="49.19981" lon="1.29258">
        <ele>117</ele>
        <time>2017-04-27T14:21:15Z</time>
      </trkpt>
      <trkpt lat="49.1998" lon="1.29253">
        <ele>117</ele>
        <time>2017-04-27T14:21:31Z</time>
      </trkpt>
      <trkpt lat="49.19975" lon="1.29244">
        <ele>117</ele>
        <time>2017-04-27T14:21:31Z</time>
      </trkpt>
      <trkpt lat="49.19973" lon="1.29236">
        <ele>117</ele>
        <time>2017-04-27T14:21:31Z</time>
      </trkpt>
      <trkpt lat="49.19971" lon="1.29229">
        <ele>117</ele>
        <time>2017-04-27T14:21:31Z</time>
      </trkpt>
      <trkpt lat="49.19968" lon="1.29223">
        <ele>117</ele>
        <time>2017-04-27T14:21:47Z</time>
      </trkpt>
      <trkpt lat="49.19964" lon="1.29214">
        <ele>117</ele>
        <time>2017-04-27T14:21:47Z</time>
      </trkpt>
      <trkpt lat="49.19962" lon="1.2921">
        <ele>117</ele>
        <time>2017-04-27T14:21:47Z</time>
      </trkpt>
      <trkpt lat="49.19959" lon="1.29204">
        <ele>114</ele>
        <time>2017-04-27T14:21:47Z</time>
      </trkpt>
      <trkpt lat="49.19957" lon="1.29202">
        <ele>123</ele>
        <time>2017-04-27T14:22:03Z</time>
      </trkpt>
      <trkpt lat="49.19955" lon="1.29197">
        <ele>123</ele>
        <time>2017-04-27T14:22:03Z</time>
      </trkpt>
      <trkpt lat="49.19953" lon="1.29192">
        <ele>123</ele>
        <time>2017-04-27T14:22:03Z</time>
      </trkpt>
      <trkpt lat="49.19952" lon="1.29189">
        <ele>123</ele>
        <time>2017-04-27T14:22:03Z</time>
      </trkpt>
      <trkpt lat="49.1995" lon="1.29184">
        <ele>123</ele>
        <time>2017-04-27T14:22:19Z</time>
      </trkpt>
      <trkpt lat="49.19945" lon="1.29175">
        <ele>123</ele>
        <time>2017-04-27T14:22:19Z</time>
      </trkpt>
      <trkpt lat="49.19942" lon="1.29168">
        <ele>123</ele>
        <time>2017-04-27T14:22:19Z</time>
      </trkpt>
      <trkpt lat="49.19938" lon="1.29161">
        <ele>123</ele>
        <time>2017-04-27T14:22:19Z</time>
      </trkpt>
      <trkpt lat="49.19933" lon="1.29152">
        <ele>123</ele>
        <time>2017-04-27T14:22:35Z</time>
      </trkpt>
      <trkpt lat="49.1993" lon="1.29145">
        <ele>123</ele>
        <time>2017-04-27T14:22:35Z</time>
      </trkpt>
      <trkpt lat="49.19927" lon="1.29137">
        <ele>123</ele>
        <time>2017-04-27T14:22:35Z</time>
      </trkpt>
      <trkpt lat="49.19925" lon="1.29131">
        <ele>123</ele>
        <time>2017-04-27T14:22:35Z</time>
      </trkpt>
      <trkpt lat="49.19922" lon="1.29125">
        <ele>124</ele>
        <time>2017-04-27T14:22:51Z</time>
      </trkpt>
      <trkpt lat="49.19918" lon="1.29118">
        <ele>124</ele>
        <time>2017-04-27T14:22:51Z</time>
      </trkpt>
      <trkpt lat="49.19917" lon="1.29112">
        <ele>124</ele>
        <time>2017-04-27T14:22:51Z</time>
      </trkpt>
      <trkpt lat="49.19916" lon="1.29102">
        <ele>124</ele>
        <time>2017-04-27T14:22:51Z</time>
      </trkpt>
      <trkpt lat="49.19915" lon="1.29094">
        <ele>124</ele>
        <time>2017-04-27T14:23:07Z</time>
      </trkpt>
      <trkpt lat="49.19912" lon="1.29085">
        <ele>124</ele>
        <time>2017-04-27T14:23:07Z</time>
      </trkpt>
      <trkpt lat="49.19912" lon="1.29078">
        <ele>124</ele>
        <time>2017-04-27T14:23:07Z</time>
      </trkpt>
      <trkpt lat="49.19911" lon="1.29068">
        <ele>124</ele>
        <time>2017-04-27T14:23:07Z</time>
      </trkpt>
      <trkpt lat="49.19911" lon="1.29063">
        <ele>124</ele>
        <time>2017-04-27T14:23:23Z</time>
      </trkpt>
      <trkpt lat="49.19912" lon="1.2906">
        <ele>124</ele>
        <time>2017-04-27T14:23:23Z</time>
      </trkpt>
      <trkpt lat="49.19913" lon="1.2905">
        <ele>124</ele>
        <time>2017-04-27T14:23:23Z</time>
      </trkpt>
      <trkpt lat="49.19914" lon="1.29046">
        <ele>124</ele>
        <time>2017-04-27T14:23:23Z</time>
      </trkpt>
      <trkpt lat="49.19915" lon="1.29041">
        <ele>125</ele>
        <time>2017-04-27T14:23:39Z</time>
      </trkpt>
      <trkpt lat="49.19916" lon="1.29036">
        <ele>125</ele>
        <time>2017-04-27T14:23:39Z</time>
      </trkpt>
      <trkpt lat="49.19917" lon="1.29026">
        <ele>125</ele>
        <time>2017-04-27T14:23:39Z</time>
      </trkpt>
      <trkpt lat="49.19918" lon="1.29018">
        <ele>125</ele>
        <time>2017-04-27T14:23:39Z</time>
      </trkpt>
      <trkpt lat="49.19921" lon="1.2901">
        <ele>125</ele>
        <time>2017-04-27T14:23:55Z</time>
      </trkpt>
      <trkpt lat="49.19922" lon="1.29001">
        <ele>125</ele>
        <time>2017-04-27T14:23:55Z</time>
      </trkpt>
      <trkpt lat="49.19924" lon="1.28995">
        <ele>125</ele>
        <time>2017-04-27T14:23:55Z</time>
      </trkpt>
      <trkpt lat="49.19927" lon="1.28984">
        <ele>125</ele>
        <time>2017-04-27T14:23:55Z</time>
      </trkpt>
      <trkpt lat="49.19927" lon="1.28975">
        <ele>125</ele>
        <time>2017-04-27T14:24:11Z</time>
      </trkpt>
      <trkpt lat="49.19927" lon="1.28968">
        <ele>125</ele>
        <time>2017-04-27T14:24:11Z</time>
      </trkpt>
      <trkpt lat="49.19929" lon="1.28962">
        <ele>125</ele>
        <time>2017-04-27T14:24:11Z</time>
      </trkpt>
      <trkpt lat="49.19932" lon="1.28958">
        <ele>126</ele>
        <time>2017-04-27T14:24:11Z</time>
      </trkpt>
      <trkpt lat="49.19935" lon="1.28954">
        <ele>126</ele>
        <time>2017-04-27T14:24:27Z</time>
      </trkpt>
      <trkpt lat="49.19937" lon="1.28948">
        <ele>126</ele>
        <time>2017-04-27T14:24:27Z</time>
      </trkpt>
      <trkpt lat="49.19939" lon="1.2894">
        <ele>126</ele>
        <time>2017-04-27T14:24:27Z</time>
      </trkpt>
      <trkpt lat="49.19941" lon="1.28932">
        <ele>126</ele>
        <time>2017-04-27T14:24:27Z</time>
      </trkpt>
      <trkpt lat="49.19942" lon="1.28927">
        <ele>126</ele>
        <time>2017-04-27T14:24:43Z</time>
      </trkpt>
      <trkpt lat="49.19941" lon="1.28922">
        <ele>126</ele>
        <time>2017-04-27T14:24:43Z</time>
      </trkpt>
      <trkpt lat="49.19939" lon="1.28916">
        <ele>126</ele>
        <time>2017-04-27T14:24:43Z</time>
      </trkpt>
      <trkpt lat="49.19938" lon="1.28911">
        <ele>126</ele>
        <time>2017-04-27T14:24:43Z</time>
      </trkpt>
      <trkpt lat="49.19936" lon="1.289">
        <ele>126</ele>
        <time>2017-04-27T14:24:59Z</time>
      </trkpt>
      <trkpt lat="49.19934" lon="1.28891">
        <ele>126</ele>
        <time>2017-04-27T14:24:59Z</time>
      </trkpt>
      <trkpt lat="49.19933" lon="1.28885">
        <ele>126</ele>
        <time>2017-04-27T14:24:59Z</time>
      </trkpt>
      <trkpt lat="49.19933" lon="1.2888">
        <ele>126</ele>
        <time>2017-04-27T14:24:59Z</time>
      </trkpt>
      <trkpt lat="49.19933" lon="1.28871">
        <ele>129</ele>
        <time>2017-04-27T14:25:15Z</time>
      </trkpt>
      <trkpt lat="49.19932" lon="1.28865">
        <ele>129</ele>
        <time>2017-04-27T14:25:15Z</time>
      </trkpt>
      <trkpt lat="49.1993" lon="1.28858">
        <ele>129</ele>
        <time>2017-04-27T14:25:15Z</time>
      </trkpt>
      <trkpt lat="49.1993" lon="1.28852">
        <ele>129</ele>
        <time>2017-04-27T14:25:15Z</time>
      </trkpt>
      <trkpt lat="49.19929" lon="1.28848">
        <ele>129</ele>
        <time>2017-04-27T14:25:31Z</time>
      </trkpt>
      <trkpt lat="49.19929" lon="1.28842">
        <ele>129</ele>
        <time>2017-04-27T14:25:31Z</time>
      </trkpt>
      <trkpt lat="49.1993" lon="1.28834">
        <ele>129</ele>
        <time>2017-04-27T14:25:31Z</time>
      </trkpt>
      <trkpt lat="49.19931" lon="1.28829">
        <ele>129</ele>
        <time>2017-04-27T14:25:31Z</time>
      </trkpt>
      <trkpt lat="49.19932" lon="1.28824">
        <ele>129</ele>
        <time>2017-04-27T14:25:47Z</time>
      </trkpt>
      <trkpt lat="49.1993" lon="1.28816">
        <ele>129</ele>
        <time>2017-04-27T14:25:47Z</time>
      </trkpt>
      <trkpt lat="49.19927" lon="1.28803">
        <ele>129</ele>
        <time>2017-04-27T14:25:47Z</time>
      </trkpt>
      <trkpt lat="49.19925" lon="1.28795">
        <ele>129</ele>
        <time>2017-04-27T14:25:47Z</time>
      </trkpt>
      <trkpt lat="49.19923" lon="1.28787">
        <ele>124</ele>
        <time>2017-04-27T14:26:07Z</time>
      </trkpt>
      <trkpt lat="49.19921" lon="1.28783">
        <ele>124</ele>
        <time>2017-04-27T14:26:07Z</time>
      </trkpt>
      <trkpt lat="49.1992" lon="1.28782">
        <ele>124</ele>
        <time>2017-04-27T14:26:07Z</time>
      </trkpt>
      <trkpt lat="49.1992" lon="1.28775">
        <ele>124</ele>
        <time>2017-04-27T14:26:07Z</time>
      </trkpt>
      <trkpt lat="49.19917" lon="1.28766">
        <ele>124</ele>
        <time>2017-04-27T14:26:07Z</time>
      </trkpt>
      <trkpt lat="49.19916" lon="1.28759">
        <ele>124</ele>
        <time>2017-04-27T14:26:23Z</time>
      </trkpt>
      <trkpt lat="49.19912" lon="1.28751">
        <ele>124</ele>
        <time>2017-04-27T14:26:23Z</time>
      </trkpt>
      <trkpt lat="49.1991" lon="1.28745">
        <ele>124</ele>
        <time>2017-04-27T14:26:23Z</time>
      </trkpt>
      <trkpt lat="49.19909" lon="1.28738">
        <ele>124</ele>
        <time>2017-04-27T14:26:23Z</time>
      </trkpt>
      <trkpt lat="49.19909" lon="1.28733">
        <ele>124</ele>
        <time>2017-04-27T14:26:39Z</time>
      </trkpt>
      <trkpt lat="49.19908" lon="1.28728">
        <ele>124</ele>
        <time>2017-04-27T14:26:39Z</time>
      </trkpt>
      <trkpt lat="49.19908" lon="1.28723">
        <ele>124</ele>
        <time>2017-04-27T14:26:39Z</time>
      </trkpt>
      <trkpt lat="49.19906" lon="1.28718">
        <ele>124</ele>
        <time>2017-04-27T14:26:39Z</time>
      </trkpt>
      <trkpt lat="49.19905" lon="1.28712">
        <ele>124</ele>
        <time>2017-04-27T14:26:55Z</time>
      </trkpt>
      <trkpt lat="49.19904" lon="1.28702">
        <ele>122</ele>
        <time>2017-04-27T14:26:55Z</time>
      </trkpt>
      <trkpt lat="49.19907" lon="1.28692">
        <ele>122</ele>
        <time>2017-04-27T14:26:55Z</time>
      </trkpt>
      <trkpt lat="49.19914" lon="1.2869">
        <ele>122</ele>
        <time>2017-04-27T14:26:55Z</time>
      </trkpt>
      <trkpt lat="49.19918" lon="1.28682">
        <ele>122</ele>
        <time>2017-04-27T14:27:11Z</time>
      </trkpt>
      <trkpt lat="49.19919" lon="1.28674">
        <ele>122</ele>
        <time>2017-04-27T14:27:11Z</time>
      </trkpt>
      <trkpt lat="49.19918" lon="1.28663">
        <ele>122</ele>
        <time>2017-04-27T14:27:11Z</time>
      </trkpt>
      <trkpt lat="49.19918" lon="1.28654">
        <ele>122</ele>
        <time>2017-04-27T14:27:11Z</time>
      </trkpt>
      <trkpt lat="49.1992" lon="1.28647">
        <ele>122</ele>
        <time>2017-04-27T14:27:27Z</time>
      </trkpt>
      <trkpt lat="49.19922" lon="1.28642">
        <ele>122</ele>
        <time>2017-04-27T14:27:27Z</time>
      </trkpt>
      <trkpt lat="49.19923" lon="1.28632">
        <ele>122</ele>
        <time>2017-04-27T14:27:27Z</time>
      </trkpt>
      <trkpt lat="49.19923" lon="1.28627">
        <ele>122</ele>
        <time>2017-04-27T14:27:27Z</time>
      </trkpt>
      <trkpt lat="49.19922" lon="1.28622">
        <ele>121</ele>
        <time>2017-04-27T14:27:43Z</time>
      </trkpt>
      <trkpt lat="49.19922" lon="1.28616">
        <ele>121</ele>
        <time>2017-04-27T14:27:43Z</time>
      </trkpt>
      <trkpt lat="49.19921" lon="1.28607">
        <ele>121</ele>
        <time>2017-04-27T14:27:43Z</time>
      </trkpt>
      <trkpt lat="49.1992" lon="1.286">
        <ele>121</ele>
        <time>2017-04-27T14:27:43Z</time>
      </trkpt>
      <trkpt lat="49.1992" lon="1.28594">
        <ele>121</ele>
        <time>2017-04-27T14:27:59Z</time>
      </trkpt>
      <trkpt lat="49.1992" lon="1.28587">
        <ele>121</ele>
        <time>2017-04-27T14:27:59Z</time>
      </trkpt>
      <trkpt lat="49.19915" lon="1.28574">
        <ele>121</ele>
        <time>2017-04-27T14:27:59Z</time>
      </trkpt>
      <trkpt lat="49.19912" lon="1.28565">
        <ele>121</ele>
        <time>2017-04-27T14:27:59Z</time>
      </trkpt>
      <trkpt lat="49.19911" lon="1.28558">
        <ele>121</ele>
        <time>2017-04-27T14:28:15Z</time>
      </trkpt>
      <trkpt lat="49.19908" lon="1.28551">
        <ele>121</ele>
        <time>2017-04-27T14:28:15Z</time>
      </trkpt>
      <trkpt lat="49.19908" lon="1.28548">
        <ele>121</ele>
        <time>2017-04-27T14:28:15Z</time>
      </trkpt>
      <trkpt lat="49.19907" lon="1.28544">
        <ele>121</ele>
        <time>2017-04-27T14:28:15Z</time>
      </trkpt>
      <trkpt lat="49.19905" lon="1.2854">
        <ele>116</ele>
        <time>2017-04-27T14:28:31Z</time>
      </trkpt>
      <trkpt lat="49.19904" lon="1.28535">
        <ele>116</ele>
        <time>2017-04-27T14:28:31Z</time>
      </trkpt>
      <trkpt lat="49.19904" lon="1.28529">
        <ele>116</ele>
        <time>2017-04-27T14:28:31Z</time>
      </trkpt>
      <trkpt lat="49.199" lon="1.28522">
        <ele>116</ele>
        <time>2017-04-27T14:28:31Z</time>
      </trkpt>
      <trkpt lat="49.19895" lon="1.28516">
        <ele>116</ele>
        <time>2017-04-27T14:28:47Z</time>
      </trkpt>
      <trkpt lat="49.19893" lon="1.28508">
        <ele>116</ele>
        <time>2017-04-27T14:28:47Z</time>
      </trkpt>
      <trkpt lat="49.19891" lon="1.28501">
        <ele>116</ele>
        <time>2017-04-27T14:28:47Z</time>
      </trkpt>
      <trkpt lat="49.19889" lon="1.28493">
        <ele>116</ele>
        <time>2017-04-27T14:28:47Z</time>
      </trkpt>
      <trkpt lat="49.19889" lon="1.28476">
        <ele>116</ele>
        <time>2017-04-27T14:29:03Z</time>
      </trkpt>
      <trkpt lat="49.1989" lon="1.28466">
        <ele>116</ele>
        <time>2017-04-27T14:29:03Z</time>
      </trkpt>
      <trkpt lat="49.1989" lon="1.2846">
        <ele>116</ele>
        <time>2017-04-27T14:29:03Z</time>
      </trkpt>
      <trkpt lat="49.19888" lon="1.28454">
        <ele>116</ele>
        <time>2017-04-27T14:29:03Z</time>
      </trkpt>
      <trkpt lat="49.19887" lon="1.28448">
        <ele>116</ele>
        <time>2017-04-27T14:29:19Z</time>
      </trkpt>
      <trkpt lat="49.19882" lon="1.28435">
        <ele>116</ele>
        <time>2017-04-27T14:29:19Z</time>
      </trkpt>
      <trkpt lat="49.19882" lon="1.2843">
        <ele>116</ele>
        <time>2017-04-27T14:29:19Z</time>
      </trkpt>
      <trkpt lat="49.19882" lon="1.28426">
        <ele>116</ele>
        <time>2017-04-27T14:29:19Z</time>
      </trkpt>
      <trkpt lat="49.19882" lon="1.2842">
        <ele>116</ele>
        <time>2017-04-27T14:29:35Z</time>
      </trkpt>
      <trkpt lat="49.19882" lon="1.28413">
        <ele>116</ele>
        <time>2017-04-27T14:29:35Z</time>
      </trkpt>
      <trkpt lat="49.19882" lon="1.28408">
        <ele>116</ele>
        <time>2017-04-27T14:29:35Z</time>
      </trkpt>
      <trkpt lat="49.19879" lon="1.28402">
        <ele>116</ele>
        <time>2017-04-27T14:29:35Z</time>
      </trkpt>
      <trkpt lat="49.19879" lon="1.28396">
        <ele>116</ele>
        <time>2017-04-27T14:29:51Z</time>
      </trkpt>
      <trkpt lat="49.19879" lon="1.28391">
        <ele>116</ele>
        <time>2017-04-27T14:29:51Z</time>
      </trkpt>
      <trkpt lat="49.19878" lon="1.28381">
        <ele>116</ele>
        <time>2017-04-27T14:29:51Z</time>
      </trkpt>
      <trkpt lat="49.19875" lon="1.28372">
        <ele>113</ele>
        <time>2017-04-27T14:29:51Z</time>
      </trkpt>
      <trkpt lat="49.19875" lon="1.28364">
        <ele>125</ele>
        <time>2017-04-27T14:30:07Z</time>
      </trkpt>
      <trkpt lat="49.19876" lon="1.28358">
        <ele>113</ele>
        <time>2017-04-27T14:30:07Z</time>
      </trkpt>
      <trkpt lat="49.19876" lon="1.28351">
        <ele>113</ele>
        <time>2017-04-27T14:30:07Z</time>
      </trkpt>
      <trkpt lat="49.19873" lon="1.2834">
        <ele>125</ele>
        <time>2017-04-27T14:30:07Z</time>
      </trkpt>
      <trkpt lat="49.19874" lon="1.28335">
        <ele>125</ele>
        <time>2017-04-27T14:30:23Z</time>
      </trkpt>
      <trkpt lat="49.19873" lon="1.2833">
        <ele>125</ele>
        <time>2017-04-27T14:30:23Z</time>
      </trkpt>
      <trkpt lat="49.19872" lon="1.28326">
        <ele>125</ele>
        <time>2017-04-27T14:30:23Z</time>
      </trkpt>
      <trkpt lat="49.19868" lon="1.2832">
        <ele>125</ele>
        <time>2017-04-27T14:30:23Z</time>
      </trkpt>
      <trkpt lat="49.19867" lon="1.28313">
        <ele>125</ele>
        <time>2017-04-27T14:30:39Z</time>
      </trkpt>
      <trkpt lat="49.19868" lon="1.28306">
        <ele>125</ele>
        <time>2017-04-27T14:30:39Z</time>
      </trkpt>
      <trkpt lat="49.19868" lon="1.283">
        <ele>125</ele>
        <time>2017-04-27T14:30:39Z</time>
      </trkpt>
      <trkpt lat="49.19859" lon="1.28282">
        <ele>127</ele>
        <time>2017-04-27T14:30:39Z</time>
      </trkpt>
      <trkpt lat="49.1986" lon="1.28272">
        <ele>127</ele>
        <time>2017-04-27T14:30:55Z</time>
      </trkpt>
      <trkpt lat="49.19858" lon="1.28265">
        <ele>127</ele>
        <time>2017-04-27T14:30:55Z</time>
      </trkpt>
      <trkpt lat="49.19855" lon="1.28257">
        <ele>127</ele>
        <time>2017-04-27T14:30:55Z</time>
      </trkpt>
      <trkpt lat="49.19855" lon="1.2825">
        <ele>127</ele>
        <time>2017-04-27T14:30:55Z</time>
      </trkpt>
      <trkpt lat="49.19855" lon="1.28244">
        <ele>127</ele>
        <time>2017-04-27T14:31:15Z</time>
      </trkpt>
      <trkpt lat="49.19856" lon="1.2824">
        <ele>127</ele>
        <time>2017-04-27T14:31:15Z</time>
      </trkpt>
      <trkpt lat="49.19856" lon="1.28236">
        <ele>127</ele>
        <time>2017-04-27T14:31:15Z</time>
      </trkpt>
      <trkpt lat="49.19856" lon="1.28232">
        <ele>127</ele>
        <time>2017-04-27T14:31:15Z</time>
      </trkpt>
      <trkpt lat="49.19854" lon="1.28224">
        <ele>127</ele>
        <time>2017-04-27T14:31:15Z</time>
      </trkpt>
      <trkpt lat="49.19856" lon="1.28212">
        <ele>127</ele>
        <time>2017-04-27T14:31:31Z</time>
      </trkpt>
      <trkpt lat="49.19857" lon="1.28208">
        <ele>120</ele>
        <time>2017-04-27T14:31:31Z</time>
      </trkpt>
      <trkpt lat="49.19857" lon="1.28204">
        <ele>120</ele>
        <time>2017-04-27T14:31:31Z</time>
      </trkpt>
      <trkpt lat="49.19857" lon="1.28199">
        <ele>120</ele>
        <time>2017-04-27T14:31:31Z</time>
      </trkpt>
      <trkpt lat="49.19857" lon="1.28196">
        <ele>120</ele>
        <time>2017-04-27T14:31:47Z</time>
      </trkpt>
      <trkpt lat="49.19858" lon="1.2819">
        <ele>120</ele>
        <time>2017-04-27T14:31:47Z</time>
      </trkpt>
      <trkpt lat="49.19859" lon="1.28186">
        <ele>120</ele>
        <time>2017-04-27T14:31:47Z</time>
      </trkpt>
      <trkpt lat="49.19858" lon="1.2818">
        <ele>120</ele>
        <time>2017-04-27T14:31:47Z</time>
      </trkpt>
      <trkpt lat="49.19857" lon="1.28174">
        <ele>120</ele>
        <time>2017-04-27T14:32:03Z</time>
      </trkpt>
      <trkpt lat="49.19855" lon="1.28165">
        <ele>120</ele>
        <time>2017-04-27T14:32:03Z</time>
      </trkpt>
      <trkpt lat="49.19855" lon="1.28161">
        <ele>120</ele>
        <time>2017-04-27T14:32:03Z</time>
      </trkpt>
      <trkpt lat="49.19853" lon="1.28155">
        <ele>120</ele>
        <time>2017-04-27T14:32:03Z</time>
      </trkpt>
      <trkpt lat="49.19852" lon="1.28151">
        <ele>120</ele>
        <time>2017-04-27T14:32:19Z</time>
      </trkpt>
      <trkpt lat="49.19852" lon="1.28145">
        <ele>120</ele>
        <time>2017-04-27T14:32:19Z</time>
      </trkpt>
      <trkpt lat="49.19851" lon="1.28139">
        <ele>120</ele>
        <time>2017-04-27T14:32:19Z</time>
      </trkpt>
      <trkpt lat="49.19849" lon="1.28132">
        <ele>120</ele>
        <time>2017-04-27T14:32:19Z</time>
      </trkpt>
      <trkpt lat="49.19844" lon="1.28123">
        <ele>111</ele>
        <time>2017-04-27T14:32:35Z</time>
      </trkpt>
      <trkpt lat="49.19845" lon="1.28117">
        <ele>111</ele>
        <time>2017-04-27T14:32:35Z</time>
      </trkpt>
      <trkpt lat="49.19844" lon="1.28112">
        <ele>111</ele>
        <time>2017-04-27T14:32:35Z</time>
      </trkpt>
      <trkpt lat="49.19847" lon="1.281">
        <ele>111</ele>
        <time>2017-04-27T14:32:35Z</time>
      </trkpt>
      <trkpt lat="49.19849" lon="1.28095">
        <ele>111</ele>
        <time>2017-04-27T14:32:51Z</time>
      </trkpt>
      <trkpt lat="49.1985" lon="1.28088">
        <ele>111</ele>
        <time>2017-04-27T14:32:51Z</time>
      </trkpt>
      <trkpt lat="49.19852" lon="1.28083">
        <ele>111</ele>
        <time>2017-04-27T14:32:51Z</time>
      </trkpt>
      <trkpt lat="49.19851" lon="1.28077">
        <ele>111</ele>
        <time>2017-04-27T14:32:51Z</time>
      </trkpt>
      <trkpt lat="49.1985" lon="1.28072">
        <ele>111</ele>
        <time>2017-04-27T14:33:07Z</time>
      </trkpt>
      <trkpt lat="49.19848" lon="1.28066">
        <ele>111</ele>
        <time>2017-04-27T14:33:07Z</time>
      </trkpt>
      <trkpt lat="49.19848" lon="1.2806">
        <ele>111</ele>
        <time>2017-04-27T14:33:07Z</time>
      </trkpt>
      <trkpt lat="49.19847" lon="1.28051">
        <ele>111</ele>
        <time>2017-04-27T14:33:07Z</time>
      </trkpt>
      <trkpt lat="49.19848" lon="1.28041">
        <ele>107</ele>
        <time>2017-04-27T14:33:23Z</time>
      </trkpt>
      <trkpt lat="49.19852" lon="1.28033">
        <ele>107</ele>
        <time>2017-04-27T14:33:23Z</time>
      </trkpt>
      <trkpt lat="49.19854" lon="1.28025">
        <ele>107</ele>
        <time>2017-04-27T14:33:23Z</time>
      </trkpt>
      <trkpt lat="49.19856" lon="1.28021">
        <ele>107</ele>
        <time>2017-04-27T14:33:23Z</time>
      </trkpt>
      <trkpt lat="49.1986" lon="1.28017">
        <ele>107</ele>
        <time>2017-04-27T14:33:39Z</time>
      </trkpt>
      <trkpt lat="49.19865" lon="1.28006">
        <ele>107</ele>
        <time>2017-04-27T14:33:39Z</time>
      </trkpt>
      <trkpt lat="49.19868" lon="1.28004">
        <ele>107</ele>
        <time>2017-04-27T14:33:39Z</time>
      </trkpt>
      <trkpt lat="49.19871" lon="1.27998">
        <ele>107</ele>
        <time>2017-04-27T14:33:39Z</time>
      </trkpt>
      <trkpt lat="49.19875" lon="1.27993">
        <ele>107</ele>
        <time>2017-04-27T14:33:55Z</time>
      </trkpt>
      <trkpt lat="49.19877" lon="1.2799">
        <ele>86</ele>
        <time>2017-04-27T14:33:55Z</time>
      </trkpt>
      <trkpt lat="49.19881" lon="1.27983">
        <ele>86</ele>
        <time>2017-04-27T14:33:55Z</time>
      </trkpt>
      <trkpt lat="49.19884" lon="1.27978">
        <ele>86</ele>
        <time>2017-04-27T14:33:55Z</time>
      </trkpt>
      <trkpt lat="49.19886" lon="1.2797">
        <ele>86</ele>
        <time>2017-04-27T14:34:11Z</time>
      </trkpt>
      <trkpt lat="49.19888" lon="1.2796">
        <ele>86</ele>
        <time>2017-04-27T14:34:11Z</time>
      </trkpt>
      <trkpt lat="49.1989" lon="1.27953">
        <ele>87</ele>
        <time>2017-04-27T14:34:11Z</time>
      </trkpt>
      <trkpt lat="49.19891" lon="1.27948">
        <ele>87</ele>
        <time>2017-04-27T14:34:11Z</time>
      </trkpt>
      <trkpt lat="49.19895" lon="1.27944">
        <ele>87</ele>
        <time>2017-04-27T14:34:27Z</time>
      </trkpt>
      <trkpt lat="49.19898" lon="1.2794">
        <ele>87</ele>
        <time>2017-04-27T14:34:27Z</time>
      </trkpt>
      <trkpt lat="49.19907" lon="1.27935">
        <ele>87</ele>
        <time>2017-04-27T14:34:27Z</time>
      </trkpt>
      <trkpt lat="49.19908" lon="1.27931">
        <ele>87</ele>
        <time>2017-04-27T14:34:27Z</time>
      </trkpt>
      <trkpt lat="49.1991" lon="1.27928">
        <ele>87</ele>
        <time>2017-04-27T14:34:51Z</time>
      </trkpt>
      <trkpt lat="49.19911" lon="1.27925">
        <ele>87</ele>
        <time>2017-04-27T14:34:51Z</time>
      </trkpt>
      <trkpt lat="49.19913" lon="1.27921">
        <ele>87</ele>
        <time>2017-04-27T14:34:51Z</time>
      </trkpt>
      <trkpt lat="49.19916" lon="1.27919">
        <ele>87</ele>
        <time>2017-04-27T14:34:51Z</time>
      </trkpt>
      <trkpt lat="49.19917" lon="1.27918">
        <ele>87</ele>
        <time>2017-04-27T14:34:51Z</time>
      </trkpt>
      <trkpt lat="49.19922" lon="1.27911">
        <ele>87</ele>
        <time>2017-04-27T14:35:07Z</time>
      </trkpt>
      <trkpt lat="49.19925" lon="1.27907">
        <ele>87</ele>
        <time>2017-04-27T14:35:07Z</time>
      </trkpt>
      <trkpt lat="49.19928" lon="1.27903">
        <ele>87</ele>
        <time>2017-04-27T14:35:07Z</time>
      </trkpt>
      <trkpt lat="49.19931" lon="1.279">
        <ele>87</ele>
        <time>2017-04-27T14:35:07Z</time>
      </trkpt>
      <trkpt lat="49.19936" lon="1.27896">
        <ele>87</ele>
        <time>2017-04-27T14:35:23Z</time>
      </trkpt>
      <trkpt lat="49.19939" lon="1.27894">
        <ele>87</ele>
        <time>2017-04-27T14:35:23Z</time>
      </trkpt>
      <trkpt lat="49.19944" lon="1.2789">
        <ele>87</ele>
        <time>2017-04-27T14:35:23Z</time>
      </trkpt>
      <trkpt lat="49.19948" lon="1.27887">
        <ele>87</ele>
        <time>2017-04-27T14:35:23Z</time>
      </trkpt>
      <trkpt lat="49.19949" lon="1.27883">
        <ele>87</ele>
        <time>2017-04-27T14:35:39Z</time>
      </trkpt>
      <trkpt lat="49.19951" lon="1.2788">
        <ele>87</ele>
        <time>2017-04-27T14:35:39Z</time>
      </trkpt>
      <trkpt lat="49.19956" lon="1.27874">
        <ele>90</ele>
        <time>2017-04-27T14:35:39Z</time>
      </trkpt>
      <trkpt lat="49.19959" lon="1.27871">
        <ele>53</ele>
        <time>2017-04-27T14:35:39Z</time>
      </trkpt>
      <trkpt lat="49.19966" lon="1.27867">
        <ele>53</ele>
        <time>2017-04-27T14:35:55Z</time>
      </trkpt>
      <trkpt lat="49.1997" lon="1.27863">
        <ele>53</ele>
        <time>2017-04-27T14:35:55Z</time>
      </trkpt>
      <trkpt lat="49.19973" lon="1.27859">
        <ele>53</ele>
        <time>2017-04-27T14:35:55Z</time>
      </trkpt>
      <trkpt lat="49.19976" lon="1.27856">
        <ele>53</ele>
        <time>2017-04-27T14:35:55Z</time>
      </trkpt>
      <trkpt lat="49.19981" lon="1.27848">
        <ele>53</ele>
        <time>2017-04-27T14:36:19Z</time>
      </trkpt>
      <trkpt lat="49.19984" lon="1.27845">
        <ele>53</ele>
        <time>2017-04-27T14:36:19Z</time>
      </trkpt>
      <trkpt lat="49.19986" lon="1.27844">
        <ele>53</ele>
        <time>2017-04-27T14:36:19Z</time>
      </trkpt>
      <trkpt lat="49.19987" lon="1.27845">
        <ele>53</ele>
        <time>2017-04-27T14:36:19Z</time>
      </trkpt>
      <trkpt lat="49.19988" lon="1.27847">
        <ele>53</ele>
        <time>2017-04-27T14:36:19Z</time>
      </trkpt>
      <trkpt lat="49.19982" lon="1.27847">
        <ele>53</ele>
        <time>2017-04-27T14:37:31Z</time>
      </trkpt>
      <trkpt lat="49.19982" lon="1.27848">
        <ele>53</ele>
        <time>2017-04-27T14:37:31Z</time>
      </trkpt>
      <trkpt lat="49.19981" lon="1.27848">
        <ele>53</ele>
        <time>2017-04-27T14:37:31Z</time>
      </trkpt>
      <trkpt lat="49.19981" lon="1.27847">
        <ele>53</ele>
        <time>2017-04-27T14:37:31Z</time>
      </trkpt>
      <trkpt lat="49.1998" lon="1.27847">
        <ele>53</ele>
        <time>2017-04-27T14:37:31Z</time>
      </trkpt>
      <trkpt lat="49.19977" lon="1.27851">
        <ele>53</ele>
        <time>2017-04-27T14:39:19Z</time>
      </trkpt>
      <trkpt lat="49.19977" lon="1.27851">
        <ele>53</ele>
        <time>2017-04-27T14:39:19Z</time>
      </trkpt>
      <trkpt lat="49.19977" lon="1.27851">
        <ele>53</ele>
        <time>2017-04-27T14:39:19Z</time>
      </trkpt>
      <trkpt lat="49.19975" lon="1.27851">
        <ele>53</ele>
        <time>2017-04-27T14:39:19Z</time>
      </trkpt>
      <trkpt lat="49.19972" lon="1.2785">
        <ele>53</ele>
        <time>2017-04-27T14:39:19Z</time>
      </trkpt>
      <trkpt lat="49.19972" lon="1.27845">
        <ele>53</ele>
        <time>2017-04-27T14:45:15Z</time>
      </trkpt>
      <trkpt lat="49.19972" lon="1.27845">
        <ele>53</ele>
        <time>2017-04-27T14:45:15Z</time>
      </trkpt>
      <trkpt lat="49.19972" lon="1.27845">
        <ele>53</ele>
        <time>2017-04-27T14:45:15Z</time>
      </trkpt>
      <trkpt lat="49.19974" lon="1.27844">
        <ele>53</ele>
        <time>2017-04-27T14:45:15Z</time>
      </trkpt>
      <trkpt lat="49.19979" lon="1.2784">
        <ele>53</ele>
        <time>2017-04-27T14:45:15Z</time>
      </trkpt>
      <trkpt lat="49.19985" lon="1.27834">
        <ele>53</ele>
        <time>2017-04-27T14:45:31Z</time>
      </trkpt>
      <trkpt lat="49.19989" lon="1.27829">
        <ele>53</ele>
        <time>2017-04-27T14:45:31Z</time>
      </trkpt>
      <trkpt lat="49.19991" lon="1.27825">
        <ele>53</ele>
        <time>2017-04-27T14:45:31Z</time>
      </trkpt>
      <trkpt lat="49.19993" lon="1.2782">
        <ele>53</ele>
        <time>2017-04-27T14:45:31Z</time>
      </trkpt>
      <trkpt lat="49.19995" lon="1.27813">
        <ele>53</ele>
        <time>2017-04-27T14:45:47Z</time>
      </trkpt>
      <trkpt lat="49.19996" lon="1.27809">
        <ele>53</ele>
        <time>2017-04-27T14:45:47Z</time>
      </trkpt>
      <trkpt lat="49.19997" lon="1.27801">
        <ele>53</ele>
        <time>2017-04-27T14:45:47Z</time>
      </trkpt>
      <trkpt lat="49.19998" lon="1.27794">
        <ele>53</ele>
        <time>2017-04-27T14:45:47Z</time>
      </trkpt>
      <trkpt lat="49.19997" lon="1.27789">
        <ele>52</ele>
        <time>2017-04-27T14:46:03Z</time>
      </trkpt>
      <trkpt lat="49.19997" lon="1.27782">
        <ele>52</ele>
        <time>2017-04-27T14:46:03Z</time>
      </trkpt>
      <trkpt lat="49.19999" lon="1.27777">
        <ele>52</ele>
        <time>2017-04-27T14:46:03Z</time>
      </trkpt>
      <trkpt lat="49.2" lon="1.27773">
        <ele>52</ele>
        <time>2017-04-27T14:46:03Z</time>
      </trkpt>
      <trkpt lat="49.20001" lon="1.27769">
        <ele>52</ele>
        <time>2017-04-27T14:46:19Z</time>
      </trkpt>
      <trkpt lat="49.20002" lon="1.27764">
        <ele>52</ele>
        <time>2017-04-27T14:46:19Z</time>
      </trkpt>
      <trkpt lat="49.20003" lon="1.27758">
        <ele>52</ele>
        <time>2017-04-27T14:46:19Z</time>
      </trkpt>
      <trkpt lat="49.20005" lon="1.27754">
        <ele>52</ele>
        <time>2017-04-27T14:46:19Z</time>
      </trkpt>
      <trkpt lat="49.20007" lon="1.2775">
        <ele>52</ele>
        <time>2017-04-27T14:46:35Z</time>
      </trkpt>
      <trkpt lat="49.20009" lon="1.27744">
        <ele>52</ele>
        <time>2017-04-27T14:46:35Z</time>
      </trkpt>
      <trkpt lat="49.2001" lon="1.27739">
        <ele>52</ele>
        <time>2017-04-27T14:46:35Z</time>
      </trkpt>
      <trkpt lat="49.20009" lon="1.27733">
        <ele>52</ele>
        <time>2017-04-27T14:46:35Z</time>
      </trkpt>
      <trkpt lat="49.20012" lon="1.27728">
        <ele>52</ele>
        <time>2017-04-27T14:46:51Z</time>
      </trkpt>
      <trkpt lat="49.20013" lon="1.27723">
        <ele>52</ele>
        <time>2017-04-27T14:46:51Z</time>
      </trkpt>
      <trkpt lat="49.20016" lon="1.27719">
        <ele>52</ele>
        <time>2017-04-27T14:46:51Z</time>
      </trkpt>
      <trkpt lat="49.20018" lon="1.27714">
        <ele>52</ele>
        <time>2017-04-27T14:46:51Z</time>
      </trkpt>
      <trkpt lat="49.20019" lon="1.2771">
        <ele>52</ele>
        <time>2017-04-27T14:47:07Z</time>
      </trkpt>
      <trkpt lat="49.20022" lon="1.27705">
        <ele>44</ele>
        <time>2017-04-27T14:47:07Z</time>
      </trkpt>
      <trkpt lat="49.20024" lon="1.277">
        <ele>44</ele>
        <time>2017-04-27T14:47:07Z</time>
      </trkpt>
      <trkpt lat="49.20026" lon="1.27698">
        <ele>44</ele>
        <time>2017-04-27T14:47:07Z</time>
      </trkpt>
      <trkpt lat="49.20028" lon="1.27696">
        <ele>44</ele>
        <time>2017-04-27T14:47:23Z</time>
      </trkpt>
      <trkpt lat="49.20028" lon="1.27689">
        <ele>44</ele>
        <time>2017-04-27T14:47:23Z</time>
      </trkpt>
      <trkpt lat="49.20032" lon="1.27684">
        <ele>44</ele>
        <time>2017-04-27T14:47:23Z</time>
      </trkpt>
      <trkpt lat="49.20033" lon="1.27679">
        <ele>44</ele>
        <time>2017-04-27T14:47:23Z</time>
      </trkpt>
      <trkpt lat="49.20036" lon="1.27674">
        <ele>44</ele>
        <time>2017-04-27T14:47:39Z</time>
      </trkpt>
      <trkpt lat="49.2004" lon="1.27669">
        <ele>44</ele>
        <time>2017-04-27T14:47:39Z</time>
      </trkpt>
      <trkpt lat="49.20043" lon="1.27667">
        <ele>21</ele>
        <time>2017-04-27T14:47:39Z</time>
      </trkpt>
      <trkpt lat="49.20045" lon="1.27664">
        <ele>21</ele>
        <time>2017-04-27T14:47:39Z</time>
      </trkpt>
      <trkpt lat="49.20048" lon="1.2766">
        <ele>21</ele>
        <time>2017-04-27T14:47:55Z</time>
      </trkpt>
      <trkpt lat="49.20053" lon="1.27653">
        <ele>21</ele>
        <time>2017-04-27T14:47:55Z</time>
      </trkpt>
      <trkpt lat="49.20057" lon="1.27647">
        <ele>21</ele>
        <time>2017-04-27T14:47:55Z</time>
      </trkpt>
      <trkpt lat="49.20059" lon="1.27643">
        <ele>21</ele>
        <time>2017-04-27T14:47:55Z</time>
      </trkpt>
      <trkpt lat="49.20062" lon="1.27639">
        <ele>21</ele>
        <time>2017-04-27T14:48:11Z</time>
      </trkpt>
      <trkpt lat="49.20064" lon="1.27631">
        <ele>21</ele>
        <time>2017-04-27T14:48:11Z</time>
      </trkpt>
      <trkpt lat="49.20064" lon="1.27627">
        <ele>21</ele>
        <time>2017-04-27T14:48:11Z</time>
      </trkpt>
      <trkpt lat="49.20062" lon="1.27623">
        <ele>20</ele>
        <time>2017-04-27T14:48:11Z</time>
      </trkpt>
      <trkpt lat="49.20062" lon="1.27618">
        <ele>20</ele>
        <time>2017-04-27T14:48:27Z</time>
      </trkpt>
      <trkpt lat="49.20064" lon="1.27615">
        <ele>20</ele>
        <time>2017-04-27T14:48:27Z</time>
      </trkpt>
      <trkpt lat="49.2006" lon="1.27606">
        <ele>20</ele>
        <time>2017-04-27T14:48:27Z</time>
      </trkpt>
      <trkpt lat="49.20058" lon="1.276">
        <ele>20</ele>
        <time>2017-04-27T14:48:27Z</time>
      </trkpt>
      <trkpt lat="49.20053" lon="1.27586">
        <ele>20</ele>
        <time>2017-04-27T14:50:51Z</time>
      </trkpt>
      <trkpt lat="49.20053" lon="1.27582">
        <ele>20</ele>
        <time>2017-04-27T14:50:51Z</time>
      </trkpt>
      <trkpt lat="49.20053" lon="1.27575">
        <ele>20</ele>
        <time>2017-04-27T14:50:51Z</time>
      </trkpt>
      <trkpt lat="49.20055" lon="1.2757">
        <ele>20</ele>
        <time>2017-04-27T14:50:51Z</time>
      </trkpt>
      <trkpt lat="49.20056" lon="1.27561">
        <ele>20</ele>
        <time>2017-04-27T14:50:51Z</time>
      </trkpt>
      <trkpt lat="49.20057" lon="1.27553">
        <ele>20</ele>
        <time>2017-04-27T14:51:07Z</time>
      </trkpt>
      <trkpt lat="49.20058" lon="1.27547">
        <ele>20</ele>
        <time>2017-04-27T14:51:07Z</time>
      </trkpt>
      <trkpt lat="49.20057" lon="1.2754">
        <ele>18</ele>
        <time>2017-04-27T14:51:07Z</time>
      </trkpt>
      <trkpt lat="49.20059" lon="1.27534">
        <ele>18</ele>
        <time>2017-04-27T14:51:07Z</time>
      </trkpt>
      <trkpt lat="49.2006" lon="1.2753">
        <ele>18</ele>
        <time>2017-04-27T14:51:23Z</time>
      </trkpt>
      <trkpt lat="49.2006" lon="1.27526">
        <ele>18</ele>
        <time>2017-04-27T14:51:23Z</time>
      </trkpt>
      <trkpt lat="49.20058" lon="1.27512">
        <ele>18</ele>
        <time>2017-04-27T14:51:23Z</time>
      </trkpt>
      <trkpt lat="49.20059" lon="1.27508">
        <ele>18</ele>
        <time>2017-04-27T14:51:23Z</time>
      </trkpt>
      <trkpt lat="49.20058" lon="1.27502">
        <ele>18</ele>
        <time>2017-04-27T14:51:39Z</time>
      </trkpt>
      <trkpt lat="49.2006" lon="1.27492">
        <ele>18</ele>
        <time>2017-04-27T14:51:39Z</time>
      </trkpt>
      <trkpt lat="49.20062" lon="1.27485">
        <ele>18</ele>
        <time>2017-04-27T14:51:39Z</time>
      </trkpt>
      <trkpt lat="49.20063" lon="1.27475">
        <ele>18</ele>
        <time>2017-04-27T14:51:39Z</time>
      </trkpt>
      <trkpt lat="49.20062" lon="1.27469">
        <ele>18</ele>
        <time>2017-04-27T14:51:55Z</time>
      </trkpt>
      <trkpt lat="49.20061" lon="1.27464">
        <ele>18</ele>
        <time>2017-04-27T14:51:55Z</time>
      </trkpt>
      <trkpt lat="49.20059" lon="1.27455">
        <ele>18</ele>
        <time>2017-04-27T14:51:55Z</time>
      </trkpt>
      <trkpt lat="49.20059" lon="1.27452">
        <ele>18</ele>
        <time>2017-04-27T14:51:55Z</time>
      </trkpt>
      <trkpt lat="49.2006" lon="1.27447">
        <ele>18</ele>
        <time>2017-04-27T14:52:11Z</time>
      </trkpt>
      <trkpt lat="49.2006" lon="1.27439">
        <ele>18</ele>
        <time>2017-04-27T14:52:11Z</time>
      </trkpt>
      <trkpt lat="49.20058" lon="1.2743">
        <ele>18</ele>
        <time>2017-04-27T14:52:11Z</time>
      </trkpt>
      <trkpt lat="49.2006" lon="1.27424">
        <ele>18</ele>
        <time>2017-04-27T14:52:11Z</time>
      </trkpt>
      <trkpt lat="49.20061" lon="1.27417">
        <ele>18</ele>
        <time>2017-04-27T14:52:27Z</time>
      </trkpt>
      <trkpt lat="49.20062" lon="1.27412">
        <ele>18</ele>
        <time>2017-04-27T14:52:27Z</time>
      </trkpt>
      <trkpt lat="49.20061" lon="1.27404">
        <ele>18</ele>
        <time>2017-04-27T14:52:27Z</time>
      </trkpt>
      <trkpt lat="49.20058" lon="1.27393">
        <ele>18</ele>
        <time>2017-04-27T14:52:27Z</time>
      </trkpt>
      <trkpt lat="49.20059" lon="1.27389">
        <ele>18</ele>
        <time>2017-04-27T14:52:43Z</time>
      </trkpt>
      <trkpt lat="49.20059" lon="1.27384">
        <ele>18</ele>
        <time>2017-04-27T14:52:43Z</time>
      </trkpt>
      <trkpt lat="49.20059" lon="1.27377">
        <ele>18</ele>
        <time>2017-04-27T14:52:43Z</time>
      </trkpt>
      <trkpt lat="49.20057" lon="1.27373">
        <ele>21</ele>
        <time>2017-04-27T14:52:43Z</time>
      </trkpt>
      <trkpt lat="49.20056" lon="1.27369">
        <ele>21</ele>
        <time>2017-04-27T14:52:59Z</time>
      </trkpt>
      <trkpt lat="49.20054" lon="1.27362">
        <ele>21</ele>
        <time>2017-04-27T14:52:59Z</time>
      </trkpt>
      <trkpt lat="49.20053" lon="1.27354">
        <ele>21</ele>
        <time>2017-04-27T14:52:59Z</time>
      </trkpt>
      <trkpt lat="49.20054" lon="1.27348">
        <ele>21</ele>
        <time>2017-04-27T14:52:59Z</time>
      </trkpt>
      <trkpt lat="49.20055" lon="1.27342">
        <ele>21</ele>
        <time>2017-04-27T14:53:15Z</time>
      </trkpt>
      <trkpt lat="49.20055" lon="1.27336">
        <ele>21</ele>
        <time>2017-04-27T14:53:15Z</time>
      </trkpt>
      <trkpt lat="49.20052" lon="1.27328">
        <ele>21</ele>
        <time>2017-04-27T14:53:15Z</time>
      </trkpt>
      <trkpt lat="49.20052" lon="1.27321">
        <ele>21</ele>
        <time>2017-04-27T14:53:15Z</time>
      </trkpt>
      <trkpt lat="49.20052" lon="1.27311">
        <ele>21</ele>
        <time>2017-04-27T14:53:31Z</time>
      </trkpt>
      <trkpt lat="49.20053" lon="1.27303">
        <ele>21</ele>
        <time>2017-04-27T14:53:31Z</time>
      </trkpt>
      <trkpt lat="49.20051" lon="1.27296">
        <ele>21</ele>
        <time>2017-04-27T14:53:31Z</time>
      </trkpt>
      <trkpt lat="49.20051" lon="1.2729">
        <ele>19</ele>
        <time>2017-04-27T14:53:31Z</time>
      </trkpt>
      <trkpt lat="49.20053" lon="1.2728">
        <ele>19</ele>
        <time>2017-04-27T14:53:47Z</time>
      </trkpt>
      <trkpt lat="49.20053" lon="1.27272">
        <ele>19</ele>
        <time>2017-04-27T14:53:47Z</time>
      </trkpt>
      <trkpt lat="49.20055" lon="1.27263">
        <ele>19</ele>
        <time>2017-04-27T14:53:47Z</time>
      </trkpt>
      <trkpt lat="49.20056" lon="1.27255">
        <ele>19</ele>
        <time>2017-04-27T14:53:47Z</time>
      </trkpt>
      <trkpt lat="49.20057" lon="1.27247">
        <ele>19</ele>
        <time>2017-04-27T14:54:03Z</time>
      </trkpt>
      <trkpt lat="49.20058" lon="1.2724">
        <ele>19</ele>
        <time>2017-04-27T14:54:03Z</time>
      </trkpt>
      <trkpt lat="49.2006" lon="1.27233">
        <ele>19</ele>
        <time>2017-04-27T14:54:03Z</time>
      </trkpt>
      <trkpt lat="49.20061" lon="1.27228">
        <ele>19</ele>
        <time>2017-04-27T14:54:03Z</time>
      </trkpt>
      <trkpt lat="49.2006" lon="1.27222">
        <ele>19</ele>
        <time>2017-04-27T14:54:19Z</time>
      </trkpt>
      <trkpt lat="49.2006" lon="1.27214">
        <ele>19</ele>
        <time>2017-04-27T14:54:19Z</time>
      </trkpt>
      <trkpt lat="49.20063" lon="1.27206">
        <ele>18</ele>
        <time>2017-04-27T14:54:19Z</time>
      </trkpt>
      <trkpt lat="49.20062" lon="1.27196">
        <ele>18</ele>
        <time>2017-04-27T14:54:19Z</time>
      </trkpt>
      <trkpt lat="49.20061" lon="1.2719">
        <ele>18</ele>
        <time>2017-04-27T14:54:35Z</time>
      </trkpt>
      <trkpt lat="49.20061" lon="1.27184">
        <ele>18</ele>
        <time>2017-04-27T14:54:35Z</time>
      </trkpt>
      <trkpt lat="49.20059" lon="1.27176">
        <ele>18</ele>
        <time>2017-04-27T14:54:35Z</time>
      </trkpt>
      <trkpt lat="49.20058" lon="1.27169">
        <ele>18</ele>
        <time>2017-04-27T14:54:35Z</time>
      </trkpt>
      <trkpt lat="49.20058" lon="1.27161">
        <ele>18</ele>
        <time>2017-04-27T14:54:51Z</time>
      </trkpt>
      <trkpt lat="49.20059" lon="1.27154">
        <ele>18</ele>
        <time>2017-04-27T14:54:51Z</time>
      </trkpt>
      <trkpt lat="49.2006" lon="1.2715">
        <ele>18</ele>
        <time>2017-04-27T14:54:51Z</time>
      </trkpt>
      <trkpt lat="49.20061" lon="1.27146">
        <ele>18</ele>
        <time>2017-04-27T14:54:51Z</time>
      </trkpt>
      <trkpt lat="49.20061" lon="1.27141">
        <ele>18</ele>
        <time>2017-04-27T14:55:07Z</time>
      </trkpt>
      <trkpt lat="49.20063" lon="1.27131">
        <ele>18</ele>
        <time>2017-04-27T14:55:07Z</time>
      </trkpt>
      <trkpt lat="49.20066" lon="1.27128">
        <ele>18</ele>
        <time>2017-04-27T14:55:07Z</time>
      </trkpt>
      <trkpt lat="49.20065" lon="1.27126">
        <ele>18</ele>
        <time>2017-04-27T14:55:07Z</time>
      </trkpt>
      <trkpt lat="49.20064" lon="1.27123">
        <ele>19</ele>
        <time>2017-04-27T14:55:23Z</time>
      </trkpt>
      <trkpt lat="49.2007" lon="1.27119">
        <ele>19</ele>
        <time>2017-04-27T14:55:23Z</time>
      </trkpt>
      <trkpt lat="49.20075" lon="1.27118">
        <ele>19</ele>
        <time>2017-04-27T14:55:23Z</time>
      </trkpt>
      <trkpt lat="49.20077" lon="1.27121">
        <ele>19</ele>
        <time>2017-04-27T14:55:23Z</time>
      </trkpt>
      <trkpt lat="49.20071" lon="1.27129">
        <ele>18</ele>
        <time>2017-04-27T14:56:03Z</time>
      </trkpt>
      <trkpt lat="49.20073" lon="1.27118">
        <ele>19</ele>
        <time>2017-04-27T14:56:03Z</time>
      </trkpt>
      <trkpt lat="49.20073" lon="1.27109">
        <ele>19</ele>
        <time>2017-04-27T14:56:03Z</time>
      </trkpt>
      <trkpt lat="49.20075" lon="1.27099">
        <ele>19</ele>
        <time>2017-04-27T14:56:03Z</time>
      </trkpt>
      <trkpt lat="49.20076" lon="1.27093">
        <ele>19</ele>
        <time>2017-04-27T14:56:03Z</time>
      </trkpt>
      <trkpt lat="49.20077" lon="1.27085">
        <ele>19</ele>
        <time>2017-04-27T14:56:19Z</time>
      </trkpt>
      <trkpt lat="49.20078" lon="1.27081">
        <ele>19</ele>
        <time>2017-04-27T14:56:19Z</time>
      </trkpt>
      <trkpt lat="49.20078" lon="1.27075">
        <ele>19</ele>
        <time>2017-04-27T14:56:19Z</time>
      </trkpt>
      <trkpt lat="49.20079" lon="1.27066">
        <ele>19</ele>
        <time>2017-04-27T14:56:19Z</time>
      </trkpt>
      <trkpt lat="49.20082" lon="1.27059">
        <ele>19</ele>
        <time>2017-04-27T14:56:35Z</time>
      </trkpt>
      <trkpt lat="49.20087" lon="1.27053">
        <ele>19</ele>
        <time>2017-04-27T14:56:35Z</time>
      </trkpt>
      <trkpt lat="49.2009" lon="1.27049">
        <ele>19</ele>
        <time>2017-04-27T14:56:35Z</time>
      </trkpt>
      <trkpt lat="49.20093" lon="1.27043">
        <ele>19</ele>
        <time>2017-04-27T14:56:35Z</time>
      </trkpt>
      <trkpt lat="49.20099" lon="1.27037">
        <ele>20</ele>
        <time>2017-04-27T14:56:51Z</time>
      </trkpt>
      <trkpt lat="49.20103" lon="1.27032">
        <ele>20</ele>
        <time>2017-04-27T14:56:51Z</time>
      </trkpt>
      <trkpt lat="49.20108" lon="1.27027">
        <ele>20</ele>
        <time>2017-04-27T14:56:51Z</time>
      </trkpt>
      <trkpt lat="49.20112" lon="1.27021">
        <ele>20</ele>
        <time>2017-04-27T14:56:51Z</time>
      </trkpt>
      <trkpt lat="49.20116" lon="1.27017">
        <ele>20</ele>
        <time>2017-04-27T14:57:07Z</time>
      </trkpt>
      <trkpt lat="49.2012" lon="1.27012">
        <ele>20</ele>
        <time>2017-04-27T14:57:07Z</time>
      </trkpt>
      <trkpt lat="49.20124" lon="1.27007">
        <ele>20</ele>
        <time>2017-04-27T14:57:07Z</time>
      </trkpt>
      <trkpt lat="49.20127" lon="1.27004">
        <ele>16</ele>
        <time>2017-04-27T14:57:07Z</time>
      </trkpt>
      <trkpt lat="49.2013" lon="1.27001">
        <ele>16</ele>
        <time>2017-04-27T14:57:23Z</time>
      </trkpt>
      <trkpt lat="49.20137" lon="1.26999">
        <ele>16</ele>
        <time>2017-04-27T14:57:23Z</time>
      </trkpt>
      <trkpt lat="49.2014" lon="1.26996">
        <ele>16</ele>
        <time>2017-04-27T14:57:23Z</time>
      </trkpt>
      <trkpt lat="49.20142" lon="1.26993">
        <ele>16</ele>
        <time>2017-04-27T14:57:23Z</time>
      </trkpt>
      <trkpt lat="49.20144" lon="1.26989">
        <ele>16</ele>
        <time>2017-04-27T14:57:39Z</time>
      </trkpt>
      <trkpt lat="49.20149" lon="1.26983">
        <ele>16</ele>
        <time>2017-04-27T14:57:39Z</time>
      </trkpt>
      <trkpt lat="49.20153" lon="1.2698">
        <ele>16</ele>
        <time>2017-04-27T14:57:39Z</time>
      </trkpt>
      <trkpt lat="49.20158" lon="1.26978">
        <ele>16</ele>
        <time>2017-04-27T14:57:39Z</time>
      </trkpt>
      <trkpt lat="49.20162" lon="1.26971">
        <ele>16</ele>
        <time>2017-04-27T14:57:55Z</time>
      </trkpt>
      <trkpt lat="49.20164" lon="1.26966">
        <ele>16</ele>
        <time>2017-04-27T14:57:55Z</time>
      </trkpt>
      <trkpt lat="49.20166" lon="1.26963">
        <ele>16</ele>
        <time>2017-04-27T14:57:55Z</time>
      </trkpt>
      <trkpt lat="49.2017" lon="1.26957">
        <ele>12</ele>
        <time>2017-04-27T14:57:55Z</time>
      </trkpt>
      <trkpt lat="49.20174" lon="1.26954">
        <ele>12</ele>
        <time>2017-04-27T14:58:11Z</time>
      </trkpt>
      <trkpt lat="49.20177" lon="1.26949">
        <ele>12</ele>
        <time>2017-04-27T14:58:11Z</time>
      </trkpt>
      <trkpt lat="49.20181" lon="1.26944">
        <ele>12</ele>
        <time>2017-04-27T14:58:11Z</time>
      </trkpt>
      <trkpt lat="49.20186" lon="1.26938">
        <ele>12</ele>
        <time>2017-04-27T14:58:11Z</time>
      </trkpt>
      <trkpt lat="49.20192" lon="1.26934">
        <ele>12</ele>
        <time>2017-04-27T14:58:27Z</time>
      </trkpt>
      <trkpt lat="49.20197" lon="1.26932">
        <ele>12</ele>
        <time>2017-04-27T14:58:27Z</time>
      </trkpt>
      <trkpt lat="49.20199" lon="1.2693">
        <ele>12</ele>
        <time>2017-04-27T14:58:27Z</time>
      </trkpt>
      <trkpt lat="49.20202" lon="1.26928">
        <ele>12</ele>
        <time>2017-04-27T14:58:27Z</time>
      </trkpt>
      <trkpt lat="49.20208" lon="1.26924">
        <ele>12</ele>
        <time>2017-04-27T14:58:43Z</time>
      </trkpt>
      <trkpt lat="49.20214" lon="1.26921">
        <ele>7</ele>
        <time>2017-04-27T14:58:43Z</time>
      </trkpt>
      <trkpt lat="49.20217" lon="1.26918">
        <ele>7</ele>
        <time>2017-04-27T14:58:43Z</time>
      </trkpt>
      <trkpt lat="49.20221" lon="1.26911">
        <ele>7</ele>
        <time>2017-04-27T14:58:43Z</time>
      </trkpt>
      <trkpt lat="49.20223" lon="1.26905">
        <ele>7</ele>
        <time>2017-04-27T14:58:59Z</time>
      </trkpt>
      <trkpt lat="49.20225" lon="1.26898">
        <ele>7</ele>
        <time>2017-04-27T14:58:59Z</time>
      </trkpt>
      <trkpt lat="49.20226" lon="1.26892">
        <ele>7</ele>
        <time>2017-04-27T14:58:59Z</time>
      </trkpt>
      <trkpt lat="49.20226" lon="1.26884">
        <ele>7</ele>
        <time>2017-04-27T14:58:59Z</time>
      </trkpt>
      <trkpt lat="49.20224" lon="1.26877">
        <ele>7</ele>
        <time>2017-04-27T14:59:15Z</time>
      </trkpt>
      <trkpt lat="49.20221" lon="1.26869">
        <ele>6</ele>
        <time>2017-04-27T14:59:15Z</time>
      </trkpt>
      <trkpt lat="49.20218" lon="1.26863">
        <ele>6</ele>
        <time>2017-04-27T14:59:15Z</time>
      </trkpt>
      <trkpt lat="49.20216" lon="1.26855">
        <ele>6</ele>
        <time>2017-04-27T14:59:15Z</time>
      </trkpt>
      <trkpt lat="49.20214" lon="1.26845">
        <ele>6</ele>
        <time>2017-04-27T14:59:31Z</time>
      </trkpt>
      <trkpt lat="49.20212" lon="1.26836">
        <ele>6</ele>
        <time>2017-04-27T14:59:31Z</time>
      </trkpt>
      <trkpt lat="49.2021" lon="1.26827">
        <ele>6</ele>
        <time>2017-04-27T14:59:31Z</time>
      </trkpt>
      <trkpt lat="49.2021" lon="1.26822">
        <ele>6</ele>
        <time>2017-04-27T14:59:31Z</time>
      </trkpt>
      <trkpt lat="49.20208" lon="1.26815">
        <ele>11</ele>
        <time>2017-04-27T14:59:47Z</time>
      </trkpt>
      <trkpt lat="49.20205" lon="1.26808">
        <ele>11</ele>
        <time>2017-04-27T14:59:47Z</time>
      </trkpt>
      <trkpt lat="49.20204" lon="1.268">
        <ele>11</ele>
        <time>2017-04-27T14:59:47Z</time>
      </trkpt>
      <trkpt lat="49.20203" lon="1.26797">
        <ele>11</ele>
        <time>2017-04-27T14:59:47Z</time>
      </trkpt>
      <trkpt lat="49.20201" lon="1.2679">
        <ele>12</ele>
        <time>2017-04-27T15:00:03Z</time>
      </trkpt>
      <trkpt lat="49.20201" lon="1.26784">
        <ele>12</ele>
        <time>2017-04-27T15:00:03Z</time>
      </trkpt>
      <trkpt lat="49.202" lon="1.26777">
        <ele>12</ele>
        <time>2017-04-27T15:00:03Z</time>
      </trkpt>
      <trkpt lat="49.20198" lon="1.2677">
        <ele>12</ele>
        <time>2017-04-27T15:00:03Z</time>
      </trkpt>
      <trkpt lat="49.20196" lon="1.26762">
        <ele>12</ele>
        <time>2017-04-27T15:00:19Z</time>
      </trkpt>
      <trkpt lat="49.20195" lon="1.26758">
        <ele>12</ele>
        <time>2017-04-27T15:00:19Z</time>
      </trkpt>
      <trkpt lat="49.20195" lon="1.26749">
        <ele>12</ele>
        <time>2017-04-27T15:00:19Z</time>
      </trkpt>
      <trkpt lat="49.20194" lon="1.26742">
        <ele>12</ele>
        <time>2017-04-27T15:00:19Z</time>
      </trkpt>
      <trkpt lat="49.20194" lon="1.26736">
        <ele>12</ele>
        <time>2017-04-27T15:00:35Z</time>
      </trkpt>
      <trkpt lat="49.20192" lon="1.26728">
        <ele>12</ele>
        <time>2017-04-27T15:00:35Z</time>
      </trkpt>
      <trkpt lat="49.20189" lon="1.2672">
        <ele>12</ele>
        <time>2017-04-27T15:00:35Z</time>
      </trkpt>
      <trkpt lat="49.20189" lon="1.26714">
        <ele>12</ele>
        <time>2017-04-27T15:00:35Z</time>
      </trkpt>
      <trkpt lat="49.20186" lon="1.26707">
        <ele>11</ele>
        <time>2017-04-27T15:00:51Z</time>
      </trkpt>
      <trkpt lat="49.20183" lon="1.267">
        <ele>11</ele>
        <time>2017-04-27T15:00:51Z</time>
      </trkpt>
      <trkpt lat="49.20183" lon="1.26693">
        <ele>11</ele>
        <time>2017-04-27T15:00:51Z</time>
      </trkpt>
      <trkpt lat="49.20181" lon="1.26684">
        <ele>11</ele>
        <time>2017-04-27T15:00:51Z</time>
      </trkpt>
      <trkpt lat="49.20179" lon="1.26677">
        <ele>11</ele>
        <time>2017-04-27T15:01:07Z</time>
      </trkpt>
      <trkpt lat="49.20177" lon="1.26667">
        <ele>11</ele>
        <time>2017-04-27T15:01:07Z</time>
      </trkpt>
      <trkpt lat="49.20175" lon="1.26661">
        <ele>11</ele>
        <time>2017-04-27T15:01:07Z</time>
      </trkpt>
      <trkpt lat="49.20174" lon="1.26656">
        <ele>11</ele>
        <time>2017-04-27T15:01:07Z</time>
      </trkpt>
      <trkpt lat="49.20174" lon="1.26654">
        <ele>11</ele>
        <time>2017-04-27T15:01:27Z</time>
      </trkpt>
      <trkpt lat="49.20173" lon="1.26653">
        <ele>11</ele>
        <time>2017-04-27T15:01:27Z</time>
      </trkpt>
      <trkpt lat="49.20174" lon="1.26651">
        <ele>11</ele>
        <time>2017-04-27T15:01:27Z</time>
      </trkpt>
      <trkpt lat="49.20173" lon="1.26641">
        <ele>11</ele>
        <time>2017-04-27T15:01:27Z</time>
      </trkpt>
      <trkpt lat="49.2017" lon="1.26626">
        <ele>11</ele>
        <time>2017-04-27T15:01:27Z</time>
      </trkpt>
      <trkpt lat="49.20169" lon="1.2662">
        <ele>9</ele>
        <time>2017-04-27T15:01:43Z</time>
      </trkpt>
      <trkpt lat="49.20169" lon="1.26609">
        <ele>9</ele>
        <time>2017-04-27T15:01:43Z</time>
      </trkpt>
      <trkpt lat="49.20167" lon="1.26601">
        <ele>9</ele>
        <time>2017-04-27T15:01:43Z</time>
      </trkpt>
      <trkpt lat="49.20167" lon="1.26594">
        <ele>9</ele>
        <time>2017-04-27T15:01:43Z</time>
      </trkpt>
      <trkpt lat="49.20167" lon="1.26588">
        <ele>9</ele>
        <time>2017-04-27T15:01:59Z</time>
      </trkpt>
      <trkpt lat="49.20167" lon="1.2658">
        <ele>9</ele>
        <time>2017-04-27T15:01:59Z</time>
      </trkpt>
      <trkpt lat="49.20167" lon="1.2657">
        <ele>9</ele>
        <time>2017-04-27T15:01:59Z</time>
      </trkpt>
      <trkpt lat="49.20166" lon="1.26569">
        <ele>9</ele>
        <time>2017-04-27T15:01:59Z</time>
      </trkpt>
      <trkpt lat="49.20164" lon="1.26559">
        <ele>9</ele>
        <time>2017-04-27T15:02:15Z</time>
      </trkpt>
      <trkpt lat="49.20162" lon="1.26552">
        <ele>9</ele>
        <time>2017-04-27T15:02:15Z</time>
      </trkpt>
      <trkpt lat="49.20161" lon="1.26544">
        <ele>9</ele>
        <time>2017-04-27T15:02:15Z</time>
      </trkpt>
      <trkpt lat="49.20161" lon="1.26534">
        <ele>6</ele>
        <time>2017-04-27T15:02:15Z</time>
      </trkpt>
      <trkpt lat="49.20162" lon="1.26527">
        <ele>6</ele>
        <time>2017-04-27T15:02:31Z</time>
      </trkpt>
      <trkpt lat="49.20162" lon="1.2652">
        <ele>6</ele>
        <time>2017-04-27T15:02:31Z</time>
      </trkpt>
      <trkpt lat="49.20161" lon="1.26512">
        <ele>6</ele>
        <time>2017-04-27T15:02:31Z</time>
      </trkpt>
      <trkpt lat="49.2016" lon="1.26504">
        <ele>6</ele>
        <time>2017-04-27T15:02:31Z</time>
      </trkpt>
      <trkpt lat="49.2016" lon="1.26497">
        <ele>6</ele>
        <time>2017-04-27T15:02:47Z</time>
      </trkpt>
      <trkpt lat="49.2016" lon="1.26492">
        <ele>6</ele>
        <time>2017-04-27T15:02:47Z</time>
      </trkpt>
      <trkpt lat="49.20159" lon="1.26483">
        <ele>6</ele>
        <time>2017-04-27T15:02:47Z</time>
      </trkpt>
      <trkpt lat="49.20158" lon="1.26475">
        <ele>6</ele>
        <time>2017-04-27T15:02:47Z</time>
      </trkpt>
      <trkpt lat="49.20158" lon="1.26467">
        <ele>6</ele>
        <time>2017-04-27T15:03:03Z</time>
      </trkpt>
      <trkpt lat="49.20158" lon="1.26462">
        <ele>6</ele>
        <time>2017-04-27T15:03:03Z</time>
      </trkpt>
      <trkpt lat="49.20158" lon="1.26455">
        <ele>6</ele>
        <time>2017-04-27T15:03:03Z</time>
      </trkpt>
      <trkpt lat="49.20157" lon="1.26446">
        <ele>6</ele>
        <time>2017-04-27T15:03:03Z</time>
      </trkpt>
      <trkpt lat="49.20155" lon="1.26439">
        <ele>6</ele>
        <time>2017-04-27T15:03:19Z</time>
      </trkpt>
      <trkpt lat="49.20155" lon="1.26431">
        <ele>6</ele>
        <time>2017-04-27T15:03:19Z</time>
      </trkpt>
      <trkpt lat="49.20155" lon="1.26423">
        <ele>6</ele>
        <time>2017-04-27T15:03:19Z</time>
      </trkpt>
      <trkpt lat="49.20155" lon="1.26414">
        <ele>6</ele>
        <time>2017-04-27T15:03:19Z</time>
      </trkpt>
      <trkpt lat="49.20156" lon="1.26406">
        <ele>6</ele>
        <time>2017-04-27T15:03:35Z</time>
      </trkpt>
      <trkpt lat="49.20156" lon="1.264">
        <ele>6</ele>
        <time>2017-04-27T15:03:35Z</time>
      </trkpt>
      <trkpt lat="49.20157" lon="1.26395">
        <ele>6</ele>
        <time>2017-04-27T15:03:35Z</time>
      </trkpt>
      <trkpt lat="49.20158" lon="1.26388">
        <ele>6</ele>
        <time>2017-04-27T15:03:35Z</time>
      </trkpt>
      <trkpt lat="49.20158" lon="1.26377">
        <ele>6</ele>
        <time>2017-04-27T15:03:51Z</time>
      </trkpt>
      <trkpt lat="49.20157" lon="1.2637">
        <ele>13</ele>
        <time>2017-04-27T15:03:51Z</time>
      </trkpt>
      <trkpt lat="49.20158" lon="1.26363">
        <ele>13</ele>
        <time>2017-04-27T15:03:51Z</time>
      </trkpt>
      <trkpt lat="49.20157" lon="1.26355">
        <ele>13</ele>
        <time>2017-04-27T15:03:51Z</time>
      </trkpt>
      <trkpt lat="49.20158" lon="1.26346">
        <ele>13</ele>
        <time>2017-04-27T15:04:07Z</time>
      </trkpt>
      <trkpt lat="49.20159" lon="1.26339">
        <ele>13</ele>
        <time>2017-04-27T15:04:07Z</time>
      </trkpt>
      <trkpt lat="49.20159" lon="1.26333">
        <ele>13</ele>
        <time>2017-04-27T15:04:07Z</time>
      </trkpt>
      <trkpt lat="49.20159" lon="1.26326">
        <ele>13</ele>
        <time>2017-04-27T15:04:07Z</time>
      </trkpt>
      <trkpt lat="49.20159" lon="1.26318">
        <ele>13</ele>
        <time>2017-04-27T15:04:23Z</time>
      </trkpt>
      <trkpt lat="49.20158" lon="1.26311">
        <ele>13</ele>
        <time>2017-04-27T15:04:23Z</time>
      </trkpt>
      <trkpt lat="49.20158" lon="1.26303">
        <ele>13</ele>
        <time>2017-04-27T15:04:23Z</time>
      </trkpt>
      <trkpt lat="49.20159" lon="1.26293">
        <ele>13</ele>
        <time>2017-04-27T15:04:23Z</time>
      </trkpt>
      <trkpt lat="49.2016" lon="1.26286">
        <ele>13</ele>
        <time>2017-04-27T15:04:39Z</time>
      </trkpt>
      <trkpt lat="49.20159" lon="1.2628">
        <ele>13</ele>
        <time>2017-04-27T15:04:39Z</time>
      </trkpt>
      <trkpt lat="49.20159" lon="1.26271">
        <ele>13</ele>
        <time>2017-04-27T15:04:39Z</time>
      </trkpt>
      <trkpt lat="49.20159" lon="1.26266">
        <ele>13</ele>
        <time>2017-04-27T15:04:39Z</time>
      </trkpt>
      <trkpt lat="49.20159" lon="1.2626">
        <ele>13</ele>
        <time>2017-04-27T15:04:55Z</time>
      </trkpt>
      <trkpt lat="49.20159" lon="1.26253">
        <ele>13</ele>
        <time>2017-04-27T15:04:55Z</time>
      </trkpt>
      <trkpt lat="49.20159" lon="1.26248">
        <ele>13</ele>
        <time>2017-04-27T15:04:55Z</time>
      </trkpt>
      <trkpt lat="49.20162" lon="1.26241">
        <ele>13</ele>
        <time>2017-04-27T15:04:55Z</time>
      </trkpt>
      <trkpt lat="49.20161" lon="1.26233">
        <ele>13</ele>
        <time>2017-04-27T15:05:11Z</time>
      </trkpt>
      <trkpt lat="49.2016" lon="1.26225">
        <ele>13</ele>
        <time>2017-04-27T15:05:11Z</time>
      </trkpt>
      <trkpt lat="49.20159" lon="1.26216">
        <ele>13</ele>
        <time>2017-04-27T15:05:11Z</time>
      </trkpt>
      <trkpt lat="49.20159" lon="1.26209">
        <ele>13</ele>
        <time>2017-04-27T15:05:11Z</time>
      </trkpt>
      <trkpt lat="49.20158" lon="1.26204">
        <ele>11</ele>
        <time>2017-04-27T15:05:27Z</time>
      </trkpt>
      <trkpt lat="49.20157" lon="1.26191">
        <ele>11</ele>
        <time>2017-04-27T15:05:27Z</time>
      </trkpt>
      <trkpt lat="49.20158" lon="1.26183">
        <ele>11</ele>
        <time>2017-04-27T15:05:27Z</time>
      </trkpt>
      <trkpt lat="49.20159" lon="1.26177">
        <ele>11</ele>
        <time>2017-04-27T15:05:27Z</time>
      </trkpt>
      <trkpt lat="49.20158" lon="1.26166">
        <ele>11</ele>
        <time>2017-04-27T15:05:43Z</time>
      </trkpt>
      <trkpt lat="49.20157" lon="1.2616">
        <ele>11</ele>
        <time>2017-04-27T15:05:43Z</time>
      </trkpt>
      <trkpt lat="49.20157" lon="1.26152">
        <ele>11</ele>
        <time>2017-04-27T15:05:43Z</time>
      </trkpt>
      <trkpt lat="49.20157" lon="1.26144">
        <ele>11</ele>
        <time>2017-04-27T15:05:43Z</time>
      </trkpt>
      <trkpt lat="49.20158" lon="1.26134">
        <ele>11</ele>
        <time>2017-04-27T15:05:59Z</time>
      </trkpt>
      <trkpt lat="49.20158" lon="1.26129">
        <ele>11</ele>
        <time>2017-04-27T15:05:59Z</time>
      </trkpt>
      <trkpt lat="49.20158" lon="1.26122">
        <ele>14</ele>
        <time>2017-04-27T15:05:59Z</time>
      </trkpt>
      <trkpt lat="49.20158" lon="1.26114">
        <ele>14</ele>
        <time>2017-04-27T15:05:59Z</time>
      </trkpt>
      <trkpt lat="49.20158" lon="1.26106">
        <ele>14</ele>
        <time>2017-04-27T15:06:15Z</time>
      </trkpt>
      <trkpt lat="49.20158" lon="1.26099">
        <ele>14</ele>
        <time>2017-04-27T15:06:15Z</time>
      </trkpt>
      <trkpt lat="49.2016" lon="1.26092">
        <ele>14</ele>
        <time>2017-04-27T15:06:15Z</time>
      </trkpt>
      <trkpt lat="49.2016" lon="1.26083">
        <ele>14</ele>
        <time>2017-04-27T15:06:15Z</time>
      </trkpt>
      <trkpt lat="49.2016" lon="1.26075">
        <ele>14</ele>
        <time>2017-04-27T15:06:31Z</time>
      </trkpt>
      <trkpt lat="49.2016" lon="1.26066">
        <ele>14</ele>
        <time>2017-04-27T15:06:31Z</time>
      </trkpt>
      <trkpt lat="49.20161" lon="1.2606">
        <ele>14</ele>
        <time>2017-04-27T15:06:31Z</time>
      </trkpt>
      <trkpt lat="49.20161" lon="1.26052">
        <ele>14</ele>
        <time>2017-04-27T15:06:31Z</time>
      </trkpt>
      <trkpt lat="49.20164" lon="1.26046">
        <ele>14</ele>
        <time>2017-04-27T15:06:47Z</time>
      </trkpt>
      <trkpt lat="49.20167" lon="1.26037">
        <ele>14</ele>
        <time>2017-04-27T15:06:47Z</time>
      </trkpt>
      <trkpt lat="49.20166" lon="1.26032">
        <ele>14</ele>
        <time>2017-04-27T15:06:47Z</time>
      </trkpt>
      <trkpt lat="49.20166" lon="1.26022">
        <ele>14</ele>
        <time>2017-04-27T15:06:47Z</time>
      </trkpt>
      <trkpt lat="49.20166" lon="1.26016">
        <ele>14</ele>
        <time>2017-04-27T15:07:03Z</time>
      </trkpt>
      <trkpt lat="49.20168" lon="1.2601">
        <ele>14</ele>
        <time>2017-04-27T15:07:03Z</time>
      </trkpt>
      <trkpt lat="49.20169" lon="1.26001">
        <ele>14</ele>
        <time>2017-04-27T15:07:03Z</time>
      </trkpt>
      <trkpt lat="49.20171" lon="1.25994">
        <ele>14</ele>
        <time>2017-04-27T15:07:03Z</time>
      </trkpt>
      <trkpt lat="49.20173" lon="1.25987">
        <ele>14</ele>
        <time>2017-04-27T15:07:19Z</time>
      </trkpt>
      <trkpt lat="49.20175" lon="1.25981">
        <ele>14</ele>
        <time>2017-04-27T15:07:19Z</time>
      </trkpt>
      <trkpt lat="49.20177" lon="1.25974">
        <ele>14</ele>
        <time>2017-04-27T15:07:19Z</time>
      </trkpt>
      <trkpt lat="49.20179" lon="1.25968">
        <ele>14</ele>
        <time>2017-04-27T15:07:19Z</time>
      </trkpt>
      <trkpt lat="49.20182" lon="1.2596">
        <ele>14</ele>
        <time>2017-04-27T15:07:35Z</time>
      </trkpt>
      <trkpt lat="49.20182" lon="1.25953">
        <ele>16</ele>
        <time>2017-04-27T15:07:35Z</time>
      </trkpt>
      <trkpt lat="49.20185" lon="1.25945">
        <ele>16</ele>
        <time>2017-04-27T15:07:35Z</time>
      </trkpt>
      <trkpt lat="49.20187" lon="1.25939">
        <ele>16</ele>
        <time>2017-04-27T15:07:35Z</time>
      </trkpt>
      <trkpt lat="49.20189" lon="1.25932">
        <ele>16</ele>
        <time>2017-04-27T15:07:51Z</time>
      </trkpt>
      <trkpt lat="49.20192" lon="1.25928">
        <ele>16</ele>
        <time>2017-04-27T15:07:51Z</time>
      </trkpt>
      <trkpt lat="49.20195" lon="1.25923">
        <ele>16</ele>
        <time>2017-04-27T15:07:51Z</time>
      </trkpt>
      <trkpt lat="49.20196" lon="1.25918">
        <ele>16</ele>
        <time>2017-04-27T15:07:51Z</time>
      </trkpt>
      <trkpt lat="49.20196" lon="1.25913">
        <ele>16</ele>
        <time>2017-04-27T15:08:07Z</time>
      </trkpt>
      <trkpt lat="49.20198" lon="1.25904">
        <ele>16</ele>
        <time>2017-04-27T15:08:07Z</time>
      </trkpt>
      <trkpt lat="49.202" lon="1.259">
        <ele>16</ele>
        <time>2017-04-27T15:08:07Z</time>
      </trkpt>
      <trkpt lat="49.20203" lon="1.25892">
        <ele>16</ele>
        <time>2017-04-27T15:08:07Z</time>
      </trkpt>
      <trkpt lat="49.20204" lon="1.25882">
        <ele>16</ele>
        <time>2017-04-27T15:08:23Z</time>
      </trkpt>
      <trkpt lat="49.20207" lon="1.25875">
        <ele>19</ele>
        <time>2017-04-27T15:08:23Z</time>
      </trkpt>
      <trkpt lat="49.2021" lon="1.25865">
        <ele>6</ele>
        <time>2017-04-27T15:08:23Z</time>
      </trkpt>
      <trkpt lat="49.2021" lon="1.25859">
        <ele>6</ele>
        <time>2017-04-27T15:08:23Z</time>
      </trkpt>
      <trkpt lat="49.2021" lon="1.25851">
        <ele>6</ele>
        <time>2017-04-27T15:08:39Z</time>
      </trkpt>
      <trkpt lat="49.2021" lon="1.25845">
        <ele>6</ele>
        <time>2017-04-27T15:08:39Z</time>
      </trkpt>
      <trkpt lat="49.20212" lon="1.25836">
        <ele>6</ele>
        <time>2017-04-27T15:08:39Z</time>
      </trkpt>
      <trkpt lat="49.20212" lon="1.25828">
        <ele>6</ele>
        <time>2017-04-27T15:08:39Z</time>
      </trkpt>
      <trkpt lat="49.20212" lon="1.25817">
        <ele>6</ele>
        <time>2017-04-27T15:08:55Z</time>
      </trkpt>
      <trkpt lat="49.20212" lon="1.25808">
        <ele>6</ele>
        <time>2017-04-27T15:08:55Z</time>
      </trkpt>
      <trkpt lat="49.20213" lon="1.258">
        <ele>6</ele>
        <time>2017-04-27T15:08:55Z</time>
      </trkpt>
      <trkpt lat="49.20214" lon="1.25792">
        <ele>6</ele>
        <time>2017-04-27T15:08:55Z</time>
      </trkpt>
      <trkpt lat="49.20212" lon="1.25783">
        <ele>6</ele>
        <time>2017-04-27T15:09:11Z</time>
      </trkpt>
      <trkpt lat="49.20212" lon="1.2578">
        <ele>6</ele>
        <time>2017-04-27T15:09:11Z</time>
      </trkpt>
      <trkpt lat="49.20214" lon="1.25768">
        <ele>6</ele>
        <time>2017-04-27T15:09:11Z</time>
      </trkpt>
      <trkpt lat="49.20213" lon="1.25763">
        <ele>6</ele>
        <time>2017-04-27T15:09:11Z</time>
      </trkpt>
      <trkpt lat="49.20214" lon="1.25756">
        <ele>6</ele>
        <time>2017-04-27T15:09:27Z</time>
      </trkpt>
      <trkpt lat="49.20217" lon="1.2575">
        <ele>6</ele>
        <time>2017-04-27T15:09:27Z</time>
      </trkpt>
      <trkpt lat="49.20218" lon="1.25744">
        <ele>6</ele>
        <time>2017-04-27T15:09:27Z</time>
      </trkpt>
      <trkpt lat="49.2022" lon="1.25738">
        <ele>6</ele>
        <time>2017-04-27T15:09:27Z</time>
      </trkpt>
      <trkpt lat="49.20219" lon="1.25731">
        <ele>6</ele>
        <time>2017-04-27T15:09:43Z</time>
      </trkpt>
      <trkpt lat="49.20218" lon="1.25723">
        <ele>6</ele>
        <time>2017-04-27T15:09:43Z</time>
      </trkpt>
      <trkpt lat="49.20217" lon="1.25715">
        <ele>6</ele>
        <time>2017-04-27T15:09:43Z</time>
      </trkpt>
      <trkpt lat="49.20218" lon="1.25709">
        <ele>6</ele>
        <time>2017-04-27T15:09:43Z</time>
      </trkpt>
      <trkpt lat="49.20219" lon="1.25702">
        <ele>6</ele>
        <time>2017-04-27T15:09:59Z</time>
      </trkpt>
      <trkpt lat="49.20221" lon="1.25695">
        <ele>6</ele>
        <time>2017-04-27T15:09:59Z</time>
      </trkpt>
      <trkpt lat="49.20222" lon="1.25688">
        <ele>6</ele>
        <time>2017-04-27T15:09:59Z</time>
      </trkpt>
      <trkpt lat="49.20224" lon="1.25679">
        <ele>6</ele>
        <time>2017-04-27T15:09:59Z</time>
      </trkpt>
      <trkpt lat="49.20224" lon="1.25672">
        <ele>6</ele>
        <time>2017-04-27T15:10:15Z</time>
      </trkpt>
      <trkpt lat="49.20224" lon="1.25665">
        <ele>6</ele>
        <time>2017-04-27T15:10:15Z</time>
      </trkpt>
      <trkpt lat="49.20225" lon="1.25658">
        <ele>6</ele>
        <time>2017-04-27T15:10:15Z</time>
      </trkpt>
      <trkpt lat="49.20227" lon="1.25651">
        <ele>6</ele>
        <time>2017-04-27T15:10:15Z</time>
      </trkpt>
      <trkpt lat="49.20228" lon="1.25643">
        <ele>6</ele>
        <time>2017-04-27T15:10:31Z</time>
      </trkpt>
      <trkpt lat="49.20227" lon="1.25635">
        <ele>6</ele>
        <time>2017-04-27T15:10:31Z</time>
      </trkpt>
      <trkpt lat="49.20228" lon="1.25628">
        <ele>6</ele>
        <time>2017-04-27T15:10:31Z</time>
      </trkpt>
      <trkpt lat="49.20231" lon="1.2562">
        <ele>6</ele>
        <time>2017-04-27T15:10:31Z</time>
      </trkpt>
      <trkpt lat="49.20232" lon="1.25612">
        <ele>6</ele>
        <time>2017-04-27T15:10:47Z</time>
      </trkpt>
      <trkpt lat="49.20234" lon="1.25605">
        <ele>6</ele>
        <time>2017-04-27T15:10:47Z</time>
      </trkpt>
      <trkpt lat="49.20235" lon="1.25596">
        <ele>6</ele>
        <time>2017-04-27T15:10:47Z</time>
      </trkpt>
      <trkpt lat="49.20236" lon="1.25589">
        <ele>6</ele>
        <time>2017-04-27T15:10:47Z</time>
      </trkpt>
      <trkpt lat="49.20237" lon="1.25582">
        <ele>6</ele>
        <time>2017-04-27T15:11:03Z</time>
      </trkpt>
      <trkpt lat="49.20238" lon="1.25573">
        <ele>6</ele>
        <time>2017-04-27T15:11:03Z</time>
      </trkpt>
      <trkpt lat="49.20239" lon="1.25567">
        <ele>6</ele>
        <time>2017-04-27T15:11:03Z</time>
      </trkpt>
      <trkpt lat="49.20241" lon="1.2556">
        <ele>6</ele>
        <time>2017-04-27T15:11:03Z</time>
      </trkpt>
      <trkpt lat="49.20241" lon="1.25551">
        <ele>6</ele>
        <time>2017-04-27T15:11:19Z</time>
      </trkpt>
      <trkpt lat="49.20242" lon="1.25542">
        <ele>6</ele>
        <time>2017-04-27T15:11:19Z</time>
      </trkpt>
      <trkpt lat="49.20244" lon="1.25534">
        <ele>6</ele>
        <time>2017-04-27T15:11:19Z</time>
      </trkpt>
      <trkpt lat="49.20245" lon="1.25528">
        <ele>6</ele>
        <time>2017-04-27T15:11:19Z</time>
      </trkpt>
      <trkpt lat="49.20246" lon="1.25525">
        <ele>6</ele>
        <time>2017-04-27T15:11:35Z</time>
      </trkpt>
      <trkpt lat="49.20246" lon="1.25519">
        <ele>6</ele>
        <time>2017-04-27T15:11:35Z</time>
      </trkpt>
      <trkpt lat="49.20247" lon="1.25512">
        <ele>6</ele>
        <time>2017-04-27T15:11:35Z</time>
      </trkpt>
      <trkpt lat="49.20248" lon="1.25503">
        <ele>6</ele>
        <time>2017-04-27T15:11:35Z</time>
      </trkpt>
      <trkpt lat="49.20249" lon="1.25494">
        <ele>6</ele>
        <time>2017-04-27T15:11:51Z</time>
      </trkpt>
      <trkpt lat="49.2025" lon="1.25486">
        <ele>6</ele>
        <time>2017-04-27T15:11:51Z</time>
      </trkpt>
      <trkpt lat="49.20253" lon="1.2548">
        <ele>6</ele>
        <time>2017-04-27T15:11:51Z</time>
      </trkpt>
      <trkpt lat="49.20254" lon="1.25471">
        <ele>6</ele>
        <time>2017-04-27T15:11:51Z</time>
      </trkpt>
      <trkpt lat="49.20256" lon="1.25465">
        <ele>6</ele>
        <time>2017-04-27T15:12:07Z</time>
      </trkpt>
      <trkpt lat="49.20258" lon="1.25455">
        <ele>6</ele>
        <time>2017-04-27T15:12:07Z</time>
      </trkpt>
      <trkpt lat="49.20259" lon="1.25448">
        <ele>6</ele>
        <time>2017-04-27T15:12:07Z</time>
      </trkpt>
      <trkpt lat="49.2026" lon="1.2544">
        <ele>6</ele>
        <time>2017-04-27T15:12:07Z</time>
      </trkpt>
      <trkpt lat="49.2026" lon="1.25427">
        <ele>6</ele>
        <time>2017-04-27T15:12:43Z</time>
      </trkpt>
      <trkpt lat="49.20264" lon="1.25416">
        <ele>6</ele>
        <time>2017-04-27T15:12:43Z</time>
      </trkpt>
      <trkpt lat="49.20266" lon="1.25407">
        <ele>6</ele>
        <time>2017-04-27T15:12:43Z</time>
      </trkpt>
      <trkpt lat="49.20267" lon="1.25399">
        <ele>6</ele>
        <time>2017-04-27T15:12:43Z</time>
      </trkpt>
      <trkpt lat="49.20269" lon="1.25389">
        <ele>6</ele>
        <time>2017-04-27T15:12:43Z</time>
      </trkpt>
      <trkpt lat="49.20271" lon="1.25381">
        <ele>6</ele>
        <time>2017-04-27T15:12:59Z</time>
      </trkpt>
      <trkpt lat="49.20273" lon="1.25373">
        <ele>25</ele>
        <time>2017-04-27T15:12:59Z</time>
      </trkpt>
      <trkpt lat="49.20274" lon="1.25365">
        <ele>25</ele>
        <time>2017-04-27T15:12:59Z</time>
      </trkpt>
      <trkpt lat="49.20275" lon="1.25361">
        <ele>25</ele>
        <time>2017-04-27T15:12:59Z</time>
      </trkpt>
      <trkpt lat="49.20277" lon="1.25356">
        <ele>25</ele>
        <time>2017-04-27T15:13:15Z</time>
      </trkpt>
      <trkpt lat="49.20278" lon="1.2535">
        <ele>25</ele>
        <time>2017-04-27T15:13:15Z</time>
      </trkpt>
      <trkpt lat="49.20279" lon="1.25344">
        <ele>25</ele>
        <time>2017-04-27T15:13:15Z</time>
      </trkpt>
      <trkpt lat="49.20282" lon="1.25333">
        <ele>25</ele>
        <time>2017-04-27T15:13:15Z</time>
      </trkpt>
      <trkpt lat="49.20283" lon="1.25324">
        <ele>25</ele>
        <time>2017-04-27T15:13:31Z</time>
      </trkpt>
      <trkpt lat="49.20284" lon="1.25315">
        <ele>25</ele>
        <time>2017-04-27T15:13:31Z</time>
      </trkpt>
      <trkpt lat="49.20285" lon="1.25309">
        <ele>25</ele>
        <time>2017-04-27T15:13:31Z</time>
      </trkpt>
      <trkpt lat="49.20287" lon="1.25304">
        <ele>25</ele>
        <time>2017-04-27T15:13:31Z</time>
      </trkpt>
      <trkpt lat="49.2029" lon="1.25295">
        <ele>25</ele>
        <time>2017-04-27T15:13:47Z</time>
      </trkpt>
      <trkpt lat="49.20292" lon="1.2529">
        <ele>32</ele>
        <time>2017-04-27T15:13:47Z</time>
      </trkpt>
      <trkpt lat="49.20294" lon="1.25282">
        <ele>6</ele>
        <time>2017-04-27T15:13:47Z</time>
      </trkpt>
      <trkpt lat="49.20296" lon="1.25276">
        <ele>6</ele>
        <time>2017-04-27T15:13:47Z</time>
      </trkpt>
      <trkpt lat="49.20297" lon="1.25268">
        <ele>6</ele>
        <time>2017-04-27T15:14:03Z</time>
      </trkpt>
      <trkpt lat="49.20298" lon="1.2526">
        <ele>6</ele>
        <time>2017-04-27T15:14:03Z</time>
      </trkpt>
      <trkpt lat="49.20301" lon="1.25254">
        <ele>6</ele>
        <time>2017-04-27T15:14:03Z</time>
      </trkpt>
      <trkpt lat="49.20303" lon="1.25247">
        <ele>6</ele>
        <time>2017-04-27T15:14:03Z</time>
      </trkpt>
      <trkpt lat="49.20306" lon="1.25239">
        <ele>6</ele>
        <time>2017-04-27T15:14:19Z</time>
      </trkpt>
      <trkpt lat="49.20307" lon="1.25234">
        <ele>6</ele>
        <time>2017-04-27T15:14:19Z</time>
      </trkpt>
      <trkpt lat="49.2031" lon="1.25225">
        <ele>6</ele>
        <time>2017-04-27T15:14:19Z</time>
      </trkpt>
      <trkpt lat="49.2031" lon="1.25221">
        <ele>6</ele>
        <time>2017-04-27T15:14:19Z</time>
      </trkpt>
      <trkpt lat="49.20312" lon="1.25214">
        <ele>6</ele>
        <time>2017-04-27T15:14:35Z</time>
      </trkpt>
      <trkpt lat="49.20312" lon="1.2521">
        <ele>6</ele>
        <time>2017-04-27T15:14:35Z</time>
      </trkpt>
      <trkpt lat="49.20314" lon="1.25202">
        <ele>6</ele>
        <time>2017-04-27T15:14:35Z</time>
      </trkpt>
      <trkpt lat="49.20316" lon="1.25194">
        <ele>6</ele>
        <time>2017-04-27T15:14:35Z</time>
      </trkpt>
      <trkpt lat="49.20317" lon="1.25187">
        <ele>6</ele>
        <time>2017-04-27T15:14:51Z</time>
      </trkpt>
      <trkpt lat="49.20318" lon="1.2518">
        <ele>6</ele>
        <time>2017-04-27T15:14:51Z</time>
      </trkpt>
      <trkpt lat="49.20321" lon="1.25173">
        <ele>6</ele>
        <time>2017-04-27T15:14:51Z</time>
      </trkpt>
      <trkpt lat="49.20322" lon="1.25165">
        <ele>6</ele>
        <time>2017-04-27T15:14:51Z</time>
      </trkpt>
      <trkpt lat="49.20324" lon="1.2516">
        <ele>6</ele>
        <time>2017-04-27T15:15:07Z</time>
      </trkpt>
      <trkpt lat="49.20326" lon="1.25153">
        <ele>6</ele>
        <time>2017-04-27T15:15:07Z</time>
      </trkpt>
      <trkpt lat="49.20327" lon="1.25146">
        <ele>6</ele>
        <time>2017-04-27T15:15:07Z</time>
      </trkpt>
      <trkpt lat="49.20329" lon="1.25139">
        <ele>6</ele>
        <time>2017-04-27T15:15:07Z</time>
      </trkpt>
      <trkpt lat="49.20332" lon="1.2513">
        <ele>6</ele>
        <time>2017-04-27T15:15:23Z</time>
      </trkpt>
      <trkpt lat="49.20335" lon="1.25124">
        <ele>17</ele>
        <time>2017-04-27T15:15:23Z</time>
      </trkpt>
      <trkpt lat="49.20338" lon="1.25117">
        <ele>17</ele>
        <time>2017-04-27T15:15:23Z</time>
      </trkpt>
      <trkpt lat="49.2034" lon="1.25109">
        <ele>17</ele>
        <time>2017-04-27T15:15:23Z</time>
      </trkpt>
      <trkpt lat="49.20342" lon="1.25102">
        <ele>17</ele>
        <time>2017-04-27T15:15:39Z</time>
      </trkpt>
      <trkpt lat="49.20344" lon="1.25096">
        <ele>17</ele>
        <time>2017-04-27T15:15:39Z</time>
      </trkpt>
      <trkpt lat="49.20345" lon="1.25089">
        <ele>17</ele>
        <time>2017-04-27T15:15:39Z</time>
      </trkpt>
      <trkpt lat="49.20347" lon="1.25082">
        <ele>17</ele>
        <time>2017-04-27T15:15:39Z</time>
      </trkpt>
      <trkpt lat="49.2035" lon="1.25077">
        <ele>17</ele>
        <time>2017-04-27T15:15:55Z</time>
      </trkpt>
      <trkpt lat="49.20353" lon="1.2507">
        <ele>17</ele>
        <time>2017-04-27T15:15:55Z</time>
      </trkpt>
      <trkpt lat="49.20355" lon="1.25064">
        <ele>17</ele>
        <time>2017-04-27T15:15:55Z</time>
      </trkpt>
      <trkpt lat="49.20358" lon="1.25058">
        <ele>17</ele>
        <time>2017-04-27T15:15:55Z</time>
      </trkpt>
      <trkpt lat="49.20361" lon="1.25052">
        <ele>17</ele>
        <time>2017-04-27T15:16:11Z</time>
      </trkpt>
      <trkpt lat="49.20363" lon="1.25045">
        <ele>17</ele>
        <time>2017-04-27T15:16:11Z</time>
      </trkpt>
      <trkpt lat="49.20368" lon="1.25038">
        <ele>20</ele>
        <time>2017-04-27T15:16:11Z</time>
      </trkpt>
      <trkpt lat="49.20371" lon="1.25032">
        <ele>20</ele>
        <time>2017-04-27T15:16:11Z</time>
      </trkpt>
      <trkpt lat="49.20374" lon="1.25026">
        <ele>20</ele>
        <time>2017-04-27T15:16:27Z</time>
      </trkpt>
      <trkpt lat="49.20375" lon="1.25021">
        <ele>20</ele>
        <time>2017-04-27T15:16:27Z</time>
      </trkpt>
      <trkpt lat="49.20377" lon="1.25013">
        <ele>6</ele>
        <time>2017-04-27T15:16:27Z</time>
      </trkpt>
      <trkpt lat="49.2038" lon="1.25006">
        <ele>6</ele>
        <time>2017-04-27T15:16:27Z</time>
      </trkpt>
      <trkpt lat="49.20381" lon="1.24999">
        <ele>6</ele>
        <time>2017-04-27T15:16:43Z</time>
      </trkpt>
      <trkpt lat="49.20382" lon="1.24993">
        <ele>6</ele>
        <time>2017-04-27T15:16:43Z</time>
      </trkpt>
      <trkpt lat="49.20384" lon="1.24986">
        <ele>6</ele>
        <time>2017-04-27T15:16:43Z</time>
      </trkpt>
      <trkpt lat="49.20386" lon="1.24982">
        <ele>6</ele>
        <time>2017-04-27T15:16:43Z</time>
      </trkpt>
      <trkpt lat="49.2039" lon="1.24975">
        <ele>6</ele>
        <time>2017-04-27T15:16:59Z</time>
      </trkpt>
      <trkpt lat="49.20391" lon="1.24969">
        <ele>6</ele>
        <time>2017-04-27T15:16:59Z</time>
      </trkpt>
      <trkpt lat="49.20393" lon="1.24961">
        <ele>6</ele>
        <time>2017-04-27T15:16:59Z</time>
      </trkpt>
      <trkpt lat="49.20396" lon="1.24953">
        <ele>6</ele>
        <time>2017-04-27T15:16:59Z</time>
      </trkpt>
      <trkpt lat="49.20398" lon="1.24945">
        <ele>6</ele>
        <time>2017-04-27T15:17:15Z</time>
      </trkpt>
      <trkpt lat="49.20399" lon="1.24939">
        <ele>6</ele>
        <time>2017-04-27T15:17:15Z</time>
      </trkpt>
      <trkpt lat="49.20402" lon="1.24934">
        <ele>6</ele>
        <time>2017-04-27T15:17:15Z</time>
      </trkpt>
      <trkpt lat="49.20405" lon="1.24922">
        <ele>6</ele>
        <time>2017-04-27T15:17:15Z</time>
      </trkpt>
      <trkpt lat="49.20408" lon="1.24917">
        <ele>6</ele>
        <time>2017-04-27T15:17:31Z</time>
      </trkpt>
      <trkpt lat="49.20409" lon="1.24912">
        <ele>6</ele>
        <time>2017-04-27T15:17:31Z</time>
      </trkpt>
      <trkpt lat="49.20409" lon="1.24906">
        <ele>6</ele>
        <time>2017-04-27T15:17:31Z</time>
      </trkpt>
      <trkpt lat="49.2041" lon="1.249">
        <ele>6</ele>
        <time>2017-04-27T15:17:31Z</time>
      </trkpt>
      <trkpt lat="49.20411" lon="1.24893">
        <ele>6</ele>
        <time>2017-04-27T15:17:47Z</time>
      </trkpt>
      <trkpt lat="49.20415" lon="1.24883">
        <ele>6</ele>
        <time>2017-04-27T15:17:47Z</time>
      </trkpt>
      <trkpt lat="49.20417" lon="1.24876">
        <ele>6</ele>
        <time>2017-04-27T15:17:47Z</time>
      </trkpt>
      <trkpt lat="49.20419" lon="1.24871">
        <ele>19</ele>
        <time>2017-04-27T15:17:47Z</time>
      </trkpt>
      <trkpt lat="49.20421" lon="1.24865">
        <ele>19</ele>
        <time>2017-04-27T15:18:03Z</time>
      </trkpt>
      <trkpt lat="49.20423" lon="1.24857">
        <ele>19</ele>
        <time>2017-04-27T15:18:03Z</time>
      </trkpt>
      <trkpt lat="49.20425" lon="1.24849">
        <ele>19</ele>
        <time>2017-04-27T15:18:03Z</time>
      </trkpt>
      <trkpt lat="49.20427" lon="1.24842">
        <ele>19</ele>
        <time>2017-04-27T15:18:03Z</time>
      </trkpt>
      <trkpt lat="49.20431" lon="1.24835">
        <ele>19</ele>
        <time>2017-04-27T15:18:19Z</time>
      </trkpt>
      <trkpt lat="49.20434" lon="1.24828">
        <ele>19</ele>
        <time>2017-04-27T15:18:19Z</time>
      </trkpt>
      <trkpt lat="49.20436" lon="1.24822">
        <ele>19</ele>
        <time>2017-04-27T15:18:19Z</time>
      </trkpt>
      <trkpt lat="49.20439" lon="1.24814">
        <ele>19</ele>
        <time>2017-04-27T15:18:19Z</time>
      </trkpt>
      <trkpt lat="49.20441" lon="1.24808">
        <ele>19</ele>
        <time>2017-04-27T15:18:35Z</time>
      </trkpt>
      <trkpt lat="49.20444" lon="1.24801">
        <ele>19</ele>
        <time>2017-04-27T15:18:35Z</time>
      </trkpt>
      <trkpt lat="49.20446" lon="1.24795">
        <ele>19</ele>
        <time>2017-04-27T15:18:35Z</time>
      </trkpt>
      <trkpt lat="49.20448" lon="1.24787">
        <ele>32</ele>
        <time>2017-04-27T15:18:35Z</time>
      </trkpt>
      <trkpt lat="49.20451" lon="1.24779">
        <ele>32</ele>
        <time>2017-04-27T15:18:51Z</time>
      </trkpt>
      <trkpt lat="49.20453" lon="1.24772">
        <ele>32</ele>
        <time>2017-04-27T15:18:51Z</time>
      </trkpt>
      <trkpt lat="49.20453" lon="1.24766">
        <ele>32</ele>
        <time>2017-04-27T15:18:51Z</time>
      </trkpt>
      <trkpt lat="49.20454" lon="1.24757">
        <ele>32</ele>
        <time>2017-04-27T15:18:51Z</time>
      </trkpt>
      <trkpt lat="49.20457" lon="1.24749">
        <ele>32</ele>
        <time>2017-04-27T15:19:07Z</time>
      </trkpt>
      <trkpt lat="49.20458" lon="1.24741">
        <ele>32</ele>
        <time>2017-04-27T15:19:07Z</time>
      </trkpt>
      <trkpt lat="49.2046" lon="1.24733">
        <ele>6</ele>
        <time>2017-04-27T15:19:07Z</time>
      </trkpt>
      <trkpt lat="49.20463" lon="1.24727">
        <ele>6</ele>
        <time>2017-04-27T15:19:07Z</time>
      </trkpt>
      <trkpt lat="49.20464" lon="1.24724">
        <ele>6</ele>
        <time>2017-04-27T15:19:23Z</time>
      </trkpt>
      <trkpt lat="49.20466" lon="1.24719">
        <ele>6</ele>
        <time>2017-04-27T15:19:23Z</time>
      </trkpt>
      <trkpt lat="49.20469" lon="1.24714">
        <ele>6</ele>
        <time>2017-04-27T15:19:23Z</time>
      </trkpt>
      <trkpt lat="49.2047" lon="1.24707">
        <ele>6</ele>
        <time>2017-04-27T15:19:23Z</time>
      </trkpt>
      <trkpt lat="49.20472" lon="1.24698">
        <ele>6</ele>
        <time>2017-04-27T15:19:39Z</time>
      </trkpt>
      <trkpt lat="49.20474" lon="1.24693">
        <ele>6</ele>
        <time>2017-04-27T15:19:39Z</time>
      </trkpt>
      <trkpt lat="49.20476" lon="1.24683">
        <ele>6</ele>
        <time>2017-04-27T15:19:39Z</time>
      </trkpt>
      <trkpt lat="49.2048" lon="1.24675">
        <ele>6</ele>
        <time>2017-04-27T15:19:39Z</time>
      </trkpt>
      <trkpt lat="49.20482" lon="1.24668">
        <ele>6</ele>
        <time>2017-04-27T15:19:55Z</time>
      </trkpt>
      <trkpt lat="49.20485" lon="1.24661">
        <ele>6</ele>
        <time>2017-04-27T15:19:55Z</time>
      </trkpt>
      <trkpt lat="49.20486" lon="1.24657">
        <ele>6</ele>
        <time>2017-04-27T15:19:55Z</time>
      </trkpt>
      <trkpt lat="49.2049" lon="1.24649">
        <ele>6</ele>
        <time>2017-04-27T15:19:55Z</time>
      </trkpt>
      <trkpt lat="49.20493" lon="1.24643">
        <ele>6</ele>
        <time>2017-04-27T15:20:11Z</time>
      </trkpt>
      <trkpt lat="49.20494" lon="1.24635">
        <ele>6</ele>
        <time>2017-04-27T15:20:11Z</time>
      </trkpt>
      <trkpt lat="49.20496" lon="1.24631">
        <ele>6</ele>
        <time>2017-04-27T15:20:11Z</time>
      </trkpt>
      <trkpt lat="49.20499" lon="1.24623">
        <ele>18</ele>
        <time>2017-04-27T15:20:11Z</time>
      </trkpt>
      <trkpt lat="49.20501" lon="1.24616">
        <ele>18</ele>
        <time>2017-04-27T15:20:27Z</time>
      </trkpt>
      <trkpt lat="49.20502" lon="1.2461">
        <ele>18</ele>
        <time>2017-04-27T15:20:27Z</time>
      </trkpt>
      <trkpt lat="49.20504" lon="1.24608">
        <ele>18</ele>
        <time>2017-04-27T15:20:27Z</time>
      </trkpt>
      <trkpt lat="49.20507" lon="1.24605">
        <ele>18</ele>
        <time>2017-04-27T15:20:27Z</time>
      </trkpt>
      <trkpt lat="49.2051" lon="1.24599">
        <ele>18</ele>
        <time>2017-04-27T15:20:43Z</time>
      </trkpt>
      <trkpt lat="49.20512" lon="1.24593">
        <ele>18</ele>
        <time>2017-04-27T15:20:43Z</time>
      </trkpt>
      <trkpt lat="49.20513" lon="1.24589">
        <ele>18</ele>
        <time>2017-04-27T15:20:43Z</time>
      </trkpt>
      <trkpt lat="49.20516" lon="1.24574">
        <ele>18</ele>
        <time>2017-04-27T15:20:43Z</time>
      </trkpt>
      <trkpt lat="49.20518" lon="1.24564">
        <ele>18</ele>
        <time>2017-04-27T15:20:59Z</time>
      </trkpt>
      <trkpt lat="49.20518" lon="1.24554">
        <ele>18</ele>
        <time>2017-04-27T15:20:59Z</time>
      </trkpt>
      <trkpt lat="49.20521" lon="1.24546">
        <ele>18</ele>
        <time>2017-04-27T15:20:59Z</time>
      </trkpt>
      <trkpt lat="49.20524" lon="1.24539">
        <ele>28</ele>
        <time>2017-04-27T15:20:59Z</time>
      </trkpt>
      <trkpt lat="49.20527" lon="1.24535">
        <ele>28</ele>
        <time>2017-04-27T15:21:15Z</time>
      </trkpt>
      <trkpt lat="49.20529" lon="1.24529">
        <ele>28</ele>
        <time>2017-04-27T15:21:15Z</time>
      </trkpt>
      <trkpt lat="49.20531" lon="1.24524">
        <ele>28</ele>
        <time>2017-04-27T15:21:15Z</time>
      </trkpt>
      <trkpt lat="49.20534" lon="1.24517">
        <ele>28</ele>
        <time>2017-04-27T15:21:15Z</time>
      </trkpt>
      <trkpt lat="49.20536" lon="1.24512">
        <ele>28</ele>
        <time>2017-04-27T15:21:31Z</time>
      </trkpt>
      <trkpt lat="49.2054" lon="1.24503">
        <ele>28</ele>
        <time>2017-04-27T15:21:31Z</time>
      </trkpt>
      <trkpt lat="49.20543" lon="1.24496">
        <ele>6</ele>
        <time>2017-04-27T15:21:31Z</time>
      </trkpt>
      <trkpt lat="49.20545" lon="1.24491">
        <ele>6</ele>
        <time>2017-04-27T15:21:31Z</time>
      </trkpt>
      <trkpt lat="49.20548" lon="1.24483">
        <ele>6</ele>
        <time>2017-04-27T15:21:47Z</time>
      </trkpt>
      <trkpt lat="49.2055" lon="1.24476">
        <ele>6</ele>
        <time>2017-04-27T15:21:47Z</time>
      </trkpt>
      <trkpt lat="49.20553" lon="1.24468">
        <ele>6</ele>
        <time>2017-04-27T15:21:47Z</time>
      </trkpt>
      <trkpt lat="49.20554" lon="1.24465">
        <ele>6</ele>
        <time>2017-04-27T15:21:47Z</time>
      </trkpt>
      <trkpt lat="49.20556" lon="1.2446">
        <ele>6</ele>
        <time>2017-04-27T15:22:03Z</time>
      </trkpt>
      <trkpt lat="49.20557" lon="1.24457">
        <ele>14</ele>
        <time>2017-04-27T15:22:03Z</time>
      </trkpt>
      <trkpt lat="49.20562" lon="1.24449">
        <ele>14</ele>
        <time>2017-04-27T15:22:03Z</time>
      </trkpt>
      <trkpt lat="49.20565" lon="1.24442">
        <ele>14</ele>
        <time>2017-04-27T15:22:03Z</time>
      </trkpt>
      <trkpt lat="49.20568" lon="1.24436">
        <ele>14</ele>
        <time>2017-04-27T15:22:19Z</time>
      </trkpt>
      <trkpt lat="49.2057" lon="1.24432">
        <ele>14</ele>
        <time>2017-04-27T15:22:19Z</time>
      </trkpt>
      <trkpt lat="49.20575" lon="1.24426">
        <ele>14</ele>
        <time>2017-04-27T15:22:19Z</time>
      </trkpt>
      <trkpt lat="49.20578" lon="1.24419">
        <ele>14</ele>
        <time>2017-04-27T15:22:19Z</time>
      </trkpt>
      <trkpt lat="49.2058" lon="1.24414">
        <ele>14</ele>
        <time>2017-04-27T15:22:35Z</time>
      </trkpt>
      <trkpt lat="49.20583" lon="1.24409">
        <ele>14</ele>
        <time>2017-04-27T15:22:35Z</time>
      </trkpt>
      <trkpt lat="49.20586" lon="1.24403">
        <ele>14</ele>
        <time>2017-04-27T15:22:35Z</time>
      </trkpt>
      <trkpt lat="49.20589" lon="1.24398">
        <ele>14</ele>
        <time>2017-04-27T15:22:35Z</time>
      </trkpt>
      <trkpt lat="49.20594" lon="1.24391">
        <ele>14</ele>
        <time>2017-04-27T15:22:51Z</time>
      </trkpt>
      <trkpt lat="49.20595" lon="1.24386">
        <ele>14</ele>
        <time>2017-04-27T15:22:51Z</time>
      </trkpt>
      <trkpt lat="49.20598" lon="1.24381">
        <ele>14</ele>
        <time>2017-04-27T15:22:51Z</time>
      </trkpt>
      <trkpt lat="49.20603" lon="1.24375">
        <ele>23</ele>
        <time>2017-04-27T15:22:51Z</time>
      </trkpt>
      <trkpt lat="49.20608" lon="1.24367">
        <ele>23</ele>
        <time>2017-04-27T15:23:07Z</time>
      </trkpt>
      <trkpt lat="49.20611" lon="1.24359">
        <ele>23</ele>
        <time>2017-04-27T15:23:07Z</time>
      </trkpt>
      <trkpt lat="49.20614" lon="1.24353">
        <ele>23</ele>
        <time>2017-04-27T15:23:07Z</time>
      </trkpt>
      <trkpt lat="49.20617" lon="1.24348">
        <ele>23</ele>
        <time>2017-04-27T15:23:07Z</time>
      </trkpt>
      <trkpt lat="49.2062" lon="1.2434">
        <ele>23</ele>
        <time>2017-04-27T15:23:23Z</time>
      </trkpt>
      <trkpt lat="49.20624" lon="1.24333">
        <ele>23</ele>
        <time>2017-04-27T15:23:23Z</time>
      </trkpt>
      <trkpt lat="49.20626" lon="1.24326">
        <ele>6</ele>
        <time>2017-04-27T15:23:23Z</time>
      </trkpt>
      <trkpt lat="49.20628" lon="1.24322">
        <ele>6</ele>
        <time>2017-04-27T15:23:23Z</time>
      </trkpt>
      <trkpt lat="49.2063" lon="1.24317">
        <ele>6</ele>
        <time>2017-04-27T15:23:39Z</time>
      </trkpt>
      <trkpt lat="49.20634" lon="1.24309">
        <ele>6</ele>
        <time>2017-04-27T15:23:39Z</time>
      </trkpt>
      <trkpt lat="49.20636" lon="1.24304">
        <ele>6</ele>
        <time>2017-04-27T15:23:39Z</time>
      </trkpt>
      <trkpt lat="49.20641" lon="1.24296">
        <ele>6</ele>
        <time>2017-04-27T15:23:39Z</time>
      </trkpt>
      <trkpt lat="49.20643" lon="1.2429">
        <ele>14</ele>
        <time>2017-04-27T15:23:55Z</time>
      </trkpt>
      <trkpt lat="49.20645" lon="1.24285">
        <ele>14</ele>
        <time>2017-04-27T15:23:55Z</time>
      </trkpt>
      <trkpt lat="49.20644" lon="1.24282">
        <ele>14</ele>
        <time>2017-04-27T15:23:55Z</time>
      </trkpt>
      <trkpt lat="49.20648" lon="1.24276">
        <ele>14</ele>
        <time>2017-04-27T15:23:55Z</time>
      </trkpt>
      <trkpt lat="49.20653" lon="1.24269">
        <ele>14</ele>
        <time>2017-04-27T15:24:11Z</time>
      </trkpt>
      <trkpt lat="49.20657" lon="1.24262">
        <ele>14</ele>
        <time>2017-04-27T15:24:11Z</time>
      </trkpt>
      <trkpt lat="49.2066" lon="1.24256">
        <ele>14</ele>
        <time>2017-04-27T15:24:11Z</time>
      </trkpt>
      <trkpt lat="49.20663" lon="1.24252">
        <ele>14</ele>
        <time>2017-04-27T15:24:11Z</time>
      </trkpt>
      <trkpt lat="49.20667" lon="1.24245">
        <ele>14</ele>
        <time>2017-04-27T15:24:27Z</time>
      </trkpt>
      <trkpt lat="49.2067" lon="1.2424">
        <ele>14</ele>
        <time>2017-04-27T15:24:27Z</time>
      </trkpt>
      <trkpt lat="49.20674" lon="1.24233">
        <ele>14</ele>
        <time>2017-04-27T15:24:27Z</time>
      </trkpt>
      <trkpt lat="49.20675" lon="1.2423">
        <ele>14</ele>
        <time>2017-04-27T15:24:27Z</time>
      </trkpt>
      <trkpt lat="49.20677" lon="1.24227">
        <ele>14</ele>
        <time>2017-04-27T15:24:43Z</time>
      </trkpt>
      <trkpt lat="49.20682" lon="1.24221">
        <ele>14</ele>
        <time>2017-04-27T15:24:43Z</time>
      </trkpt>
      <trkpt lat="49.20684" lon="1.24215">
        <ele>14</ele>
        <time>2017-04-27T15:24:43Z</time>
      </trkpt>
      <trkpt lat="49.20689" lon="1.24211">
        <ele>14</ele>
        <time>2017-04-27T15:24:43Z</time>
      </trkpt>
      <trkpt lat="49.20693" lon="1.24201">
        <ele>18</ele>
        <time>2017-04-27T15:24:59Z</time>
      </trkpt>
      <trkpt lat="49.20696" lon="1.24196">
        <ele>18</ele>
        <time>2017-04-27T15:24:59Z</time>
      </trkpt>
      <trkpt lat="49.20699" lon="1.24189">
        <ele>18</ele>
        <time>2017-04-27T15:24:59Z</time>
      </trkpt>
      <trkpt lat="49.20703" lon="1.24182">
        <ele>18</ele>
        <time>2017-04-27T15:24:59Z</time>
      </trkpt>
      <trkpt lat="49.20704" lon="1.24179">
        <ele>18</ele>
        <time>2017-04-27T15:25:15Z</time>
      </trkpt>
      <trkpt lat="49.20707" lon="1.24174">
        <ele>18</ele>
        <time>2017-04-27T15:25:15Z</time>
      </trkpt>
      <trkpt lat="49.2071" lon="1.24171">
        <ele>6</ele>
        <time>2017-04-27T15:25:15Z</time>
      </trkpt>
      <trkpt lat="49.20714" lon="1.24166">
        <ele>6</ele>
        <time>2017-04-27T15:25:15Z</time>
      </trkpt>
      <trkpt lat="49.20719" lon="1.24162">
        <ele>6</ele>
        <time>2017-04-27T15:25:31Z</time>
      </trkpt>
      <trkpt lat="49.20724" lon="1.24154">
        <ele>6</ele>
        <time>2017-04-27T15:25:31Z</time>
      </trkpt>
      <trkpt lat="49.20726" lon="1.24148">
        <ele>6</ele>
        <time>2017-04-27T15:25:31Z</time>
      </trkpt>
      <trkpt lat="49.20728" lon="1.24145">
        <ele>6</ele>
        <time>2017-04-27T15:25:31Z</time>
      </trkpt>
      <trkpt lat="49.2073" lon="1.2414">
        <ele>6</ele>
        <time>2017-04-27T15:25:47Z</time>
      </trkpt>
      <trkpt lat="49.20733" lon="1.24135">
        <ele>6</ele>
        <time>2017-04-27T15:25:47Z</time>
      </trkpt>
      <trkpt lat="49.20737" lon="1.24129">
        <ele>6</ele>
        <time>2017-04-27T15:25:47Z</time>
      </trkpt>
      <trkpt lat="49.20742" lon="1.24123">
        <ele>12</ele>
        <time>2017-04-27T15:25:47Z</time>
      </trkpt>
      <trkpt lat="49.20746" lon="1.24115">
        <ele>12</ele>
        <time>2017-04-27T15:26:03Z</time>
      </trkpt>
      <trkpt lat="49.20749" lon="1.24108">
        <ele>12</ele>
        <time>2017-04-27T15:26:03Z</time>
      </trkpt>
      <trkpt lat="49.2075" lon="1.24106">
        <ele>12</ele>
        <time>2017-04-27T15:26:03Z</time>
      </trkpt>
      <trkpt lat="49.20752" lon="1.24103">
        <ele>12</ele>
        <time>2017-04-27T15:26:03Z</time>
      </trkpt>
      <trkpt lat="49.20753" lon="1.24097">
        <ele>12</ele>
        <time>2017-04-27T15:26:19Z</time>
      </trkpt>
      <trkpt lat="49.20757" lon="1.24085">
        <ele>12</ele>
        <time>2017-04-27T15:26:19Z</time>
      </trkpt>
      <trkpt lat="49.2076" lon="1.24076">
        <ele>12</ele>
        <time>2017-04-27T15:26:19Z</time>
      </trkpt>
      <trkpt lat="49.20765" lon="1.24071">
        <ele>12</ele>
        <time>2017-04-27T15:26:19Z</time>
      </trkpt>
      <trkpt lat="49.20766" lon="1.24064">
        <ele>12</ele>
        <time>2017-04-27T15:26:35Z</time>
      </trkpt>
      <trkpt lat="49.2077" lon="1.24059">
        <ele>12</ele>
        <time>2017-04-27T15:26:35Z</time>
      </trkpt>
      <trkpt lat="49.20772" lon="1.24053">
        <ele>12</ele>
        <time>2017-04-27T15:26:35Z</time>
      </trkpt>
      <trkpt lat="49.20779" lon="1.24044">
        <ele>12</ele>
        <time>2017-04-27T15:26:35Z</time>
      </trkpt>
      <trkpt lat="49.20783" lon="1.24039">
        <ele>24</ele>
        <time>2017-04-27T15:26:51Z</time>
      </trkpt>
      <trkpt lat="49.20787" lon="1.24035">
        <ele>24</ele>
        <time>2017-04-27T15:26:51Z</time>
      </trkpt>
      <trkpt lat="49.20791" lon="1.2403">
        <ele>24</ele>
        <time>2017-04-27T15:26:51Z</time>
      </trkpt>
      <trkpt lat="49.20794" lon="1.24024">
        <ele>7</ele>
        <time>2017-04-27T15:26:51Z</time>
      </trkpt>
      <trkpt lat="49.20797" lon="1.24019">
        <ele>7</ele>
        <time>2017-04-27T15:27:07Z</time>
      </trkpt>
      <trkpt lat="49.20802" lon="1.24009">
        <ele>7</ele>
        <time>2017-04-27T15:27:07Z</time>
      </trkpt>
      <trkpt lat="49.20804" lon="1.24005">
        <ele>7</ele>
        <time>2017-04-27T15:27:07Z</time>
      </trkpt>
      <trkpt lat="49.20808" lon="1.24">
        <ele>7</ele>
        <time>2017-04-27T15:27:07Z</time>
      </trkpt>
      <trkpt lat="49.20811" lon="1.23995">
        <ele>7</ele>
        <time>2017-04-27T15:27:23Z</time>
      </trkpt>
      <trkpt lat="49.20813" lon="1.2399">
        <ele>7</ele>
        <time>2017-04-27T15:27:23Z</time>
      </trkpt>
      <trkpt lat="49.20815" lon="1.23985">
        <ele>7</ele>
        <time>2017-04-27T15:27:23Z</time>
      </trkpt>
      <trkpt lat="49.20818" lon="1.23979">
        <ele>7</ele>
        <time>2017-04-27T15:27:23Z</time>
      </trkpt>
      <trkpt lat="49.20821" lon="1.23974">
        <ele>7</ele>
        <time>2017-04-27T15:27:39Z</time>
      </trkpt>
      <trkpt lat="49.20825" lon="1.23969">
        <ele>7</ele>
        <time>2017-04-27T15:27:39Z</time>
      </trkpt>
      <trkpt lat="49.20828" lon="1.23963">
        <ele>7</ele>
        <time>2017-04-27T15:27:39Z</time>
      </trkpt>
      <trkpt lat="49.20834" lon="1.23957">
        <ele>16</ele>
        <time>2017-04-27T15:27:39Z</time>
      </trkpt>
      <trkpt lat="49.20839" lon="1.23949">
        <ele>16</ele>
        <time>2017-04-27T15:27:55Z</time>
      </trkpt>
      <trkpt lat="49.20841" lon="1.23946">
        <ele>16</ele>
        <time>2017-04-27T15:27:55Z</time>
      </trkpt>
      <trkpt lat="49.20845" lon="1.23941">
        <ele>16</ele>
        <time>2017-04-27T15:27:55Z</time>
      </trkpt>
      <trkpt lat="49.20848" lon="1.23938">
        <ele>16</ele>
        <time>2017-04-27T15:27:55Z</time>
      </trkpt>
      <trkpt lat="49.20852" lon="1.23934">
        <ele>16</ele>
        <time>2017-04-27T15:28:11Z</time>
      </trkpt>
      <trkpt lat="49.20855" lon="1.23926">
        <ele>16</ele>
        <time>2017-04-27T15:28:11Z</time>
      </trkpt>
      <trkpt lat="49.20857" lon="1.23919">
        <ele>16</ele>
        <time>2017-04-27T15:28:11Z</time>
      </trkpt>
      <trkpt lat="49.20859" lon="1.23915">
        <ele>16</ele>
        <time>2017-04-27T15:28:11Z</time>
      </trkpt>
      <trkpt lat="49.20861" lon="1.23909">
        <ele>16</ele>
        <time>2017-04-27T15:28:27Z</time>
      </trkpt>
      <trkpt lat="49.20866" lon="1.23901">
        <ele>16</ele>
        <time>2017-04-27T15:28:27Z</time>
      </trkpt>
      <trkpt lat="49.2087" lon="1.23896">
        <ele>16</ele>
        <time>2017-04-27T15:28:27Z</time>
      </trkpt>
      <trkpt lat="49.20872" lon="1.23892">
        <ele>16</ele>
        <time>2017-04-27T15:28:27Z</time>
      </trkpt>
      <trkpt lat="49.20878" lon="1.23884">
        <ele>6</ele>
        <time>2017-04-27T15:28:43Z</time>
      </trkpt>
      <trkpt lat="49.20882" lon="1.23878">
        <ele>6</ele>
        <time>2017-04-27T15:28:43Z</time>
      </trkpt>
      <trkpt lat="49.20886" lon="1.23874">
        <ele>10</ele>
        <time>2017-04-27T15:28:43Z</time>
      </trkpt>
      <trkpt lat="49.2089" lon="1.23869">
        <ele>10</ele>
        <time>2017-04-27T15:28:43Z</time>
      </trkpt>
      <trkpt lat="49.20894" lon="1.23862">
        <ele>10</ele>
        <time>2017-04-27T15:28:59Z</time>
      </trkpt>
      <trkpt lat="49.20897" lon="1.23858">
        <ele>10</ele>
        <time>2017-04-27T15:28:59Z</time>
      </trkpt>
      <trkpt lat="49.20899" lon="1.23854">
        <ele>10</ele>
        <time>2017-04-27T15:28:59Z</time>
      </trkpt>
      <trkpt lat="49.20904" lon="1.23846">
        <ele>10</ele>
        <time>2017-04-27T15:28:59Z</time>
      </trkpt>
      <trkpt lat="49.20907" lon="1.23839">
        <ele>10</ele>
        <time>2017-04-27T15:29:15Z</time>
      </trkpt>
      <trkpt lat="49.20911" lon="1.23834">
        <ele>10</ele>
        <time>2017-04-27T15:29:15Z</time>
      </trkpt>
      <trkpt lat="49.20915" lon="1.2383">
        <ele>10</ele>
        <time>2017-04-27T15:29:15Z</time>
      </trkpt>
      <trkpt lat="49.20917" lon="1.23826">
        <ele>10</ele>
        <time>2017-04-27T15:29:15Z</time>
      </trkpt>
      <trkpt lat="49.20921" lon="1.23821">
        <ele>10</ele>
        <time>2017-04-27T15:29:31Z</time>
      </trkpt>
      <trkpt lat="49.20926" lon="1.23815">
        <ele>10</ele>
        <time>2017-04-27T15:29:31Z</time>
      </trkpt>
      <trkpt lat="49.2093" lon="1.23812">
        <ele>10</ele>
        <time>2017-04-27T15:29:31Z</time>
      </trkpt>
      <trkpt lat="49.20931" lon="1.23806">
        <ele>10</ele>
        <time>2017-04-27T15:29:31Z</time>
      </trkpt>
      <trkpt lat="49.20934" lon="1.23801">
        <ele>10</ele>
        <time>2017-04-27T15:29:47Z</time>
      </trkpt>
      <trkpt lat="49.20937" lon="1.23796">
        <ele>10</ele>
        <time>2017-04-27T15:29:47Z</time>
      </trkpt>
      <trkpt lat="49.2094" lon="1.23792">
        <ele>10</ele>
        <time>2017-04-27T15:29:47Z</time>
      </trkpt>
      <trkpt lat="49.20945" lon="1.23788">
        <ele>15</ele>
        <time>2017-04-27T15:29:47Z</time>
      </trkpt>
      <trkpt lat="49.20951" lon="1.23783">
        <ele>15</ele>
        <time>2017-04-27T15:30:03Z</time>
      </trkpt>
      <trkpt lat="49.20954" lon="1.23779">
        <ele>15</ele>
        <time>2017-04-27T15:30:03Z</time>
      </trkpt>
      <trkpt lat="49.20958" lon="1.23774">
        <ele>15</ele>
        <time>2017-04-27T15:30:03Z</time>
      </trkpt>
      <trkpt lat="49.20961" lon="1.23769">
        <ele>11</ele>
        <time>2017-04-27T15:30:03Z</time>
      </trkpt>
      <trkpt lat="49.20965" lon="1.23765">
        <ele>11</ele>
        <time>2017-04-27T15:30:19Z</time>
      </trkpt>
      <trkpt lat="49.20968" lon="1.23761">
        <ele>11</ele>
        <time>2017-04-27T15:30:19Z</time>
      </trkpt>
      <trkpt lat="49.20972" lon="1.23757">
        <ele>11</ele>
        <time>2017-04-27T15:30:19Z</time>
      </trkpt>
      <trkpt lat="49.20975" lon="1.2375">
        <ele>11</ele>
        <time>2017-04-27T15:30:19Z</time>
      </trkpt>
      <trkpt lat="49.20978" lon="1.23742">
        <ele>11</ele>
        <time>2017-04-27T15:30:35Z</time>
      </trkpt>
      <trkpt lat="49.2098" lon="1.23739">
        <ele>11</ele>
        <time>2017-04-27T15:30:35Z</time>
      </trkpt>
      <trkpt lat="49.20982" lon="1.23732">
        <ele>11</ele>
        <time>2017-04-27T15:30:35Z</time>
      </trkpt>
      <trkpt lat="49.20984" lon="1.23721">
        <ele>11</ele>
        <time>2017-04-27T15:30:35Z</time>
      </trkpt>
      <trkpt lat="49.20986" lon="1.23717">
        <ele>11</ele>
        <time>2017-04-27T15:30:51Z</time>
      </trkpt>
      <trkpt lat="49.2099" lon="1.23711">
        <ele>11</ele>
        <time>2017-04-27T15:30:51Z</time>
      </trkpt>
      <trkpt lat="49.20998" lon="1.23707">
        <ele>15</ele>
        <time>2017-04-27T15:30:51Z</time>
      </trkpt>
      <trkpt lat="49.21002" lon="1.23701">
        <ele>15</ele>
        <time>2017-04-27T15:30:51Z</time>
      </trkpt>
      <trkpt lat="49.21005" lon="1.23696">
        <ele>15</ele>
        <time>2017-04-27T15:31:07Z</time>
      </trkpt>
      <trkpt lat="49.21007" lon="1.2369">
        <ele>15</ele>
        <time>2017-04-27T15:31:07Z</time>
      </trkpt>
      <trkpt lat="49.21011" lon="1.23682">
        <ele>15</ele>
        <time>2017-04-27T15:31:07Z</time>
      </trkpt>
      <trkpt lat="49.21013" lon="1.23679">
        <ele>15</ele>
        <time>2017-04-27T15:31:07Z</time>
      </trkpt>
      <trkpt lat="49.21015" lon="1.23674">
        <ele>15</ele>
        <time>2017-04-27T15:31:23Z</time>
      </trkpt>
      <trkpt lat="49.21018" lon="1.23669">
        <ele>15</ele>
        <time>2017-04-27T15:31:23Z</time>
      </trkpt>
      <trkpt lat="49.21026" lon="1.23662">
        <ele>15</ele>
        <time>2017-04-27T15:31:23Z</time>
      </trkpt>
      <trkpt lat="49.21028" lon="1.23656">
        <ele>15</ele>
        <time>2017-04-27T15:31:23Z</time>
      </trkpt>
      <trkpt lat="49.2103" lon="1.23652">
        <ele>15</ele>
        <time>2017-04-27T15:31:39Z</time>
      </trkpt>
      <trkpt lat="49.21034" lon="1.23647">
        <ele>15</ele>
        <time>2017-04-27T15:31:39Z</time>
      </trkpt>
      <trkpt lat="49.21036" lon="1.23642">
        <ele>15</ele>
        <time>2017-04-27T15:31:39Z</time>
      </trkpt>
      <trkpt lat="49.2104" lon="1.23638">
        <ele>15</ele>
        <time>2017-04-27T15:31:39Z</time>
      </trkpt>
      <trkpt lat="49.21042" lon="1.23634">
        <ele>15</ele>
        <time>2017-04-27T15:31:55Z</time>
      </trkpt>
      <trkpt lat="49.21046" lon="1.23626">
        <ele>6</ele>
        <time>2017-04-27T15:31:55Z</time>
      </trkpt>
      <trkpt lat="49.2105" lon="1.23618">
        <ele>13</ele>
        <time>2017-04-27T15:31:55Z</time>
      </trkpt>
      <trkpt lat="49.21052" lon="1.23613">
        <ele>13</ele>
        <time>2017-04-27T15:31:55Z</time>
      </trkpt>
      <trkpt lat="49.21057" lon="1.23608">
        <ele>13</ele>
        <time>2017-04-27T15:32:11Z</time>
      </trkpt>
      <trkpt lat="49.21062" lon="1.23601">
        <ele>13</ele>
        <time>2017-04-27T15:32:11Z</time>
      </trkpt>
      <trkpt lat="49.21064" lon="1.23596">
        <ele>13</ele>
        <time>2017-04-27T15:32:11Z</time>
      </trkpt>
      <trkpt lat="49.21066" lon="1.2359">
        <ele>13</ele>
        <time>2017-04-27T15:32:11Z</time>
      </trkpt>
      <trkpt lat="49.21068" lon="1.23585">
        <ele>13</ele>
        <time>2017-04-27T15:32:27Z</time>
      </trkpt>
      <trkpt lat="49.21073" lon="1.2358">
        <ele>13</ele>
        <time>2017-04-27T15:32:27Z</time>
      </trkpt>
      <trkpt lat="49.21076" lon="1.23575">
        <ele>13</ele>
        <time>2017-04-27T15:32:27Z</time>
      </trkpt>
      <trkpt lat="49.21082" lon="1.2357">
        <ele>13</ele>
        <time>2017-04-27T15:32:27Z</time>
      </trkpt>
      <trkpt lat="49.21085" lon="1.23565">
        <ele>13</ele>
        <time>2017-04-27T15:32:43Z</time>
      </trkpt>
      <trkpt lat="49.21088" lon="1.2356">
        <ele>13</ele>
        <time>2017-04-27T15:32:43Z</time>
      </trkpt>
      <trkpt lat="49.21091" lon="1.23556">
        <ele>13</ele>
        <time>2017-04-27T15:32:43Z</time>
      </trkpt>
      <trkpt lat="49.21096" lon="1.23551">
        <ele>13</ele>
        <time>2017-04-27T15:32:43Z</time>
      </trkpt>
      <trkpt lat="49.211" lon="1.23543">
        <ele>13</ele>
        <time>2017-04-27T15:32:59Z</time>
      </trkpt>
      <trkpt lat="49.21102" lon="1.23537">
        <ele>16</ele>
        <time>2017-04-27T15:32:59Z</time>
      </trkpt>
      <trkpt lat="49.21105" lon="1.23532">
        <ele>16</ele>
        <time>2017-04-27T15:32:59Z</time>
      </trkpt>
      <trkpt lat="49.2111" lon="1.23528">
        <ele>16</ele>
        <time>2017-04-27T15:32:59Z</time>
      </trkpt>
      <trkpt lat="49.21112" lon="1.23522">
        <ele>16</ele>
        <time>2017-04-27T15:33:15Z</time>
      </trkpt>
      <trkpt lat="49.21116" lon="1.23518">
        <ele>16</ele>
        <time>2017-04-27T15:33:15Z</time>
      </trkpt>
      <trkpt lat="49.2112" lon="1.23513">
        <ele>16</ele>
        <time>2017-04-27T15:33:15Z</time>
      </trkpt>
      <trkpt lat="49.21121" lon="1.23507">
        <ele>16</ele>
        <time>2017-04-27T15:33:15Z</time>
      </trkpt>
      <trkpt lat="49.21123" lon="1.23501">
        <ele>16</ele>
        <time>2017-04-27T15:33:31Z</time>
      </trkpt>
      <trkpt lat="49.21128" lon="1.23492">
        <ele>7</ele>
        <time>2017-04-27T15:33:31Z</time>
      </trkpt>
      <trkpt lat="49.21131" lon="1.23486">
        <ele>7</ele>
        <time>2017-04-27T15:33:31Z</time>
      </trkpt>
      <trkpt lat="49.21135" lon="1.23482">
        <ele>7</ele>
        <time>2017-04-27T15:33:31Z</time>
      </trkpt>
      <trkpt lat="49.21138" lon="1.23477">
        <ele>7</ele>
        <time>2017-04-27T15:33:47Z</time>
      </trkpt>
      <trkpt lat="49.21143" lon="1.23472">
        <ele>7</ele>
        <time>2017-04-27T15:33:47Z</time>
      </trkpt>
      <trkpt lat="49.21146" lon="1.23467">
        <ele>7</ele>
        <time>2017-04-27T15:33:47Z</time>
      </trkpt>
      <trkpt lat="49.21149" lon="1.23464">
        <ele>7</ele>
        <time>2017-04-27T15:33:47Z</time>
      </trkpt>
      <trkpt lat="49.21154" lon="1.2346">
        <ele>7</ele>
        <time>2017-04-27T15:34:03Z</time>
      </trkpt>
      <trkpt lat="49.21156" lon="1.23455">
        <ele>11</ele>
        <time>2017-04-27T15:34:03Z</time>
      </trkpt>
      <trkpt lat="49.21157" lon="1.2345">
        <ele>11</ele>
        <time>2017-04-27T15:34:03Z</time>
      </trkpt>
      <trkpt lat="49.2116" lon="1.23445">
        <ele>11</ele>
        <time>2017-04-27T15:34:03Z</time>
      </trkpt>
      <trkpt lat="49.21164" lon="1.2344">
        <ele>11</ele>
        <time>2017-04-27T15:34:19Z</time>
      </trkpt>
      <trkpt lat="49.21168" lon="1.23434">
        <ele>11</ele>
        <time>2017-04-27T15:34:19Z</time>
      </trkpt>
      <trkpt lat="49.21172" lon="1.2343">
        <ele>11</ele>
        <time>2017-04-27T15:34:19Z</time>
      </trkpt>
      <trkpt lat="49.21175" lon="1.23427">
        <ele>11</ele>
        <time>2017-04-27T15:34:19Z</time>
      </trkpt>
      <trkpt lat="49.21178" lon="1.23421">
        <ele>11</ele>
        <time>2017-04-27T15:34:35Z</time>
      </trkpt>
      <trkpt lat="49.21184" lon="1.23414">
        <ele>11</ele>
        <time>2017-04-27T15:34:35Z</time>
      </trkpt>
      <trkpt lat="49.21188" lon="1.23409">
        <ele>11</ele>
        <time>2017-04-27T15:34:35Z</time>
      </trkpt>
      <trkpt lat="49.21194" lon="1.234">
        <ele>11</ele>
        <time>2017-04-27T15:34:35Z</time>
      </trkpt>
      <trkpt lat="49.21197" lon="1.23395">
        <ele>11</ele>
        <time>2017-04-27T15:34:51Z</time>
      </trkpt>
      <trkpt lat="49.21198" lon="1.23394">
        <ele>11</ele>
        <time>2017-04-27T15:34:51Z</time>
      </trkpt>
      <trkpt lat="49.21201" lon="1.23387">
        <ele>11</ele>
        <time>2017-04-27T15:34:51Z</time>
      </trkpt>
      <trkpt lat="49.21205" lon="1.2338">
        <ele>11</ele>
        <time>2017-04-27T15:34:51Z</time>
      </trkpt>
      <trkpt lat="49.21206" lon="1.23383">
        <ele>11</ele>
        <time>2017-04-27T15:35:15Z</time>
      </trkpt>
      <trkpt lat="49.21206" lon="1.23383">
        <ele>11</ele>
        <time>2017-04-27T15:35:15Z</time>
      </trkpt>
      <trkpt lat="49.2121" lon="1.23378">
        <ele>6</ele>
        <time>2017-04-27T15:35:15Z</time>
      </trkpt>
      <trkpt lat="49.21213" lon="1.23372">
        <ele>12</ele>
        <time>2017-04-27T15:35:15Z</time>
      </trkpt>
      <trkpt lat="49.21217" lon="1.23367">
        <ele>12</ele>
        <time>2017-04-27T15:35:15Z</time>
      </trkpt>
      <trkpt lat="49.21221" lon="1.23361">
        <ele>12</ele>
        <time>2017-04-27T15:35:31Z</time>
      </trkpt>
      <trkpt lat="49.21226" lon="1.23356">
        <ele>12</ele>
        <time>2017-04-27T15:35:31Z</time>
      </trkpt>
      <trkpt lat="49.2123" lon="1.23351">
        <ele>12</ele>
        <time>2017-04-27T15:35:31Z</time>
      </trkpt>
      <trkpt lat="49.21234" lon="1.23345">
        <ele>12</ele>
        <time>2017-04-27T15:35:31Z</time>
      </trkpt>
      <trkpt lat="49.21236" lon="1.2334">
        <ele>12</ele>
        <time>2017-04-27T15:35:47Z</time>
      </trkpt>
      <trkpt lat="49.21241" lon="1.23336">
        <ele>12</ele>
        <time>2017-04-27T15:35:47Z</time>
      </trkpt>
      <trkpt lat="49.21245" lon="1.23332">
        <ele>12</ele>
        <time>2017-04-27T15:35:47Z</time>
      </trkpt>
      <trkpt lat="49.2125" lon="1.23326">
        <ele>12</ele>
        <time>2017-04-27T15:35:47Z</time>
      </trkpt>
      <trkpt lat="49.21252" lon="1.23324">
        <ele>12</ele>
        <time>2017-04-27T15:36:03Z</time>
      </trkpt>
      <trkpt lat="49.21255" lon="1.2332">
        <ele>12</ele>
        <time>2017-04-27T15:36:03Z</time>
      </trkpt>
      <trkpt lat="49.21259" lon="1.23315">
        <ele>12</ele>
        <time>2017-04-27T15:36:03Z</time>
      </trkpt>
      <trkpt lat="49.21262" lon="1.23311">
        <ele>12</ele>
        <time>2017-04-27T15:36:03Z</time>
      </trkpt>
      <trkpt lat="49.21267" lon="1.23305">
        <ele>12</ele>
        <time>2017-04-27T15:36:19Z</time>
      </trkpt>
      <trkpt lat="49.21271" lon="1.23299">
        <ele>12</ele>
        <time>2017-04-27T15:36:19Z</time>
      </trkpt>
      <trkpt lat="49.21275" lon="1.23293">
        <ele>12</ele>
        <time>2017-04-27T15:36:19Z</time>
      </trkpt>
      <trkpt lat="49.21278" lon="1.23289">
        <ele>17</ele>
        <time>2017-04-27T15:36:19Z</time>
      </trkpt>
      <trkpt lat="49.21283" lon="1.23285">
        <ele>17</ele>
        <time>2017-04-27T15:36:35Z</time>
      </trkpt>
      <trkpt lat="49.21288" lon="1.2328">
        <ele>17</ele>
        <time>2017-04-27T15:36:35Z</time>
      </trkpt>
      <trkpt lat="49.21292" lon="1.23275">
        <ele>13</ele>
        <time>2017-04-27T15:36:35Z</time>
      </trkpt>
      <trkpt lat="49.21297" lon="1.23273">
        <ele>13</ele>
        <time>2017-04-27T15:36:35Z</time>
      </trkpt>
      <trkpt lat="49.21301" lon="1.2327">
        <ele>13</ele>
        <time>2017-04-27T15:36:51Z</time>
      </trkpt>
      <trkpt lat="49.21305" lon="1.23266">
        <ele>13</ele>
        <time>2017-04-27T15:36:51Z</time>
      </trkpt>
      <trkpt lat="49.21309" lon="1.23261">
        <ele>13</ele>
        <time>2017-04-27T15:36:51Z</time>
      </trkpt>
      <trkpt lat="49.21311" lon="1.23255">
        <ele>13</ele>
        <time>2017-04-27T15:36:51Z</time>
      </trkpt>
      <trkpt lat="49.21312" lon="1.23252">
        <ele>13</ele>
        <time>2017-04-27T15:37:07Z</time>
      </trkpt>
      <trkpt lat="49.21315" lon="1.23248">
        <ele>13</ele>
        <time>2017-04-27T15:37:07Z</time>
      </trkpt>
      <trkpt lat="49.21318" lon="1.23247">
        <ele>13</ele>
        <time>2017-04-27T15:37:07Z</time>
      </trkpt>
      <trkpt lat="49.21322" lon="1.23244">
        <ele>13</ele>
        <time>2017-04-27T15:37:07Z</time>
      </trkpt>
      <trkpt lat="49.21327" lon="1.23239">
        <ele>13</ele>
        <time>2017-04-27T15:37:23Z</time>
      </trkpt>
      <trkpt lat="49.21333" lon="1.23232">
        <ele>13</ele>
        <time>2017-04-27T15:37:23Z</time>
      </trkpt>
      <trkpt lat="49.21336" lon="1.23228">
        <ele>13</ele>
        <time>2017-04-27T15:37:23Z</time>
      </trkpt>
      <trkpt lat="49.21344" lon="1.2322">
        <ele>13</ele>
        <time>2017-04-27T15:37:23Z</time>
      </trkpt>
      <trkpt lat="49.21348" lon="1.23216">
        <ele>13</ele>
        <time>2017-04-27T15:37:39Z</time>
      </trkpt>
      <trkpt lat="49.21351" lon="1.2321">
        <ele>13</ele>
        <time>2017-04-27T15:37:39Z</time>
      </trkpt>
      <trkpt lat="49.21354" lon="1.23206">
        <ele>16</ele>
        <time>2017-04-27T15:37:39Z</time>
      </trkpt>
      <trkpt lat="49.21357" lon="1.232">
        <ele>16</ele>
        <time>2017-04-27T15:37:39Z</time>
      </trkpt>
      <trkpt lat="49.21361" lon="1.23196">
        <ele>16</ele>
        <time>2017-04-27T15:37:55Z</time>
      </trkpt>
      <trkpt lat="49.21363" lon="1.23193">
        <ele>16</ele>
        <time>2017-04-27T15:37:55Z</time>
      </trkpt>
      <trkpt lat="49.21367" lon="1.23189">
        <ele>16</ele>
        <time>2017-04-27T15:37:55Z</time>
      </trkpt>
      <trkpt lat="49.21372" lon="1.23184">
        <ele>16</ele>
        <time>2017-04-27T15:37:55Z</time>
      </trkpt>
      <trkpt lat="49.21376" lon="1.23177">
        <ele>12</ele>
        <time>2017-04-27T15:38:11Z</time>
      </trkpt>
      <trkpt lat="49.21382" lon="1.23173">
        <ele>12</ele>
        <time>2017-04-27T15:38:11Z</time>
      </trkpt>
      <trkpt lat="49.21386" lon="1.23169">
        <ele>12</ele>
        <time>2017-04-27T15:38:11Z</time>
      </trkpt>
      <trkpt lat="49.21389" lon="1.23164">
        <ele>12</ele>
        <time>2017-04-27T15:38:11Z</time>
      </trkpt>
      <trkpt lat="49.21395" lon="1.23157">
        <ele>12</ele>
        <time>2017-04-27T15:38:27Z</time>
      </trkpt>
      <trkpt lat="49.21399" lon="1.23154">
        <ele>12</ele>
        <time>2017-04-27T15:38:27Z</time>
      </trkpt>
      <trkpt lat="49.21405" lon="1.23152">
        <ele>12</ele>
        <time>2017-04-27T15:38:27Z</time>
      </trkpt>
      <trkpt lat="49.21408" lon="1.23151">
        <ele>12</ele>
        <time>2017-04-27T15:38:27Z</time>
      </trkpt>
      <trkpt lat="49.21414" lon="1.23147">
        <ele>12</ele>
        <time>2017-04-27T15:38:43Z</time>
      </trkpt>
      <trkpt lat="49.2142" lon="1.23139">
        <ele>12</ele>
        <time>2017-04-27T15:38:43Z</time>
      </trkpt>
      <trkpt lat="49.21424" lon="1.23135">
        <ele>12</ele>
        <time>2017-04-27T15:38:43Z</time>
      </trkpt>
      <trkpt lat="49.21428" lon="1.2313">
        <ele>12</ele>
        <time>2017-04-27T15:38:43Z</time>
      </trkpt>
      <trkpt lat="49.2143" lon="1.23126">
        <ele>12</ele>
        <time>2017-04-27T15:38:59Z</time>
      </trkpt>
      <trkpt lat="49.21434" lon="1.23119">
        <ele>19</ele>
        <time>2017-04-27T15:38:59Z</time>
      </trkpt>
      <trkpt lat="49.21437" lon="1.23116">
        <ele>19</ele>
        <time>2017-04-27T15:38:59Z</time>
      </trkpt>
      <trkpt lat="49.21442" lon="1.2311">
        <ele>19</ele>
        <time>2017-04-27T15:38:59Z</time>
      </trkpt>
      <trkpt lat="49.21444" lon="1.23107">
        <ele>19</ele>
        <time>2017-04-27T15:39:15Z</time>
      </trkpt>
      <trkpt lat="49.21448" lon="1.23105">
        <ele>19</ele>
        <time>2017-04-27T15:39:15Z</time>
      </trkpt>
      <trkpt lat="49.21454" lon="1.23102">
        <ele>19</ele>
        <time>2017-04-27T15:39:15Z</time>
      </trkpt>
      <trkpt lat="49.21458" lon="1.23097">
        <ele>19</ele>
        <time>2017-04-27T15:39:15Z</time>
      </trkpt>
      <trkpt lat="49.21463" lon="1.23089">
        <ele>12</ele>
        <time>2017-04-27T15:39:31Z</time>
      </trkpt>
      <trkpt lat="49.21467" lon="1.23086">
        <ele>12</ele>
        <time>2017-04-27T15:39:31Z</time>
      </trkpt>
      <trkpt lat="49.21469" lon="1.23081">
        <ele>12</ele>
        <time>2017-04-27T15:39:31Z</time>
      </trkpt>
      <trkpt lat="49.21472" lon="1.23076">
        <ele>12</ele>
        <time>2017-04-27T15:39:31Z</time>
      </trkpt>
      <trkpt lat="49.21476" lon="1.23074">
        <ele>12</ele>
        <time>2017-04-27T15:39:47Z</time>
      </trkpt>
      <trkpt lat="49.21482" lon="1.23071">
        <ele>12</ele>
        <time>2017-04-27T15:39:47Z</time>
      </trkpt>
      <trkpt lat="49.21487" lon="1.23069">
        <ele>12</ele>
        <time>2017-04-27T15:39:47Z</time>
      </trkpt>
      <trkpt lat="49.21494" lon="1.23065">
        <ele>12</ele>
        <time>2017-04-27T15:39:47Z</time>
      </trkpt>
      <trkpt lat="49.21495" lon="1.23051">
        <ele>12</ele>
        <time>2017-04-27T15:40:47Z</time>
      </trkpt>
      <trkpt lat="49.21495" lon="1.23049">
        <ele>12</ele>
        <time>2017-04-27T15:40:47Z</time>
      </trkpt>
      <trkpt lat="49.21495" lon="1.23048">
        <ele>12</ele>
        <time>2017-04-27T15:40:47Z</time>
      </trkpt>
      <trkpt lat="49.21494" lon="1.23048">
        <ele>12</ele>
        <time>2017-04-27T15:40:47Z</time>
      </trkpt>
      <trkpt lat="49.21494" lon="1.23047">
        <ele>12</ele>
        <time>2017-04-27T15:40:47Z</time>
      </trkpt>
      <trkpt lat="49.21493" lon="1.23051">
        <ele>12</ele>
        <time>2017-04-27T15:41:43Z</time>
      </trkpt>
      <trkpt lat="49.21495" lon="1.23051">
        <ele>12</ele>
        <time>2017-04-27T15:41:43Z</time>
      </trkpt>
      <trkpt lat="49.21501" lon="1.23048">
        <ele>12</ele>
        <time>2017-04-27T15:41:43Z</time>
      </trkpt>
      <trkpt lat="49.21508" lon="1.23044">
        <ele>12</ele>
        <time>2017-04-27T15:41:43Z</time>
      </trkpt>
      <trkpt lat="49.21513" lon="1.23038">
        <ele>17</ele>
        <time>2017-04-27T15:41:43Z</time>
      </trkpt>
      <trkpt lat="49.21517" lon="1.23036">
        <ele>17</ele>
        <time>2017-04-27T15:42:19Z</time>
      </trkpt>
      <trkpt lat="49.21521" lon="1.23032">
        <ele>17</ele>
        <time>2017-04-27T15:42:19Z</time>
      </trkpt>
      <trkpt lat="49.21524" lon="1.23028">
        <ele>17</ele>
        <time>2017-04-27T15:42:19Z</time>
      </trkpt>
      <trkpt lat="49.21529" lon="1.23026">
        <ele>17</ele>
        <time>2017-04-27T15:42:19Z</time>
      </trkpt>
      <trkpt lat="49.21534" lon="1.23022">
        <ele>17</ele>
        <time>2017-04-27T15:42:19Z</time>
      </trkpt>
      <trkpt lat="49.21538" lon="1.23016">
        <ele>17</ele>
        <time>2017-04-27T15:42:35Z</time>
      </trkpt>
      <trkpt lat="49.21541" lon="1.23013">
        <ele>17</ele>
        <time>2017-04-27T15:42:35Z</time>
      </trkpt>
      <trkpt lat="49.21548" lon="1.23007">
        <ele>11</ele>
        <time>2017-04-27T15:42:35Z</time>
      </trkpt>
      <trkpt lat="49.21552" lon="1.23003">
        <ele>11</ele>
        <time>2017-04-27T15:42:35Z</time>
      </trkpt>
      <trkpt lat="49.21554" lon="1.23001">
        <ele>11</ele>
        <time>2017-04-27T15:42:51Z</time>
      </trkpt>
      <trkpt lat="49.21557" lon="1.22996">
        <ele>11</ele>
        <time>2017-04-27T15:42:51Z</time>
      </trkpt>
      <trkpt lat="49.21561" lon="1.22993">
        <ele>11</ele>
        <time>2017-04-27T15:42:51Z</time>
      </trkpt>
      <trkpt lat="49.21565" lon="1.22989">
        <ele>11</ele>
        <time>2017-04-27T15:42:51Z</time>
      </trkpt>
      <trkpt lat="49.21571" lon="1.22984">
        <ele>11</ele>
        <time>2017-04-27T15:43:07Z</time>
      </trkpt>
      <trkpt lat="49.21577" lon="1.22979">
        <ele>11</ele>
        <time>2017-04-27T15:43:07Z</time>
      </trkpt>
      <trkpt lat="49.21582" lon="1.22975">
        <ele>11</ele>
        <time>2017-04-27T15:43:07Z</time>
      </trkpt>
      <trkpt lat="49.21586" lon="1.22974">
        <ele>11</ele>
        <time>2017-04-27T15:43:07Z</time>
      </trkpt>
      <trkpt lat="49.21589" lon="1.22972">
        <ele>11</ele>
        <time>2017-04-27T15:43:23Z</time>
      </trkpt>
      <trkpt lat="49.21594" lon="1.22968">
        <ele>11</ele>
        <time>2017-04-27T15:43:23Z</time>
      </trkpt>
      <trkpt lat="49.21598" lon="1.22964">
        <ele>11</ele>
        <time>2017-04-27T15:43:23Z</time>
      </trkpt>
      <trkpt lat="49.21602" lon="1.22962">
        <ele>11</ele>
        <time>2017-04-27T15:43:23Z</time>
      </trkpt>
      <trkpt lat="49.21609" lon="1.22959">
        <ele>11</ele>
        <time>2017-04-27T15:43:39Z</time>
      </trkpt>
      <trkpt lat="49.21614" lon="1.22956">
        <ele>16</ele>
        <time>2017-04-27T15:43:39Z</time>
      </trkpt>
      <trkpt lat="49.21617" lon="1.22953">
        <ele>16</ele>
        <time>2017-04-27T15:43:39Z</time>
      </trkpt>
      <trkpt lat="49.21621" lon="1.2295">
        <ele>16</ele>
        <time>2017-04-27T15:43:39Z</time>
      </trkpt>
      <trkpt lat="49.21623" lon="1.22947">
        <ele>16</ele>
        <time>2017-04-27T15:43:55Z</time>
      </trkpt>
      <trkpt lat="49.21625" lon="1.22944">
        <ele>16</ele>
        <time>2017-04-27T15:43:55Z</time>
      </trkpt>
      <trkpt lat="49.21628" lon="1.2294">
        <ele>11</ele>
        <time>2017-04-27T15:43:55Z</time>
      </trkpt>
      <trkpt lat="49.21637" lon="1.22933">
        <ele>11</ele>
        <time>2017-04-27T15:43:55Z</time>
      </trkpt>
      <trkpt lat="49.21642" lon="1.22928">
        <ele>11</ele>
        <time>2017-04-27T15:44:11Z</time>
      </trkpt>
      <trkpt lat="49.21645" lon="1.22925">
        <ele>11</ele>
        <time>2017-04-27T15:44:11Z</time>
      </trkpt>
      <trkpt lat="49.21648" lon="1.22922">
        <ele>11</ele>
        <time>2017-04-27T15:44:11Z</time>
      </trkpt>
      <trkpt lat="49.2165" lon="1.22922">
        <ele>11</ele>
        <time>2017-04-27T15:44:11Z</time>
      </trkpt>
      <trkpt lat="49.21654" lon="1.2292">
        <ele>11</ele>
        <time>2017-04-27T15:44:27Z</time>
      </trkpt>
      <trkpt lat="49.21659" lon="1.22915">
        <ele>11</ele>
        <time>2017-04-27T15:44:27Z</time>
      </trkpt>
      <trkpt lat="49.21663" lon="1.22911">
        <ele>11</ele>
        <time>2017-04-27T15:44:27Z</time>
      </trkpt>
      <trkpt lat="49.21667" lon="1.22906">
        <ele>11</ele>
        <time>2017-04-27T15:44:27Z</time>
      </trkpt>
      <trkpt lat="49.21671" lon="1.22904">
        <ele>11</ele>
        <time>2017-04-27T15:44:43Z</time>
      </trkpt>
      <trkpt lat="49.21675" lon="1.22901">
        <ele>11</ele>
        <time>2017-04-27T15:44:43Z</time>
      </trkpt>
      <trkpt lat="49.21679" lon="1.22899">
        <ele>11</ele>
        <time>2017-04-27T15:44:43Z</time>
      </trkpt>
      <trkpt lat="49.21684" lon="1.22895">
        <ele>11</ele>
        <time>2017-04-27T15:44:43Z</time>
      </trkpt>
      <trkpt lat="49.21688" lon="1.22892">
        <ele>11</ele>
        <time>2017-04-27T15:44:59Z</time>
      </trkpt>
      <trkpt lat="49.21693" lon="1.2289">
        <ele>11</ele>
        <time>2017-04-27T15:44:59Z</time>
      </trkpt>
      <trkpt lat="49.21695" lon="1.2289">
        <ele>11</ele>
        <time>2017-04-27T15:44:59Z</time>
      </trkpt>
      <trkpt lat="49.21698" lon="1.22887">
        <ele>11</ele>
        <time>2017-04-27T15:44:59Z</time>
      </trkpt>
      <trkpt lat="49.21701" lon="1.22887">
        <ele>11</ele>
        <time>2017-04-27T15:45:31Z</time>
      </trkpt>
      <trkpt lat="49.21702" lon="1.22887">
        <ele>11</ele>
        <time>2017-04-27T15:45:31Z</time>
      </trkpt>
      <trkpt lat="49.21706" lon="1.22884">
        <ele>11</ele>
        <time>2017-04-27T15:45:31Z</time>
      </trkpt>
      <trkpt lat="49.21711" lon="1.22881">
        <ele>6</ele>
        <time>2017-04-27T15:45:31Z</time>
      </trkpt>
      <trkpt lat="49.21715" lon="1.22874">
        <ele>12</ele>
        <time>2017-04-27T15:45:31Z</time>
      </trkpt>
      <trkpt lat="49.21718" lon="1.22871">
        <ele>12</ele>
        <time>2017-04-27T15:45:47Z</time>
      </trkpt>
      <trkpt lat="49.21722" lon="1.22869">
        <ele>12</ele>
        <time>2017-04-27T15:45:47Z</time>
      </trkpt>
      <trkpt lat="49.21728" lon="1.22865">
        <ele>12</ele>
        <time>2017-04-27T15:45:47Z</time>
      </trkpt>
      <trkpt lat="49.21734" lon="1.22861">
        <ele>12</ele>
        <time>2017-04-27T15:45:47Z</time>
      </trkpt>
      <trkpt lat="49.21739" lon="1.22859">
        <ele>12</ele>
        <time>2017-04-27T15:46:03Z</time>
      </trkpt>
      <trkpt lat="49.21743" lon="1.22857">
        <ele>12</ele>
        <time>2017-04-27T15:46:03Z</time>
      </trkpt>
      <trkpt lat="49.21746" lon="1.22856">
        <ele>12</ele>
        <time>2017-04-27T15:46:03Z</time>
      </trkpt>
      <trkpt lat="49.21751" lon="1.22851">
        <ele>12</ele>
        <time>2017-04-27T15:46:03Z</time>
      </trkpt>
      <trkpt lat="49.21755" lon="1.22847">
        <ele>12</ele>
        <time>2017-04-27T15:46:19Z</time>
      </trkpt>
      <trkpt lat="49.21758" lon="1.22845">
        <ele>12</ele>
        <time>2017-04-27T15:46:19Z</time>
      </trkpt>
      <trkpt lat="49.2176" lon="1.22842">
        <ele>12</ele>
        <time>2017-04-27T15:46:19Z</time>
      </trkpt>
      <trkpt lat="49.21767" lon="1.22836">
        <ele>12</ele>
        <time>2017-04-27T15:46:19Z</time>
      </trkpt>
      <trkpt lat="49.21773" lon="1.22832">
        <ele>12</ele>
        <time>2017-04-27T15:46:35Z</time>
      </trkpt>
      <trkpt lat="49.21777" lon="1.22829">
        <ele>12</ele>
        <time>2017-04-27T15:46:35Z</time>
      </trkpt>
      <trkpt lat="49.21782" lon="1.22825">
        <ele>12</ele>
        <time>2017-04-27T15:46:35Z</time>
      </trkpt>
      <trkpt lat="49.21786" lon="1.22824">
        <ele>12</ele>
        <time>2017-04-27T15:46:35Z</time>
      </trkpt>
      <trkpt lat="49.21791" lon="1.22822">
        <ele>12</ele>
        <time>2017-04-27T15:46:51Z</time>
      </trkpt>
      <trkpt lat="49.21796" lon="1.22819">
        <ele>6</ele>
        <time>2017-04-27T15:46:51Z</time>
      </trkpt>
      <trkpt lat="49.21798" lon="1.22815">
        <ele>6</ele>
        <time>2017-04-27T15:46:51Z</time>
      </trkpt>
      <trkpt lat="49.21803" lon="1.22811">
        <ele>6</ele>
        <time>2017-04-27T15:46:51Z</time>
      </trkpt>
      <trkpt lat="49.21804" lon="1.22808">
        <ele>6</ele>
        <time>2017-04-27T15:47:07Z</time>
      </trkpt>
      <trkpt lat="49.21809" lon="1.22805">
        <ele>6</ele>
        <time>2017-04-27T15:47:07Z</time>
      </trkpt>
      <trkpt lat="49.21813" lon="1.22801">
        <ele>6</ele>
        <time>2017-04-27T15:47:07Z</time>
      </trkpt>
      <trkpt lat="49.21819" lon="1.22798">
        <ele>6</ele>
        <time>2017-04-27T15:47:07Z</time>
      </trkpt>
      <trkpt lat="49.21825" lon="1.22793">
        <ele>6</ele>
        <time>2017-04-27T15:47:23Z</time>
      </trkpt>
      <trkpt lat="49.21829" lon="1.22791">
        <ele>15</ele>
        <time>2017-04-27T15:47:23Z</time>
      </trkpt>
      <trkpt lat="49.21834" lon="1.22788">
        <ele>15</ele>
        <time>2017-04-27T15:47:23Z</time>
      </trkpt>
      <trkpt lat="49.21838" lon="1.22785">
        <ele>15</ele>
        <time>2017-04-27T15:47:23Z</time>
      </trkpt>
      <trkpt lat="49.21842" lon="1.22782">
        <ele>15</ele>
        <time>2017-04-27T15:47:39Z</time>
      </trkpt>
      <trkpt lat="49.21848" lon="1.22779">
        <ele>15</ele>
        <time>2017-04-27T15:47:39Z</time>
      </trkpt>
      <trkpt lat="49.21851" lon="1.22777">
        <ele>15</ele>
        <time>2017-04-27T15:47:39Z</time>
      </trkpt>
      <trkpt lat="49.21856" lon="1.22772">
        <ele>15</ele>
        <time>2017-04-27T15:47:39Z</time>
      </trkpt>
      <trkpt lat="49.2186" lon="1.2277">
        <ele>15</ele>
        <time>2017-04-27T15:47:55Z</time>
      </trkpt>
      <trkpt lat="49.21865" lon="1.22765">
        <ele>15</ele>
        <time>2017-04-27T15:47:55Z</time>
      </trkpt>
      <trkpt lat="49.21868" lon="1.22762">
        <ele>15</ele>
        <time>2017-04-27T15:47:55Z</time>
      </trkpt>
      <trkpt lat="49.21874" lon="1.22759">
        <ele>15</ele>
        <time>2017-04-27T15:47:55Z</time>
      </trkpt>
      <trkpt lat="49.21878" lon="1.22756">
        <ele>12</ele>
        <time>2017-04-27T15:48:11Z</time>
      </trkpt>
      <trkpt lat="49.21882" lon="1.22753">
        <ele>12</ele>
        <time>2017-04-27T15:48:11Z</time>
      </trkpt>
      <trkpt lat="49.21886" lon="1.22751">
        <ele>12</ele>
        <time>2017-04-27T15:48:11Z</time>
      </trkpt>
      <trkpt lat="49.2189" lon="1.22749">
        <ele>12</ele>
        <time>2017-04-27T15:48:11Z</time>
      </trkpt>
      <trkpt lat="49.21894" lon="1.22746">
        <ele>12</ele>
        <time>2017-04-27T15:48:31Z</time>
      </trkpt>
      <trkpt lat="49.21893" lon="1.22746">
        <ele>12</ele>
        <time>2017-04-27T15:48:31Z</time>
      </trkpt>
      <trkpt lat="49.21895" lon="1.22744">
        <ele>12</ele>
        <time>2017-04-27T15:48:31Z</time>
      </trkpt>
      <trkpt lat="49.21901" lon="1.22741">
        <ele>12</ele>
        <time>2017-04-27T15:48:31Z</time>
      </trkpt>
      <trkpt lat="49.21905" lon="1.22738">
        <ele>12</ele>
        <time>2017-04-27T15:48:31Z</time>
      </trkpt>
      <trkpt lat="49.21909" lon="1.22734">
        <ele>12</ele>
        <time>2017-04-27T15:48:47Z</time>
      </trkpt>
      <trkpt lat="49.21914" lon="1.22729">
        <ele>12</ele>
        <time>2017-04-27T15:48:47Z</time>
      </trkpt>
      <trkpt lat="49.21921" lon="1.22725">
        <ele>12</ele>
        <time>2017-04-27T15:48:47Z</time>
      </trkpt>
      <trkpt lat="49.21925" lon="1.22723">
        <ele>12</ele>
        <time>2017-04-27T15:48:47Z</time>
      </trkpt>
      <trkpt lat="49.21927" lon="1.22722">
        <ele>12</ele>
        <time>2017-04-27T15:49:03Z</time>
      </trkpt>
      <trkpt lat="49.21932" lon="1.22719">
        <ele>12</ele>
        <time>2017-04-27T15:49:03Z</time>
      </trkpt>
      <trkpt lat="49.21935" lon="1.22717">
        <ele>12</ele>
        <time>2017-04-27T15:49:03Z</time>
      </trkpt>
      <trkpt lat="49.21938" lon="1.22715">
        <ele>12</ele>
        <time>2017-04-27T15:49:03Z</time>
      </trkpt>
      <trkpt lat="49.21944" lon="1.22713">
        <ele>12</ele>
        <time>2017-04-27T15:49:19Z</time>
      </trkpt>
      <trkpt lat="49.2195" lon="1.2271">
        <ele>12</ele>
        <time>2017-04-27T15:49:19Z</time>
      </trkpt>
      <trkpt lat="49.21955" lon="1.22708">
        <ele>18</ele>
        <time>2017-04-27T15:49:19Z</time>
      </trkpt>
      <trkpt lat="49.21961" lon="1.22705">
        <ele>14</ele>
        <time>2017-04-27T15:49:19Z</time>
      </trkpt>
      <trkpt lat="49.21964" lon="1.22703">
        <ele>14</ele>
        <time>2017-04-27T15:49:35Z</time>
      </trkpt>
      <trkpt lat="49.21968" lon="1.22702">
        <ele>14</ele>
        <time>2017-04-27T15:49:35Z</time>
      </trkpt>
      <trkpt lat="49.21974" lon="1.22699">
        <ele>14</ele>
        <time>2017-04-27T15:49:35Z</time>
      </trkpt>
      <trkpt lat="49.21977" lon="1.22697">
        <ele>14</ele>
        <time>2017-04-27T15:49:35Z</time>
      </trkpt>
      <trkpt lat="49.21989" lon="1.22694">
        <ele>14</ele>
        <time>2017-04-27T15:50:43Z</time>
      </trkpt>
      <trkpt lat="49.21989" lon="1.22693">
        <ele>14</ele>
        <time>2017-04-27T15:50:43Z</time>
      </trkpt>
      <trkpt lat="49.21989" lon="1.22692">
        <ele>14</ele>
        <time>2017-04-27T15:50:43Z</time>
      </trkpt>
      <trkpt lat="49.21989" lon="1.2269">
        <ele>14</ele>
        <time>2017-04-27T15:50:43Z</time>
      </trkpt>
      <trkpt lat="49.21989" lon="1.22689">
        <ele>14</ele>
        <time>2017-04-27T15:50:43Z</time>
      </trkpt>
      <trkpt lat="49.2199" lon="1.22692">
        <ele>14</ele>
        <time>2017-04-27T15:52:47Z</time>
      </trkpt>
      <trkpt lat="49.2199" lon="1.22692">
        <ele>14</ele>
        <time>2017-04-27T15:52:47Z</time>
      </trkpt>
      <trkpt lat="49.21992" lon="1.2269">
        <ele>14</ele>
        <time>2017-04-27T15:52:47Z</time>
      </trkpt>
      <trkpt lat="49.21999" lon="1.22688">
        <ele>14</ele>
        <time>2017-04-27T15:52:47Z</time>
      </trkpt>
      <trkpt lat="49.22002" lon="1.22686">
        <ele>14</ele>
        <time>2017-04-27T15:52:47Z</time>
      </trkpt>
      <trkpt lat="49.22008" lon="1.22685">
        <ele>14</ele>
        <time>2017-04-27T15:53:03Z</time>
      </trkpt>
      <trkpt lat="49.22012" lon="1.22684">
        <ele>14</ele>
        <time>2017-04-27T15:53:03Z</time>
      </trkpt>
      <trkpt lat="49.22019" lon="1.22683">
        <ele>14</ele>
        <time>2017-04-27T15:53:03Z</time>
      </trkpt>
      <trkpt lat="49.22024" lon="1.22682">
        <ele>14</ele>
        <time>2017-04-27T15:53:03Z</time>
      </trkpt>
      <trkpt lat="49.22028" lon="1.22681">
        <ele>14</ele>
        <time>2017-04-27T15:53:19Z</time>
      </trkpt>
      <trkpt lat="49.2203" lon="1.22679">
        <ele>14</ele>
        <time>2017-04-27T15:53:19Z</time>
      </trkpt>
      <trkpt lat="49.22032" lon="1.22679">
        <ele>14</ele>
        <time>2017-04-27T15:53:19Z</time>
      </trkpt>
      <trkpt lat="49.22037" lon="1.22679">
        <ele>14</ele>
        <time>2017-04-27T15:53:19Z</time>
      </trkpt>
      <trkpt lat="49.22046" lon="1.22677">
        <ele>12</ele>
        <time>2017-04-27T15:53:35Z</time>
      </trkpt>
      <trkpt lat="49.22052" lon="1.22675">
        <ele>12</ele>
        <time>2017-04-27T15:53:35Z</time>
      </trkpt>
      <trkpt lat="49.22058" lon="1.22673">
        <ele>12</ele>
        <time>2017-04-27T15:53:35Z</time>
      </trkpt>
      <trkpt lat="49.22063" lon="1.22673">
        <ele>12</ele>
        <time>2017-04-27T15:53:35Z</time>
      </trkpt>
      <trkpt lat="49.22067" lon="1.22673">
        <ele>12</ele>
        <time>2017-04-27T15:53:51Z</time>
      </trkpt>
      <trkpt lat="49.22073" lon="1.22672">
        <ele>12</ele>
        <time>2017-04-27T15:53:51Z</time>
      </trkpt>
      <trkpt lat="49.22079" lon="1.22673">
        <ele>12</ele>
        <time>2017-04-27T15:53:51Z</time>
      </trkpt>
      <trkpt lat="49.22085" lon="1.22673">
        <ele>12</ele>
        <time>2017-04-27T15:53:51Z</time>
      </trkpt>
      <trkpt lat="49.2209" lon="1.22671">
        <ele>12</ele>
        <time>2017-04-27T15:54:07Z</time>
      </trkpt>
      <trkpt lat="49.22093" lon="1.2267">
        <ele>12</ele>
        <time>2017-04-27T15:54:07Z</time>
      </trkpt>
      <trkpt lat="49.22098" lon="1.2267">
        <ele>12</ele>
        <time>2017-04-27T15:54:07Z</time>
      </trkpt>
      <trkpt lat="49.22104" lon="1.22669">
        <ele>12</ele>
        <time>2017-04-27T15:54:07Z</time>
      </trkpt>
      <trkpt lat="49.22109" lon="1.22666">
        <ele>12</ele>
        <time>2017-04-27T15:54:23Z</time>
      </trkpt>
      <trkpt lat="49.22114" lon="1.22665">
        <ele>12</ele>
        <time>2017-04-27T15:54:23Z</time>
      </trkpt>
      <trkpt lat="49.22119" lon="1.22662">
        <ele>12</ele>
        <time>2017-04-27T15:54:23Z</time>
      </trkpt>
      <trkpt lat="49.22124" lon="1.22659">
        <ele>12</ele>
        <time>2017-04-27T15:54:23Z</time>
      </trkpt>
      <trkpt lat="49.22129" lon="1.2266">
        <ele>6</ele>
        <time>2017-04-27T15:54:39Z</time>
      </trkpt>
      <trkpt lat="49.22133" lon="1.22658">
        <ele>6</ele>
        <time>2017-04-27T15:54:39Z</time>
      </trkpt>
      <trkpt lat="49.22136" lon="1.22658">
        <ele>6</ele>
        <time>2017-04-27T15:54:39Z</time>
      </trkpt>
      <trkpt lat="49.22139" lon="1.22657">
        <ele>6</ele>
        <time>2017-04-27T15:54:39Z</time>
      </trkpt>
      <trkpt lat="49.22143" lon="1.22655">
        <ele>6</ele>
        <time>2017-04-27T15:54:55Z</time>
      </trkpt>
      <trkpt lat="49.2215" lon="1.22653">
        <ele>6</ele>
        <time>2017-04-27T15:54:55Z</time>
      </trkpt>
      <trkpt lat="49.22152" lon="1.22653">
        <ele>6</ele>
        <time>2017-04-27T15:54:55Z</time>
      </trkpt>
      <trkpt lat="49.22159" lon="1.22653">
        <ele>6</ele>
        <time>2017-04-27T15:54:55Z</time>
      </trkpt>
      <trkpt lat="49.22165" lon="1.22651">
        <ele>6</ele>
        <time>2017-04-27T15:55:11Z</time>
      </trkpt>
      <trkpt lat="49.22169" lon="1.22649">
        <ele>6</ele>
        <time>2017-04-27T15:55:11Z</time>
      </trkpt>
      <trkpt lat="49.22173" lon="1.22649">
        <ele>6</ele>
        <time>2017-04-27T15:55:11Z</time>
      </trkpt>
      <trkpt lat="49.22179" lon="1.22645">
        <ele>6</ele>
        <time>2017-04-27T15:55:11Z</time>
      </trkpt>
      <trkpt lat="49.22183" lon="1.22641">
        <ele>6</ele>
        <time>2017-04-27T15:55:27Z</time>
      </trkpt>
      <trkpt lat="49.22186" lon="1.22639">
        <ele>6</ele>
        <time>2017-04-27T15:55:27Z</time>
      </trkpt>
      <trkpt lat="49.22189" lon="1.22638">
        <ele>6</ele>
        <time>2017-04-27T15:55:27Z</time>
      </trkpt>
      <trkpt lat="49.22194" lon="1.22635">
        <ele>6</ele>
        <time>2017-04-27T15:55:27Z</time>
      </trkpt>
      <trkpt lat="49.22197" lon="1.22634">
        <ele>6</ele>
        <time>2017-04-27T15:55:43Z</time>
      </trkpt>
      <trkpt lat="49.222" lon="1.22633">
        <ele>6</ele>
        <time>2017-04-27T15:55:43Z</time>
      </trkpt>
      <trkpt lat="49.22206" lon="1.22628">
        <ele>6</ele>
        <time>2017-04-27T15:55:43Z</time>
      </trkpt>
      <trkpt lat="49.22211" lon="1.22625">
        <ele>10</ele>
        <time>2017-04-27T15:55:43Z</time>
      </trkpt>
      <trkpt lat="49.22219" lon="1.22621">
        <ele>10</ele>
        <time>2017-04-27T15:55:59Z</time>
      </trkpt>
      <trkpt lat="49.22224" lon="1.2262">
        <ele>10</ele>
        <time>2017-04-27T15:55:59Z</time>
      </trkpt>
      <trkpt lat="49.2223" lon="1.22617">
        <ele>10</ele>
        <time>2017-04-27T15:55:59Z</time>
      </trkpt>
      <trkpt lat="49.22232" lon="1.22615">
        <ele>10</ele>
        <time>2017-04-27T15:55:59Z</time>
      </trkpt>
      <trkpt lat="49.22238" lon="1.22613">
        <ele>10</ele>
        <time>2017-04-27T15:56:15Z</time>
      </trkpt>
      <trkpt lat="49.22242" lon="1.2261">
        <ele>10</ele>
        <time>2017-04-27T15:56:15Z</time>
      </trkpt>
      <trkpt lat="49.22248" lon="1.22608">
        <ele>10</ele>
        <time>2017-04-27T15:56:15Z</time>
      </trkpt>
      <trkpt lat="49.22252" lon="1.22603">
        <ele>10</ele>
        <time>2017-04-27T15:56:15Z</time>
      </trkpt>
      <trkpt lat="49.22258" lon="1.22599">
        <ele>10</ele>
        <time>2017-04-27T15:56:31Z</time>
      </trkpt>
      <trkpt lat="49.22263" lon="1.22598">
        <ele>10</ele>
        <time>2017-04-27T15:56:31Z</time>
      </trkpt>
      <trkpt lat="49.22266" lon="1.22598">
        <ele>10</ele>
        <time>2017-04-27T15:56:31Z</time>
      </trkpt>
      <trkpt lat="49.22271" lon="1.22598">
        <ele>10</ele>
        <time>2017-04-27T15:56:31Z</time>
      </trkpt>
      <trkpt lat="49.22275" lon="1.22596">
        <ele>10</ele>
        <time>2017-04-27T15:56:47Z</time>
      </trkpt>
      <trkpt lat="49.2228" lon="1.22592">
        <ele>10</ele>
        <time>2017-04-27T15:56:47Z</time>
      </trkpt>
      <trkpt lat="49.22283" lon="1.22588">
        <ele>10</ele>
        <time>2017-04-27T15:56:47Z</time>
      </trkpt>
      <trkpt lat="49.22287" lon="1.22585">
        <ele>10</ele>
        <time>2017-04-27T15:56:47Z</time>
      </trkpt>
      <trkpt lat="49.22293" lon="1.22583">
        <ele>10</ele>
        <time>2017-04-27T15:57:03Z</time>
      </trkpt>
      <trkpt lat="49.223" lon="1.22583">
        <ele>10</ele>
        <time>2017-04-27T15:57:03Z</time>
      </trkpt>
      <trkpt lat="49.22303" lon="1.2258">
        <ele>10</ele>
        <time>2017-04-27T15:57:03Z</time>
      </trkpt>
      <trkpt lat="49.22307" lon="1.22578">
        <ele>10</ele>
        <time>2017-04-27T15:57:03Z</time>
      </trkpt>
      <trkpt lat="49.2231" lon="1.22577">
        <ele>10</ele>
        <time>2017-04-27T15:57:19Z</time>
      </trkpt>
      <trkpt lat="49.22314" lon="1.22575">
        <ele>10</ele>
        <time>2017-04-27T15:57:19Z</time>
      </trkpt>
      <trkpt lat="49.22318" lon="1.22574">
        <ele>10</ele>
        <time>2017-04-27T15:57:19Z</time>
      </trkpt>
      <trkpt lat="49.22325" lon="1.2257">
        <ele>10</ele>
        <time>2017-04-27T15:57:19Z</time>
      </trkpt>
      <trkpt lat="49.22329" lon="1.22569">
        <ele>10</ele>
        <time>2017-04-27T15:57:35Z</time>
      </trkpt>
      <trkpt lat="49.22334" lon="1.22568">
        <ele>10</ele>
        <time>2017-04-27T15:57:35Z</time>
      </trkpt>
      <trkpt lat="49.22339" lon="1.22565">
        <ele>10</ele>
        <time>2017-04-27T15:57:35Z</time>
      </trkpt>
      <trkpt lat="49.22344" lon="1.22565">
        <ele>10</ele>
        <time>2017-04-27T15:57:35Z</time>
      </trkpt>
      <trkpt lat="49.22346" lon="1.22561">
        <ele>10</ele>
        <time>2017-04-27T15:57:51Z</time>
      </trkpt>
      <trkpt lat="49.2235" lon="1.22559">
        <ele>10</ele>
        <time>2017-04-27T15:57:51Z</time>
      </trkpt>
      <trkpt lat="49.22355" lon="1.22559">
        <ele>10</ele>
        <time>2017-04-27T15:57:51Z</time>
      </trkpt>
      <trkpt lat="49.22361" lon="1.22558">
        <ele>10</ele>
        <time>2017-04-27T15:57:51Z</time>
      </trkpt>
      <trkpt lat="49.22365" lon="1.22557">
        <ele>10</ele>
        <time>2017-04-27T15:58:07Z</time>
      </trkpt>
      <trkpt lat="49.22368" lon="1.22555">
        <ele>10</ele>
        <time>2017-04-27T15:58:07Z</time>
      </trkpt>
      <trkpt lat="49.22371" lon="1.22552">
        <ele>10</ele>
        <time>2017-04-27T15:58:07Z</time>
      </trkpt>
      <trkpt lat="49.22375" lon="1.2255">
        <ele>10</ele>
        <time>2017-04-27T15:58:07Z</time>
      </trkpt>
      <trkpt lat="49.22383" lon="1.2255">
        <ele>6</ele>
        <time>2017-04-27T15:58:23Z</time>
      </trkpt>
      <trkpt lat="49.22388" lon="1.22548">
        <ele>6</ele>
        <time>2017-04-27T15:58:23Z</time>
      </trkpt>
      <trkpt lat="49.22394" lon="1.22548">
        <ele>6</ele>
        <time>2017-04-27T15:58:23Z</time>
      </trkpt>
      <trkpt lat="49.22399" lon="1.22547">
        <ele>6</ele>
        <time>2017-04-27T15:58:23Z</time>
      </trkpt>
      <trkpt lat="49.22401" lon="1.22547">
        <ele>6</ele>
        <time>2017-04-27T15:58:39Z</time>
      </trkpt>
      <trkpt lat="49.22406" lon="1.22545">
        <ele>6</ele>
        <time>2017-04-27T15:58:39Z</time>
      </trkpt>
      <trkpt lat="49.22411" lon="1.22542">
        <ele>6</ele>
        <time>2017-04-27T15:58:39Z</time>
      </trkpt>
      <trkpt lat="49.22418" lon="1.2254">
        <ele>12</ele>
        <time>2017-04-27T15:58:39Z</time>
      </trkpt>
      <trkpt lat="49.22423" lon="1.22539">
        <ele>12</ele>
        <time>2017-04-27T15:58:55Z</time>
      </trkpt>
      <trkpt lat="49.22428" lon="1.22536">
        <ele>12</ele>
        <time>2017-04-27T15:58:55Z</time>
      </trkpt>
      <trkpt lat="49.22431" lon="1.22534">
        <ele>12</ele>
        <time>2017-04-27T15:58:55Z</time>
      </trkpt>
      <trkpt lat="49.22434" lon="1.22532">
        <ele>12</ele>
        <time>2017-04-27T15:58:55Z</time>
      </trkpt>
      <trkpt lat="49.22439" lon="1.22531">
        <ele>12</ele>
        <time>2017-04-27T15:59:11Z</time>
      </trkpt>
      <trkpt lat="49.22447" lon="1.22529">
        <ele>12</ele>
        <time>2017-04-27T15:59:11Z</time>
      </trkpt>
      <trkpt lat="49.22455" lon="1.22529">
        <ele>12</ele>
        <time>2017-04-27T15:59:11Z</time>
      </trkpt>
      <trkpt lat="49.22458" lon="1.22529">
        <ele>12</ele>
        <time>2017-04-27T15:59:11Z</time>
      </trkpt>
      <trkpt lat="49.22461" lon="1.22527">
        <ele>12</ele>
        <time>2017-04-27T15:59:27Z</time>
      </trkpt>
      <trkpt lat="49.22465" lon="1.22525">
        <ele>12</ele>
        <time>2017-04-27T15:59:27Z</time>
      </trkpt>
      <trkpt lat="49.2247" lon="1.22524">
        <ele>12</ele>
        <time>2017-04-27T15:59:27Z</time>
      </trkpt>
      <trkpt lat="49.22475" lon="1.22522">
        <ele>12</ele>
        <time>2017-04-27T15:59:27Z</time>
      </trkpt>
      <trkpt lat="49.22479" lon="1.2252">
        <ele>12</ele>
        <time>2017-04-27T15:59:43Z</time>
      </trkpt>
      <trkpt lat="49.22482" lon="1.22518">
        <ele>12</ele>
        <time>2017-04-27T15:59:43Z</time>
      </trkpt>
      <trkpt lat="49.22487" lon="1.22515">
        <ele>12</ele>
        <time>2017-04-27T15:59:43Z</time>
      </trkpt>
      <trkpt lat="49.2249" lon="1.22514">
        <ele>12</ele>
        <time>2017-04-27T15:59:43Z</time>
      </trkpt>
      <trkpt lat="49.22496" lon="1.22513">
        <ele>12</ele>
        <time>2017-04-27T15:59:59Z</time>
      </trkpt>
      <trkpt lat="49.22503" lon="1.22512">
        <ele>12</ele>
        <time>2017-04-27T15:59:59Z</time>
      </trkpt>
      <trkpt lat="49.22509" lon="1.2251">
        <ele>12</ele>
        <time>2017-04-27T15:59:59Z</time>
      </trkpt>
      <trkpt lat="49.22515" lon="1.22507">
        <ele>12</ele>
        <time>2017-04-27T15:59:59Z</time>
      </trkpt>
      <trkpt lat="49.2252" lon="1.22505">
        <ele>12</ele>
        <time>2017-04-27T16:00:15Z</time>
      </trkpt>
      <trkpt lat="49.22525" lon="1.22504">
        <ele>12</ele>
        <time>2017-04-27T16:00:15Z</time>
      </trkpt>
      <trkpt lat="49.2253" lon="1.22504">
        <ele>12</ele>
        <time>2017-04-27T16:00:15Z</time>
      </trkpt>
      <trkpt lat="49.22534" lon="1.22503">
        <ele>12</ele>
        <time>2017-04-27T16:00:15Z</time>
      </trkpt>
      <trkpt lat="49.22537" lon="1.22505">
        <ele>12</ele>
        <time>2017-04-27T16:00:31Z</time>
      </trkpt>
      <trkpt lat="49.22544" lon="1.22505">
        <ele>6</ele>
        <time>2017-04-27T16:00:31Z</time>
      </trkpt>
      <trkpt lat="49.22548" lon="1.22504">
        <ele>6</ele>
        <time>2017-04-27T16:00:31Z</time>
      </trkpt>
      <trkpt lat="49.22553" lon="1.225">
        <ele>6</ele>
        <time>2017-04-27T16:00:31Z</time>
      </trkpt>
      <trkpt lat="49.22557" lon="1.22499">
        <ele>6</ele>
        <time>2017-04-27T16:00:47Z</time>
      </trkpt>
      <trkpt lat="49.22561" lon="1.22498">
        <ele>6</ele>
        <time>2017-04-27T16:00:47Z</time>
      </trkpt>
      <trkpt lat="49.22565" lon="1.22497">
        <ele>6</ele>
        <time>2017-04-27T16:00:47Z</time>
      </trkpt>
      <trkpt lat="49.22571" lon="1.22494">
        <ele>6</ele>
        <time>2017-04-27T16:00:47Z</time>
      </trkpt>
      <trkpt lat="49.22577" lon="1.22491">
        <ele>6</ele>
        <time>2017-04-27T16:01:03Z</time>
      </trkpt>
      <trkpt lat="49.22582" lon="1.22489">
        <ele>6</ele>
        <time>2017-04-27T16:01:03Z</time>
      </trkpt>
      <trkpt lat="49.22587" lon="1.22486">
        <ele>6</ele>
        <time>2017-04-27T16:01:03Z</time>
      </trkpt>
      <trkpt lat="49.22591" lon="1.22486">
        <ele>6</ele>
        <time>2017-04-27T16:01:03Z</time>
      </trkpt>
      <trkpt lat="49.22597" lon="1.22484">
        <ele>6</ele>
        <time>2017-04-27T16:01:19Z</time>
      </trkpt>
      <trkpt lat="49.22606" lon="1.22482">
        <ele>6</ele>
        <time>2017-04-27T16:01:19Z</time>
      </trkpt>
      <trkpt lat="49.22609" lon="1.22482">
        <ele>6</ele>
        <time>2017-04-27T16:01:19Z</time>
      </trkpt>
      <trkpt lat="49.22613" lon="1.22481">
        <ele>6</ele>
        <time>2017-04-27T16:01:19Z</time>
      </trkpt>
      <trkpt lat="49.22616" lon="1.2248">
        <ele>6</ele>
        <time>2017-04-27T16:01:35Z</time>
      </trkpt>
      <trkpt lat="49.2262" lon="1.22479">
        <ele>6</ele>
        <time>2017-04-27T16:01:35Z</time>
      </trkpt>
      <trkpt lat="49.22625" lon="1.22477">
        <ele>6</ele>
        <time>2017-04-27T16:01:35Z</time>
      </trkpt>
      <trkpt lat="49.22629" lon="1.22476">
        <ele>6</ele>
        <time>2017-04-27T16:01:35Z</time>
      </trkpt>
      <trkpt lat="49.22633" lon="1.22476">
        <ele>6</ele>
        <time>2017-04-27T16:01:51Z</time>
      </trkpt>
      <trkpt lat="49.22638" lon="1.22477">
        <ele>6</ele>
        <time>2017-04-27T16:01:51Z</time>
      </trkpt>
      <trkpt lat="49.22645" lon="1.22479">
        <ele>6</ele>
        <time>2017-04-27T16:01:51Z</time>
      </trkpt>
      <trkpt lat="49.2265" lon="1.22481">
        <ele>6</ele>
        <time>2017-04-27T16:01:51Z</time>
      </trkpt>
      <trkpt lat="49.22654" lon="1.22481">
        <ele>6</ele>
        <time>2017-04-27T16:02:07Z</time>
      </trkpt>
      <trkpt lat="49.22659" lon="1.22482">
        <ele>6</ele>
        <time>2017-04-27T16:02:07Z</time>
      </trkpt>
      <trkpt lat="49.22664" lon="1.22482">
        <ele>6</ele>
        <time>2017-04-27T16:02:07Z</time>
      </trkpt>
      <trkpt lat="49.22669" lon="1.22483">
        <ele>6</ele>
        <time>2017-04-27T16:02:07Z</time>
      </trkpt>
      <trkpt lat="49.22674" lon="1.22483">
        <ele>6</ele>
        <time>2017-04-27T16:02:23Z</time>
      </trkpt>
      <trkpt lat="49.22679" lon="1.22483">
        <ele>6</ele>
        <time>2017-04-27T16:02:23Z</time>
      </trkpt>
      <trkpt lat="49.22685" lon="1.22483">
        <ele>6</ele>
        <time>2017-04-27T16:02:23Z</time>
      </trkpt>
      <trkpt lat="49.22691" lon="1.22483">
        <ele>6</ele>
        <time>2017-04-27T16:02:23Z</time>
      </trkpt>
      <trkpt lat="49.22696" lon="1.22484">
        <ele>6</ele>
        <time>2017-04-27T16:02:39Z</time>
      </trkpt>
      <trkpt lat="49.22702" lon="1.22485">
        <ele>6</ele>
        <time>2017-04-27T16:02:39Z</time>
      </trkpt>
      <trkpt lat="49.22708" lon="1.22486">
        <ele>6</ele>
        <time>2017-04-27T16:02:39Z</time>
      </trkpt>
      <trkpt lat="49.22713" lon="1.22486">
        <ele>6</ele>
        <time>2017-04-27T16:02:39Z</time>
      </trkpt>
      <trkpt lat="49.22717" lon="1.22486">
        <ele>6</ele>
        <time>2017-04-27T16:02:55Z</time>
      </trkpt>
      <trkpt lat="49.22722" lon="1.22486">
        <ele>6</ele>
        <time>2017-04-27T16:02:55Z</time>
      </trkpt>
      <trkpt lat="49.22727" lon="1.22485">
        <ele>6</ele>
        <time>2017-04-27T16:02:55Z</time>
      </trkpt>
      <trkpt lat="49.22731" lon="1.22487">
        <ele>6</ele>
        <time>2017-04-27T16:02:55Z</time>
      </trkpt>
      <trkpt lat="49.22735" lon="1.22487">
        <ele>6</ele>
        <time>2017-04-27T16:03:11Z</time>
      </trkpt>
      <trkpt lat="49.2274" lon="1.22487">
        <ele>6</ele>
        <time>2017-04-27T16:03:11Z</time>
      </trkpt>
      <trkpt lat="49.22745" lon="1.22487">
        <ele>6</ele>
        <time>2017-04-27T16:03:11Z</time>
      </trkpt>
      <trkpt lat="49.2275" lon="1.22489">
        <ele>6</ele>
        <time>2017-04-27T16:03:11Z</time>
      </trkpt>
      <trkpt lat="49.22755" lon="1.22491">
        <ele>6</ele>
        <time>2017-04-27T16:03:27Z</time>
      </trkpt>
      <trkpt lat="49.22761" lon="1.22491">
        <ele>6</ele>
        <time>2017-04-27T16:03:27Z</time>
      </trkpt>
      <trkpt lat="49.22767" lon="1.22492">
        <ele>6</ele>
        <time>2017-04-27T16:03:27Z</time>
      </trkpt>
      <trkpt lat="49.22774" lon="1.22493">
        <ele>6</ele>
        <time>2017-04-27T16:03:27Z</time>
      </trkpt>
      <trkpt lat="49.22779" lon="1.22495">
        <ele>6</ele>
        <time>2017-04-27T16:03:43Z</time>
      </trkpt>
      <trkpt lat="49.22781" lon="1.22495">
        <ele>6</ele>
        <time>2017-04-27T16:03:43Z</time>
      </trkpt>
      <trkpt lat="49.22785" lon="1.22495">
        <ele>6</ele>
        <time>2017-04-27T16:03:43Z</time>
      </trkpt>
      <trkpt lat="49.22792" lon="1.22496">
        <ele>12</ele>
        <time>2017-04-27T16:03:43Z</time>
      </trkpt>
      <trkpt lat="49.22799" lon="1.22498">
        <ele>12</ele>
        <time>2017-04-27T16:03:59Z</time>
      </trkpt>
      <trkpt lat="49.22803" lon="1.225">
        <ele>12</ele>
        <time>2017-04-27T16:03:59Z</time>
      </trkpt>
      <trkpt lat="49.22807" lon="1.22501">
        <ele>12</ele>
        <time>2017-04-27T16:03:59Z</time>
      </trkpt>
      <trkpt lat="49.22811" lon="1.22502">
        <ele>12</ele>
        <time>2017-04-27T16:03:59Z</time>
      </trkpt>
      <trkpt lat="49.22817" lon="1.22502">
        <ele>12</ele>
        <time>2017-04-27T16:04:15Z</time>
      </trkpt>
      <trkpt lat="49.22823" lon="1.22502">
        <ele>12</ele>
        <time>2017-04-27T16:04:15Z</time>
      </trkpt>
      <trkpt lat="49.22828" lon="1.22504">
        <ele>12</ele>
        <time>2017-04-27T16:04:15Z</time>
      </trkpt>
      <trkpt lat="49.22832" lon="1.22505">
        <ele>12</ele>
        <time>2017-04-27T16:04:15Z</time>
      </trkpt>
      <trkpt lat="49.22837" lon="1.22506">
        <ele>12</ele>
        <time>2017-04-27T16:04:31Z</time>
      </trkpt>
      <trkpt lat="49.22841" lon="1.22506">
        <ele>12</ele>
        <time>2017-04-27T16:04:31Z</time>
      </trkpt>
      <trkpt lat="49.22847" lon="1.22506">
        <ele>12</ele>
        <time>2017-04-27T16:04:31Z</time>
      </trkpt>
      <trkpt lat="49.22852" lon="1.22509">
        <ele>12</ele>
        <time>2017-04-27T16:04:31Z</time>
      </trkpt>
      <trkpt lat="49.22857" lon="1.2251">
        <ele>12</ele>
        <time>2017-04-27T16:04:47Z</time>
      </trkpt>
      <trkpt lat="49.22862" lon="1.22509">
        <ele>12</ele>
        <time>2017-04-27T16:04:47Z</time>
      </trkpt>
      <trkpt lat="49.22867" lon="1.2251">
        <ele>12</ele>
        <time>2017-04-27T16:04:47Z</time>
      </trkpt>
      <trkpt lat="49.22872" lon="1.2251">
        <ele>12</ele>
        <time>2017-04-27T16:04:47Z</time>
      </trkpt>
      <trkpt lat="49.22879" lon="1.22512">
        <ele>11</ele>
        <time>2017-04-27T16:05:03Z</time>
      </trkpt>
      <trkpt lat="49.22883" lon="1.22513">
        <ele>11</ele>
        <time>2017-04-27T16:05:03Z</time>
      </trkpt>
      <trkpt lat="49.22886" lon="1.22512">
        <ele>11</ele>
        <time>2017-04-27T16:05:03Z</time>
      </trkpt>
      <trkpt lat="49.2289" lon="1.22513">
        <ele>11</ele>
        <time>2017-04-27T16:05:03Z</time>
      </trkpt>
      <trkpt lat="49.22896" lon="1.22514">
        <ele>11</ele>
        <time>2017-04-27T16:05:19Z</time>
      </trkpt>
      <trkpt lat="49.22902" lon="1.22515">
        <ele>11</ele>
        <time>2017-04-27T16:05:19Z</time>
      </trkpt>
      <trkpt lat="49.22907" lon="1.22516">
        <ele>11</ele>
        <time>2017-04-27T16:05:19Z</time>
      </trkpt>
      <trkpt lat="49.2291" lon="1.22514">
        <ele>11</ele>
        <time>2017-04-27T16:05:19Z</time>
      </trkpt>
      <trkpt lat="49.22915" lon="1.22511">
        <ele>11</ele>
        <time>2017-04-27T16:05:35Z</time>
      </trkpt>
      <trkpt lat="49.22919" lon="1.22505">
        <ele>11</ele>
        <time>2017-04-27T16:05:35Z</time>
      </trkpt>
      <trkpt lat="49.2292" lon="1.22498">
        <ele>11</ele>
        <time>2017-04-27T16:05:35Z</time>
      </trkpt>
      <trkpt lat="49.2292" lon="1.22491">
        <ele>11</ele>
        <time>2017-04-27T16:05:35Z</time>
      </trkpt>
      <trkpt lat="49.22919" lon="1.22483">
        <ele>11</ele>
        <time>2017-04-27T16:05:51Z</time>
      </trkpt>
      <trkpt lat="49.22919" lon="1.22476">
        <ele>11</ele>
        <time>2017-04-27T16:05:51Z</time>
      </trkpt>
      <trkpt lat="49.22918" lon="1.2247">
        <ele>11</ele>
        <time>2017-04-27T16:05:51Z</time>
      </trkpt>
      <trkpt lat="49.22916" lon="1.22462">
        <ele>11</ele>
        <time>2017-04-27T16:05:51Z</time>
      </trkpt>
      <trkpt lat="49.22915" lon="1.22456">
        <ele>11</ele>
        <time>2017-04-27T16:06:07Z</time>
      </trkpt>
      <trkpt lat="49.22913" lon="1.22449">
        <ele>11</ele>
        <time>2017-04-27T16:06:07Z</time>
      </trkpt>
      <trkpt lat="49.22913" lon="1.22441">
        <ele>11</ele>
        <time>2017-04-27T16:06:07Z</time>
      </trkpt>
      <trkpt lat="49.22914" lon="1.22432">
        <ele>11</ele>
        <time>2017-04-27T16:06:07Z</time>
      </trkpt>
      <trkpt lat="49.22914" lon="1.22425">
        <ele>11</ele>
        <time>2017-04-27T16:06:23Z</time>
      </trkpt>
      <trkpt lat="49.22914" lon="1.22416">
        <ele>11</ele>
        <time>2017-04-27T16:06:23Z</time>
      </trkpt>
      <trkpt lat="49.22914" lon="1.2241">
        <ele>11</ele>
        <time>2017-04-27T16:06:23Z</time>
      </trkpt>
      <trkpt lat="49.22916" lon="1.22403">
        <ele>11</ele>
        <time>2017-04-27T16:06:23Z</time>
      </trkpt>
      <trkpt lat="49.2292" lon="1.22397">
        <ele>11</ele>
        <time>2017-04-27T16:06:39Z</time>
      </trkpt>
      <trkpt lat="49.22927" lon="1.22391">
        <ele>11</ele>
        <time>2017-04-27T16:06:39Z</time>
      </trkpt>
      <trkpt lat="49.22933" lon="1.22392">
        <ele>11</ele>
        <time>2017-04-27T16:06:39Z</time>
      </trkpt>
      <trkpt lat="49.22938" lon="1.22393">
        <ele>11</ele>
        <time>2017-04-27T16:06:39Z</time>
      </trkpt>
      <trkpt lat="49.22941" lon="1.22394">
        <ele>11</ele>
        <time>2017-04-27T16:06:55Z</time>
      </trkpt>
      <trkpt lat="49.22945" lon="1.22395">
        <ele>11</ele>
        <time>2017-04-27T16:06:55Z</time>
      </trkpt>
      <trkpt lat="49.22949" lon="1.22394">
        <ele>11</ele>
        <time>2017-04-27T16:06:55Z</time>
      </trkpt>
      <trkpt lat="49.22954" lon="1.22394">
        <ele>11</ele>
        <time>2017-04-27T16:06:55Z</time>
      </trkpt>
      <trkpt lat="49.22958" lon="1.22394">
        <ele>11</ele>
        <time>2017-04-27T16:07:11Z</time>
      </trkpt>
      <trkpt lat="49.22964" lon="1.22394">
        <ele>11</ele>
        <time>2017-04-27T16:07:11Z</time>
      </trkpt>
      <trkpt lat="49.22968" lon="1.22394">
        <ele>11</ele>
        <time>2017-04-27T16:07:11Z</time>
      </trkpt>
      <trkpt lat="49.22973" lon="1.22394">
        <ele>11</ele>
        <time>2017-04-27T16:07:11Z</time>
      </trkpt>
      <trkpt lat="49.22979" lon="1.22394">
        <ele>11</ele>
        <time>2017-04-27T16:07:27Z</time>
      </trkpt>
      <trkpt lat="49.22985" lon="1.22395">
        <ele>11</ele>
        <time>2017-04-27T16:07:27Z</time>
      </trkpt>
      <trkpt lat="49.22989" lon="1.22395">
        <ele>11</ele>
        <time>2017-04-27T16:07:27Z</time>
      </trkpt>
      <trkpt lat="49.22995" lon="1.22395">
        <ele>11</ele>
        <time>2017-04-27T16:07:27Z</time>
      </trkpt>
      <trkpt lat="49.22999" lon="1.22395">
        <ele>11</ele>
        <time>2017-04-27T16:07:43Z</time>
      </trkpt>
      <trkpt lat="49.23003" lon="1.22395">
        <ele>11</ele>
        <time>2017-04-27T16:07:43Z</time>
      </trkpt>
      <trkpt lat="49.23008" lon="1.22394">
        <ele>11</ele>
        <time>2017-04-27T16:07:43Z</time>
      </trkpt>
      <trkpt lat="49.23013" lon="1.22394">
        <ele>11</ele>
        <time>2017-04-27T16:07:43Z</time>
      </trkpt>
      <trkpt lat="49.23018" lon="1.22394">
        <ele>11</ele>
        <time>2017-04-27T16:07:59Z</time>
      </trkpt>
      <trkpt lat="49.23024" lon="1.22394">
        <ele>11</ele>
        <time>2017-04-27T16:07:59Z</time>
      </trkpt>
      <trkpt lat="49.23029" lon="1.22396">
        <ele>11</ele>
        <time>2017-04-27T16:07:59Z</time>
      </trkpt>
      <trkpt lat="49.23035" lon="1.22397">
        <ele>11</ele>
        <time>2017-04-27T16:07:59Z</time>
      </trkpt>
      <trkpt lat="49.2304" lon="1.22397">
        <ele>11</ele>
        <time>2017-04-27T16:08:15Z</time>
      </trkpt>
      <trkpt lat="49.23042" lon="1.22397">
        <ele>12</ele>
        <time>2017-04-27T16:08:15Z</time>
      </trkpt>
      <trkpt lat="49.23047" lon="1.22397">
        <ele>12</ele>
        <time>2017-04-27T16:08:15Z</time>
      </trkpt>
      <trkpt lat="49.23053" lon="1.22397">
        <ele>12</ele>
        <time>2017-04-27T16:08:15Z</time>
      </trkpt>
      <trkpt lat="49.23059" lon="1.22398">
        <ele>12</ele>
        <time>2017-04-27T16:08:31Z</time>
      </trkpt>
      <trkpt lat="49.23064" lon="1.22399">
        <ele>12</ele>
        <time>2017-04-27T16:08:31Z</time>
      </trkpt>
      <trkpt lat="49.2307" lon="1.22399">
        <ele>12</ele>
        <time>2017-04-27T16:08:31Z</time>
      </trkpt>
      <trkpt lat="49.23075" lon="1.22399">
        <ele>12</ele>
        <time>2017-04-27T16:08:31Z</time>
      </trkpt>
      <trkpt lat="49.23079" lon="1.22399">
        <ele>12</ele>
        <time>2017-04-27T16:08:47Z</time>
      </trkpt>
      <trkpt lat="49.23085" lon="1.22398">
        <ele>12</ele>
        <time>2017-04-27T16:08:47Z</time>
      </trkpt>
      <trkpt lat="49.23088" lon="1.22399">
        <ele>12</ele>
        <time>2017-04-27T16:08:47Z</time>
      </trkpt>
      <trkpt lat="49.23094" lon="1.22399">
        <ele>12</ele>
        <time>2017-04-27T16:08:47Z</time>
      </trkpt>
      <trkpt lat="49.23098" lon="1.22398">
        <ele>12</ele>
        <time>2017-04-27T16:09:03Z</time>
      </trkpt>
      <trkpt lat="49.23104" lon="1.22398">
        <ele>12</ele>
        <time>2017-04-27T16:09:03Z</time>
      </trkpt>
      <trkpt lat="49.23111" lon="1.22399">
        <ele>12</ele>
        <time>2017-04-27T16:09:03Z</time>
      </trkpt>
      <trkpt lat="49.23115" lon="1.224">
        <ele>12</ele>
        <time>2017-04-27T16:09:03Z</time>
      </trkpt>
      <trkpt lat="49.23119" lon="1.22401">
        <ele>12</ele>
        <time>2017-04-27T16:09:19Z</time>
      </trkpt>
      <trkpt lat="49.23124" lon="1.22402">
        <ele>12</ele>
        <time>2017-04-27T16:09:19Z</time>
      </trkpt>
      <trkpt lat="49.23129" lon="1.22402">
        <ele>13</ele>
        <time>2017-04-27T16:09:19Z</time>
      </trkpt>
      <trkpt lat="49.23134" lon="1.22402">
        <ele>13</ele>
        <time>2017-04-27T16:09:19Z</time>
      </trkpt>
      <trkpt lat="49.23138" lon="1.22403">
        <ele>13</ele>
        <time>2017-04-27T16:09:35Z</time>
      </trkpt>
      <trkpt lat="49.23142" lon="1.22404">
        <ele>13</ele>
        <time>2017-04-27T16:09:35Z</time>
      </trkpt>
      <trkpt lat="49.23146" lon="1.22406">
        <ele>13</ele>
        <time>2017-04-27T16:09:35Z</time>
      </trkpt>
      <trkpt lat="49.23152" lon="1.22406">
        <ele>13</ele>
        <time>2017-04-27T16:09:35Z</time>
      </trkpt>
      <trkpt lat="49.23156" lon="1.22406">
        <ele>13</ele>
        <time>2017-04-27T16:09:51Z</time>
      </trkpt>
      <trkpt lat="49.23161" lon="1.22406">
        <ele>13</ele>
        <time>2017-04-27T16:09:51Z</time>
      </trkpt>
      <trkpt lat="49.23166" lon="1.22408">
        <ele>13</ele>
        <time>2017-04-27T16:09:51Z</time>
      </trkpt>
      <trkpt lat="49.23169" lon="1.22409">
        <ele>13</ele>
        <time>2017-04-27T16:09:51Z</time>
      </trkpt>
      <trkpt lat="49.23175" lon="1.2241">
        <ele>13</ele>
        <time>2017-04-27T16:10:07Z</time>
      </trkpt>
      <trkpt lat="49.23179" lon="1.2241">
        <ele>13</ele>
        <time>2017-04-27T16:10:07Z</time>
      </trkpt>
      <trkpt lat="49.23185" lon="1.22411">
        <ele>13</ele>
        <time>2017-04-27T16:10:07Z</time>
      </trkpt>
      <trkpt lat="49.2319" lon="1.22413">
        <ele>13</ele>
        <time>2017-04-27T16:10:07Z</time>
      </trkpt>
      <trkpt lat="49.23193" lon="1.22414">
        <ele>13</ele>
        <time>2017-04-27T16:10:23Z</time>
      </trkpt>
      <trkpt lat="49.23197" lon="1.22415">
        <ele>13</ele>
        <time>2017-04-27T16:10:23Z</time>
      </trkpt>
      <trkpt lat="49.23203" lon="1.22417">
        <ele>13</ele>
        <time>2017-04-27T16:10:23Z</time>
      </trkpt>
      <trkpt lat="49.23207" lon="1.22418">
        <ele>13</ele>
        <time>2017-04-27T16:10:23Z</time>
      </trkpt>
      <trkpt lat="49.23212" lon="1.2242">
        <ele>13</ele>
        <time>2017-04-27T16:10:39Z</time>
      </trkpt>
      <trkpt lat="49.23217" lon="1.22422">
        <ele>13</ele>
        <time>2017-04-27T16:10:39Z</time>
      </trkpt>
      <trkpt lat="49.23221" lon="1.22422">
        <ele>13</ele>
        <time>2017-04-27T16:10:39Z</time>
      </trkpt>
      <trkpt lat="49.23225" lon="1.22424">
        <ele>13</ele>
        <time>2017-04-27T16:10:39Z</time>
      </trkpt>
      <trkpt lat="49.23231" lon="1.22426">
        <ele>13</ele>
        <time>2017-04-27T16:10:55Z</time>
      </trkpt>
      <trkpt lat="49.23237" lon="1.22429">
        <ele>13</ele>
        <time>2017-04-27T16:10:55Z</time>
      </trkpt>
      <trkpt lat="49.23242" lon="1.2243">
        <ele>13</ele>
        <time>2017-04-27T16:10:55Z</time>
      </trkpt>
      <trkpt lat="49.23246" lon="1.22431">
        <ele>13</ele>
        <time>2017-04-27T16:10:55Z</time>
      </trkpt>
      <trkpt lat="49.2325" lon="1.22432">
        <ele>13</ele>
        <time>2017-04-27T16:11:11Z</time>
      </trkpt>
      <trkpt lat="49.23255" lon="1.22433">
        <ele>13</ele>
        <time>2017-04-27T16:11:11Z</time>
      </trkpt>
      <trkpt lat="49.23258" lon="1.22434">
        <ele>13</ele>
        <time>2017-04-27T16:11:11Z</time>
      </trkpt>
      <trkpt lat="49.23263" lon="1.22435">
        <ele>13</ele>
        <time>2017-04-27T16:11:11Z</time>
      </trkpt>
      <trkpt lat="49.23267" lon="1.22437">
        <ele>13</ele>
        <time>2017-04-27T16:11:27Z</time>
      </trkpt>
      <trkpt lat="49.23273" lon="1.22439">
        <ele>13</ele>
        <time>2017-04-27T16:11:27Z</time>
      </trkpt>
      <trkpt lat="49.23279" lon="1.22442">
        <ele>13</ele>
        <time>2017-04-27T16:11:27Z</time>
      </trkpt>
      <trkpt lat="49.23283" lon="1.22442">
        <ele>13</ele>
        <time>2017-04-27T16:11:27Z</time>
      </trkpt>
      <trkpt lat="49.23289" lon="1.22443">
        <ele>13</ele>
        <time>2017-04-27T16:11:43Z</time>
      </trkpt>
      <trkpt lat="49.23293" lon="1.22445">
        <ele>13</ele>
        <time>2017-04-27T16:11:43Z</time>
      </trkpt>
      <trkpt lat="49.23298" lon="1.22446">
        <ele>13</ele>
        <time>2017-04-27T16:11:43Z</time>
      </trkpt>
      <trkpt lat="49.23302" lon="1.22448">
        <ele>13</ele>
        <time>2017-04-27T16:11:43Z</time>
      </trkpt>
      <trkpt lat="49.23306" lon="1.22449">
        <ele>13</ele>
        <time>2017-04-27T16:11:59Z</time>
      </trkpt>
      <trkpt lat="49.23311" lon="1.22451">
        <ele>13</ele>
        <time>2017-04-27T16:11:59Z</time>
      </trkpt>
      <trkpt lat="49.23317" lon="1.22453">
        <ele>13</ele>
        <time>2017-04-27T16:11:59Z</time>
      </trkpt>
      <trkpt lat="49.23319" lon="1.22454">
        <ele>13</ele>
        <time>2017-04-27T16:11:59Z</time>
      </trkpt>
      <trkpt lat="49.23319" lon="1.22453">
        <ele>13</ele>
        <time>2017-04-27T16:12:15Z</time>
      </trkpt>
      <trkpt lat="49.23324" lon="1.22455">
        <ele>13</ele>
        <time>2017-04-27T16:12:15Z</time>
      </trkpt>
      <trkpt lat="49.23328" lon="1.22457">
        <ele>13</ele>
        <time>2017-04-27T16:12:15Z</time>
      </trkpt>
      <trkpt lat="49.23333" lon="1.22459">
        <ele>13</ele>
        <time>2017-04-27T16:12:15Z</time>
      </trkpt>
      <trkpt lat="49.23339" lon="1.22462">
        <ele>13</ele>
        <time>2017-04-27T16:12:31Z</time>
      </trkpt>
      <trkpt lat="49.23342" lon="1.22464">
        <ele>13</ele>
        <time>2017-04-27T16:12:31Z</time>
      </trkpt>
      <trkpt lat="49.23347" lon="1.22464">
        <ele>13</ele>
        <time>2017-04-27T16:12:31Z</time>
      </trkpt>
      <trkpt lat="49.23351" lon="1.22466">
        <ele>13</ele>
        <time>2017-04-27T16:12:31Z</time>
      </trkpt>
      <trkpt lat="49.23355" lon="1.22468">
        <ele>13</ele>
        <time>2017-04-27T16:12:47Z</time>
      </trkpt>
      <trkpt lat="49.23359" lon="1.22469">
        <ele>13</ele>
        <time>2017-04-27T16:12:47Z</time>
      </trkpt>
      <trkpt lat="49.23363" lon="1.2247">
        <ele>13</ele>
        <time>2017-04-27T16:12:47Z</time>
      </trkpt>
      <trkpt lat="49.23367" lon="1.22472">
        <ele>13</ele>
        <time>2017-04-27T16:12:47Z</time>
      </trkpt>
      <trkpt lat="49.23372" lon="1.22476">
        <ele>13</ele>
        <time>2017-04-27T16:13:03Z</time>
      </trkpt>
      <trkpt lat="49.23377" lon="1.2248">
        <ele>13</ele>
        <time>2017-04-27T16:13:03Z</time>
      </trkpt>
      <trkpt lat="49.23381" lon="1.22483">
        <ele>13</ele>
        <time>2017-04-27T16:13:03Z</time>
      </trkpt>
      <trkpt lat="49.23384" lon="1.22486">
        <ele>13</ele>
        <time>2017-04-27T16:13:03Z</time>
      </trkpt>
      <trkpt lat="49.23386" lon="1.22488">
        <ele>13</ele>
        <time>2017-04-27T16:13:19Z</time>
      </trkpt>
      <trkpt lat="49.23391" lon="1.22493">
        <ele>13</ele>
        <time>2017-04-27T16:13:19Z</time>
      </trkpt>
      <trkpt lat="49.23394" lon="1.22495">
        <ele>13</ele>
        <time>2017-04-27T16:13:19Z</time>
      </trkpt>
      <trkpt lat="49.23395" lon="1.22495">
        <ele>13</ele>
        <time>2017-04-27T16:13:19Z</time>
      </trkpt>
    </trkseg>
  </trk>
</gpx>